<?xml version="1.0" encoding="UTF-8" standalone="no" ?>
<gpx xmlns="http://www.topografix.com/GPX/1/1" creator="www.cicloide.com" version="1.1" xmlns:xsi="http://www.w3.org/2001/XMLSchema-instance" xsi:schemaLocation="http://www.topografix.com/GPX/1/1 http://www.topografix.com/GPX/1/1/gpx.xsd">
  <trk>
    <name>www.cicloide.com 11237</name>
    <desc>www.cicloide.com 11237</desc>
    <trkseg>
      <trkpt lat="42.461050000" lon="-2.464166000">
        <ele>401.20</ele>
        <time>2012-11-17T08:52:19Z</time>
      </trkpt>
      <trkpt lat="42.460835000" lon="-2.464163000">
        <ele>401.20</ele>
        <time>2012-11-17T08:52:21Z</time>
      </trkpt>
      <trkpt lat="42.460836000" lon="-2.464163000">
        <ele>401.20</ele>
        <time>2012-11-17T08:52:21Z</time>
      </trkpt>
      <trkpt lat="42.460856000" lon="-2.464159000">
        <ele>401.20</ele>
        <time>2012-11-17T08:52:26Z</time>
      </trkpt>
      <trkpt lat="42.460875000" lon="-2.464161000">
        <ele>401.20</ele>
        <time>2012-11-17T08:52:28Z</time>
      </trkpt>
      <trkpt lat="42.460900000" lon="-2.464154000">
        <ele>401.20</ele>
        <time>2012-11-17T08:52:31Z</time>
      </trkpt>
      <trkpt lat="42.460915000" lon="-2.464153000">
        <ele>401.20</ele>
        <time>2012-11-17T08:52:33Z</time>
      </trkpt>
      <trkpt lat="42.460921000" lon="-2.464151000">
        <ele>401.10</ele>
        <time>2012-11-17T08:52:35Z</time>
      </trkpt>
      <trkpt lat="42.460930000" lon="-2.464151000">
        <ele>401.10</ele>
        <time>2012-11-17T08:52:36Z</time>
      </trkpt>
      <trkpt lat="42.460933000" lon="-2.464149000">
        <ele>401.10</ele>
        <time>2012-11-17T08:52:38Z</time>
      </trkpt>
      <trkpt lat="42.460960000" lon="-2.464103000">
        <ele>401.10</ele>
        <time>2012-11-17T08:52:40Z</time>
      </trkpt>
      <trkpt lat="42.460968000" lon="-2.464059000">
        <ele>401.10</ele>
        <time>2012-11-17T08:52:42Z</time>
      </trkpt>
      <trkpt lat="42.461015000" lon="-2.463956000">
        <ele>401.00</ele>
        <time>2012-11-17T08:52:47Z</time>
      </trkpt>
      <trkpt lat="42.461043000" lon="-2.463834000">
        <ele>401.00</ele>
        <time>2012-11-17T08:52:50Z</time>
      </trkpt>
      <trkpt lat="42.461040000" lon="-2.463788000">
        <ele>401.00</ele>
        <time>2012-11-17T08:52:52Z</time>
      </trkpt>
      <trkpt lat="42.461030000" lon="-2.463766000">
        <ele>401.00</ele>
        <time>2012-11-17T08:52:54Z</time>
      </trkpt>
      <trkpt lat="42.461021000" lon="-2.463753000">
        <ele>401.00</ele>
        <time>2012-11-17T08:52:57Z</time>
      </trkpt>
      <trkpt lat="42.461016000" lon="-2.463744000">
        <ele>400.90</ele>
        <time>2012-11-17T08:52:57Z</time>
      </trkpt>
      <trkpt lat="42.461013000" lon="-2.463741000">
        <ele>400.90</ele>
        <time>2012-11-17T08:52:59Z</time>
      </trkpt>
      <trkpt lat="42.461005000" lon="-2.463736000">
        <ele>400.90</ele>
        <time>2012-11-17T08:53:01Z</time>
      </trkpt>
      <trkpt lat="42.460981000" lon="-2.463718000">
        <ele>400.80</ele>
        <time>2012-11-17T08:53:04Z</time>
      </trkpt>
      <trkpt lat="42.460966000" lon="-2.463706000">
        <ele>400.70</ele>
        <time>2012-11-17T08:53:06Z</time>
      </trkpt>
      <trkpt lat="42.460961000" lon="-2.463701000">
        <ele>400.70</ele>
        <time>2012-11-17T08:53:06Z</time>
      </trkpt>
      <trkpt lat="42.460956000" lon="-2.463693000">
        <ele>400.70</ele>
        <time>2012-11-17T08:53:08Z</time>
      </trkpt>
      <trkpt lat="42.460953000" lon="-2.463683000">
        <ele>400.60</ele>
        <time>2012-11-17T08:53:08Z</time>
      </trkpt>
      <trkpt lat="42.460940000" lon="-2.463668000">
        <ele>400.60</ele>
        <time>2012-11-17T08:53:11Z</time>
      </trkpt>
      <trkpt lat="42.460935000" lon="-2.463668000">
        <ele>400.50</ele>
        <time>2012-11-17T08:53:11Z</time>
      </trkpt>
      <trkpt lat="42.460930000" lon="-2.463673000">
        <ele>400.50</ele>
        <time>2012-11-17T08:53:13Z</time>
      </trkpt>
      <trkpt lat="42.460918000" lon="-2.463679000">
        <ele>400.60</ele>
        <time>2012-11-17T08:53:13Z</time>
      </trkpt>
      <trkpt lat="42.460568000" lon="-2.463688000">
        <ele>400.80</ele>
        <time>2012-11-17T08:53:24Z</time>
      </trkpt>
      <trkpt lat="42.460538000" lon="-2.463694000">
        <ele>400.80</ele>
        <time>2012-11-17T08:53:25Z</time>
      </trkpt>
      <trkpt lat="42.460086000" lon="-2.463821000">
        <ele>402.00</ele>
        <time>2012-11-17T08:53:43Z</time>
      </trkpt>
      <trkpt lat="42.460048000" lon="-2.463859000">
        <ele>402.10</ele>
        <time>2012-11-17T08:53:46Z</time>
      </trkpt>
      <trkpt lat="42.459981000" lon="-2.463903000">
        <ele>402.30</ele>
        <time>2012-11-17T08:53:50Z</time>
      </trkpt>
      <trkpt lat="42.459958000" lon="-2.463931000">
        <ele>402.30</ele>
        <time>2012-11-17T08:53:51Z</time>
      </trkpt>
      <trkpt lat="42.459838000" lon="-2.463974000">
        <ele>402.50</ele>
        <time>2012-11-17T08:53:58Z</time>
      </trkpt>
      <trkpt lat="42.459691000" lon="-2.463989000">
        <ele>402.80</ele>
        <time>2012-11-17T08:54:05Z</time>
      </trkpt>
      <trkpt lat="42.459610000" lon="-2.463981000">
        <ele>403.00</ele>
        <time>2012-11-17T08:54:09Z</time>
      </trkpt>
      <trkpt lat="42.459523000" lon="-2.463956000">
        <ele>403.30</ele>
        <time>2012-11-17T08:54:12Z</time>
      </trkpt>
      <trkpt lat="42.459455000" lon="-2.463924000">
        <ele>403.60</ele>
        <time>2012-11-17T08:54:16Z</time>
      </trkpt>
      <trkpt lat="42.459290000" lon="-2.463899000">
        <ele>404.30</ele>
        <time>2012-11-17T08:54:21Z</time>
      </trkpt>
      <trkpt lat="42.459253000" lon="-2.463904000">
        <ele>404.40</ele>
        <time>2012-11-17T08:54:23Z</time>
      </trkpt>
      <trkpt lat="42.459220000" lon="-2.463919000">
        <ele>404.50</ele>
        <time>2012-11-17T08:54:23Z</time>
      </trkpt>
      <trkpt lat="42.459196000" lon="-2.463943000">
        <ele>404.60</ele>
        <time>2012-11-17T08:54:24Z</time>
      </trkpt>
      <trkpt lat="42.459181000" lon="-2.463978000">
        <ele>404.60</ele>
        <time>2012-11-17T08:54:26Z</time>
      </trkpt>
      <trkpt lat="42.459111000" lon="-2.464536000">
        <ele>403.00</ele>
        <time>2012-11-17T08:54:42Z</time>
      </trkpt>
      <trkpt lat="42.459111000" lon="-2.464569000">
        <ele>402.80</ele>
        <time>2012-11-17T08:54:42Z</time>
      </trkpt>
      <trkpt lat="42.459126000" lon="-2.464709000">
        <ele>402.60</ele>
        <time>2012-11-17T08:54:47Z</time>
      </trkpt>
      <trkpt lat="42.459105000" lon="-2.464796000">
        <ele>402.70</ele>
        <time>2012-11-17T08:54:49Z</time>
      </trkpt>
      <trkpt lat="42.459090000" lon="-2.464889000">
        <ele>402.70</ele>
        <time>2012-11-17T08:54:52Z</time>
      </trkpt>
      <trkpt lat="42.459083000" lon="-2.464971000">
        <ele>402.70</ele>
        <time>2012-11-17T08:54:56Z</time>
      </trkpt>
      <trkpt lat="42.459076000" lon="-2.464993000">
        <ele>402.80</ele>
        <time>2012-11-17T08:54:56Z</time>
      </trkpt>
      <trkpt lat="42.459061000" lon="-2.465089000">
        <ele>402.80</ele>
        <time>2012-11-17T08:55:01Z</time>
      </trkpt>
      <trkpt lat="42.459055000" lon="-2.465109000">
        <ele>402.80</ele>
        <time>2012-11-17T08:55:01Z</time>
      </trkpt>
      <trkpt lat="42.459050000" lon="-2.465119000">
        <ele>402.80</ele>
        <time>2012-11-17T08:55:03Z</time>
      </trkpt>
      <trkpt lat="42.459050000" lon="-2.465128000">
        <ele>402.90</ele>
        <time>2012-11-17T08:55:05Z</time>
      </trkpt>
      <trkpt lat="42.459051000" lon="-2.465131000">
        <ele>402.90</ele>
        <time>2012-11-17T08:55:06Z</time>
      </trkpt>
      <trkpt lat="42.459050000" lon="-2.465144000">
        <ele>402.90</ele>
        <time>2012-11-17T08:55:08Z</time>
      </trkpt>
      <trkpt lat="42.459046000" lon="-2.465146000">
        <ele>402.90</ele>
        <time>2012-11-17T08:55:10Z</time>
      </trkpt>
      <trkpt lat="42.459046000" lon="-2.465151000">
        <ele>402.90</ele>
        <time>2012-11-17T08:55:12Z</time>
      </trkpt>
      <trkpt lat="42.459041000" lon="-2.465153000">
        <ele>402.90</ele>
        <time>2012-11-17T08:55:13Z</time>
      </trkpt>
      <trkpt lat="42.459040000" lon="-2.465156000">
        <ele>402.90</ele>
        <time>2012-11-17T08:55:13Z</time>
      </trkpt>
      <trkpt lat="42.459033000" lon="-2.465159000">
        <ele>402.90</ele>
        <time>2012-11-17T08:55:17Z</time>
      </trkpt>
      <trkpt lat="42.459030000" lon="-2.465163000">
        <ele>402.90</ele>
        <time>2012-11-17T08:55:18Z</time>
      </trkpt>
      <trkpt lat="42.459041000" lon="-2.465173000">
        <ele>402.90</ele>
        <time>2012-11-17T08:55:22Z</time>
      </trkpt>
      <trkpt lat="42.459035000" lon="-2.465168000">
        <ele>402.90</ele>
        <time>2012-11-17T08:55:27Z</time>
      </trkpt>
      <trkpt lat="42.459035000" lon="-2.465161000">
        <ele>402.90</ele>
        <time>2012-11-17T08:55:34Z</time>
      </trkpt>
      <trkpt lat="42.459031000" lon="-2.465159000">
        <ele>402.90</ele>
        <time>2012-11-17T08:55:36Z</time>
      </trkpt>
      <trkpt lat="42.459040000" lon="-2.465159000">
        <ele>402.90</ele>
        <time>2012-11-17T08:55:43Z</time>
      </trkpt>
      <trkpt lat="42.459053000" lon="-2.465168000">
        <ele>402.90</ele>
        <time>2012-11-17T08:55:48Z</time>
      </trkpt>
      <trkpt lat="42.459056000" lon="-2.465169000">
        <ele>402.90</ele>
        <time>2012-11-17T08:55:48Z</time>
      </trkpt>
      <trkpt lat="42.459060000" lon="-2.465171000">
        <ele>402.80</ele>
        <time>2012-11-17T08:55:50Z</time>
      </trkpt>
      <trkpt lat="42.459065000" lon="-2.465174000">
        <ele>402.80</ele>
        <time>2012-11-17T08:55:50Z</time>
      </trkpt>
      <trkpt lat="42.459091000" lon="-2.465184000">
        <ele>402.80</ele>
        <time>2012-11-17T08:55:55Z</time>
      </trkpt>
      <trkpt lat="42.459098000" lon="-2.465186000">
        <ele>402.70</ele>
        <time>2012-11-17T08:55:55Z</time>
      </trkpt>
      <trkpt lat="42.459115000" lon="-2.465183000">
        <ele>402.70</ele>
        <time>2012-11-17T08:55:59Z</time>
      </trkpt>
      <trkpt lat="42.459118000" lon="-2.465181000">
        <ele>402.60</ele>
        <time>2012-11-17T08:56:00Z</time>
      </trkpt>
      <trkpt lat="42.459125000" lon="-2.465179000">
        <ele>402.60</ele>
        <time>2012-11-17T08:56:00Z</time>
      </trkpt>
      <trkpt lat="42.459128000" lon="-2.465176000">
        <ele>402.60</ele>
        <time>2012-11-17T08:56:04Z</time>
      </trkpt>
      <trkpt lat="42.459133000" lon="-2.465176000">
        <ele>402.60</ele>
        <time>2012-11-17T08:56:07Z</time>
      </trkpt>
      <trkpt lat="42.459126000" lon="-2.465176000">
        <ele>402.60</ele>
        <time>2012-11-17T08:56:11Z</time>
      </trkpt>
      <trkpt lat="42.459120000" lon="-2.465174000">
        <ele>402.60</ele>
        <time>2012-11-17T08:56:12Z</time>
      </trkpt>
      <trkpt lat="42.459111000" lon="-2.465174000">
        <ele>402.60</ele>
        <time>2012-11-17T08:56:14Z</time>
      </trkpt>
      <trkpt lat="42.459111000" lon="-2.465176000">
        <ele>402.60</ele>
        <time>2012-11-17T08:56:16Z</time>
      </trkpt>
      <trkpt lat="42.459108000" lon="-2.465176000">
        <ele>402.60</ele>
        <time>2012-11-17T08:56:16Z</time>
      </trkpt>
      <trkpt lat="42.459105000" lon="-2.465176000">
        <ele>402.70</ele>
        <time>2012-11-17T08:56:18Z</time>
      </trkpt>
      <trkpt lat="42.459093000" lon="-2.465174000">
        <ele>402.70</ele>
        <time>2012-11-17T08:56:19Z</time>
      </trkpt>
      <trkpt lat="42.459076000" lon="-2.465174000">
        <ele>402.70</ele>
        <time>2012-11-17T08:56:23Z</time>
      </trkpt>
      <trkpt lat="42.459073000" lon="-2.465174000">
        <ele>402.80</ele>
        <time>2012-11-17T08:56:23Z</time>
      </trkpt>
      <trkpt lat="42.459058000" lon="-2.465173000">
        <ele>402.80</ele>
        <time>2012-11-17T08:56:28Z</time>
      </trkpt>
      <trkpt lat="42.459025000" lon="-2.465173000">
        <ele>402.90</ele>
        <time>2012-11-17T08:56:32Z</time>
      </trkpt>
      <trkpt lat="42.459025000" lon="-2.465171000">
        <ele>402.90</ele>
        <time>2012-11-17T08:56:33Z</time>
      </trkpt>
      <trkpt lat="42.459026000" lon="-2.465171000">
        <ele>403.00</ele>
        <time>2012-11-17T08:56:35Z</time>
      </trkpt>
      <trkpt lat="42.459028000" lon="-2.465171000">
        <ele>403.00</ele>
        <time>2012-11-17T08:56:35Z</time>
      </trkpt>
      <trkpt lat="42.459031000" lon="-2.465173000">
        <ele>402.90</ele>
        <time>2012-11-17T08:56:37Z</time>
      </trkpt>
      <trkpt lat="42.459041000" lon="-2.465179000">
        <ele>402.90</ele>
        <time>2012-11-17T08:56:39Z</time>
      </trkpt>
      <trkpt lat="42.459050000" lon="-2.465189000">
        <ele>402.90</ele>
        <time>2012-11-17T08:56:42Z</time>
      </trkpt>
      <trkpt lat="42.459055000" lon="-2.465198000">
        <ele>402.90</ele>
        <time>2012-11-17T08:56:44Z</time>
      </trkpt>
      <trkpt lat="42.459060000" lon="-2.465199000">
        <ele>402.90</ele>
        <time>2012-11-17T08:56:46Z</time>
      </trkpt>
      <trkpt lat="42.459061000" lon="-2.465203000">
        <ele>402.80</ele>
        <time>2012-11-17T08:56:47Z</time>
      </trkpt>
      <trkpt lat="42.459063000" lon="-2.465204000">
        <ele>402.80</ele>
        <time>2012-11-17T08:56:47Z</time>
      </trkpt>
      <trkpt lat="42.459061000" lon="-2.465206000">
        <ele>402.80</ele>
        <time>2012-11-17T08:56:49Z</time>
      </trkpt>
      <trkpt lat="42.459063000" lon="-2.465206000">
        <ele>402.80</ele>
        <time>2012-11-17T08:56:49Z</time>
      </trkpt>
      <trkpt lat="42.459063000" lon="-2.465208000">
        <ele>402.80</ele>
        <time>2012-11-17T08:56:51Z</time>
      </trkpt>
      <trkpt lat="42.459055000" lon="-2.465206000">
        <ele>402.80</ele>
        <time>2012-11-17T08:56:53Z</time>
      </trkpt>
      <trkpt lat="42.459048000" lon="-2.465201000">
        <ele>402.90</ele>
        <time>2012-11-17T08:56:54Z</time>
      </trkpt>
      <trkpt lat="42.459040000" lon="-2.465193000">
        <ele>402.90</ele>
        <time>2012-11-17T08:56:56Z</time>
      </trkpt>
      <trkpt lat="42.459031000" lon="-2.465181000">
        <ele>402.90</ele>
        <time>2012-11-17T08:56:58Z</time>
      </trkpt>
      <trkpt lat="42.459025000" lon="-2.465163000">
        <ele>402.90</ele>
        <time>2012-11-17T08:57:01Z</time>
      </trkpt>
      <trkpt lat="42.459026000" lon="-2.465159000">
        <ele>403.00</ele>
        <time>2012-11-17T08:57:03Z</time>
      </trkpt>
      <trkpt lat="42.459028000" lon="-2.465156000">
        <ele>403.00</ele>
        <time>2012-11-17T08:57:03Z</time>
      </trkpt>
      <trkpt lat="42.459030000" lon="-2.465153000">
        <ele>402.90</ele>
        <time>2012-11-17T08:57:05Z</time>
      </trkpt>
      <trkpt lat="42.459030000" lon="-2.465149000">
        <ele>402.90</ele>
        <time>2012-11-17T08:57:05Z</time>
      </trkpt>
      <trkpt lat="42.459035000" lon="-2.465141000">
        <ele>402.90</ele>
        <time>2012-11-17T08:57:06Z</time>
      </trkpt>
      <trkpt lat="42.459040000" lon="-2.465119000">
        <ele>402.90</ele>
        <time>2012-11-17T08:57:08Z</time>
      </trkpt>
      <trkpt lat="42.459040000" lon="-2.465089000">
        <ele>402.90</ele>
        <time>2012-11-17T08:57:13Z</time>
      </trkpt>
      <trkpt lat="42.459036000" lon="-2.465079000">
        <ele>402.90</ele>
        <time>2012-11-17T08:57:17Z</time>
      </trkpt>
      <trkpt lat="42.459038000" lon="-2.465081000">
        <ele>402.90</ele>
        <time>2012-11-17T08:57:17Z</time>
      </trkpt>
      <trkpt lat="42.459045000" lon="-2.465079000">
        <ele>402.90</ele>
        <time>2012-11-17T08:57:20Z</time>
      </trkpt>
      <trkpt lat="42.459048000" lon="-2.465083000">
        <ele>402.90</ele>
        <time>2012-11-17T08:57:22Z</time>
      </trkpt>
      <trkpt lat="42.459050000" lon="-2.465081000">
        <ele>402.90</ele>
        <time>2012-11-17T08:57:24Z</time>
      </trkpt>
      <trkpt lat="42.459051000" lon="-2.465083000">
        <ele>402.90</ele>
        <time>2012-11-17T08:57:24Z</time>
      </trkpt>
      <trkpt lat="42.459055000" lon="-2.465084000">
        <ele>402.90</ele>
        <time>2012-11-17T08:57:26Z</time>
      </trkpt>
      <trkpt lat="42.459055000" lon="-2.465088000">
        <ele>402.90</ele>
        <time>2012-11-17T08:57:26Z</time>
      </trkpt>
      <trkpt lat="42.459058000" lon="-2.465089000">
        <ele>402.90</ele>
        <time>2012-11-17T08:57:27Z</time>
      </trkpt>
      <trkpt lat="42.459060000" lon="-2.465091000">
        <ele>402.80</ele>
        <time>2012-11-17T08:57:29Z</time>
      </trkpt>
      <trkpt lat="42.459060000" lon="-2.465093000">
        <ele>402.80</ele>
        <time>2012-11-17T08:57:31Z</time>
      </trkpt>
      <trkpt lat="42.459058000" lon="-2.465091000">
        <ele>402.80</ele>
        <time>2012-11-17T08:57:31Z</time>
      </trkpt>
      <trkpt lat="42.459056000" lon="-2.465093000">
        <ele>402.80</ele>
        <time>2012-11-17T08:57:33Z</time>
      </trkpt>
      <trkpt lat="42.459055000" lon="-2.465093000">
        <ele>402.80</ele>
        <time>2012-11-17T08:57:34Z</time>
      </trkpt>
      <trkpt lat="42.459048000" lon="-2.465093000">
        <ele>402.90</ele>
        <time>2012-11-17T08:57:36Z</time>
      </trkpt>
      <trkpt lat="42.459041000" lon="-2.465099000">
        <ele>402.90</ele>
        <time>2012-11-17T08:57:38Z</time>
      </trkpt>
      <trkpt lat="42.459035000" lon="-2.465111000">
        <ele>402.90</ele>
        <time>2012-11-17T08:57:40Z</time>
      </trkpt>
      <trkpt lat="42.459030000" lon="-2.465116000">
        <ele>402.90</ele>
        <time>2012-11-17T08:57:41Z</time>
      </trkpt>
      <trkpt lat="42.459023000" lon="-2.465121000">
        <ele>402.90</ele>
        <time>2012-11-17T08:57:41Z</time>
      </trkpt>
      <trkpt lat="42.459018000" lon="-2.465124000">
        <ele>403.00</ele>
        <time>2012-11-17T08:57:43Z</time>
      </trkpt>
      <trkpt lat="42.459011000" lon="-2.465124000">
        <ele>403.00</ele>
        <time>2012-11-17T08:57:45Z</time>
      </trkpt>
      <trkpt lat="42.458991000" lon="-2.465111000">
        <ele>403.10</ele>
        <time>2012-11-17T08:57:48Z</time>
      </trkpt>
      <trkpt lat="42.458986000" lon="-2.465108000">
        <ele>403.10</ele>
        <time>2012-11-17T08:57:50Z</time>
      </trkpt>
      <trkpt lat="42.458976000" lon="-2.465099000">
        <ele>403.10</ele>
        <time>2012-11-17T08:57:52Z</time>
      </trkpt>
      <trkpt lat="42.458970000" lon="-2.465098000">
        <ele>403.10</ele>
        <time>2012-11-17T08:57:54Z</time>
      </trkpt>
      <trkpt lat="42.458968000" lon="-2.465099000">
        <ele>403.20</ele>
        <time>2012-11-17T08:57:55Z</time>
      </trkpt>
      <trkpt lat="42.458960000" lon="-2.465103000">
        <ele>403.20</ele>
        <time>2012-11-17T08:57:57Z</time>
      </trkpt>
      <trkpt lat="42.458956000" lon="-2.465098000">
        <ele>403.20</ele>
        <time>2012-11-17T08:57:57Z</time>
      </trkpt>
      <trkpt lat="42.458951000" lon="-2.465086000">
        <ele>403.20</ele>
        <time>2012-11-17T08:57:59Z</time>
      </trkpt>
      <trkpt lat="42.458948000" lon="-2.465059000">
        <ele>403.20</ele>
        <time>2012-11-17T08:58:04Z</time>
      </trkpt>
      <trkpt lat="42.458951000" lon="-2.465049000">
        <ele>403.20</ele>
        <time>2012-11-17T08:58:06Z</time>
      </trkpt>
      <trkpt lat="42.458953000" lon="-2.465051000">
        <ele>403.20</ele>
        <time>2012-11-17T08:58:07Z</time>
      </trkpt>
      <trkpt lat="42.458950000" lon="-2.465064000">
        <ele>403.20</ele>
        <time>2012-11-17T08:58:11Z</time>
      </trkpt>
      <trkpt lat="42.458950000" lon="-2.465076000">
        <ele>403.20</ele>
        <time>2012-11-17T08:58:14Z</time>
      </trkpt>
      <trkpt lat="42.458955000" lon="-2.465084000">
        <ele>403.20</ele>
        <time>2012-11-17T08:58:16Z</time>
      </trkpt>
      <trkpt lat="42.458961000" lon="-2.465088000">
        <ele>403.20</ele>
        <time>2012-11-17T08:58:16Z</time>
      </trkpt>
      <trkpt lat="42.458968000" lon="-2.465089000">
        <ele>403.20</ele>
        <time>2012-11-17T08:58:18Z</time>
      </trkpt>
      <trkpt lat="42.458973000" lon="-2.465108000">
        <ele>403.20</ele>
        <time>2012-11-17T08:58:23Z</time>
      </trkpt>
      <trkpt lat="42.458975000" lon="-2.465113000">
        <ele>403.10</ele>
        <time>2012-11-17T08:58:23Z</time>
      </trkpt>
      <trkpt lat="42.458978000" lon="-2.465123000">
        <ele>403.10</ele>
        <time>2012-11-17T08:58:25Z</time>
      </trkpt>
      <trkpt lat="42.458978000" lon="-2.465129000">
        <ele>403.10</ele>
        <time>2012-11-17T08:58:27Z</time>
      </trkpt>
      <trkpt lat="42.458976000" lon="-2.465133000">
        <ele>403.10</ele>
        <time>2012-11-17T08:58:28Z</time>
      </trkpt>
      <trkpt lat="42.458971000" lon="-2.465136000">
        <ele>403.10</ele>
        <time>2012-11-17T08:58:30Z</time>
      </trkpt>
      <trkpt lat="42.458970000" lon="-2.465139000">
        <ele>403.20</ele>
        <time>2012-11-17T08:58:30Z</time>
      </trkpt>
      <trkpt lat="42.458963000" lon="-2.465146000">
        <ele>403.20</ele>
        <time>2012-11-17T08:58:35Z</time>
      </trkpt>
      <trkpt lat="42.458963000" lon="-2.465144000">
        <ele>403.20</ele>
        <time>2012-11-17T08:58:37Z</time>
      </trkpt>
      <trkpt lat="42.458963000" lon="-2.465148000">
        <ele>403.20</ele>
        <time>2012-11-17T08:58:37Z</time>
      </trkpt>
      <trkpt lat="42.458970000" lon="-2.465149000">
        <ele>403.20</ele>
        <time>2012-11-17T08:58:42Z</time>
      </trkpt>
      <trkpt lat="42.458971000" lon="-2.465156000">
        <ele>403.20</ele>
        <time>2012-11-17T08:58:44Z</time>
      </trkpt>
      <trkpt lat="42.458973000" lon="-2.465158000">
        <ele>403.20</ele>
        <time>2012-11-17T08:58:44Z</time>
      </trkpt>
      <trkpt lat="42.458973000" lon="-2.465161000">
        <ele>403.10</ele>
        <time>2012-11-17T08:58:46Z</time>
      </trkpt>
      <trkpt lat="42.458975000" lon="-2.465166000">
        <ele>403.10</ele>
        <time>2012-11-17T08:58:46Z</time>
      </trkpt>
      <trkpt lat="42.458973000" lon="-2.465173000">
        <ele>403.10</ele>
        <time>2012-11-17T08:58:49Z</time>
      </trkpt>
      <trkpt lat="42.458973000" lon="-2.465181000">
        <ele>403.10</ele>
        <time>2012-11-17T08:58:51Z</time>
      </trkpt>
      <trkpt lat="42.458975000" lon="-2.465186000">
        <ele>403.10</ele>
        <time>2012-11-17T08:58:51Z</time>
      </trkpt>
      <trkpt lat="42.458976000" lon="-2.465211000">
        <ele>403.10</ele>
        <time>2012-11-17T08:58:56Z</time>
      </trkpt>
      <trkpt lat="42.458980000" lon="-2.465226000">
        <ele>403.10</ele>
        <time>2012-11-17T08:58:58Z</time>
      </trkpt>
      <trkpt lat="42.458980000" lon="-2.465231000">
        <ele>403.10</ele>
        <time>2012-11-17T08:59:00Z</time>
      </trkpt>
      <trkpt lat="42.458976000" lon="-2.465238000">
        <ele>403.10</ele>
        <time>2012-11-17T08:59:01Z</time>
      </trkpt>
      <trkpt lat="42.458976000" lon="-2.465253000">
        <ele>403.10</ele>
        <time>2012-11-17T08:59:05Z</time>
      </trkpt>
      <trkpt lat="42.458971000" lon="-2.465264000">
        <ele>403.10</ele>
        <time>2012-11-17T08:59:08Z</time>
      </trkpt>
      <trkpt lat="42.458970000" lon="-2.465269000">
        <ele>403.20</ele>
        <time>2012-11-17T08:59:10Z</time>
      </trkpt>
      <trkpt lat="42.458968000" lon="-2.465273000">
        <ele>403.20</ele>
        <time>2012-11-17T08:59:10Z</time>
      </trkpt>
      <trkpt lat="42.458968000" lon="-2.465286000">
        <ele>403.20</ele>
        <time>2012-11-17T08:59:12Z</time>
      </trkpt>
      <trkpt lat="42.458963000" lon="-2.465314000">
        <ele>403.20</ele>
        <time>2012-11-17T08:59:17Z</time>
      </trkpt>
      <trkpt lat="42.458955000" lon="-2.465333000">
        <ele>403.20</ele>
        <time>2012-11-17T08:59:21Z</time>
      </trkpt>
      <trkpt lat="42.458953000" lon="-2.465333000">
        <ele>403.20</ele>
        <time>2012-11-17T08:59:22Z</time>
      </trkpt>
      <trkpt lat="42.458955000" lon="-2.465326000">
        <ele>403.20</ele>
        <time>2012-11-17T08:59:22Z</time>
      </trkpt>
      <trkpt lat="42.458955000" lon="-2.465316000">
        <ele>403.20</ele>
        <time>2012-11-17T08:59:24Z</time>
      </trkpt>
      <trkpt lat="42.458963000" lon="-2.465288000">
        <ele>403.20</ele>
        <time>2012-11-17T08:59:26Z</time>
      </trkpt>
      <trkpt lat="42.458965000" lon="-2.465273000">
        <ele>403.20</ele>
        <time>2012-11-17T08:59:29Z</time>
      </trkpt>
      <trkpt lat="42.458970000" lon="-2.465259000">
        <ele>403.20</ele>
        <time>2012-11-17T08:59:31Z</time>
      </trkpt>
      <trkpt lat="42.458971000" lon="-2.465249000">
        <ele>403.20</ele>
        <time>2012-11-17T08:59:33Z</time>
      </trkpt>
      <trkpt lat="42.458975000" lon="-2.465246000">
        <ele>403.10</ele>
        <time>2012-11-17T08:59:35Z</time>
      </trkpt>
      <trkpt lat="42.458991000" lon="-2.465246000">
        <ele>403.10</ele>
        <time>2012-11-17T08:59:38Z</time>
      </trkpt>
      <trkpt lat="42.459003000" lon="-2.465251000">
        <ele>403.10</ele>
        <time>2012-11-17T08:59:40Z</time>
      </trkpt>
      <trkpt lat="42.459006000" lon="-2.465251000">
        <ele>403.00</ele>
        <time>2012-11-17T08:59:40Z</time>
      </trkpt>
      <trkpt lat="42.459013000" lon="-2.465251000">
        <ele>403.00</ele>
        <time>2012-11-17T08:59:43Z</time>
      </trkpt>
      <trkpt lat="42.459021000" lon="-2.465248000">
        <ele>403.00</ele>
        <time>2012-11-17T08:59:45Z</time>
      </trkpt>
      <trkpt lat="42.459021000" lon="-2.465244000">
        <ele>403.00</ele>
        <time>2012-11-17T08:59:50Z</time>
      </trkpt>
      <trkpt lat="42.459011000" lon="-2.465236000">
        <ele>403.00</ele>
        <time>2012-11-17T08:59:57Z</time>
      </trkpt>
      <trkpt lat="42.459008000" lon="-2.465236000">
        <ele>403.00</ele>
        <time>2012-11-17T08:59:59Z</time>
      </trkpt>
      <trkpt lat="42.458991000" lon="-2.465233000">
        <ele>403.10</ele>
        <time>2012-11-17T09:00:06Z</time>
      </trkpt>
      <trkpt lat="42.458981000" lon="-2.465234000">
        <ele>403.10</ele>
        <time>2012-11-17T09:00:09Z</time>
      </trkpt>
      <trkpt lat="42.458981000" lon="-2.465231000">
        <ele>403.10</ele>
        <time>2012-11-17T09:00:11Z</time>
      </trkpt>
      <trkpt lat="42.458985000" lon="-2.465229000">
        <ele>403.10</ele>
        <time>2012-11-17T09:00:13Z</time>
      </trkpt>
      <trkpt lat="42.458995000" lon="-2.465228000">
        <ele>403.10</ele>
        <time>2012-11-17T09:00:20Z</time>
      </trkpt>
      <trkpt lat="42.458991000" lon="-2.465226000">
        <ele>403.10</ele>
        <time>2012-11-17T09:00:23Z</time>
      </trkpt>
      <trkpt lat="42.458995000" lon="-2.465224000">
        <ele>403.10</ele>
        <time>2012-11-17T09:00:25Z</time>
      </trkpt>
      <trkpt lat="42.458996000" lon="-2.465226000">
        <ele>403.10</ele>
        <time>2012-11-17T09:00:25Z</time>
      </trkpt>
      <trkpt lat="42.459001000" lon="-2.465226000">
        <ele>403.10</ele>
        <time>2012-11-17T09:00:27Z</time>
      </trkpt>
      <trkpt lat="42.459003000" lon="-2.465224000">
        <ele>403.00</ele>
        <time>2012-11-17T09:00:29Z</time>
      </trkpt>
      <trkpt lat="42.459010000" lon="-2.465211000">
        <ele>403.00</ele>
        <time>2012-11-17T09:00:32Z</time>
      </trkpt>
      <trkpt lat="42.459016000" lon="-2.465206000">
        <ele>403.00</ele>
        <time>2012-11-17T09:00:35Z</time>
      </trkpt>
      <trkpt lat="42.459031000" lon="-2.465213000">
        <ele>403.00</ele>
        <time>2012-11-17T09:00:39Z</time>
      </trkpt>
      <trkpt lat="42.459038000" lon="-2.465214000">
        <ele>402.90</ele>
        <time>2012-11-17T09:00:39Z</time>
      </trkpt>
      <trkpt lat="42.459048000" lon="-2.465218000">
        <ele>402.90</ele>
        <time>2012-11-17T09:00:41Z</time>
      </trkpt>
      <trkpt lat="42.459060000" lon="-2.465219000">
        <ele>402.90</ele>
        <time>2012-11-17T09:00:44Z</time>
      </trkpt>
      <trkpt lat="42.459065000" lon="-2.465223000">
        <ele>402.80</ele>
        <time>2012-11-17T09:00:44Z</time>
      </trkpt>
      <trkpt lat="42.459065000" lon="-2.465228000">
        <ele>402.80</ele>
        <time>2012-11-17T09:00:48Z</time>
      </trkpt>
      <trkpt lat="42.459065000" lon="-2.465226000">
        <ele>402.80</ele>
        <time>2012-11-17T09:00:48Z</time>
      </trkpt>
      <trkpt lat="42.459068000" lon="-2.465226000">
        <ele>402.80</ele>
        <time>2012-11-17T09:00:49Z</time>
      </trkpt>
      <trkpt lat="42.459075000" lon="-2.465231000">
        <ele>402.80</ele>
        <time>2012-11-17T09:00:51Z</time>
      </trkpt>
      <trkpt lat="42.459076000" lon="-2.465234000">
        <ele>402.80</ele>
        <time>2012-11-17T09:00:53Z</time>
      </trkpt>
      <trkpt lat="42.459075000" lon="-2.465231000">
        <ele>402.80</ele>
        <time>2012-11-17T09:00:58Z</time>
      </trkpt>
      <trkpt lat="42.459061000" lon="-2.465228000">
        <ele>402.80</ele>
        <time>2012-11-17T09:01:02Z</time>
      </trkpt>
      <trkpt lat="42.459060000" lon="-2.465229000">
        <ele>402.80</ele>
        <time>2012-11-17T09:01:02Z</time>
      </trkpt>
      <trkpt lat="42.459078000" lon="-2.465238000">
        <ele>402.80</ele>
        <time>2012-11-17T09:01:07Z</time>
      </trkpt>
      <trkpt lat="42.459085000" lon="-2.465244000">
        <ele>402.80</ele>
        <time>2012-11-17T09:01:10Z</time>
      </trkpt>
      <trkpt lat="42.459086000" lon="-2.465246000">
        <ele>402.70</ele>
        <time>2012-11-17T09:01:12Z</time>
      </trkpt>
      <trkpt lat="42.459088000" lon="-2.465248000">
        <ele>402.70</ele>
        <time>2012-11-17T09:01:12Z</time>
      </trkpt>
      <trkpt lat="42.459088000" lon="-2.465244000">
        <ele>402.70</ele>
        <time>2012-11-17T09:01:14Z</time>
      </trkpt>
      <trkpt lat="42.459086000" lon="-2.465243000">
        <ele>402.70</ele>
        <time>2012-11-17T09:01:16Z</time>
      </trkpt>
      <trkpt lat="42.459086000" lon="-2.465236000">
        <ele>402.70</ele>
        <time>2012-11-17T09:01:19Z</time>
      </trkpt>
      <trkpt lat="42.459088000" lon="-2.465231000">
        <ele>402.70</ele>
        <time>2012-11-17T09:01:19Z</time>
      </trkpt>
      <trkpt lat="42.459086000" lon="-2.465229000">
        <ele>402.70</ele>
        <time>2012-11-17T09:01:21Z</time>
      </trkpt>
      <trkpt lat="42.459090000" lon="-2.465219000">
        <ele>402.70</ele>
        <time>2012-11-17T09:01:24Z</time>
      </trkpt>
      <trkpt lat="42.459100000" lon="-2.465213000">
        <ele>402.70</ele>
        <time>2012-11-17T09:01:26Z</time>
      </trkpt>
      <trkpt lat="42.459105000" lon="-2.465213000">
        <ele>402.70</ele>
        <time>2012-11-17T09:01:26Z</time>
      </trkpt>
      <trkpt lat="42.459111000" lon="-2.465208000">
        <ele>402.70</ele>
        <time>2012-11-17T09:01:28Z</time>
      </trkpt>
      <trkpt lat="42.459120000" lon="-2.465204000">
        <ele>402.60</ele>
        <time>2012-11-17T09:01:28Z</time>
      </trkpt>
      <trkpt lat="42.459125000" lon="-2.465201000">
        <ele>402.60</ele>
        <time>2012-11-17T09:01:29Z</time>
      </trkpt>
      <trkpt lat="42.459135000" lon="-2.465201000">
        <ele>402.60</ele>
        <time>2012-11-17T09:01:31Z</time>
      </trkpt>
      <trkpt lat="42.459141000" lon="-2.465193000">
        <ele>402.60</ele>
        <time>2012-11-17T09:01:33Z</time>
      </trkpt>
      <trkpt lat="42.459145000" lon="-2.465183000">
        <ele>402.50</ele>
        <time>2012-11-17T09:01:35Z</time>
      </trkpt>
      <trkpt lat="42.459146000" lon="-2.465174000">
        <ele>402.50</ele>
        <time>2012-11-17T09:01:35Z</time>
      </trkpt>
      <trkpt lat="42.459150000" lon="-2.465168000">
        <ele>402.50</ele>
        <time>2012-11-17T09:01:36Z</time>
      </trkpt>
      <trkpt lat="42.459150000" lon="-2.465163000">
        <ele>402.50</ele>
        <time>2012-11-17T09:01:38Z</time>
      </trkpt>
      <trkpt lat="42.459146000" lon="-2.465156000">
        <ele>402.50</ele>
        <time>2012-11-17T09:01:40Z</time>
      </trkpt>
      <trkpt lat="42.459153000" lon="-2.465143000">
        <ele>402.50</ele>
        <time>2012-11-17T09:01:45Z</time>
      </trkpt>
      <trkpt lat="42.459151000" lon="-2.465143000">
        <ele>402.50</ele>
        <time>2012-11-17T09:01:45Z</time>
      </trkpt>
      <trkpt lat="42.459148000" lon="-2.465146000">
        <ele>402.50</ele>
        <time>2012-11-17T09:01:50Z</time>
      </trkpt>
      <trkpt lat="42.459143000" lon="-2.465146000">
        <ele>402.50</ele>
        <time>2012-11-17T09:01:52Z</time>
      </trkpt>
      <trkpt lat="42.459140000" lon="-2.465149000">
        <ele>402.50</ele>
        <time>2012-11-17T09:01:52Z</time>
      </trkpt>
      <trkpt lat="42.459133000" lon="-2.465151000">
        <ele>402.50</ele>
        <time>2012-11-17T09:01:54Z</time>
      </trkpt>
      <trkpt lat="42.459128000" lon="-2.465156000">
        <ele>402.60</ele>
        <time>2012-11-17T09:01:54Z</time>
      </trkpt>
      <trkpt lat="42.459125000" lon="-2.465158000">
        <ele>402.60</ele>
        <time>2012-11-17T09:01:56Z</time>
      </trkpt>
      <trkpt lat="42.459121000" lon="-2.465159000">
        <ele>402.60</ele>
        <time>2012-11-17T09:01:57Z</time>
      </trkpt>
      <trkpt lat="42.459110000" lon="-2.465179000">
        <ele>402.60</ele>
        <time>2012-11-17T09:02:04Z</time>
      </trkpt>
      <trkpt lat="42.459108000" lon="-2.465183000">
        <ele>402.70</ele>
        <time>2012-11-17T09:02:04Z</time>
      </trkpt>
      <trkpt lat="42.459106000" lon="-2.465186000">
        <ele>402.70</ele>
        <time>2012-11-17T09:02:06Z</time>
      </trkpt>
      <trkpt lat="42.459105000" lon="-2.465191000">
        <ele>402.70</ele>
        <time>2012-11-17T09:02:06Z</time>
      </trkpt>
      <trkpt lat="42.459101000" lon="-2.465194000">
        <ele>402.70</ele>
        <time>2012-11-17T09:02:08Z</time>
      </trkpt>
      <trkpt lat="42.459098000" lon="-2.465203000">
        <ele>402.70</ele>
        <time>2012-11-17T09:02:10Z</time>
      </trkpt>
      <trkpt lat="42.459096000" lon="-2.465204000">
        <ele>402.70</ele>
        <time>2012-11-17T09:02:11Z</time>
      </trkpt>
      <trkpt lat="42.459095000" lon="-2.465209000">
        <ele>402.70</ele>
        <time>2012-11-17T09:02:13Z</time>
      </trkpt>
      <trkpt lat="42.459091000" lon="-2.465214000">
        <ele>402.70</ele>
        <time>2012-11-17T09:02:15Z</time>
      </trkpt>
      <trkpt lat="42.459090000" lon="-2.465218000">
        <ele>402.70</ele>
        <time>2012-11-17T09:02:15Z</time>
      </trkpt>
      <trkpt lat="42.459081000" lon="-2.465228000">
        <ele>402.70</ele>
        <time>2012-11-17T09:02:20Z</time>
      </trkpt>
      <trkpt lat="42.459080000" lon="-2.465229000">
        <ele>402.80</ele>
        <time>2012-11-17T09:02:22Z</time>
      </trkpt>
      <trkpt lat="42.459076000" lon="-2.465233000">
        <ele>402.80</ele>
        <time>2012-11-17T09:02:24Z</time>
      </trkpt>
      <trkpt lat="42.459065000" lon="-2.465231000">
        <ele>402.80</ele>
        <time>2012-11-17T09:02:25Z</time>
      </trkpt>
      <trkpt lat="42.459046000" lon="-2.465228000">
        <ele>402.90</ele>
        <time>2012-11-17T09:02:29Z</time>
      </trkpt>
      <trkpt lat="42.459040000" lon="-2.465228000">
        <ele>402.90</ele>
        <time>2012-11-17T09:02:32Z</time>
      </trkpt>
      <trkpt lat="42.459040000" lon="-2.465231000">
        <ele>402.90</ele>
        <time>2012-11-17T09:02:34Z</time>
      </trkpt>
      <trkpt lat="42.459043000" lon="-2.465228000">
        <ele>402.90</ele>
        <time>2012-11-17T09:02:39Z</time>
      </trkpt>
      <trkpt lat="42.459056000" lon="-2.465228000">
        <ele>402.90</ele>
        <time>2012-11-17T09:02:46Z</time>
      </trkpt>
      <trkpt lat="42.459058000" lon="-2.465228000">
        <ele>402.80</ele>
        <time>2012-11-17T09:02:48Z</time>
      </trkpt>
      <trkpt lat="42.459058000" lon="-2.465224000">
        <ele>402.80</ele>
        <time>2012-11-17T09:02:51Z</time>
      </trkpt>
      <trkpt lat="42.459060000" lon="-2.465223000">
        <ele>402.80</ele>
        <time>2012-11-17T09:02:53Z</time>
      </trkpt>
      <trkpt lat="42.459061000" lon="-2.465218000">
        <ele>402.80</ele>
        <time>2012-11-17T09:02:58Z</time>
      </trkpt>
      <trkpt lat="42.459063000" lon="-2.465218000">
        <ele>402.80</ele>
        <time>2012-11-17T09:03:00Z</time>
      </trkpt>
      <trkpt lat="42.459063000" lon="-2.465209000">
        <ele>402.80</ele>
        <time>2012-11-17T09:03:07Z</time>
      </trkpt>
      <trkpt lat="42.459065000" lon="-2.465209000">
        <ele>402.80</ele>
        <time>2012-11-17T09:03:07Z</time>
      </trkpt>
      <trkpt lat="42.459071000" lon="-2.465179000">
        <ele>402.80</ele>
        <time>2012-11-17T09:03:12Z</time>
      </trkpt>
      <trkpt lat="42.459080000" lon="-2.465153000">
        <ele>402.80</ele>
        <time>2012-11-17T09:03:16Z</time>
      </trkpt>
      <trkpt lat="42.459083000" lon="-2.465138000">
        <ele>402.80</ele>
        <time>2012-11-17T09:03:19Z</time>
      </trkpt>
      <trkpt lat="42.459083000" lon="-2.465111000">
        <ele>402.80</ele>
        <time>2012-11-17T09:03:28Z</time>
      </trkpt>
      <trkpt lat="42.459080000" lon="-2.465108000">
        <ele>402.80</ele>
        <time>2012-11-17T09:03:28Z</time>
      </trkpt>
      <trkpt lat="42.459063000" lon="-2.465113000">
        <ele>402.80</ele>
        <time>2012-11-17T09:03:33Z</time>
      </trkpt>
      <trkpt lat="42.459066000" lon="-2.465118000">
        <ele>402.80</ele>
        <time>2012-11-17T09:03:35Z</time>
      </trkpt>
      <trkpt lat="42.459075000" lon="-2.465124000">
        <ele>402.80</ele>
        <time>2012-11-17T09:03:37Z</time>
      </trkpt>
      <trkpt lat="42.459083000" lon="-2.465148000">
        <ele>402.80</ele>
        <time>2012-11-17T09:03:42Z</time>
      </trkpt>
      <trkpt lat="42.459081000" lon="-2.465153000">
        <ele>402.80</ele>
        <time>2012-11-17T09:03:42Z</time>
      </trkpt>
      <trkpt lat="42.459081000" lon="-2.465168000">
        <ele>402.80</ele>
        <time>2012-11-17T09:03:45Z</time>
      </trkpt>
      <trkpt lat="42.459078000" lon="-2.465169000">
        <ele>402.80</ele>
        <time>2012-11-17T09:03:47Z</time>
      </trkpt>
      <trkpt lat="42.459078000" lon="-2.465173000">
        <ele>402.80</ele>
        <time>2012-11-17T09:03:49Z</time>
      </trkpt>
      <trkpt lat="42.459076000" lon="-2.465173000">
        <ele>402.80</ele>
        <time>2012-11-17T09:03:51Z</time>
      </trkpt>
      <trkpt lat="42.459078000" lon="-2.465173000">
        <ele>402.80</ele>
        <time>2012-11-17T09:03:52Z</time>
      </trkpt>
      <trkpt lat="42.459078000" lon="-2.465178000">
        <ele>402.80</ele>
        <time>2012-11-17T09:03:54Z</time>
      </trkpt>
      <trkpt lat="42.459083000" lon="-2.465184000">
        <ele>402.80</ele>
        <time>2012-11-17T09:03:59Z</time>
      </trkpt>
      <trkpt lat="42.459085000" lon="-2.465184000">
        <ele>402.80</ele>
        <time>2012-11-17T09:03:59Z</time>
      </trkpt>
      <trkpt lat="42.459085000" lon="-2.465184000">
        <ele>402.80</ele>
        <time>2012-11-17T09:04:01Z</time>
      </trkpt>
      <trkpt lat="42.459086000" lon="-2.465184000">
        <ele>402.70</ele>
        <time>2012-11-17T09:04:01Z</time>
      </trkpt>
      <trkpt lat="42.459090000" lon="-2.465181000">
        <ele>402.70</ele>
        <time>2012-11-17T09:04:06Z</time>
      </trkpt>
      <trkpt lat="42.459091000" lon="-2.465151000">
        <ele>402.70</ele>
        <time>2012-11-17T09:04:20Z</time>
      </trkpt>
      <trkpt lat="42.459086000" lon="-2.465156000">
        <ele>402.70</ele>
        <time>2012-11-17T09:04:22Z</time>
      </trkpt>
      <trkpt lat="42.459081000" lon="-2.465158000">
        <ele>402.70</ele>
        <time>2012-11-17T09:04:24Z</time>
      </trkpt>
      <trkpt lat="42.459076000" lon="-2.465158000">
        <ele>402.80</ele>
        <time>2012-11-17T09:04:24Z</time>
      </trkpt>
      <trkpt lat="42.459073000" lon="-2.465159000">
        <ele>402.80</ele>
        <time>2012-11-17T09:04:27Z</time>
      </trkpt>
      <trkpt lat="42.459065000" lon="-2.465169000">
        <ele>402.80</ele>
        <time>2012-11-17T09:04:31Z</time>
      </trkpt>
      <trkpt lat="42.459061000" lon="-2.465168000">
        <ele>402.80</ele>
        <time>2012-11-17T09:04:34Z</time>
      </trkpt>
      <trkpt lat="42.459058000" lon="-2.465164000">
        <ele>402.80</ele>
        <time>2012-11-17T09:04:36Z</time>
      </trkpt>
      <trkpt lat="42.459053000" lon="-2.465164000">
        <ele>402.80</ele>
        <time>2012-11-17T09:04:38Z</time>
      </trkpt>
      <trkpt lat="42.459051000" lon="-2.465166000">
        <ele>402.90</ele>
        <time>2012-11-17T09:04:38Z</time>
      </trkpt>
      <trkpt lat="42.459046000" lon="-2.465166000">
        <ele>402.90</ele>
        <time>2012-11-17T09:04:41Z</time>
      </trkpt>
      <trkpt lat="42.459045000" lon="-2.465159000">
        <ele>402.90</ele>
        <time>2012-11-17T09:04:43Z</time>
      </trkpt>
      <trkpt lat="42.459043000" lon="-2.465158000">
        <ele>402.90</ele>
        <time>2012-11-17T09:04:45Z</time>
      </trkpt>
      <trkpt lat="42.459043000" lon="-2.465153000">
        <ele>402.90</ele>
        <time>2012-11-17T09:04:46Z</time>
      </trkpt>
      <trkpt lat="42.459041000" lon="-2.465151000">
        <ele>402.90</ele>
        <time>2012-11-17T09:04:48Z</time>
      </trkpt>
      <trkpt lat="42.459041000" lon="-2.465148000">
        <ele>402.90</ele>
        <time>2012-11-17T09:04:50Z</time>
      </trkpt>
      <trkpt lat="42.459043000" lon="-2.465148000">
        <ele>402.90</ele>
        <time>2012-11-17T09:04:50Z</time>
      </trkpt>
      <trkpt lat="42.459043000" lon="-2.465138000">
        <ele>402.90</ele>
        <time>2012-11-17T09:04:57Z</time>
      </trkpt>
      <trkpt lat="42.459045000" lon="-2.465136000">
        <ele>402.90</ele>
        <time>2012-11-17T09:04:57Z</time>
      </trkpt>
      <trkpt lat="42.459045000" lon="-2.465126000">
        <ele>402.90</ele>
        <time>2012-11-17T09:05:00Z</time>
      </trkpt>
      <trkpt lat="42.459043000" lon="-2.465123000">
        <ele>402.90</ele>
        <time>2012-11-17T09:05:02Z</time>
      </trkpt>
      <trkpt lat="42.459043000" lon="-2.465101000">
        <ele>402.90</ele>
        <time>2012-11-17T09:05:07Z</time>
      </trkpt>
      <trkpt lat="42.459041000" lon="-2.465099000">
        <ele>402.90</ele>
        <time>2012-11-17T09:05:09Z</time>
      </trkpt>
      <trkpt lat="42.459041000" lon="-2.465101000">
        <ele>402.90</ele>
        <time>2012-11-17T09:05:11Z</time>
      </trkpt>
      <trkpt lat="42.459041000" lon="-2.465099000">
        <ele>402.90</ele>
        <time>2012-11-17T09:05:14Z</time>
      </trkpt>
      <trkpt lat="42.459035000" lon="-2.465096000">
        <ele>402.90</ele>
        <time>2012-11-17T09:05:16Z</time>
      </trkpt>
      <trkpt lat="42.459035000" lon="-2.465098000">
        <ele>402.90</ele>
        <time>2012-11-17T09:05:18Z</time>
      </trkpt>
      <trkpt lat="42.459041000" lon="-2.465106000">
        <ele>402.90</ele>
        <time>2012-11-17T09:05:21Z</time>
      </trkpt>
      <trkpt lat="42.459041000" lon="-2.465113000">
        <ele>402.90</ele>
        <time>2012-11-17T09:05:21Z</time>
      </trkpt>
      <trkpt lat="42.459045000" lon="-2.465118000">
        <ele>402.90</ele>
        <time>2012-11-17T09:05:23Z</time>
      </trkpt>
      <trkpt lat="42.459046000" lon="-2.465126000">
        <ele>402.90</ele>
        <time>2012-11-17T09:05:23Z</time>
      </trkpt>
      <trkpt lat="42.459053000" lon="-2.465136000">
        <ele>402.90</ele>
        <time>2012-11-17T09:05:25Z</time>
      </trkpt>
      <trkpt lat="42.459075000" lon="-2.465159000">
        <ele>402.80</ele>
        <time>2012-11-17T09:05:26Z</time>
      </trkpt>
      <trkpt lat="42.459088000" lon="-2.465181000">
        <ele>402.80</ele>
        <time>2012-11-17T09:05:28Z</time>
      </trkpt>
      <trkpt lat="42.459090000" lon="-2.465189000">
        <ele>402.70</ele>
        <time>2012-11-17T09:05:30Z</time>
      </trkpt>
      <trkpt lat="42.459091000" lon="-2.465211000">
        <ele>402.70</ele>
        <time>2012-11-17T09:05:33Z</time>
      </trkpt>
      <trkpt lat="42.459098000" lon="-2.465233000">
        <ele>402.70</ele>
        <time>2012-11-17T09:05:35Z</time>
      </trkpt>
      <trkpt lat="42.459110000" lon="-2.465248000">
        <ele>402.70</ele>
        <time>2012-11-17T09:05:35Z</time>
      </trkpt>
      <trkpt lat="42.459116000" lon="-2.465263000">
        <ele>402.70</ele>
        <time>2012-11-17T09:05:37Z</time>
      </trkpt>
      <trkpt lat="42.459116000" lon="-2.465276000">
        <ele>402.60</ele>
        <time>2012-11-17T09:05:37Z</time>
      </trkpt>
      <trkpt lat="42.459113000" lon="-2.465269000">
        <ele>402.60</ele>
        <time>2012-11-17T09:05:40Z</time>
      </trkpt>
      <trkpt lat="42.459108000" lon="-2.465269000">
        <ele>402.70</ele>
        <time>2012-11-17T09:05:40Z</time>
      </trkpt>
      <trkpt lat="42.459105000" lon="-2.465271000">
        <ele>402.70</ele>
        <time>2012-11-17T09:05:42Z</time>
      </trkpt>
      <trkpt lat="42.459113000" lon="-2.465278000">
        <ele>402.70</ele>
        <time>2012-11-17T09:05:42Z</time>
      </trkpt>
      <trkpt lat="42.459116000" lon="-2.465283000">
        <ele>402.60</ele>
        <time>2012-11-17T09:05:44Z</time>
      </trkpt>
      <trkpt lat="42.459110000" lon="-2.465286000">
        <ele>402.60</ele>
        <time>2012-11-17T09:05:44Z</time>
      </trkpt>
      <trkpt lat="42.459093000" lon="-2.465283000">
        <ele>402.70</ele>
        <time>2012-11-17T09:05:46Z</time>
      </trkpt>
      <trkpt lat="42.459080000" lon="-2.465284000">
        <ele>402.70</ele>
        <time>2012-11-17T09:05:49Z</time>
      </trkpt>
      <trkpt lat="42.459075000" lon="-2.465281000">
        <ele>402.80</ele>
        <time>2012-11-17T09:05:49Z</time>
      </trkpt>
      <trkpt lat="42.459043000" lon="-2.465256000">
        <ele>402.80</ele>
        <time>2012-11-17T09:05:53Z</time>
      </trkpt>
      <trkpt lat="42.459033000" lon="-2.465248000">
        <ele>402.90</ele>
        <time>2012-11-17T09:05:54Z</time>
      </trkpt>
      <trkpt lat="42.459026000" lon="-2.465243000">
        <ele>402.90</ele>
        <time>2012-11-17T09:05:54Z</time>
      </trkpt>
      <trkpt lat="42.459021000" lon="-2.465236000">
        <ele>402.90</ele>
        <time>2012-11-17T09:05:56Z</time>
      </trkpt>
      <trkpt lat="42.459021000" lon="-2.465233000">
        <ele>403.00</ele>
        <time>2012-11-17T09:05:56Z</time>
      </trkpt>
      <trkpt lat="42.459025000" lon="-2.465238000">
        <ele>403.00</ele>
        <time>2012-11-17T09:05:58Z</time>
      </trkpt>
      <trkpt lat="42.459028000" lon="-2.465248000">
        <ele>403.00</ele>
        <time>2012-11-17T09:06:00Z</time>
      </trkpt>
      <trkpt lat="42.459030000" lon="-2.465253000">
        <ele>402.90</ele>
        <time>2012-11-17T09:06:01Z</time>
      </trkpt>
      <trkpt lat="42.459026000" lon="-2.465256000">
        <ele>403.00</ele>
        <time>2012-11-17T09:06:01Z</time>
      </trkpt>
      <trkpt lat="42.459008000" lon="-2.465264000">
        <ele>403.00</ele>
        <time>2012-11-17T09:06:05Z</time>
      </trkpt>
      <trkpt lat="42.459000000" lon="-2.465264000">
        <ele>403.00</ele>
        <time>2012-11-17T09:06:05Z</time>
      </trkpt>
      <trkpt lat="42.458995000" lon="-2.465268000">
        <ele>403.00</ele>
        <time>2012-11-17T09:06:06Z</time>
      </trkpt>
      <trkpt lat="42.458993000" lon="-2.465271000">
        <ele>403.10</ele>
        <time>2012-11-17T09:06:08Z</time>
      </trkpt>
      <trkpt lat="42.458988000" lon="-2.465273000">
        <ele>403.10</ele>
        <time>2012-11-17T09:06:08Z</time>
      </trkpt>
      <trkpt lat="42.458971000" lon="-2.465269000">
        <ele>403.10</ele>
        <time>2012-11-17T09:06:10Z</time>
      </trkpt>
      <trkpt lat="42.458965000" lon="-2.465271000">
        <ele>403.10</ele>
        <time>2012-11-17T09:06:10Z</time>
      </trkpt>
      <trkpt lat="42.458966000" lon="-2.465274000">
        <ele>403.20</ele>
        <time>2012-11-17T09:06:12Z</time>
      </trkpt>
      <trkpt lat="42.458966000" lon="-2.465281000">
        <ele>403.20</ele>
        <time>2012-11-17T09:06:15Z</time>
      </trkpt>
      <trkpt lat="42.458963000" lon="-2.465291000">
        <ele>403.20</ele>
        <time>2012-11-17T09:06:19Z</time>
      </trkpt>
      <trkpt lat="42.458955000" lon="-2.465298000">
        <ele>403.20</ele>
        <time>2012-11-17T09:06:22Z</time>
      </trkpt>
      <trkpt lat="42.458951000" lon="-2.465298000">
        <ele>403.20</ele>
        <time>2012-11-17T09:06:24Z</time>
      </trkpt>
      <trkpt lat="42.458950000" lon="-2.465293000">
        <ele>403.20</ele>
        <time>2012-11-17T09:06:24Z</time>
      </trkpt>
      <trkpt lat="42.458948000" lon="-2.465299000">
        <ele>403.20</ele>
        <time>2012-11-17T09:06:26Z</time>
      </trkpt>
      <trkpt lat="42.458946000" lon="-2.465293000">
        <ele>403.20</ele>
        <time>2012-11-17T09:06:27Z</time>
      </trkpt>
      <trkpt lat="42.458945000" lon="-2.465279000">
        <ele>403.20</ele>
        <time>2012-11-17T09:06:29Z</time>
      </trkpt>
      <trkpt lat="42.458943000" lon="-2.465276000">
        <ele>403.20</ele>
        <time>2012-11-17T09:06:31Z</time>
      </trkpt>
      <trkpt lat="42.458943000" lon="-2.465276000">
        <ele>403.20</ele>
        <time>2012-11-17T09:06:31Z</time>
      </trkpt>
      <trkpt lat="42.458941000" lon="-2.465274000">
        <ele>403.30</ele>
        <time>2012-11-17T09:06:33Z</time>
      </trkpt>
      <trkpt lat="42.458940000" lon="-2.465269000">
        <ele>403.30</ele>
        <time>2012-11-17T09:06:36Z</time>
      </trkpt>
      <trkpt lat="42.458945000" lon="-2.465276000">
        <ele>403.30</ele>
        <time>2012-11-17T09:06:38Z</time>
      </trkpt>
      <trkpt lat="42.458948000" lon="-2.465276000">
        <ele>403.20</ele>
        <time>2012-11-17T09:06:40Z</time>
      </trkpt>
      <trkpt lat="42.458953000" lon="-2.465281000">
        <ele>403.20</ele>
        <time>2012-11-17T09:06:41Z</time>
      </trkpt>
      <trkpt lat="42.458958000" lon="-2.465283000">
        <ele>403.20</ele>
        <time>2012-11-17T09:06:43Z</time>
      </trkpt>
      <trkpt lat="42.458961000" lon="-2.465279000">
        <ele>403.20</ele>
        <time>2012-11-17T09:06:45Z</time>
      </trkpt>
      <trkpt lat="42.458963000" lon="-2.465279000">
        <ele>403.20</ele>
        <time>2012-11-17T09:06:45Z</time>
      </trkpt>
      <trkpt lat="42.458968000" lon="-2.465271000">
        <ele>403.20</ele>
        <time>2012-11-17T09:06:48Z</time>
      </trkpt>
      <trkpt lat="42.458963000" lon="-2.465263000">
        <ele>403.20</ele>
        <time>2012-11-17T09:06:52Z</time>
      </trkpt>
      <trkpt lat="42.458971000" lon="-2.465268000">
        <ele>403.20</ele>
        <time>2012-11-17T09:06:54Z</time>
      </trkpt>
      <trkpt lat="42.458990000" lon="-2.465283000">
        <ele>403.10</ele>
        <time>2012-11-17T09:06:55Z</time>
      </trkpt>
      <trkpt lat="42.458995000" lon="-2.465286000">
        <ele>403.10</ele>
        <time>2012-11-17T09:06:57Z</time>
      </trkpt>
      <trkpt lat="42.458996000" lon="-2.465293000">
        <ele>403.10</ele>
        <time>2012-11-17T09:06:57Z</time>
      </trkpt>
      <trkpt lat="42.458991000" lon="-2.465294000">
        <ele>403.10</ele>
        <time>2012-11-17T09:06:59Z</time>
      </trkpt>
      <trkpt lat="42.458988000" lon="-2.465286000">
        <ele>403.10</ele>
        <time>2012-11-17T09:07:00Z</time>
      </trkpt>
      <trkpt lat="42.458988000" lon="-2.465258000">
        <ele>403.10</ele>
        <time>2012-11-17T09:07:06Z</time>
      </trkpt>
      <trkpt lat="42.458983000" lon="-2.465226000">
        <ele>403.10</ele>
        <time>2012-11-17T09:07:09Z</time>
      </trkpt>
      <trkpt lat="42.458988000" lon="-2.465221000">
        <ele>403.10</ele>
        <time>2012-11-17T09:07:09Z</time>
      </trkpt>
      <trkpt lat="42.458995000" lon="-2.465219000">
        <ele>403.10</ele>
        <time>2012-11-17T09:07:11Z</time>
      </trkpt>
      <trkpt lat="42.458993000" lon="-2.465213000">
        <ele>403.10</ele>
        <time>2012-11-17T09:07:13Z</time>
      </trkpt>
      <trkpt lat="42.458995000" lon="-2.465209000">
        <ele>403.10</ele>
        <time>2012-11-17T09:07:13Z</time>
      </trkpt>
      <trkpt lat="42.459000000" lon="-2.465209000">
        <ele>403.10</ele>
        <time>2012-11-17T09:07:14Z</time>
      </trkpt>
      <trkpt lat="42.459006000" lon="-2.465211000">
        <ele>403.00</ele>
        <time>2012-11-17T09:07:16Z</time>
      </trkpt>
      <trkpt lat="42.459013000" lon="-2.465209000">
        <ele>403.00</ele>
        <time>2012-11-17T09:07:18Z</time>
      </trkpt>
      <trkpt lat="42.459029000" lon="-2.465201000">
        <ele>402.00</ele>
        <time>2012-11-17T09:07:23Z</time>
      </trkpt>
      <trkpt lat="42.459041000" lon="-2.465194000">
        <ele>402.90</ele>
        <time>2012-11-17T09:07:27Z</time>
      </trkpt>
      <trkpt lat="42.459036000" lon="-2.465198000">
        <ele>402.90</ele>
        <time>2012-11-17T09:07:28Z</time>
      </trkpt>
      <trkpt lat="42.459021000" lon="-2.465201000">
        <ele>402.90</ele>
        <time>2012-11-17T09:07:30Z</time>
      </trkpt>
      <trkpt lat="42.459015000" lon="-2.465201000">
        <ele>403.00</ele>
        <time>2012-11-17T09:07:30Z</time>
      </trkpt>
      <trkpt lat="42.458915000" lon="-2.465206000">
        <ele>403.30</ele>
        <time>2012-11-17T09:07:44Z</time>
      </trkpt>
      <trkpt lat="42.458901000" lon="-2.465209000">
        <ele>403.30</ele>
        <time>2012-11-17T09:07:46Z</time>
      </trkpt>
      <trkpt lat="42.458895000" lon="-2.465213000">
        <ele>403.40</ele>
        <time>2012-11-17T09:07:46Z</time>
      </trkpt>
      <trkpt lat="42.458890000" lon="-2.465209000">
        <ele>403.40</ele>
        <time>2012-11-17T09:07:49Z</time>
      </trkpt>
      <trkpt lat="42.458896000" lon="-2.465214000">
        <ele>403.40</ele>
        <time>2012-11-17T09:07:53Z</time>
      </trkpt>
      <trkpt lat="42.458900000" lon="-2.465221000">
        <ele>403.40</ele>
        <time>2012-11-17T09:07:56Z</time>
      </trkpt>
      <trkpt lat="42.458898000" lon="-2.465223000">
        <ele>403.40</ele>
        <time>2012-11-17T09:07:58Z</time>
      </trkpt>
      <trkpt lat="42.458885000" lon="-2.465216000">
        <ele>403.40</ele>
        <time>2012-11-17T09:08:01Z</time>
      </trkpt>
      <trkpt lat="42.458880000" lon="-2.465213000">
        <ele>403.50</ele>
        <time>2012-11-17T09:08:03Z</time>
      </trkpt>
      <trkpt lat="42.458865000" lon="-2.465203000">
        <ele>403.50</ele>
        <time>2012-11-17T09:08:07Z</time>
      </trkpt>
      <trkpt lat="42.458865000" lon="-2.465204000">
        <ele>403.50</ele>
        <time>2012-11-17T09:08:08Z</time>
      </trkpt>
      <trkpt lat="42.458860000" lon="-2.465203000">
        <ele>403.50</ele>
        <time>2012-11-17T09:08:12Z</time>
      </trkpt>
      <trkpt lat="42.458858000" lon="-2.465203000">
        <ele>403.60</ele>
        <time>2012-11-17T09:08:12Z</time>
      </trkpt>
      <trkpt lat="42.458856000" lon="-2.465201000">
        <ele>403.60</ele>
        <time>2012-11-17T09:08:14Z</time>
      </trkpt>
      <trkpt lat="42.458858000" lon="-2.465203000">
        <ele>403.60</ele>
        <time>2012-11-17T09:08:14Z</time>
      </trkpt>
      <trkpt lat="42.458855000" lon="-2.465203000">
        <ele>403.60</ele>
        <time>2012-11-17T09:08:19Z</time>
      </trkpt>
      <trkpt lat="42.458855000" lon="-2.465201000">
        <ele>403.60</ele>
        <time>2012-11-17T09:08:19Z</time>
      </trkpt>
      <trkpt lat="42.458843000" lon="-2.465193000">
        <ele>403.60</ele>
        <time>2012-11-17T09:08:22Z</time>
      </trkpt>
      <trkpt lat="42.458838000" lon="-2.465186000">
        <ele>403.60</ele>
        <time>2012-11-17T09:08:24Z</time>
      </trkpt>
      <trkpt lat="42.458831000" lon="-2.465184000">
        <ele>403.60</ele>
        <time>2012-11-17T09:08:26Z</time>
      </trkpt>
      <trkpt lat="42.458830000" lon="-2.465183000">
        <ele>403.70</ele>
        <time>2012-11-17T09:08:26Z</time>
      </trkpt>
      <trkpt lat="42.458833000" lon="-2.465188000">
        <ele>403.70</ele>
        <time>2012-11-17T09:08:29Z</time>
      </trkpt>
      <trkpt lat="42.458836000" lon="-2.465191000">
        <ele>403.60</ele>
        <time>2012-11-17T09:08:29Z</time>
      </trkpt>
      <trkpt lat="42.458833000" lon="-2.465191000">
        <ele>403.60</ele>
        <time>2012-11-17T09:08:31Z</time>
      </trkpt>
      <trkpt lat="42.458831000" lon="-2.465191000">
        <ele>403.70</ele>
        <time>2012-11-17T09:08:31Z</time>
      </trkpt>
      <trkpt lat="42.458830000" lon="-2.465184000">
        <ele>403.70</ele>
        <time>2012-11-17T09:08:36Z</time>
      </trkpt>
      <trkpt lat="42.458828000" lon="-2.465183000">
        <ele>403.70</ele>
        <time>2012-11-17T09:08:40Z</time>
      </trkpt>
      <trkpt lat="42.458831000" lon="-2.465184000">
        <ele>403.70</ele>
        <time>2012-11-17T09:08:43Z</time>
      </trkpt>
      <trkpt lat="42.458831000" lon="-2.465186000">
        <ele>403.70</ele>
        <time>2012-11-17T09:08:45Z</time>
      </trkpt>
      <trkpt lat="42.458828000" lon="-2.465186000">
        <ele>403.70</ele>
        <time>2012-11-17T09:08:47Z</time>
      </trkpt>
      <trkpt lat="42.458828000" lon="-2.465189000">
        <ele>403.70</ele>
        <time>2012-11-17T09:08:52Z</time>
      </trkpt>
      <trkpt lat="42.458835000" lon="-2.465194000">
        <ele>403.70</ele>
        <time>2012-11-17T09:08:55Z</time>
      </trkpt>
      <trkpt lat="42.458838000" lon="-2.465198000">
        <ele>403.60</ele>
        <time>2012-11-17T09:08:57Z</time>
      </trkpt>
      <trkpt lat="42.458838000" lon="-2.465201000">
        <ele>403.60</ele>
        <time>2012-11-17T09:08:57Z</time>
      </trkpt>
      <trkpt lat="42.458840000" lon="-2.465203000">
        <ele>403.60</ele>
        <time>2012-11-17T09:08:59Z</time>
      </trkpt>
      <trkpt lat="42.458840000" lon="-2.465209000">
        <ele>403.60</ele>
        <time>2012-11-17T09:09:01Z</time>
      </trkpt>
      <trkpt lat="42.458836000" lon="-2.465211000">
        <ele>403.60</ele>
        <time>2012-11-17T09:09:02Z</time>
      </trkpt>
      <trkpt lat="42.458831000" lon="-2.465211000">
        <ele>403.60</ele>
        <time>2012-11-17T09:09:04Z</time>
      </trkpt>
      <trkpt lat="42.458818000" lon="-2.465226000">
        <ele>403.70</ele>
        <time>2012-11-17T09:09:06Z</time>
      </trkpt>
      <trkpt lat="42.458801000" lon="-2.465243000">
        <ele>403.70</ele>
        <time>2012-11-17T09:09:08Z</time>
      </trkpt>
      <trkpt lat="42.458776000" lon="-2.465264000">
        <ele>403.80</ele>
        <time>2012-11-17T09:09:09Z</time>
      </trkpt>
      <trkpt lat="42.458760000" lon="-2.465274000">
        <ele>403.90</ele>
        <time>2012-11-17T09:09:11Z</time>
      </trkpt>
      <trkpt lat="42.458678000" lon="-2.465308000">
        <ele>404.20</ele>
        <time>2012-11-17T09:09:16Z</time>
      </trkpt>
      <trkpt lat="42.458663000" lon="-2.465309000">
        <ele>404.30</ele>
        <time>2012-11-17T09:09:16Z</time>
      </trkpt>
      <trkpt lat="42.458646000" lon="-2.465306000">
        <ele>404.30</ele>
        <time>2012-11-17T09:09:18Z</time>
      </trkpt>
      <trkpt lat="42.458631000" lon="-2.465293000">
        <ele>404.40</ele>
        <time>2012-11-17T09:09:18Z</time>
      </trkpt>
      <trkpt lat="42.458586000" lon="-2.465221000">
        <ele>404.60</ele>
        <time>2012-11-17T09:09:22Z</time>
      </trkpt>
      <trkpt lat="42.458576000" lon="-2.465188000">
        <ele>404.70</ele>
        <time>2012-11-17T09:09:23Z</time>
      </trkpt>
      <trkpt lat="42.458100000" lon="-2.461428000">
        <ele>400.20</ele>
        <time>2012-11-17T09:10:35Z</time>
      </trkpt>
      <trkpt lat="42.458091000" lon="-2.461394000">
        <ele>400.10</ele>
        <time>2012-11-17T09:10:35Z</time>
      </trkpt>
      <trkpt lat="42.458066000" lon="-2.461256000">
        <ele>399.20</ele>
        <time>2012-11-17T09:10:42Z</time>
      </trkpt>
      <trkpt lat="42.458065000" lon="-2.461248000">
        <ele>399.20</ele>
        <time>2012-11-17T09:10:43Z</time>
      </trkpt>
      <trkpt lat="42.458066000" lon="-2.461244000">
        <ele>399.10</ele>
        <time>2012-11-17T09:10:45Z</time>
      </trkpt>
      <trkpt lat="42.458078000" lon="-2.461236000">
        <ele>399.10</ele>
        <time>2012-11-17T09:10:49Z</time>
      </trkpt>
      <trkpt lat="42.458081000" lon="-2.461236000">
        <ele>399.10</ele>
        <time>2012-11-17T09:10:50Z</time>
      </trkpt>
      <trkpt lat="42.458090000" lon="-2.461231000">
        <ele>399.10</ele>
        <time>2012-11-17T09:10:54Z</time>
      </trkpt>
      <trkpt lat="42.458111000" lon="-2.461224000">
        <ele>399.10</ele>
        <time>2012-11-17T09:10:59Z</time>
      </trkpt>
      <trkpt lat="42.458115000" lon="-2.461224000">
        <ele>399.10</ele>
        <time>2012-11-17T09:11:01Z</time>
      </trkpt>
      <trkpt lat="42.458118000" lon="-2.461224000">
        <ele>399.20</ele>
        <time>2012-11-17T09:11:01Z</time>
      </trkpt>
      <trkpt lat="42.458131000" lon="-2.461223000">
        <ele>399.20</ele>
        <time>2012-11-17T09:11:06Z</time>
      </trkpt>
      <trkpt lat="42.458133000" lon="-2.461221000">
        <ele>399.20</ele>
        <time>2012-11-17T09:11:06Z</time>
      </trkpt>
      <trkpt lat="42.458151000" lon="-2.461221000">
        <ele>399.20</ele>
        <time>2012-11-17T09:11:13Z</time>
      </trkpt>
      <trkpt lat="42.458153000" lon="-2.461219000">
        <ele>399.20</ele>
        <time>2012-11-17T09:11:13Z</time>
      </trkpt>
      <trkpt lat="42.458165000" lon="-2.461219000">
        <ele>399.20</ele>
        <time>2012-11-17T09:11:18Z</time>
      </trkpt>
      <trkpt lat="42.458171000" lon="-2.461218000">
        <ele>399.20</ele>
        <time>2012-11-17T09:11:22Z</time>
      </trkpt>
      <trkpt lat="42.458173000" lon="-2.461216000">
        <ele>399.20</ele>
        <time>2012-11-17T09:11:23Z</time>
      </trkpt>
      <trkpt lat="42.458170000" lon="-2.461163000">
        <ele>399.20</ele>
        <time>2012-11-17T09:11:27Z</time>
      </trkpt>
      <trkpt lat="42.458148000" lon="-2.461034000">
        <ele>399.00</ele>
        <time>2012-11-17T09:11:30Z</time>
      </trkpt>
      <trkpt lat="42.458136000" lon="-2.461003000">
        <ele>398.90</ele>
        <time>2012-11-17T09:11:32Z</time>
      </trkpt>
      <trkpt lat="42.458118000" lon="-2.460978000">
        <ele>398.90</ele>
        <time>2012-11-17T09:11:32Z</time>
      </trkpt>
      <trkpt lat="42.458093000" lon="-2.460963000">
        <ele>398.80</ele>
        <time>2012-11-17T09:11:34Z</time>
      </trkpt>
      <trkpt lat="42.458068000" lon="-2.460959000">
        <ele>398.80</ele>
        <time>2012-11-17T09:11:34Z</time>
      </trkpt>
      <trkpt lat="42.456923000" lon="-2.461481000">
        <ele>400.30</ele>
        <time>2012-11-17T09:12:09Z</time>
      </trkpt>
      <trkpt lat="42.456888000" lon="-2.461486000">
        <ele>400.20</ele>
        <time>2012-11-17T09:12:09Z</time>
      </trkpt>
      <trkpt lat="42.456855000" lon="-2.461483000">
        <ele>400.20</ele>
        <time>2012-11-17T09:12:11Z</time>
      </trkpt>
      <trkpt lat="42.456826000" lon="-2.461466000">
        <ele>400.10</ele>
        <time>2012-11-17T09:12:12Z</time>
      </trkpt>
      <trkpt lat="42.456801000" lon="-2.461441000">
        <ele>400.00</ele>
        <time>2012-11-17T09:12:12Z</time>
      </trkpt>
      <trkpt lat="42.456780000" lon="-2.461411000">
        <ele>399.90</ele>
        <time>2012-11-17T09:12:14Z</time>
      </trkpt>
      <trkpt lat="42.456715000" lon="-2.461218000">
        <ele>399.20</ele>
        <time>2012-11-17T09:12:19Z</time>
      </trkpt>
      <trkpt lat="42.456606000" lon="-2.460693000">
        <ele>398.00</ele>
        <time>2012-11-17T09:12:31Z</time>
      </trkpt>
      <trkpt lat="42.456591000" lon="-2.460653000">
        <ele>397.90</ele>
        <time>2012-11-17T09:12:33Z</time>
      </trkpt>
      <trkpt lat="42.456510000" lon="-2.460524000">
        <ele>397.50</ele>
        <time>2012-11-17T09:12:37Z</time>
      </trkpt>
      <trkpt lat="42.456446000" lon="-2.460389000">
        <ele>397.20</ele>
        <time>2012-11-17T09:12:40Z</time>
      </trkpt>
      <trkpt lat="42.456426000" lon="-2.460364000">
        <ele>397.10</ele>
        <time>2012-11-17T09:12:42Z</time>
      </trkpt>
      <trkpt lat="42.456405000" lon="-2.460351000">
        <ele>397.00</ele>
        <time>2012-11-17T09:12:42Z</time>
      </trkpt>
      <trkpt lat="42.456380000" lon="-2.460346000">
        <ele>397.00</ele>
        <time>2012-11-17T09:12:44Z</time>
      </trkpt>
      <trkpt lat="42.456285000" lon="-2.460373000">
        <ele>396.90</ele>
        <time>2012-11-17T09:12:47Z</time>
      </trkpt>
      <trkpt lat="42.456233000" lon="-2.460366000">
        <ele>396.80</ele>
        <time>2012-11-17T09:12:49Z</time>
      </trkpt>
      <trkpt lat="42.456120000" lon="-2.460298000">
        <ele>396.20</ele>
        <time>2012-11-17T09:12:54Z</time>
      </trkpt>
      <trkpt lat="42.456070000" lon="-2.460283000">
        <ele>396.00</ele>
        <time>2012-11-17T09:12:56Z</time>
      </trkpt>
      <trkpt lat="42.456043000" lon="-2.460281000">
        <ele>395.90</ele>
        <time>2012-11-17T09:12:58Z</time>
      </trkpt>
      <trkpt lat="42.455793000" lon="-2.460309000">
        <ele>395.00</ele>
        <time>2012-11-17T09:13:08Z</time>
      </trkpt>
      <trkpt lat="42.455763000" lon="-2.460318000">
        <ele>394.90</ele>
        <time>2012-11-17T09:13:10Z</time>
      </trkpt>
      <trkpt lat="42.455756000" lon="-2.460316000">
        <ele>394.80</ele>
        <time>2012-11-17T09:13:12Z</time>
      </trkpt>
      <trkpt lat="42.455710000" lon="-2.460313000">
        <ele>394.70</ele>
        <time>2012-11-17T09:13:15Z</time>
      </trkpt>
      <trkpt lat="42.455695000" lon="-2.460316000">
        <ele>394.60</ele>
        <time>2012-11-17T09:13:17Z</time>
      </trkpt>
      <trkpt lat="42.455685000" lon="-2.460321000">
        <ele>394.60</ele>
        <time>2012-11-17T09:13:17Z</time>
      </trkpt>
      <trkpt lat="42.455661000" lon="-2.460328000">
        <ele>394.60</ele>
        <time>2012-11-17T09:13:20Z</time>
      </trkpt>
      <trkpt lat="42.455613000" lon="-2.460324000">
        <ele>394.40</ele>
        <time>2012-11-17T09:13:24Z</time>
      </trkpt>
      <trkpt lat="42.455603000" lon="-2.460324000">
        <ele>394.30</ele>
        <time>2012-11-17T09:13:24Z</time>
      </trkpt>
      <trkpt lat="42.455588000" lon="-2.460326000">
        <ele>394.30</ele>
        <time>2012-11-17T09:13:25Z</time>
      </trkpt>
      <trkpt lat="42.455555000" lon="-2.460333000">
        <ele>394.20</ele>
        <time>2012-11-17T09:13:27Z</time>
      </trkpt>
      <trkpt lat="42.455488000" lon="-2.460331000">
        <ele>394.00</ele>
        <time>2012-11-17T09:13:31Z</time>
      </trkpt>
      <trkpt lat="42.455471000" lon="-2.460329000">
        <ele>393.90</ele>
        <time>2012-11-17T09:13:32Z</time>
      </trkpt>
      <trkpt lat="42.455451000" lon="-2.460324000">
        <ele>393.80</ele>
        <time>2012-11-17T09:13:34Z</time>
      </trkpt>
      <trkpt lat="42.455435000" lon="-2.460309000">
        <ele>393.80</ele>
        <time>2012-11-17T09:13:34Z</time>
      </trkpt>
      <trkpt lat="42.455408000" lon="-2.460271000">
        <ele>393.60</ele>
        <time>2012-11-17T09:13:36Z</time>
      </trkpt>
      <trkpt lat="42.455251000" lon="-2.459881000">
        <ele>392.60</ele>
        <time>2012-11-17T09:13:48Z</time>
      </trkpt>
      <trkpt lat="42.455068000" lon="-2.459344000">
        <ele>392.20</ele>
        <time>2012-11-17T09:13:57Z</time>
      </trkpt>
      <trkpt lat="42.454888000" lon="-2.459048000">
        <ele>392.60</ele>
        <time>2012-11-17T09:14:06Z</time>
      </trkpt>
      <trkpt lat="42.454728000" lon="-2.458859000">
        <ele>392.80</ele>
        <time>2012-11-17T09:14:11Z</time>
      </trkpt>
      <trkpt lat="42.454698000" lon="-2.458836000">
        <ele>392.80</ele>
        <time>2012-11-17T09:14:12Z</time>
      </trkpt>
      <trkpt lat="42.454636000" lon="-2.458814000">
        <ele>392.90</ele>
        <time>2012-11-17T09:14:14Z</time>
      </trkpt>
      <trkpt lat="42.454606000" lon="-2.458818000">
        <ele>393.00</ele>
        <time>2012-11-17T09:14:16Z</time>
      </trkpt>
      <trkpt lat="42.454578000" lon="-2.458838000">
        <ele>393.00</ele>
        <time>2012-11-17T09:14:16Z</time>
      </trkpt>
      <trkpt lat="42.454481000" lon="-2.458963000">
        <ele>393.10</ele>
        <time>2012-11-17T09:14:21Z</time>
      </trkpt>
      <trkpt lat="42.454348000" lon="-2.459064000">
        <ele>393.10</ele>
        <time>2012-11-17T09:14:25Z</time>
      </trkpt>
      <trkpt lat="42.454280000" lon="-2.459168000">
        <ele>393.10</ele>
        <time>2012-11-17T09:14:28Z</time>
      </trkpt>
      <trkpt lat="42.454250000" lon="-2.459189000">
        <ele>393.10</ele>
        <time>2012-11-17T09:14:28Z</time>
      </trkpt>
      <trkpt lat="42.453301000" lon="-2.459486000">
        <ele>392.60</ele>
        <time>2012-11-17T09:14:51Z</time>
      </trkpt>
      <trkpt lat="42.453260000" lon="-2.459514000">
        <ele>392.60</ele>
        <time>2012-11-17T09:14:53Z</time>
      </trkpt>
      <trkpt lat="42.453193000" lon="-2.459591000">
        <ele>392.60</ele>
        <time>2012-11-17T09:14:54Z</time>
      </trkpt>
      <trkpt lat="42.453166000" lon="-2.459633000">
        <ele>392.60</ele>
        <time>2012-11-17T09:14:56Z</time>
      </trkpt>
      <trkpt lat="42.453133000" lon="-2.459669000">
        <ele>392.70</ele>
        <time>2012-11-17T09:14:56Z</time>
      </trkpt>
      <trkpt lat="42.453095000" lon="-2.459698000">
        <ele>392.70</ele>
        <time>2012-11-17T09:14:58Z</time>
      </trkpt>
      <trkpt lat="42.453055000" lon="-2.459713000">
        <ele>392.80</ele>
        <time>2012-11-17T09:14:58Z</time>
      </trkpt>
      <trkpt lat="42.453015000" lon="-2.459714000">
        <ele>392.80</ele>
        <time>2012-11-17T09:15:00Z</time>
      </trkpt>
      <trkpt lat="42.452858000" lon="-2.459669000">
        <ele>393.00</ele>
        <time>2012-11-17T09:15:03Z</time>
      </trkpt>
      <trkpt lat="42.452820000" lon="-2.459668000">
        <ele>393.20</ele>
        <time>2012-11-17T09:15:05Z</time>
      </trkpt>
      <trkpt lat="42.450558000" lon="-2.460389000">
        <ele>396.00</ele>
        <time>2012-11-17T09:16:04Z</time>
      </trkpt>
      <trkpt lat="42.450533000" lon="-2.460406000">
        <ele>396.00</ele>
        <time>2012-11-17T09:16:04Z</time>
      </trkpt>
      <trkpt lat="42.450516000" lon="-2.460423000">
        <ele>396.00</ele>
        <time>2012-11-17T09:16:06Z</time>
      </trkpt>
      <trkpt lat="42.450436000" lon="-2.460613000">
        <ele>396.10</ele>
        <time>2012-11-17T09:16:11Z</time>
      </trkpt>
      <trkpt lat="42.450426000" lon="-2.460653000">
        <ele>396.20</ele>
        <time>2012-11-17T09:16:13Z</time>
      </trkpt>
      <trkpt lat="42.450423000" lon="-2.460694000">
        <ele>396.20</ele>
        <time>2012-11-17T09:16:13Z</time>
      </trkpt>
      <trkpt lat="42.450590000" lon="-2.461899000">
        <ele>398.50</ele>
        <time>2012-11-17T09:16:42Z</time>
      </trkpt>
      <trkpt lat="42.450591000" lon="-2.461981000">
        <ele>398.60</ele>
        <time>2012-11-17T09:16:42Z</time>
      </trkpt>
      <trkpt lat="42.450676000" lon="-2.462243000">
        <ele>398.90</ele>
        <time>2012-11-17T09:16:49Z</time>
      </trkpt>
      <trkpt lat="42.450730000" lon="-2.462731000">
        <ele>398.70</ele>
        <time>2012-11-17T09:17:00Z</time>
      </trkpt>
      <trkpt lat="42.450743000" lon="-2.463153000">
        <ele>398.40</ele>
        <time>2012-11-17T09:17:10Z</time>
      </trkpt>
      <trkpt lat="42.450750000" lon="-2.463199000">
        <ele>398.40</ele>
        <time>2012-11-17T09:17:10Z</time>
      </trkpt>
      <trkpt lat="42.450781000" lon="-2.463328000">
        <ele>398.30</ele>
        <time>2012-11-17T09:17:14Z</time>
      </trkpt>
      <trkpt lat="42.450788000" lon="-2.463376000">
        <ele>398.20</ele>
        <time>2012-11-17T09:17:14Z</time>
      </trkpt>
      <trkpt lat="42.450790000" lon="-2.463426000">
        <ele>398.20</ele>
        <time>2012-11-17T09:17:15Z</time>
      </trkpt>
      <trkpt lat="42.450765000" lon="-2.463699000">
        <ele>398.00</ele>
        <time>2012-11-17T09:17:22Z</time>
      </trkpt>
      <trkpt lat="42.450798000" lon="-2.465981000">
        <ele>399.10</ele>
        <time>2012-11-17T09:18:13Z</time>
      </trkpt>
      <trkpt lat="42.450805000" lon="-2.466021000">
        <ele>399.10</ele>
        <time>2012-11-17T09:18:13Z</time>
      </trkpt>
      <trkpt lat="42.450841000" lon="-2.466186000">
        <ele>399.40</ele>
        <time>2012-11-17T09:18:18Z</time>
      </trkpt>
      <trkpt lat="42.450840000" lon="-2.466234000">
        <ele>399.40</ele>
        <time>2012-11-17T09:18:18Z</time>
      </trkpt>
      <trkpt lat="42.450833000" lon="-2.466281000">
        <ele>399.40</ele>
        <time>2012-11-17T09:18:20Z</time>
      </trkpt>
      <trkpt lat="42.450768000" lon="-2.466503000">
        <ele>399.30</ele>
        <time>2012-11-17T09:18:25Z</time>
      </trkpt>
      <trkpt lat="42.450548000" lon="-2.470683000">
        <ele>398.50</ele>
        <time>2012-11-17T09:19:52Z</time>
      </trkpt>
      <trkpt lat="42.450556000" lon="-2.470729000">
        <ele>398.60</ele>
        <time>2012-11-17T09:19:52Z</time>
      </trkpt>
      <trkpt lat="42.450601000" lon="-2.470856000">
        <ele>398.70</ele>
        <time>2012-11-17T09:19:56Z</time>
      </trkpt>
      <trkpt lat="42.450618000" lon="-2.470954000">
        <ele>398.70</ele>
        <time>2012-11-17T09:19:57Z</time>
      </trkpt>
      <trkpt lat="42.450616000" lon="-2.471004000">
        <ele>398.70</ele>
        <time>2012-11-17T09:19:59Z</time>
      </trkpt>
      <trkpt lat="42.450606000" lon="-2.471051000">
        <ele>398.70</ele>
        <time>2012-11-17T09:19:59Z</time>
      </trkpt>
      <trkpt lat="42.450568000" lon="-2.471141000">
        <ele>398.60</ele>
        <time>2012-11-17T09:20:01Z</time>
      </trkpt>
      <trkpt lat="42.450540000" lon="-2.471178000">
        <ele>398.50</ele>
        <time>2012-11-17T09:20:03Z</time>
      </trkpt>
      <trkpt lat="42.450508000" lon="-2.471201000">
        <ele>398.40</ele>
        <time>2012-11-17T09:20:04Z</time>
      </trkpt>
      <trkpt lat="42.450471000" lon="-2.471211000">
        <ele>398.30</ele>
        <time>2012-11-17T09:20:04Z</time>
      </trkpt>
      <trkpt lat="42.450436000" lon="-2.471208000">
        <ele>398.20</ele>
        <time>2012-11-17T09:20:06Z</time>
      </trkpt>
      <trkpt lat="42.450401000" lon="-2.471194000">
        <ele>398.10</ele>
        <time>2012-11-17T09:20:06Z</time>
      </trkpt>
      <trkpt lat="42.450368000" lon="-2.471171000">
        <ele>398.10</ele>
        <time>2012-11-17T09:20:08Z</time>
      </trkpt>
      <trkpt lat="42.450338000" lon="-2.471143000">
        <ele>398.10</ele>
        <time>2012-11-17T09:20:08Z</time>
      </trkpt>
      <trkpt lat="42.450250000" lon="-2.471041000">
        <ele>398.20</ele>
        <time>2012-11-17T09:20:11Z</time>
      </trkpt>
      <trkpt lat="42.450145000" lon="-2.470971000">
        <ele>398.30</ele>
        <time>2012-11-17T09:20:15Z</time>
      </trkpt>
      <trkpt lat="42.449715000" lon="-2.470834000">
        <ele>398.70</ele>
        <time>2012-11-17T09:20:25Z</time>
      </trkpt>
      <trkpt lat="42.447065000" lon="-2.470593000">
        <ele>406.20</ele>
        <time>2012-11-17T09:21:30Z</time>
      </trkpt>
      <trkpt lat="42.447026000" lon="-2.470598000">
        <ele>406.30</ele>
        <time>2012-11-17T09:21:31Z</time>
      </trkpt>
      <trkpt lat="42.446843000" lon="-2.470658000">
        <ele>406.90</ele>
        <time>2012-11-17T09:21:37Z</time>
      </trkpt>
      <trkpt lat="42.446813000" lon="-2.470686000">
        <ele>407.00</ele>
        <time>2012-11-17T09:21:37Z</time>
      </trkpt>
      <trkpt lat="42.446788000" lon="-2.470723000">
        <ele>407.10</ele>
        <time>2012-11-17T09:21:38Z</time>
      </trkpt>
      <trkpt lat="42.446611000" lon="-2.471099000">
        <ele>408.10</ele>
        <time>2012-11-17T09:21:47Z</time>
      </trkpt>
      <trkpt lat="42.446531000" lon="-2.471199000">
        <ele>408.40</ele>
        <time>2012-11-17T09:21:51Z</time>
      </trkpt>
      <trkpt lat="42.446378000" lon="-2.471303000">
        <ele>408.80</ele>
        <time>2012-11-17T09:21:56Z</time>
      </trkpt>
      <trkpt lat="42.446145000" lon="-2.471364000">
        <ele>409.30</ele>
        <time>2012-11-17T09:22:03Z</time>
      </trkpt>
      <trkpt lat="42.445915000" lon="-2.471376000">
        <ele>410.10</ele>
        <time>2012-11-17T09:22:10Z</time>
      </trkpt>
      <trkpt lat="42.445821000" lon="-2.471411000">
        <ele>410.40</ele>
        <time>2012-11-17T09:22:13Z</time>
      </trkpt>
      <trkpt lat="42.445765000" lon="-2.471458000">
        <ele>410.70</ele>
        <time>2012-11-17T09:22:15Z</time>
      </trkpt>
      <trkpt lat="42.445588000" lon="-2.471699000">
        <ele>411.30</ele>
        <time>2012-11-17T09:22:22Z</time>
      </trkpt>
      <trkpt lat="42.445525000" lon="-2.471754000">
        <ele>411.50</ele>
        <time>2012-11-17T09:22:24Z</time>
      </trkpt>
      <trkpt lat="42.444578000" lon="-2.472234000">
        <ele>412.00</ele>
        <time>2012-11-17T09:22:50Z</time>
      </trkpt>
      <trkpt lat="42.444548000" lon="-2.472256000">
        <ele>412.00</ele>
        <time>2012-11-17T09:22:52Z</time>
      </trkpt>
      <trkpt lat="42.444418000" lon="-2.472323000">
        <ele>412.10</ele>
        <time>2012-11-17T09:22:55Z</time>
      </trkpt>
      <trkpt lat="42.444383000" lon="-2.472323000">
        <ele>412.20</ele>
        <time>2012-11-17T09:22:57Z</time>
      </trkpt>
      <trkpt lat="42.444348000" lon="-2.472313000">
        <ele>412.20</ele>
        <time>2012-11-17T09:22:57Z</time>
      </trkpt>
      <trkpt lat="42.444065000" lon="-2.472091000">
        <ele>412.50</ele>
        <time>2012-11-17T09:23:07Z</time>
      </trkpt>
      <trkpt lat="42.444033000" lon="-2.472074000">
        <ele>412.60</ele>
        <time>2012-11-17T09:23:07Z</time>
      </trkpt>
      <trkpt lat="42.443811000" lon="-2.472021000">
        <ele>412.70</ele>
        <time>2012-11-17T09:23:14Z</time>
      </trkpt>
      <trkpt lat="42.443576000" lon="-2.472031000">
        <ele>412.70</ele>
        <time>2012-11-17T09:23:21Z</time>
      </trkpt>
      <trkpt lat="42.443400000" lon="-2.472081000">
        <ele>412.60</ele>
        <time>2012-11-17T09:23:26Z</time>
      </trkpt>
      <trkpt lat="42.442678000" lon="-2.472446000">
        <ele>412.70</ele>
        <time>2012-11-17T09:23:49Z</time>
      </trkpt>
      <trkpt lat="42.441903000" lon="-2.472666000">
        <ele>414.20</ele>
        <time>2012-11-17T09:24:13Z</time>
      </trkpt>
      <trkpt lat="42.441873000" lon="-2.472666000">
        <ele>414.30</ele>
        <time>2012-11-17T09:24:15Z</time>
      </trkpt>
      <trkpt lat="42.441815000" lon="-2.472646000">
        <ele>414.40</ele>
        <time>2012-11-17T09:24:17Z</time>
      </trkpt>
      <trkpt lat="42.441790000" lon="-2.472626000">
        <ele>414.50</ele>
        <time>2012-11-17T09:24:17Z</time>
      </trkpt>
      <trkpt lat="42.441766000" lon="-2.472601000">
        <ele>414.50</ele>
        <time>2012-11-17T09:24:19Z</time>
      </trkpt>
      <trkpt lat="42.441748000" lon="-2.472571000">
        <ele>414.50</ele>
        <time>2012-11-17T09:24:19Z</time>
      </trkpt>
      <trkpt lat="42.441701000" lon="-2.472424000">
        <ele>414.60</ele>
        <time>2012-11-17T09:24:24Z</time>
      </trkpt>
      <trkpt lat="42.441600000" lon="-2.471946000">
        <ele>414.60</ele>
        <time>2012-11-17T09:24:36Z</time>
      </trkpt>
      <trkpt lat="42.441526000" lon="-2.471741000">
        <ele>414.70</ele>
        <time>2012-11-17T09:24:41Z</time>
      </trkpt>
      <trkpt lat="42.441188000" lon="-2.471131000">
        <ele>415.10</ele>
        <time>2012-11-17T09:24:55Z</time>
      </trkpt>
      <trkpt lat="42.441170000" lon="-2.471084000">
        <ele>415.10</ele>
        <time>2012-11-17T09:24:57Z</time>
      </trkpt>
      <trkpt lat="42.441156000" lon="-2.471033000">
        <ele>415.10</ele>
        <time>2012-11-17T09:24:57Z</time>
      </trkpt>
      <trkpt lat="42.441033000" lon="-2.469724000">
        <ele>413.70</ele>
        <time>2012-11-17T09:25:21Z</time>
      </trkpt>
      <trkpt lat="42.441020000" lon="-2.469673000">
        <ele>413.60</ele>
        <time>2012-11-17T09:25:21Z</time>
      </trkpt>
      <trkpt lat="42.440985000" lon="-2.469579000">
        <ele>413.40</ele>
        <time>2012-11-17T09:25:23Z</time>
      </trkpt>
      <trkpt lat="42.440958000" lon="-2.469544000">
        <ele>413.40</ele>
        <time>2012-11-17T09:25:25Z</time>
      </trkpt>
      <trkpt lat="42.440925000" lon="-2.469519000">
        <ele>413.40</ele>
        <time>2012-11-17T09:25:25Z</time>
      </trkpt>
      <trkpt lat="42.440888000" lon="-2.469511000">
        <ele>413.50</ele>
        <time>2012-11-17T09:25:27Z</time>
      </trkpt>
      <trkpt lat="42.439420000" lon="-2.469916000">
        <ele>421.90</ele>
        <time>2012-11-17T09:26:10Z</time>
      </trkpt>
      <trkpt lat="42.439331000" lon="-2.469916000">
        <ele>422.30</ele>
        <time>2012-11-17T09:26:12Z</time>
      </trkpt>
      <trkpt lat="42.439250000" lon="-2.469889000">
        <ele>422.70</ele>
        <time>2012-11-17T09:26:15Z</time>
      </trkpt>
      <trkpt lat="42.439151000" lon="-2.469809000">
        <ele>423.20</ele>
        <time>2012-11-17T09:26:19Z</time>
      </trkpt>
      <trkpt lat="42.439083000" lon="-2.469736000">
        <ele>423.60</ele>
        <time>2012-11-17T09:26:22Z</time>
      </trkpt>
      <trkpt lat="42.439056000" lon="-2.469716000">
        <ele>423.70</ele>
        <time>2012-11-17T09:26:24Z</time>
      </trkpt>
      <trkpt lat="42.438945000" lon="-2.469656000">
        <ele>424.40</ele>
        <time>2012-11-17T09:26:28Z</time>
      </trkpt>
      <trkpt lat="42.438851000" lon="-2.469644000">
        <ele>425.00</ele>
        <time>2012-11-17T09:26:31Z</time>
      </trkpt>
      <trkpt lat="42.438596000" lon="-2.469679000">
        <ele>426.00</ele>
        <time>2012-11-17T09:26:40Z</time>
      </trkpt>
      <trkpt lat="42.438570000" lon="-2.469676000">
        <ele>426.10</ele>
        <time>2012-11-17T09:26:40Z</time>
      </trkpt>
      <trkpt lat="42.436613000" lon="-2.468328000">
        <ele>432.50</ele>
        <time>2012-11-17T09:27:44Z</time>
      </trkpt>
      <trkpt lat="42.436585000" lon="-2.468323000">
        <ele>432.60</ele>
        <time>2012-11-17T09:27:44Z</time>
      </trkpt>
      <trkpt lat="42.436556000" lon="-2.468336000">
        <ele>433.00</ele>
        <time>2012-11-17T09:27:46Z</time>
      </trkpt>
      <trkpt lat="42.436531000" lon="-2.468361000">
        <ele>433.10</ele>
        <time>2012-11-17T09:27:46Z</time>
      </trkpt>
      <trkpt lat="42.435071000" lon="-2.471373000">
        <ele>438.20</ele>
        <time>2012-11-17T09:28:57Z</time>
      </trkpt>
      <trkpt lat="42.435051000" lon="-2.471431000">
        <ele>438.20</ele>
        <time>2012-11-17T09:28:59Z</time>
      </trkpt>
      <trkpt lat="42.434668000" lon="-2.472176000">
        <ele>439.40</ele>
        <time>2012-11-17T09:29:18Z</time>
      </trkpt>
      <trkpt lat="42.434621000" lon="-2.472229000">
        <ele>439.60</ele>
        <time>2012-11-17T09:29:20Z</time>
      </trkpt>
      <trkpt lat="42.434520000" lon="-2.472323000">
        <ele>440.10</ele>
        <time>2012-11-17T09:29:24Z</time>
      </trkpt>
      <trkpt lat="42.434496000" lon="-2.472358000">
        <ele>440.30</ele>
        <time>2012-11-17T09:29:25Z</time>
      </trkpt>
      <trkpt lat="42.434480000" lon="-2.472401000">
        <ele>440.40</ele>
        <time>2012-11-17T09:29:25Z</time>
      </trkpt>
      <trkpt lat="42.434416000" lon="-2.472853000">
        <ele>440.90</ele>
        <time>2012-11-17T09:29:34Z</time>
      </trkpt>
      <trkpt lat="42.434353000" lon="-2.473098000">
        <ele>441.20</ele>
        <time>2012-11-17T09:29:39Z</time>
      </trkpt>
      <trkpt lat="42.434346000" lon="-2.473153000">
        <ele>441.30</ele>
        <time>2012-11-17T09:29:41Z</time>
      </trkpt>
      <trkpt lat="42.434346000" lon="-2.473209000">
        <ele>441.30</ele>
        <time>2012-11-17T09:29:41Z</time>
      </trkpt>
      <trkpt lat="42.434353000" lon="-2.473268000">
        <ele>441.30</ele>
        <time>2012-11-17T09:29:43Z</time>
      </trkpt>
      <trkpt lat="42.434370000" lon="-2.473321000">
        <ele>441.30</ele>
        <time>2012-11-17T09:29:43Z</time>
      </trkpt>
      <trkpt lat="42.434398000" lon="-2.473366000">
        <ele>441.20</ele>
        <time>2012-11-17T09:29:44Z</time>
      </trkpt>
      <trkpt lat="42.434433000" lon="-2.473401000">
        <ele>441.00</ele>
        <time>2012-11-17T09:29:46Z</time>
      </trkpt>
      <trkpt lat="42.434808000" lon="-2.473648000">
        <ele>439.30</ele>
        <time>2012-11-17T09:29:55Z</time>
      </trkpt>
      <trkpt lat="42.434938000" lon="-2.473788000">
        <ele>438.90</ele>
        <time>2012-11-17T09:30:00Z</time>
      </trkpt>
      <trkpt lat="42.434963000" lon="-2.473828000">
        <ele>438.80</ele>
        <time>2012-11-17T09:30:00Z</time>
      </trkpt>
      <trkpt lat="42.434983000" lon="-2.473873000">
        <ele>438.90</ele>
        <time>2012-11-17T09:30:02Z</time>
      </trkpt>
      <trkpt lat="42.434995000" lon="-2.473918000">
        <ele>438.90</ele>
        <time>2012-11-17T09:30:02Z</time>
      </trkpt>
      <trkpt lat="42.435000000" lon="-2.473964000">
        <ele>439.00</ele>
        <time>2012-11-17T09:30:04Z</time>
      </trkpt>
      <trkpt lat="42.434951000" lon="-2.474904000">
        <ele>441.90</ele>
        <time>2012-11-17T09:30:23Z</time>
      </trkpt>
      <trkpt lat="42.435016000" lon="-2.476594000">
        <ele>445.90</ele>
        <time>2012-11-17T09:31:03Z</time>
      </trkpt>
      <trkpt lat="42.435011000" lon="-2.476636000">
        <ele>446.00</ele>
        <time>2012-11-17T09:31:03Z</time>
      </trkpt>
      <trkpt lat="42.434810000" lon="-2.478378000">
        <ele>455.30</ele>
        <time>2012-11-17T09:31:53Z</time>
      </trkpt>
      <trkpt lat="42.434765000" lon="-2.478518000">
        <ele>455.70</ele>
        <time>2012-11-17T09:32:00Z</time>
      </trkpt>
      <trkpt lat="42.434760000" lon="-2.478543000">
        <ele>455.80</ele>
        <time>2012-11-17T09:32:00Z</time>
      </trkpt>
      <trkpt lat="42.434663000" lon="-2.478761000">
        <ele>456.00</ele>
        <time>2012-11-17T09:32:11Z</time>
      </trkpt>
      <trkpt lat="42.434656000" lon="-2.478786000">
        <ele>456.00</ele>
        <time>2012-11-17T09:32:11Z</time>
      </trkpt>
      <trkpt lat="42.434535000" lon="-2.479378000">
        <ele>458.70</ele>
        <time>2012-11-17T09:32:28Z</time>
      </trkpt>
      <trkpt lat="42.434450000" lon="-2.479836000">
        <ele>461.80</ele>
        <time>2012-11-17T09:32:40Z</time>
      </trkpt>
      <trkpt lat="42.434445000" lon="-2.479936000">
        <ele>462.40</ele>
        <time>2012-11-17T09:32:44Z</time>
      </trkpt>
      <trkpt lat="42.434481000" lon="-2.480358000">
        <ele>464.40</ele>
        <time>2012-11-17T09:32:56Z</time>
      </trkpt>
      <trkpt lat="42.434455000" lon="-2.480921000">
        <ele>466.40</ele>
        <time>2012-11-17T09:33:10Z</time>
      </trkpt>
      <trkpt lat="42.434493000" lon="-2.481231000">
        <ele>466.90</ele>
        <time>2012-11-17T09:33:19Z</time>
      </trkpt>
      <trkpt lat="42.434493000" lon="-2.481266000">
        <ele>467.00</ele>
        <time>2012-11-17T09:33:20Z</time>
      </trkpt>
      <trkpt lat="42.434488000" lon="-2.481433000">
        <ele>467.60</ele>
        <time>2012-11-17T09:33:26Z</time>
      </trkpt>
      <trkpt lat="42.434480000" lon="-2.481464000">
        <ele>467.80</ele>
        <time>2012-11-17T09:33:26Z</time>
      </trkpt>
      <trkpt lat="42.434468000" lon="-2.481494000">
        <ele>468.00</ele>
        <time>2012-11-17T09:33:27Z</time>
      </trkpt>
      <trkpt lat="42.434280000" lon="-2.481807000">
        <ele>470.00</ele>
        <time>2012-11-17T09:33:38Z</time>
      </trkpt>
      <trkpt lat="42.434221000" lon="-2.482003000">
        <ele>471.40</ele>
        <time>2012-11-17T09:33:45Z</time>
      </trkpt>
      <trkpt lat="42.434210000" lon="-2.482028000">
        <ele>471.50</ele>
        <time>2012-11-17T09:33:47Z</time>
      </trkpt>
      <trkpt lat="42.434195000" lon="-2.482049000">
        <ele>471.60</ele>
        <time>2012-11-17T09:33:48Z</time>
      </trkpt>
      <trkpt lat="42.434175000" lon="-2.482066000">
        <ele>471.70</ele>
        <time>2012-11-17T09:33:48Z</time>
      </trkpt>
      <trkpt lat="42.434153000" lon="-2.482074000">
        <ele>471.90</ele>
        <time>2012-11-17T09:33:50Z</time>
      </trkpt>
      <trkpt lat="42.433996000" lon="-2.482044000">
        <ele>472.60</ele>
        <time>2012-11-17T09:33:55Z</time>
      </trkpt>
      <trkpt lat="42.433883000" lon="-2.482066000">
        <ele>473.20</ele>
        <time>2012-11-17T09:33:59Z</time>
      </trkpt>
      <trkpt lat="42.433836000" lon="-2.482063000">
        <ele>473.40</ele>
        <time>2012-11-17T09:34:02Z</time>
      </trkpt>
      <trkpt lat="42.433786000" lon="-2.482053000">
        <ele>473.70</ele>
        <time>2012-11-17T09:34:04Z</time>
      </trkpt>
      <trkpt lat="42.433551000" lon="-2.482069000">
        <ele>476.00</ele>
        <time>2012-11-17T09:34:13Z</time>
      </trkpt>
      <trkpt lat="42.433473000" lon="-2.482109000">
        <ele>477.00</ele>
        <time>2012-11-17T09:34:16Z</time>
      </trkpt>
      <trkpt lat="42.433246000" lon="-2.482318000">
        <ele>480.20</ele>
        <time>2012-11-17T09:34:30Z</time>
      </trkpt>
      <trkpt lat="42.433228000" lon="-2.482328000">
        <ele>480.30</ele>
        <time>2012-11-17T09:34:30Z</time>
      </trkpt>
      <trkpt lat="42.433148000" lon="-2.482399000">
        <ele>481.30</ele>
        <time>2012-11-17T09:34:35Z</time>
      </trkpt>
      <trkpt lat="42.432865000" lon="-2.482603000">
        <ele>483.80</ele>
        <time>2012-11-17T09:34:53Z</time>
      </trkpt>
      <trkpt lat="42.432621000" lon="-2.482753000">
        <ele>483.00</ele>
        <time>2012-11-17T09:35:07Z</time>
      </trkpt>
      <trkpt lat="42.432453000" lon="-2.482806000">
        <ele>483.20</ele>
        <time>2012-11-17T09:35:17Z</time>
      </trkpt>
      <trkpt lat="42.432356000" lon="-2.482819000">
        <ele>483.10</ele>
        <time>2012-11-17T09:35:22Z</time>
      </trkpt>
      <trkpt lat="42.432121000" lon="-2.482909000">
        <ele>483.00</ele>
        <time>2012-11-17T09:35:33Z</time>
      </trkpt>
      <trkpt lat="42.432103000" lon="-2.482921000">
        <ele>483.00</ele>
        <time>2012-11-17T09:35:35Z</time>
      </trkpt>
      <trkpt lat="42.432041000" lon="-2.482978000">
        <ele>483.20</ele>
        <time>2012-11-17T09:35:38Z</time>
      </trkpt>
      <trkpt lat="42.431983000" lon="-2.483088000">
        <ele>483.80</ele>
        <time>2012-11-17T09:35:45Z</time>
      </trkpt>
      <trkpt lat="42.431970000" lon="-2.483131000">
        <ele>484.00</ele>
        <time>2012-11-17T09:35:47Z</time>
      </trkpt>
      <trkpt lat="42.431965000" lon="-2.483178000">
        <ele>484.20</ele>
        <time>2012-11-17T09:35:48Z</time>
      </trkpt>
      <trkpt lat="42.431966000" lon="-2.483281000">
        <ele>484.60</ele>
        <time>2012-11-17T09:35:52Z</time>
      </trkpt>
      <trkpt lat="42.431970000" lon="-2.483306000">
        <ele>484.70</ele>
        <time>2012-11-17T09:35:54Z</time>
      </trkpt>
      <trkpt lat="42.432000000" lon="-2.483609000">
        <ele>485.40</ele>
        <time>2012-11-17T09:36:06Z</time>
      </trkpt>
      <trkpt lat="42.432031000" lon="-2.483758000">
        <ele>485.50</ele>
        <time>2012-11-17T09:36:15Z</time>
      </trkpt>
      <trkpt lat="42.432043000" lon="-2.483829000">
        <ele>485.60</ele>
        <time>2012-11-17T09:36:18Z</time>
      </trkpt>
      <trkpt lat="42.432060000" lon="-2.483879000">
        <ele>485.70</ele>
        <time>2012-11-17T09:36:22Z</time>
      </trkpt>
      <trkpt lat="42.432150000" lon="-2.484234000">
        <ele>487.60</ele>
        <time>2012-11-17T09:36:41Z</time>
      </trkpt>
      <trkpt lat="42.432151000" lon="-2.484253000">
        <ele>487.70</ele>
        <time>2012-11-17T09:36:42Z</time>
      </trkpt>
      <trkpt lat="42.432185000" lon="-2.484601000">
        <ele>489.90</ele>
        <time>2012-11-17T09:37:00Z</time>
      </trkpt>
      <trkpt lat="42.432198000" lon="-2.484713000">
        <ele>490.10</ele>
        <time>2012-11-17T09:37:05Z</time>
      </trkpt>
      <trkpt lat="42.432223000" lon="-2.486061000">
        <ele>488.70</ele>
        <time>2012-11-17T09:37:54Z</time>
      </trkpt>
      <trkpt lat="42.432228000" lon="-2.486091000">
        <ele>488.70</ele>
        <time>2012-11-17T09:37:56Z</time>
      </trkpt>
      <trkpt lat="42.432451000" lon="-2.487039000">
        <ele>486.80</ele>
        <time>2012-11-17T09:38:15Z</time>
      </trkpt>
      <trkpt lat="42.432450000" lon="-2.487098000">
        <ele>486.60</ele>
        <time>2012-11-17T09:38:15Z</time>
      </trkpt>
      <trkpt lat="42.432438000" lon="-2.487149000">
        <ele>486.30</ele>
        <time>2012-11-17T09:38:17Z</time>
      </trkpt>
      <trkpt lat="42.432416000" lon="-2.487194000">
        <ele>486.00</ele>
        <time>2012-11-17T09:38:18Z</time>
      </trkpt>
      <trkpt lat="42.432385000" lon="-2.487229000">
        <ele>485.70</ele>
        <time>2012-11-17T09:38:18Z</time>
      </trkpt>
      <trkpt lat="42.432346000" lon="-2.487246000">
        <ele>485.50</ele>
        <time>2012-11-17T09:38:20Z</time>
      </trkpt>
      <trkpt lat="42.432300000" lon="-2.487244000">
        <ele>485.30</ele>
        <time>2012-11-17T09:38:20Z</time>
      </trkpt>
      <trkpt lat="42.431260000" lon="-2.486999000">
        <ele>491.70</ele>
        <time>2012-11-17T09:38:43Z</time>
      </trkpt>
      <trkpt lat="42.431243000" lon="-2.486999000">
        <ele>491.90</ele>
        <time>2012-11-17T09:38:43Z</time>
      </trkpt>
      <trkpt lat="42.431236000" lon="-2.486996000">
        <ele>492.10</ele>
        <time>2012-11-17T09:38:44Z</time>
      </trkpt>
      <trkpt lat="42.431235000" lon="-2.486996000">
        <ele>492.20</ele>
        <time>2012-11-17T09:38:46Z</time>
      </trkpt>
      <trkpt lat="42.431233000" lon="-2.486998000">
        <ele>492.20</ele>
        <time>2012-11-17T09:38:46Z</time>
      </trkpt>
      <trkpt lat="42.431228000" lon="-2.486999000">
        <ele>492.30</ele>
        <time>2012-11-17T09:38:48Z</time>
      </trkpt>
      <trkpt lat="42.431228000" lon="-2.486998000">
        <ele>492.30</ele>
        <time>2012-11-17T09:38:50Z</time>
      </trkpt>
      <trkpt lat="42.431228000" lon="-2.487001000">
        <ele>492.30</ele>
        <time>2012-11-17T09:38:53Z</time>
      </trkpt>
      <trkpt lat="42.431223000" lon="-2.487006000">
        <ele>492.30</ele>
        <time>2012-11-17T09:38:53Z</time>
      </trkpt>
      <trkpt lat="42.431188000" lon="-2.487079000">
        <ele>491.80</ele>
        <time>2012-11-17T09:38:58Z</time>
      </trkpt>
      <trkpt lat="42.431178000" lon="-2.487111000">
        <ele>491.70</ele>
        <time>2012-11-17T09:39:00Z</time>
      </trkpt>
      <trkpt lat="42.431166000" lon="-2.487194000">
        <ele>491.20</ele>
        <time>2012-11-17T09:39:02Z</time>
      </trkpt>
      <trkpt lat="42.431096000" lon="-2.487793000">
        <ele>488.50</ele>
        <time>2012-11-17T09:39:11Z</time>
      </trkpt>
      <trkpt lat="42.431051000" lon="-2.488014000">
        <ele>488.00</ele>
        <time>2012-11-17T09:39:14Z</time>
      </trkpt>
      <trkpt lat="42.430918000" lon="-2.488821000">
        <ele>491.20</ele>
        <time>2012-11-17T09:39:24Z</time>
      </trkpt>
      <trkpt lat="42.429970000" lon="-2.491508000">
        <ele>491.20</ele>
        <time>2012-11-17T09:40:27Z</time>
      </trkpt>
      <trkpt lat="42.429946000" lon="-2.491549000">
        <ele>491.10</ele>
        <time>2012-11-17T09:40:27Z</time>
      </trkpt>
      <trkpt lat="42.429376000" lon="-2.492068000">
        <ele>491.00</ele>
        <time>2012-11-17T09:40:39Z</time>
      </trkpt>
      <trkpt lat="42.429290000" lon="-2.492204000">
        <ele>491.60</ele>
        <time>2012-11-17T09:40:41Z</time>
      </trkpt>
      <trkpt lat="42.429201000" lon="-2.492458000">
        <ele>492.40</ele>
        <time>2012-11-17T09:40:45Z</time>
      </trkpt>
      <trkpt lat="42.429106000" lon="-2.493161000">
        <ele>493.70</ele>
        <time>2012-11-17T09:40:52Z</time>
      </trkpt>
      <trkpt lat="42.429105000" lon="-2.493259000">
        <ele>493.80</ele>
        <time>2012-11-17T09:40:53Z</time>
      </trkpt>
      <trkpt lat="42.429113000" lon="-2.493353000">
        <ele>493.90</ele>
        <time>2012-11-17T09:40:53Z</time>
      </trkpt>
      <trkpt lat="42.429133000" lon="-2.493441000">
        <ele>493.80</ele>
        <time>2012-11-17T09:40:55Z</time>
      </trkpt>
      <trkpt lat="42.429355000" lon="-2.493894000">
        <ele>492.20</ele>
        <time>2012-11-17T09:41:02Z</time>
      </trkpt>
      <trkpt lat="42.429413000" lon="-2.494076000">
        <ele>492.70</ele>
        <time>2012-11-17T09:41:06Z</time>
      </trkpt>
      <trkpt lat="42.429428000" lon="-2.494198000">
        <ele>493.40</ele>
        <time>2012-11-17T09:41:09Z</time>
      </trkpt>
      <trkpt lat="42.429395000" lon="-2.496266000">
        <ele>496.80</ele>
        <time>2012-11-17T09:41:47Z</time>
      </trkpt>
      <trkpt lat="42.429403000" lon="-2.496361000">
        <ele>496.60</ele>
        <time>2012-11-17T09:41:47Z</time>
      </trkpt>
      <trkpt lat="42.429428000" lon="-2.497459000">
        <ele>494.80</ele>
        <time>2012-11-17T09:42:00Z</time>
      </trkpt>
      <trkpt lat="42.429443000" lon="-2.497641000">
        <ele>494.80</ele>
        <time>2012-11-17T09:42:01Z</time>
      </trkpt>
      <trkpt lat="42.429511000" lon="-2.497961000">
        <ele>494.30</ele>
        <time>2012-11-17T09:42:05Z</time>
      </trkpt>
      <trkpt lat="42.429583000" lon="-2.498923000">
        <ele>486.70</ele>
        <time>2012-11-17T09:42:19Z</time>
      </trkpt>
      <trkpt lat="42.429580000" lon="-2.499001000">
        <ele>486.30</ele>
        <time>2012-11-17T09:42:19Z</time>
      </trkpt>
      <trkpt lat="42.429568000" lon="-2.499081000">
        <ele>485.90</ele>
        <time>2012-11-17T09:42:20Z</time>
      </trkpt>
      <trkpt lat="42.429543000" lon="-2.499148000">
        <ele>485.60</ele>
        <time>2012-11-17T09:42:22Z</time>
      </trkpt>
      <trkpt lat="42.429510000" lon="-2.499193000">
        <ele>485.50</ele>
        <time>2012-11-17T09:42:22Z</time>
      </trkpt>
      <trkpt lat="42.429433000" lon="-2.499258000">
        <ele>485.30</ele>
        <time>2012-11-17T09:42:24Z</time>
      </trkpt>
      <trkpt lat="42.429346000" lon="-2.499304000">
        <ele>485.40</ele>
        <time>2012-11-17T09:42:26Z</time>
      </trkpt>
      <trkpt lat="42.428766000" lon="-2.499496000">
        <ele>487.20</ele>
        <time>2012-11-17T09:42:38Z</time>
      </trkpt>
      <trkpt lat="42.428335000" lon="-2.499681000">
        <ele>489.00</ele>
        <time>2012-11-17T09:42:48Z</time>
      </trkpt>
      <trkpt lat="42.428293000" lon="-2.499689000">
        <ele>489.10</ele>
        <time>2012-11-17T09:42:50Z</time>
      </trkpt>
      <trkpt lat="42.426768000" lon="-2.500194000">
        <ele>497.20</ele>
        <time>2012-11-17T09:43:37Z</time>
      </trkpt>
      <trkpt lat="42.426256000" lon="-2.500311000">
        <ele>496.80</ele>
        <time>2012-11-17T09:43:51Z</time>
      </trkpt>
      <trkpt lat="42.426221000" lon="-2.500326000">
        <ele>496.80</ele>
        <time>2012-11-17T09:43:51Z</time>
      </trkpt>
      <trkpt lat="42.424598000" lon="-2.500826000">
        <ele>504.50</ele>
        <time>2012-11-17T09:44:40Z</time>
      </trkpt>
      <trkpt lat="42.424100000" lon="-2.500908000">
        <ele>506.90</ele>
        <time>2012-11-17T09:44:54Z</time>
      </trkpt>
      <trkpt lat="42.424066000" lon="-2.500904000">
        <ele>506.90</ele>
        <time>2012-11-17T09:44:55Z</time>
      </trkpt>
      <trkpt lat="42.422453000" lon="-2.500786000">
        <ele>511.30</ele>
        <time>2012-11-17T09:45:49Z</time>
      </trkpt>
      <trkpt lat="42.421880000" lon="-2.500826000">
        <ele>514.00</ele>
        <time>2012-11-17T09:46:10Z</time>
      </trkpt>
      <trkpt lat="42.421858000" lon="-2.500833000">
        <ele>514.10</ele>
        <time>2012-11-17T09:46:12Z</time>
      </trkpt>
      <trkpt lat="42.420640000" lon="-2.501503000">
        <ele>520.90</ele>
        <time>2012-11-17T09:47:10Z</time>
      </trkpt>
      <trkpt lat="42.420375000" lon="-2.501748000">
        <ele>523.30</ele>
        <time>2012-11-17T09:47:24Z</time>
      </trkpt>
      <trkpt lat="42.420360000" lon="-2.501766000">
        <ele>523.50</ele>
        <time>2012-11-17T09:47:25Z</time>
      </trkpt>
      <trkpt lat="42.420225000" lon="-2.501884000">
        <ele>525.40</ele>
        <time>2012-11-17T09:47:32Z</time>
      </trkpt>
      <trkpt lat="42.420208000" lon="-2.501904000">
        <ele>525.70</ele>
        <time>2012-11-17T09:47:32Z</time>
      </trkpt>
      <trkpt lat="42.419985000" lon="-2.502086000">
        <ele>528.30</ele>
        <time>2012-11-17T09:47:44Z</time>
      </trkpt>
      <trkpt lat="42.419920000" lon="-2.502164000">
        <ele>529.60</ele>
        <time>2012-11-17T09:47:48Z</time>
      </trkpt>
      <trkpt lat="42.419666000" lon="-2.502426000">
        <ele>534.10</ele>
        <time>2012-11-17T09:48:02Z</time>
      </trkpt>
      <trkpt lat="42.419568000" lon="-2.502509000">
        <ele>535.40</ele>
        <time>2012-11-17T09:48:07Z</time>
      </trkpt>
      <trkpt lat="42.419531000" lon="-2.502548000">
        <ele>536.30</ele>
        <time>2012-11-17T09:48:09Z</time>
      </trkpt>
      <trkpt lat="42.419321000" lon="-2.502719000">
        <ele>541.40</ele>
        <time>2012-11-17T09:48:19Z</time>
      </trkpt>
      <trkpt lat="42.419156000" lon="-2.502904000">
        <ele>545.50</ele>
        <time>2012-11-17T09:48:30Z</time>
      </trkpt>
      <trkpt lat="42.419143000" lon="-2.502924000">
        <ele>545.70</ele>
        <time>2012-11-17T09:48:30Z</time>
      </trkpt>
      <trkpt lat="42.418856000" lon="-2.503339000">
        <ele>547.80</ele>
        <time>2012-11-17T09:48:54Z</time>
      </trkpt>
      <trkpt lat="42.418783000" lon="-2.503416000">
        <ele>547.60</ele>
        <time>2012-11-17T09:48:59Z</time>
      </trkpt>
      <trkpt lat="42.418743000" lon="-2.503444000">
        <ele>547.50</ele>
        <time>2012-11-17T09:49:03Z</time>
      </trkpt>
      <trkpt lat="42.418733000" lon="-2.503456000">
        <ele>547.40</ele>
        <time>2012-11-17T09:49:03Z</time>
      </trkpt>
      <trkpt lat="42.418593000" lon="-2.503593000">
        <ele>546.70</ele>
        <time>2012-11-17T09:49:15Z</time>
      </trkpt>
      <trkpt lat="42.418516000" lon="-2.503704000">
        <ele>546.10</ele>
        <time>2012-11-17T09:49:22Z</time>
      </trkpt>
      <trkpt lat="42.418353000" lon="-2.503879000">
        <ele>544.80</ele>
        <time>2012-11-17T09:49:34Z</time>
      </trkpt>
      <trkpt lat="42.418341000" lon="-2.503898000">
        <ele>544.80</ele>
        <time>2012-11-17T09:49:34Z</time>
      </trkpt>
      <trkpt lat="42.418173000" lon="-2.504223000">
        <ele>542.70</ele>
        <time>2012-11-17T09:49:53Z</time>
      </trkpt>
      <trkpt lat="42.418138000" lon="-2.504283000">
        <ele>542.50</ele>
        <time>2012-11-17T09:49:55Z</time>
      </trkpt>
      <trkpt lat="42.418078000" lon="-2.504393000">
        <ele>541.90</ele>
        <time>2012-11-17T09:50:00Z</time>
      </trkpt>
      <trkpt lat="42.418066000" lon="-2.504419000">
        <ele>541.70</ele>
        <time>2012-11-17T09:50:02Z</time>
      </trkpt>
      <trkpt lat="42.418063000" lon="-2.504421000">
        <ele>541.70</ele>
        <time>2012-11-17T09:50:04Z</time>
      </trkpt>
      <trkpt lat="42.418061000" lon="-2.504421000">
        <ele>541.60</ele>
        <time>2012-11-17T09:50:04Z</time>
      </trkpt>
      <trkpt lat="42.418063000" lon="-2.504421000">
        <ele>541.60</ele>
        <time>2012-11-17T09:50:07Z</time>
      </trkpt>
      <trkpt lat="42.418061000" lon="-2.504424000">
        <ele>541.60</ele>
        <time>2012-11-17T09:50:11Z</time>
      </trkpt>
      <trkpt lat="42.418080000" lon="-2.504423000">
        <ele>541.60</ele>
        <time>2012-11-17T09:50:47Z</time>
      </trkpt>
      <trkpt lat="42.418080000" lon="-2.504426000">
        <ele>541.60</ele>
        <time>2012-11-17T09:50:51Z</time>
      </trkpt>
      <trkpt lat="42.418081000" lon="-2.504424000">
        <ele>541.60</ele>
        <time>2012-11-17T09:51:10Z</time>
      </trkpt>
      <trkpt lat="42.418083000" lon="-2.504424000">
        <ele>541.60</ele>
        <time>2012-11-17T09:51:12Z</time>
      </trkpt>
      <trkpt lat="42.418083000" lon="-2.504429000">
        <ele>541.60</ele>
        <time>2012-11-17T09:51:36Z</time>
      </trkpt>
      <trkpt lat="42.418078000" lon="-2.504434000">
        <ele>541.60</ele>
        <time>2012-11-17T09:51:36Z</time>
      </trkpt>
      <trkpt lat="42.417760000" lon="-2.504884000">
        <ele>538.70</ele>
        <time>2012-11-17T09:51:52Z</time>
      </trkpt>
      <trkpt lat="42.416726000" lon="-2.506078000">
        <ele>527.90</ele>
        <time>2012-11-17T09:52:09Z</time>
      </trkpt>
      <trkpt lat="42.415916000" lon="-2.506686000">
        <ele>521.90</ele>
        <time>2012-11-17T09:52:21Z</time>
      </trkpt>
      <trkpt lat="42.414298000" lon="-2.508664000">
        <ele>512.20</ele>
        <time>2012-11-17T09:52:44Z</time>
      </trkpt>
      <trkpt lat="42.414221000" lon="-2.508733000">
        <ele>512.10</ele>
        <time>2012-11-17T09:52:44Z</time>
      </trkpt>
      <trkpt lat="42.411630000" lon="-2.511303000">
        <ele>507.90</ele>
        <time>2012-11-17T09:53:24Z</time>
      </trkpt>
      <trkpt lat="42.410655000" lon="-2.512143000">
        <ele>506.00</ele>
        <time>2012-11-17T09:53:48Z</time>
      </trkpt>
      <trkpt lat="42.410610000" lon="-2.512169000">
        <ele>505.90</ele>
        <time>2012-11-17T09:53:50Z</time>
      </trkpt>
      <trkpt lat="42.408563000" lon="-2.513773000">
        <ele>502.50</ele>
        <time>2012-11-17T09:54:30Z</time>
      </trkpt>
      <trkpt lat="42.407803000" lon="-2.514466000">
        <ele>505.20</ele>
        <time>2012-11-17T09:54:46Z</time>
      </trkpt>
      <trkpt lat="42.407006000" lon="-2.515518000">
        <ele>507.10</ele>
        <time>2012-11-17T09:55:12Z</time>
      </trkpt>
      <trkpt lat="42.406975000" lon="-2.515549000">
        <ele>507.10</ele>
        <time>2012-11-17T09:55:12Z</time>
      </trkpt>
      <trkpt lat="42.405935000" lon="-2.516526000">
        <ele>508.20</ele>
        <time>2012-11-17T09:55:45Z</time>
      </trkpt>
      <trkpt lat="42.405891000" lon="-2.516616000">
        <ele>508.20</ele>
        <time>2012-11-17T09:55:47Z</time>
      </trkpt>
      <trkpt lat="42.405806000" lon="-2.516916000">
        <ele>508.10</ele>
        <time>2012-11-17T09:55:52Z</time>
      </trkpt>
      <trkpt lat="42.405785000" lon="-2.516963000">
        <ele>508.10</ele>
        <time>2012-11-17T09:55:54Z</time>
      </trkpt>
      <trkpt lat="42.405728000" lon="-2.517041000">
        <ele>508.00</ele>
        <time>2012-11-17T09:55:56Z</time>
      </trkpt>
      <trkpt lat="42.405660000" lon="-2.517098000">
        <ele>508.00</ele>
        <time>2012-11-17T09:55:57Z</time>
      </trkpt>
      <trkpt lat="42.404921000" lon="-2.517293000">
        <ele>508.20</ele>
        <time>2012-11-17T09:56:15Z</time>
      </trkpt>
      <trkpt lat="42.404876000" lon="-2.517294000">
        <ele>508.20</ele>
        <time>2012-11-17T09:56:17Z</time>
      </trkpt>
      <trkpt lat="42.403375000" lon="-2.517364000">
        <ele>511.40</ele>
        <time>2012-11-17T09:56:53Z</time>
      </trkpt>
      <trkpt lat="42.403340000" lon="-2.517384000">
        <ele>511.40</ele>
        <time>2012-11-17T09:56:53Z</time>
      </trkpt>
      <trkpt lat="42.402365000" lon="-2.518386000">
        <ele>511.90</ele>
        <time>2012-11-17T09:57:23Z</time>
      </trkpt>
      <trkpt lat="42.402328000" lon="-2.518414000">
        <ele>511.90</ele>
        <time>2012-11-17T09:57:23Z</time>
      </trkpt>
      <trkpt lat="42.401246000" lon="-2.519663000">
        <ele>512.00</ele>
        <time>2012-11-17T09:57:56Z</time>
      </trkpt>
      <trkpt lat="42.400890000" lon="-2.519981000">
        <ele>512.60</ele>
        <time>2012-11-17T09:58:06Z</time>
      </trkpt>
      <trkpt lat="42.398985000" lon="-2.521078000">
        <ele>514.70</ele>
        <time>2012-11-17T09:58:55Z</time>
      </trkpt>
      <trkpt lat="42.398953000" lon="-2.521104000">
        <ele>514.70</ele>
        <time>2012-11-17T09:58:57Z</time>
      </trkpt>
      <trkpt lat="42.396445000" lon="-2.522859000">
        <ele>526.40</ele>
        <time>2012-11-17T10:00:05Z</time>
      </trkpt>
      <trkpt lat="42.396415000" lon="-2.522884000">
        <ele>526.60</ele>
        <time>2012-11-17T10:00:05Z</time>
      </trkpt>
      <trkpt lat="42.396283000" lon="-2.523028000">
        <ele>528.60</ele>
        <time>2012-11-17T10:00:10Z</time>
      </trkpt>
      <trkpt lat="42.396265000" lon="-2.523068000">
        <ele>528.80</ele>
        <time>2012-11-17T10:00:12Z</time>
      </trkpt>
      <trkpt lat="42.396251000" lon="-2.523114000">
        <ele>529.10</ele>
        <time>2012-11-17T10:00:12Z</time>
      </trkpt>
      <trkpt lat="42.396250000" lon="-2.523501000">
        <ele>530.20</ele>
        <time>2012-11-17T10:00:20Z</time>
      </trkpt>
      <trkpt lat="42.396226000" lon="-2.523633000">
        <ele>530.50</ele>
        <time>2012-11-17T10:00:24Z</time>
      </trkpt>
      <trkpt lat="42.396175000" lon="-2.523751000">
        <ele>530.80</ele>
        <time>2012-11-17T10:00:26Z</time>
      </trkpt>
      <trkpt lat="42.396151000" lon="-2.523786000">
        <ele>530.90</ele>
        <time>2012-11-17T10:00:27Z</time>
      </trkpt>
      <trkpt lat="42.395866000" lon="-2.524054000">
        <ele>530.80</ele>
        <time>2012-11-17T10:00:38Z</time>
      </trkpt>
      <trkpt lat="42.395675000" lon="-2.524339000">
        <ele>530.50</ele>
        <time>2012-11-17T10:00:45Z</time>
      </trkpt>
      <trkpt lat="42.395108000" lon="-2.525636000">
        <ele>528.10</ele>
        <time>2012-11-17T10:01:18Z</time>
      </trkpt>
      <trkpt lat="42.395078000" lon="-2.525663000">
        <ele>528.10</ele>
        <time>2012-11-17T10:01:18Z</time>
      </trkpt>
      <trkpt lat="42.395041000" lon="-2.525678000">
        <ele>528.20</ele>
        <time>2012-11-17T10:01:20Z</time>
      </trkpt>
      <trkpt lat="42.395000000" lon="-2.525686000">
        <ele>528.20</ele>
        <time>2012-11-17T10:01:21Z</time>
      </trkpt>
      <trkpt lat="42.393935000" lon="-2.525536000">
        <ele>529.50</ele>
        <time>2012-11-17T10:01:44Z</time>
      </trkpt>
      <trkpt lat="42.393631000" lon="-2.525589000">
        <ele>530.20</ele>
        <time>2012-11-17T10:01:53Z</time>
      </trkpt>
      <trkpt lat="42.393265000" lon="-2.525784000">
        <ele>531.50</ele>
        <time>2012-11-17T10:02:03Z</time>
      </trkpt>
      <trkpt lat="42.392686000" lon="-2.526343000">
        <ele>533.30</ele>
        <time>2012-11-17T10:02:21Z</time>
      </trkpt>
      <trkpt lat="42.392658000" lon="-2.526379000">
        <ele>533.40</ele>
        <time>2012-11-17T10:02:22Z</time>
      </trkpt>
      <trkpt lat="42.392218000" lon="-2.527468000">
        <ele>534.40</ele>
        <time>2012-11-17T10:02:45Z</time>
      </trkpt>
      <trkpt lat="42.392198000" lon="-2.527508000">
        <ele>534.30</ele>
        <time>2012-11-17T10:02:45Z</time>
      </trkpt>
      <trkpt lat="42.392173000" lon="-2.527539000">
        <ele>534.20</ele>
        <time>2012-11-17T10:02:47Z</time>
      </trkpt>
      <trkpt lat="42.392141000" lon="-2.527554000">
        <ele>534.00</ele>
        <time>2012-11-17T10:02:47Z</time>
      </trkpt>
      <trkpt lat="42.392110000" lon="-2.527558000">
        <ele>533.80</ele>
        <time>2012-11-17T10:02:48Z</time>
      </trkpt>
      <trkpt lat="42.391316000" lon="-2.527259000">
        <ele>534.40</ele>
        <time>2012-11-17T10:03:11Z</time>
      </trkpt>
      <trkpt lat="42.391163000" lon="-2.527158000">
        <ele>534.80</ele>
        <time>2012-11-17T10:03:16Z</time>
      </trkpt>
      <trkpt lat="42.390923000" lon="-2.527084000">
        <ele>535.60</ele>
        <time>2012-11-17T10:03:23Z</time>
      </trkpt>
      <trkpt lat="42.390886000" lon="-2.527081000">
        <ele>535.60</ele>
        <time>2012-11-17T10:03:25Z</time>
      </trkpt>
      <trkpt lat="42.390391000" lon="-2.527193000">
        <ele>536.60</ele>
        <time>2012-11-17T10:03:39Z</time>
      </trkpt>
      <trkpt lat="42.390251000" lon="-2.527199000">
        <ele>537.00</ele>
        <time>2012-11-17T10:03:42Z</time>
      </trkpt>
      <trkpt lat="42.389561000" lon="-2.527189000">
        <ele>539.50</ele>
        <time>2012-11-17T10:04:02Z</time>
      </trkpt>
      <trkpt lat="42.389393000" lon="-2.527123000">
        <ele>540.50</ele>
        <time>2012-11-17T10:04:07Z</time>
      </trkpt>
      <trkpt lat="42.389195000" lon="-2.526981000">
        <ele>541.70</ele>
        <time>2012-11-17T10:04:14Z</time>
      </trkpt>
      <trkpt lat="42.388921000" lon="-2.526811000">
        <ele>543.10</ele>
        <time>2012-11-17T10:04:21Z</time>
      </trkpt>
      <trkpt lat="42.388881000" lon="-2.526771000">
        <ele>543.40</ele>
        <time>2012-11-17T10:04:24Z</time>
      </trkpt>
      <trkpt lat="42.388870000" lon="-2.526754000">
        <ele>543.40</ele>
        <time>2012-11-17T10:04:24Z</time>
      </trkpt>
      <trkpt lat="42.388865000" lon="-2.526741000">
        <ele>543.50</ele>
        <time>2012-11-17T10:04:26Z</time>
      </trkpt>
      <trkpt lat="42.388865000" lon="-2.526731000">
        <ele>543.50</ele>
        <time>2012-11-17T10:04:28Z</time>
      </trkpt>
      <trkpt lat="42.388865000" lon="-2.526726000">
        <ele>543.60</ele>
        <time>2012-11-17T10:04:28Z</time>
      </trkpt>
      <trkpt lat="42.388865000" lon="-2.526718000">
        <ele>543.60</ele>
        <time>2012-11-17T10:04:31Z</time>
      </trkpt>
      <trkpt lat="42.388858000" lon="-2.526708000">
        <ele>543.60</ele>
        <time>2012-11-17T10:04:33Z</time>
      </trkpt>
      <trkpt lat="42.388860000" lon="-2.526704000">
        <ele>543.60</ele>
        <time>2012-11-17T10:04:35Z</time>
      </trkpt>
      <trkpt lat="42.388855000" lon="-2.526694000">
        <ele>543.60</ele>
        <time>2012-11-17T10:04:36Z</time>
      </trkpt>
      <trkpt lat="42.388845000" lon="-2.526683000">
        <ele>543.60</ele>
        <time>2012-11-17T10:04:38Z</time>
      </trkpt>
      <trkpt lat="42.388841000" lon="-2.526681000">
        <ele>543.70</ele>
        <time>2012-11-17T10:04:40Z</time>
      </trkpt>
      <trkpt lat="42.388841000" lon="-2.526679000">
        <ele>543.70</ele>
        <time>2012-11-17T10:04:40Z</time>
      </trkpt>
      <trkpt lat="42.388840000" lon="-2.526681000">
        <ele>543.70</ele>
        <time>2012-11-17T10:04:42Z</time>
      </trkpt>
      <trkpt lat="42.388830000" lon="-2.526683000">
        <ele>543.70</ele>
        <time>2012-11-17T10:04:42Z</time>
      </trkpt>
      <trkpt lat="42.388818000" lon="-2.526688000">
        <ele>543.70</ele>
        <time>2012-11-17T10:04:43Z</time>
      </trkpt>
      <trkpt lat="42.388805000" lon="-2.526699000">
        <ele>543.70</ele>
        <time>2012-11-17T10:04:45Z</time>
      </trkpt>
      <trkpt lat="42.388786000" lon="-2.526738000">
        <ele>543.80</ele>
        <time>2012-11-17T10:04:47Z</time>
      </trkpt>
      <trkpt lat="42.388780000" lon="-2.526759000">
        <ele>543.80</ele>
        <time>2012-11-17T10:04:47Z</time>
      </trkpt>
      <trkpt lat="42.388753000" lon="-2.526821000">
        <ele>543.90</ele>
        <time>2012-11-17T10:04:50Z</time>
      </trkpt>
      <trkpt lat="42.388601000" lon="-2.527258000">
        <ele>544.10</ele>
        <time>2012-11-17T10:05:04Z</time>
      </trkpt>
      <trkpt lat="42.388570000" lon="-2.527328000">
        <ele>544.10</ele>
        <time>2012-11-17T10:05:06Z</time>
      </trkpt>
      <trkpt lat="42.388283000" lon="-2.527849000">
        <ele>544.40</ele>
        <time>2012-11-17T10:05:22Z</time>
      </trkpt>
      <trkpt lat="42.388195000" lon="-2.528053000">
        <ele>544.90</ele>
        <time>2012-11-17T10:05:29Z</time>
      </trkpt>
      <trkpt lat="42.388188000" lon="-2.528078000">
        <ele>545.00</ele>
        <time>2012-11-17T10:05:29Z</time>
      </trkpt>
      <trkpt lat="42.388080000" lon="-2.528346000">
        <ele>546.00</ele>
        <time>2012-11-17T10:05:39Z</time>
      </trkpt>
      <trkpt lat="42.387986000" lon="-2.528658000">
        <ele>547.10</ele>
        <time>2012-11-17T10:05:46Z</time>
      </trkpt>
      <trkpt lat="42.387963000" lon="-2.528878000">
        <ele>548.00</ele>
        <time>2012-11-17T10:05:51Z</time>
      </trkpt>
      <trkpt lat="42.387968000" lon="-2.529028000">
        <ele>548.90</ele>
        <time>2012-11-17T10:05:55Z</time>
      </trkpt>
      <trkpt lat="42.388005000" lon="-2.529248000">
        <ele>550.00</ele>
        <time>2012-11-17T10:06:02Z</time>
      </trkpt>
      <trkpt lat="42.388000000" lon="-2.529291000">
        <ele>550.30</ele>
        <time>2012-11-17T10:06:02Z</time>
      </trkpt>
      <trkpt lat="42.388063000" lon="-2.529663000">
        <ele>552.00</ele>
        <time>2012-11-17T10:06:14Z</time>
      </trkpt>
      <trkpt lat="42.388068000" lon="-2.529969000">
        <ele>552.60</ele>
        <time>2012-11-17T10:06:24Z</time>
      </trkpt>
      <trkpt lat="42.388075000" lon="-2.529999000">
        <ele>552.70</ele>
        <time>2012-11-17T10:06:26Z</time>
      </trkpt>
      <trkpt lat="42.388075000" lon="-2.530013000">
        <ele>552.70</ele>
        <time>2012-11-17T10:06:28Z</time>
      </trkpt>
      <trkpt lat="42.388073000" lon="-2.530026000">
        <ele>552.80</ele>
        <time>2012-11-17T10:06:28Z</time>
      </trkpt>
      <trkpt lat="42.388071000" lon="-2.530039000">
        <ele>552.80</ele>
        <time>2012-11-17T10:06:30Z</time>
      </trkpt>
      <trkpt lat="42.388065000" lon="-2.530058000">
        <ele>552.80</ele>
        <time>2012-11-17T10:06:30Z</time>
      </trkpt>
      <trkpt lat="42.388045000" lon="-2.530088000">
        <ele>552.90</ele>
        <time>2012-11-17T10:06:33Z</time>
      </trkpt>
      <trkpt lat="42.388030000" lon="-2.530099000">
        <ele>552.90</ele>
        <time>2012-11-17T10:06:33Z</time>
      </trkpt>
      <trkpt lat="42.388011000" lon="-2.530106000">
        <ele>553.00</ele>
        <time>2012-11-17T10:06:35Z</time>
      </trkpt>
      <trkpt lat="42.387775000" lon="-2.530154000">
        <ele>552.40</ele>
        <time>2012-11-17T10:06:47Z</time>
      </trkpt>
      <trkpt lat="42.387548000" lon="-2.530138000">
        <ele>551.50</ele>
        <time>2012-11-17T10:06:54Z</time>
      </trkpt>
      <trkpt lat="42.387303000" lon="-2.530004000">
        <ele>550.50</ele>
        <time>2012-11-17T10:07:01Z</time>
      </trkpt>
      <trkpt lat="42.386816000" lon="-2.529594000">
        <ele>549.30</ele>
        <time>2012-11-17T10:07:20Z</time>
      </trkpt>
      <trkpt lat="42.386623000" lon="-2.529314000">
        <ele>549.30</ele>
        <time>2012-11-17T10:07:27Z</time>
      </trkpt>
      <trkpt lat="42.386260000" lon="-2.528649000">
        <ele>550.80</ele>
        <time>2012-11-17T10:07:41Z</time>
      </trkpt>
      <trkpt lat="42.386230000" lon="-2.528608000">
        <ele>550.90</ele>
        <time>2012-11-17T10:07:41Z</time>
      </trkpt>
      <trkpt lat="42.385640000" lon="-2.527609000">
        <ele>554.80</ele>
        <time>2012-11-17T10:08:07Z</time>
      </trkpt>
      <trkpt lat="42.385591000" lon="-2.527509000">
        <ele>555.50</ele>
        <time>2012-11-17T10:08:09Z</time>
      </trkpt>
      <trkpt lat="42.385196000" lon="-2.526913000">
        <ele>559.60</ele>
        <time>2012-11-17T10:08:30Z</time>
      </trkpt>
      <trkpt lat="42.385026000" lon="-2.526688000">
        <ele>559.90</ele>
        <time>2012-11-17T10:08:40Z</time>
      </trkpt>
      <trkpt lat="42.384983000" lon="-2.526649000">
        <ele>559.90</ele>
        <time>2012-11-17T10:08:42Z</time>
      </trkpt>
      <trkpt lat="42.384958000" lon="-2.526638000">
        <ele>560.00</ele>
        <time>2012-11-17T10:08:42Z</time>
      </trkpt>
      <trkpt lat="42.384930000" lon="-2.526631000">
        <ele>560.00</ele>
        <time>2012-11-17T10:08:44Z</time>
      </trkpt>
      <trkpt lat="42.384901000" lon="-2.526634000">
        <ele>560.10</ele>
        <time>2012-11-17T10:08:44Z</time>
      </trkpt>
      <trkpt lat="42.384780000" lon="-2.526714000">
        <ele>560.50</ele>
        <time>2012-11-17T10:08:49Z</time>
      </trkpt>
      <trkpt lat="42.381210000" lon="-2.529681000">
        <ele>581.20</ele>
        <time>2012-11-17T10:11:22Z</time>
      </trkpt>
      <trkpt lat="42.381188000" lon="-2.529708000">
        <ele>581.30</ele>
        <time>2012-11-17T10:11:22Z</time>
      </trkpt>
      <trkpt lat="42.380900000" lon="-2.530071000">
        <ele>583.20</ele>
        <time>2012-11-17T10:11:36Z</time>
      </trkpt>
      <trkpt lat="42.380878000" lon="-2.530134000">
        <ele>583.40</ele>
        <time>2012-11-17T10:11:38Z</time>
      </trkpt>
      <trkpt lat="42.380870000" lon="-2.530416000">
        <ele>584.20</ele>
        <time>2012-11-17T10:11:45Z</time>
      </trkpt>
      <trkpt lat="42.380863000" lon="-2.530458000">
        <ele>584.30</ele>
        <time>2012-11-17T10:11:47Z</time>
      </trkpt>
      <trkpt lat="42.380820000" lon="-2.530571000">
        <ele>584.60</ele>
        <time>2012-11-17T10:11:50Z</time>
      </trkpt>
      <trkpt lat="42.380760000" lon="-2.530659000">
        <ele>584.80</ele>
        <time>2012-11-17T10:11:52Z</time>
      </trkpt>
      <trkpt lat="42.380715000" lon="-2.530703000">
        <ele>584.90</ele>
        <time>2012-11-17T10:11:54Z</time>
      </trkpt>
      <trkpt lat="42.380691000" lon="-2.530719000">
        <ele>584.90</ele>
        <time>2012-11-17T10:11:55Z</time>
      </trkpt>
      <trkpt lat="42.380610000" lon="-2.530743000">
        <ele>585.10</ele>
        <time>2012-11-17T10:11:59Z</time>
      </trkpt>
      <trkpt lat="42.380525000" lon="-2.530738000">
        <ele>585.20</ele>
        <time>2012-11-17T10:12:01Z</time>
      </trkpt>
      <trkpt lat="42.380468000" lon="-2.530716000">
        <ele>585.20</ele>
        <time>2012-11-17T10:12:04Z</time>
      </trkpt>
      <trkpt lat="42.380396000" lon="-2.530651000">
        <ele>585.20</ele>
        <time>2012-11-17T10:12:06Z</time>
      </trkpt>
      <trkpt lat="42.380321000" lon="-2.530536000">
        <ele>585.20</ele>
        <time>2012-11-17T10:12:11Z</time>
      </trkpt>
      <trkpt lat="42.380206000" lon="-2.530313000">
        <ele>585.00</ele>
        <time>2012-11-17T10:12:18Z</time>
      </trkpt>
      <trkpt lat="42.380101000" lon="-2.529854000">
        <ele>584.30</ele>
        <time>2012-11-17T10:12:29Z</time>
      </trkpt>
      <trkpt lat="42.380085000" lon="-2.529809000">
        <ele>584.30</ele>
        <time>2012-11-17T10:12:30Z</time>
      </trkpt>
      <trkpt lat="42.379411000" lon="-2.528369000">
        <ele>578.80</ele>
        <time>2012-11-17T10:13:07Z</time>
      </trkpt>
      <trkpt lat="42.379386000" lon="-2.528344000">
        <ele>578.60</ele>
        <time>2012-11-17T10:13:07Z</time>
      </trkpt>
      <trkpt lat="42.379360000" lon="-2.528331000">
        <ele>578.50</ele>
        <time>2012-11-17T10:13:09Z</time>
      </trkpt>
      <trkpt lat="42.379333000" lon="-2.528328000">
        <ele>578.40</ele>
        <time>2012-11-17T10:13:10Z</time>
      </trkpt>
      <trkpt lat="42.379308000" lon="-2.528334000">
        <ele>578.40</ele>
        <time>2012-11-17T10:13:10Z</time>
      </trkpt>
      <trkpt lat="42.378980000" lon="-2.528556000">
        <ele>579.20</ele>
        <time>2012-11-17T10:13:24Z</time>
      </trkpt>
      <trkpt lat="42.378440000" lon="-2.528736000">
        <ele>580.80</ele>
        <time>2012-11-17T10:13:42Z</time>
      </trkpt>
      <trkpt lat="42.378411000" lon="-2.528739000">
        <ele>580.90</ele>
        <time>2012-11-17T10:13:43Z</time>
      </trkpt>
      <trkpt lat="42.376681000" lon="-2.529004000">
        <ele>583.80</ele>
        <time>2012-11-17T10:14:41Z</time>
      </trkpt>
      <trkpt lat="42.376011000" lon="-2.529143000">
        <ele>584.70</ele>
        <time>2012-11-17T10:15:04Z</time>
      </trkpt>
      <trkpt lat="42.375981000" lon="-2.529143000">
        <ele>584.70</ele>
        <time>2012-11-17T10:15:05Z</time>
      </trkpt>
      <trkpt lat="42.375345000" lon="-2.529273000">
        <ele>586.30</ele>
        <time>2012-11-17T10:15:26Z</time>
      </trkpt>
      <trkpt lat="42.374883000" lon="-2.529233000">
        <ele>587.40</ele>
        <time>2012-11-17T10:15:40Z</time>
      </trkpt>
      <trkpt lat="42.374580000" lon="-2.529249000">
        <ele>588.30</ele>
        <time>2012-11-17T10:15:51Z</time>
      </trkpt>
      <trkpt lat="42.374430000" lon="-2.529211000">
        <ele>588.60</ele>
        <time>2012-11-17T10:15:56Z</time>
      </trkpt>
      <trkpt lat="42.374051000" lon="-2.529076000">
        <ele>589.50</ele>
        <time>2012-11-17T10:16:08Z</time>
      </trkpt>
      <trkpt lat="42.374021000" lon="-2.529071000">
        <ele>589.50</ele>
        <time>2012-11-17T10:16:10Z</time>
      </trkpt>
      <trkpt lat="42.373520000" lon="-2.528884000">
        <ele>591.30</ele>
        <time>2012-11-17T10:16:27Z</time>
      </trkpt>
      <trkpt lat="42.373493000" lon="-2.528878000">
        <ele>591.40</ele>
        <time>2012-11-17T10:16:29Z</time>
      </trkpt>
      <trkpt lat="42.373466000" lon="-2.528876000">
        <ele>591.50</ele>
        <time>2012-11-17T10:16:29Z</time>
      </trkpt>
      <trkpt lat="42.373440000" lon="-2.528883000">
        <ele>591.60</ele>
        <time>2012-11-17T10:16:31Z</time>
      </trkpt>
      <trkpt lat="42.373416000" lon="-2.528903000">
        <ele>591.70</ele>
        <time>2012-11-17T10:16:31Z</time>
      </trkpt>
      <trkpt lat="42.373403000" lon="-2.528933000">
        <ele>591.90</ele>
        <time>2012-11-17T10:16:32Z</time>
      </trkpt>
      <trkpt lat="42.373288000" lon="-2.529978000">
        <ele>595.70</ele>
        <time>2012-11-17T10:17:00Z</time>
      </trkpt>
      <trkpt lat="42.373205000" lon="-2.530371000">
        <ele>597.80</ele>
        <time>2012-11-17T10:17:09Z</time>
      </trkpt>
      <trkpt lat="42.373201000" lon="-2.530413000">
        <ele>597.90</ele>
        <time>2012-11-17T10:17:11Z</time>
      </trkpt>
      <trkpt lat="42.373115000" lon="-2.531299000">
        <ele>602.40</ele>
        <time>2012-11-17T10:17:33Z</time>
      </trkpt>
      <trkpt lat="42.373113000" lon="-2.531366000">
        <ele>603.00</ele>
        <time>2012-11-17T10:17:35Z</time>
      </trkpt>
      <trkpt lat="42.373116000" lon="-2.531396000">
        <ele>603.30</ele>
        <time>2012-11-17T10:17:37Z</time>
      </trkpt>
      <trkpt lat="42.373116000" lon="-2.531426000">
        <ele>603.60</ele>
        <time>2012-11-17T10:17:37Z</time>
      </trkpt>
      <trkpt lat="42.373156000" lon="-2.531719000">
        <ele>606.60</ele>
        <time>2012-11-17T10:17:49Z</time>
      </trkpt>
      <trkpt lat="42.373155000" lon="-2.531724000">
        <ele>606.70</ele>
        <time>2012-11-17T10:17:51Z</time>
      </trkpt>
      <trkpt lat="42.373153000" lon="-2.531724000">
        <ele>606.80</ele>
        <time>2012-11-17T10:17:51Z</time>
      </trkpt>
      <trkpt lat="42.373155000" lon="-2.531724000">
        <ele>606.90</ele>
        <time>2012-11-17T10:17:53Z</time>
      </trkpt>
      <trkpt lat="42.373158000" lon="-2.531723000">
        <ele>606.90</ele>
        <time>2012-11-17T10:17:56Z</time>
      </trkpt>
      <trkpt lat="42.373160000" lon="-2.531716000">
        <ele>606.80</ele>
        <time>2012-11-17T10:17:56Z</time>
      </trkpt>
      <trkpt lat="42.373165000" lon="-2.531708000">
        <ele>606.80</ele>
        <time>2012-11-17T10:17:58Z</time>
      </trkpt>
      <trkpt lat="42.373165000" lon="-2.531674000">
        <ele>606.40</ele>
        <time>2012-11-17T10:18:01Z</time>
      </trkpt>
      <trkpt lat="42.373160000" lon="-2.531608000">
        <ele>605.90</ele>
        <time>2012-11-17T10:18:05Z</time>
      </trkpt>
      <trkpt lat="42.373136000" lon="-2.531456000">
        <ele>604.60</ele>
        <time>2012-11-17T10:18:10Z</time>
      </trkpt>
      <trkpt lat="42.373125000" lon="-2.531436000">
        <ele>604.50</ele>
        <time>2012-11-17T10:18:12Z</time>
      </trkpt>
      <trkpt lat="42.373106000" lon="-2.531424000">
        <ele>604.20</ele>
        <time>2012-11-17T10:18:12Z</time>
      </trkpt>
      <trkpt lat="42.373085000" lon="-2.531421000">
        <ele>604.20</ele>
        <time>2012-11-17T10:18:13Z</time>
      </trkpt>
      <trkpt lat="42.373043000" lon="-2.531431000">
        <ele>604.30</ele>
        <time>2012-11-17T10:18:15Z</time>
      </trkpt>
      <trkpt lat="42.373026000" lon="-2.531441000">
        <ele>604.40</ele>
        <time>2012-11-17T10:18:17Z</time>
      </trkpt>
      <trkpt lat="42.372973000" lon="-2.531491000">
        <ele>605.10</ele>
        <time>2012-11-17T10:18:20Z</time>
      </trkpt>
      <trkpt lat="42.372708000" lon="-2.531819000">
        <ele>609.00</ele>
        <time>2012-11-17T10:18:43Z</time>
      </trkpt>
      <trkpt lat="42.372695000" lon="-2.531841000">
        <ele>609.20</ele>
        <time>2012-11-17T10:18:45Z</time>
      </trkpt>
      <trkpt lat="42.372543000" lon="-2.532089000">
        <ele>611.80</ele>
        <time>2012-11-17T10:18:57Z</time>
      </trkpt>
      <trkpt lat="42.372535000" lon="-2.532108000">
        <ele>611.90</ele>
        <time>2012-11-17T10:18:59Z</time>
      </trkpt>
      <trkpt lat="42.372530000" lon="-2.532124000">
        <ele>612.10</ele>
        <time>2012-11-17T10:18:59Z</time>
      </trkpt>
      <trkpt lat="42.372471000" lon="-2.532228000">
        <ele>613.00</ele>
        <time>2012-11-17T10:19:06Z</time>
      </trkpt>
      <trkpt lat="42.372456000" lon="-2.532279000">
        <ele>613.40</ele>
        <time>2012-11-17T10:19:09Z</time>
      </trkpt>
      <trkpt lat="42.372443000" lon="-2.532309000">
        <ele>613.70</ele>
        <time>2012-11-17T10:19:11Z</time>
      </trkpt>
      <trkpt lat="42.372438000" lon="-2.532326000">
        <ele>613.80</ele>
        <time>2012-11-17T10:19:13Z</time>
      </trkpt>
      <trkpt lat="42.372218000" lon="-2.532971000">
        <ele>619.20</ele>
        <time>2012-11-17T10:19:42Z</time>
      </trkpt>
      <trkpt lat="42.372191000" lon="-2.533036000">
        <ele>619.90</ele>
        <time>2012-11-17T10:19:46Z</time>
      </trkpt>
      <trkpt lat="42.372176000" lon="-2.533113000">
        <ele>620.60</ele>
        <time>2012-11-17T10:19:49Z</time>
      </trkpt>
      <trkpt lat="42.372173000" lon="-2.533186000">
        <ele>621.30</ele>
        <time>2012-11-17T10:19:51Z</time>
      </trkpt>
      <trkpt lat="42.372173000" lon="-2.533303000">
        <ele>622.50</ele>
        <time>2012-11-17T10:19:56Z</time>
      </trkpt>
      <trkpt lat="42.372165000" lon="-2.533374000">
        <ele>623.20</ele>
        <time>2012-11-17T10:20:00Z</time>
      </trkpt>
      <trkpt lat="42.372165000" lon="-2.533399000">
        <ele>623.40</ele>
        <time>2012-11-17T10:20:00Z</time>
      </trkpt>
      <trkpt lat="42.372150000" lon="-2.533486000">
        <ele>624.30</ele>
        <time>2012-11-17T10:20:05Z</time>
      </trkpt>
      <trkpt lat="42.372136000" lon="-2.533529000">
        <ele>624.70</ele>
        <time>2012-11-17T10:20:07Z</time>
      </trkpt>
      <trkpt lat="42.372125000" lon="-2.533591000">
        <ele>625.30</ele>
        <time>2012-11-17T10:20:10Z</time>
      </trkpt>
      <trkpt lat="42.372123000" lon="-2.533636000">
        <ele>625.70</ele>
        <time>2012-11-17T10:20:12Z</time>
      </trkpt>
      <trkpt lat="42.372103000" lon="-2.533823000">
        <ele>627.30</ele>
        <time>2012-11-17T10:20:21Z</time>
      </trkpt>
      <trkpt lat="42.372103000" lon="-2.533844000">
        <ele>627.30</ele>
        <time>2012-11-17T10:20:22Z</time>
      </trkpt>
      <trkpt lat="42.372108000" lon="-2.533888000">
        <ele>627.70</ele>
        <time>2012-11-17T10:20:24Z</time>
      </trkpt>
      <trkpt lat="42.372105000" lon="-2.533949000">
        <ele>628.00</ele>
        <time>2012-11-17T10:20:26Z</time>
      </trkpt>
      <trkpt lat="42.372100000" lon="-2.533986000">
        <ele>628.20</ele>
        <time>2012-11-17T10:20:29Z</time>
      </trkpt>
      <trkpt lat="42.372098000" lon="-2.534044000">
        <ele>628.60</ele>
        <time>2012-11-17T10:20:31Z</time>
      </trkpt>
      <trkpt lat="42.372090000" lon="-2.534104000">
        <ele>628.90</ele>
        <time>2012-11-17T10:20:35Z</time>
      </trkpt>
      <trkpt lat="42.372078000" lon="-2.534168000">
        <ele>629.30</ele>
        <time>2012-11-17T10:20:38Z</time>
      </trkpt>
      <trkpt lat="42.372065000" lon="-2.534291000">
        <ele>629.90</ele>
        <time>2012-11-17T10:20:43Z</time>
      </trkpt>
      <trkpt lat="42.372065000" lon="-2.534311000">
        <ele>630.00</ele>
        <time>2012-11-17T10:20:45Z</time>
      </trkpt>
      <trkpt lat="42.372061000" lon="-2.534331000">
        <ele>630.10</ele>
        <time>2012-11-17T10:20:45Z</time>
      </trkpt>
      <trkpt lat="42.372023000" lon="-2.534499000">
        <ele>630.90</ele>
        <time>2012-11-17T10:20:54Z</time>
      </trkpt>
      <trkpt lat="42.372003000" lon="-2.534546000">
        <ele>631.10</ele>
        <time>2012-11-17T10:20:57Z</time>
      </trkpt>
      <trkpt lat="42.371983000" lon="-2.534573000">
        <ele>631.10</ele>
        <time>2012-11-17T10:20:59Z</time>
      </trkpt>
      <trkpt lat="42.371953000" lon="-2.534619000">
        <ele>631.30</ele>
        <time>2012-11-17T10:21:02Z</time>
      </trkpt>
      <trkpt lat="42.371945000" lon="-2.534638000">
        <ele>631.30</ele>
        <time>2012-11-17T10:21:04Z</time>
      </trkpt>
      <trkpt lat="42.371935000" lon="-2.534654000">
        <ele>631.40</ele>
        <time>2012-11-17T10:21:04Z</time>
      </trkpt>
      <trkpt lat="42.371890000" lon="-2.534761000">
        <ele>631.90</ele>
        <time>2012-11-17T10:21:11Z</time>
      </trkpt>
      <trkpt lat="42.371880000" lon="-2.534778000">
        <ele>632.00</ele>
        <time>2012-11-17T10:21:11Z</time>
      </trkpt>
      <trkpt lat="42.371776000" lon="-2.535066000">
        <ele>633.60</ele>
        <time>2012-11-17T10:21:25Z</time>
      </trkpt>
      <trkpt lat="42.371771000" lon="-2.535089000">
        <ele>633.70</ele>
        <time>2012-11-17T10:21:27Z</time>
      </trkpt>
      <trkpt lat="42.371751000" lon="-2.535261000">
        <ele>635.00</ele>
        <time>2012-11-17T10:21:34Z</time>
      </trkpt>
      <trkpt lat="42.371758000" lon="-2.535313000">
        <ele>635.40</ele>
        <time>2012-11-17T10:21:36Z</time>
      </trkpt>
      <trkpt lat="42.371765000" lon="-2.535339000">
        <ele>635.70</ele>
        <time>2012-11-17T10:21:37Z</time>
      </trkpt>
      <trkpt lat="42.371830000" lon="-2.535936000">
        <ele>635.20</ele>
        <time>2012-11-17T10:21:55Z</time>
      </trkpt>
      <trkpt lat="42.371830000" lon="-2.535971000">
        <ele>635.00</ele>
        <time>2012-11-17T10:21:55Z</time>
      </trkpt>
      <trkpt lat="42.371805000" lon="-2.536224000">
        <ele>633.90</ele>
        <time>2012-11-17T10:22:02Z</time>
      </trkpt>
      <trkpt lat="42.371746000" lon="-2.536418000">
        <ele>633.40</ele>
        <time>2012-11-17T10:22:07Z</time>
      </trkpt>
      <trkpt lat="42.371625000" lon="-2.536691000">
        <ele>632.80</ele>
        <time>2012-11-17T10:22:16Z</time>
      </trkpt>
      <trkpt lat="42.371535000" lon="-2.536871000">
        <ele>632.40</ele>
        <time>2012-11-17T10:22:21Z</time>
      </trkpt>
      <trkpt lat="42.371501000" lon="-2.536986000">
        <ele>632.20</ele>
        <time>2012-11-17T10:22:24Z</time>
      </trkpt>
      <trkpt lat="42.371470000" lon="-2.537213000">
        <ele>632.40</ele>
        <time>2012-11-17T10:22:30Z</time>
      </trkpt>
      <trkpt lat="42.371470000" lon="-2.537254000">
        <ele>632.50</ele>
        <time>2012-11-17T10:22:31Z</time>
      </trkpt>
      <trkpt lat="42.371453000" lon="-2.537449000">
        <ele>633.30</ele>
        <time>2012-11-17T10:22:35Z</time>
      </trkpt>
      <trkpt lat="42.371403000" lon="-2.537586000">
        <ele>633.70</ele>
        <time>2012-11-17T10:22:40Z</time>
      </trkpt>
      <trkpt lat="42.371366000" lon="-2.537651000">
        <ele>633.90</ele>
        <time>2012-11-17T10:22:42Z</time>
      </trkpt>
      <trkpt lat="42.371035000" lon="-2.538073000">
        <ele>634.40</ele>
        <time>2012-11-17T10:22:59Z</time>
      </trkpt>
      <trkpt lat="42.370950000" lon="-2.538238000">
        <ele>634.40</ele>
        <time>2012-11-17T10:23:15Z</time>
      </trkpt>
      <trkpt lat="42.370950000" lon="-2.538236000">
        <ele>634.40</ele>
        <time>2012-11-17T10:23:17Z</time>
      </trkpt>
      <trkpt lat="42.370953000" lon="-2.538233000">
        <ele>634.40</ele>
        <time>2012-11-17T10:23:18Z</time>
      </trkpt>
      <trkpt lat="42.370953000" lon="-2.538231000">
        <ele>634.40</ele>
        <time>2012-11-17T10:23:20Z</time>
      </trkpt>
      <trkpt lat="42.370955000" lon="-2.538231000">
        <ele>634.40</ele>
        <time>2012-11-17T10:23:20Z</time>
      </trkpt>
      <trkpt lat="42.370953000" lon="-2.538231000">
        <ele>634.40</ele>
        <time>2012-11-17T10:23:25Z</time>
      </trkpt>
      <trkpt lat="42.370955000" lon="-2.538231000">
        <ele>634.40</ele>
        <time>2012-11-17T10:23:25Z</time>
      </trkpt>
      <trkpt lat="42.370956000" lon="-2.538228000">
        <ele>634.40</ele>
        <time>2012-11-17T10:23:29Z</time>
      </trkpt>
      <trkpt lat="42.370958000" lon="-2.538228000">
        <ele>634.40</ele>
        <time>2012-11-17T10:23:32Z</time>
      </trkpt>
      <trkpt lat="42.370958000" lon="-2.538224000">
        <ele>634.40</ele>
        <time>2012-11-17T10:23:36Z</time>
      </trkpt>
      <trkpt lat="42.370960000" lon="-2.538224000">
        <ele>634.40</ele>
        <time>2012-11-17T10:23:39Z</time>
      </trkpt>
      <trkpt lat="42.370945000" lon="-2.538259000">
        <ele>634.40</ele>
        <time>2012-11-17T10:23:46Z</time>
      </trkpt>
      <trkpt lat="42.370913000" lon="-2.538363000">
        <ele>634.50</ele>
        <time>2012-11-17T10:23:50Z</time>
      </trkpt>
      <trkpt lat="42.370885000" lon="-2.538426000">
        <ele>634.50</ele>
        <time>2012-11-17T10:23:53Z</time>
      </trkpt>
      <trkpt lat="42.370848000" lon="-2.538544000">
        <ele>634.60</ele>
        <time>2012-11-17T10:23:55Z</time>
      </trkpt>
      <trkpt lat="42.370493000" lon="-2.539148000">
        <ele>634.70</ele>
        <time>2012-11-17T10:24:12Z</time>
      </trkpt>
      <trkpt lat="42.370441000" lon="-2.539276000">
        <ele>634.70</ele>
        <time>2012-11-17T10:24:14Z</time>
      </trkpt>
      <trkpt lat="42.370420000" lon="-2.539411000">
        <ele>634.70</ele>
        <time>2012-11-17T10:24:18Z</time>
      </trkpt>
      <trkpt lat="42.370418000" lon="-2.539456000">
        <ele>634.80</ele>
        <time>2012-11-17T10:24:19Z</time>
      </trkpt>
      <trkpt lat="42.370485000" lon="-2.539956000">
        <ele>635.90</ele>
        <time>2012-11-17T10:24:30Z</time>
      </trkpt>
      <trkpt lat="42.370510000" lon="-2.540778000">
        <ele>639.70</ele>
        <time>2012-11-17T10:24:49Z</time>
      </trkpt>
      <trkpt lat="42.370506000" lon="-2.540824000">
        <ele>639.90</ele>
        <time>2012-11-17T10:24:49Z</time>
      </trkpt>
      <trkpt lat="42.370490000" lon="-2.540911000">
        <ele>640.80</ele>
        <time>2012-11-17T10:24:52Z</time>
      </trkpt>
      <trkpt lat="42.370475000" lon="-2.540951000">
        <ele>641.10</ele>
        <time>2012-11-17T10:24:52Z</time>
      </trkpt>
      <trkpt lat="42.370456000" lon="-2.540986000">
        <ele>641.40</ele>
        <time>2012-11-17T10:24:54Z</time>
      </trkpt>
      <trkpt lat="42.370433000" lon="-2.541018000">
        <ele>641.70</ele>
        <time>2012-11-17T10:24:54Z</time>
      </trkpt>
      <trkpt lat="42.370290000" lon="-2.541144000">
        <ele>642.30</ele>
        <time>2012-11-17T10:25:01Z</time>
      </trkpt>
      <trkpt lat="42.370253000" lon="-2.541191000">
        <ele>642.40</ele>
        <time>2012-11-17T10:25:03Z</time>
      </trkpt>
      <trkpt lat="42.370221000" lon="-2.541251000">
        <ele>642.60</ele>
        <time>2012-11-17T10:25:05Z</time>
      </trkpt>
      <trkpt lat="42.370173000" lon="-2.541491000">
        <ele>644.10</ele>
        <time>2012-11-17T10:25:12Z</time>
      </trkpt>
      <trkpt lat="42.370086000" lon="-2.541988000">
        <ele>647.60</ele>
        <time>2012-11-17T10:25:29Z</time>
      </trkpt>
      <trkpt lat="42.370078000" lon="-2.542291000">
        <ele>649.60</ele>
        <time>2012-11-17T10:25:43Z</time>
      </trkpt>
      <trkpt lat="42.370090000" lon="-2.542426000">
        <ele>650.50</ele>
        <time>2012-11-17T10:25:48Z</time>
      </trkpt>
      <trkpt lat="42.370095000" lon="-2.542446000">
        <ele>650.60</ele>
        <time>2012-11-17T10:25:50Z</time>
      </trkpt>
      <trkpt lat="42.370101000" lon="-2.542508000">
        <ele>651.10</ele>
        <time>2012-11-17T10:25:53Z</time>
      </trkpt>
      <trkpt lat="42.370106000" lon="-2.542528000">
        <ele>651.20</ele>
        <time>2012-11-17T10:25:53Z</time>
      </trkpt>
      <trkpt lat="42.370218000" lon="-2.542973000">
        <ele>655.50</ele>
        <time>2012-11-17T10:26:14Z</time>
      </trkpt>
      <trkpt lat="42.370221000" lon="-2.542994000">
        <ele>655.70</ele>
        <time>2012-11-17T10:26:16Z</time>
      </trkpt>
      <trkpt lat="42.370236000" lon="-2.543033000">
        <ele>656.10</ele>
        <time>2012-11-17T10:26:18Z</time>
      </trkpt>
      <trkpt lat="42.370250000" lon="-2.543091000">
        <ele>656.80</ele>
        <time>2012-11-17T10:26:21Z</time>
      </trkpt>
      <trkpt lat="42.370255000" lon="-2.543153000">
        <ele>657.30</ele>
        <time>2012-11-17T10:26:23Z</time>
      </trkpt>
      <trkpt lat="42.370275000" lon="-2.543231000">
        <ele>658.10</ele>
        <time>2012-11-17T10:26:28Z</time>
      </trkpt>
      <trkpt lat="42.370280000" lon="-2.543271000">
        <ele>658.50</ele>
        <time>2012-11-17T10:26:30Z</time>
      </trkpt>
      <trkpt lat="42.370283000" lon="-2.543358000">
        <ele>659.20</ele>
        <time>2012-11-17T10:26:33Z</time>
      </trkpt>
      <trkpt lat="42.370290000" lon="-2.543423000">
        <ele>659.70</ele>
        <time>2012-11-17T10:26:37Z</time>
      </trkpt>
      <trkpt lat="42.370286000" lon="-2.543444000">
        <ele>659.80</ele>
        <time>2012-11-17T10:26:37Z</time>
      </trkpt>
      <trkpt lat="42.370271000" lon="-2.543488000">
        <ele>660.00</ele>
        <time>2012-11-17T10:26:40Z</time>
      </trkpt>
      <trkpt lat="42.370055000" lon="-2.543871000">
        <ele>659.90</ele>
        <time>2012-11-17T10:27:00Z</time>
      </trkpt>
      <trkpt lat="42.370045000" lon="-2.543896000">
        <ele>659.90</ele>
        <time>2012-11-17T10:27:01Z</time>
      </trkpt>
      <trkpt lat="42.369436000" lon="-2.544989000">
        <ele>659.50</ele>
        <time>2012-11-17T10:27:31Z</time>
      </trkpt>
      <trkpt lat="42.369428000" lon="-2.545016000">
        <ele>659.50</ele>
        <time>2012-11-17T10:27:31Z</time>
      </trkpt>
      <trkpt lat="42.369428000" lon="-2.545043000">
        <ele>659.50</ele>
        <time>2012-11-17T10:27:33Z</time>
      </trkpt>
      <trkpt lat="42.369440000" lon="-2.545086000">
        <ele>659.80</ele>
        <time>2012-11-17T10:27:34Z</time>
      </trkpt>
      <trkpt lat="42.369436000" lon="-2.545099000">
        <ele>659.90</ele>
        <time>2012-11-17T10:27:36Z</time>
      </trkpt>
      <trkpt lat="42.369431000" lon="-2.545108000">
        <ele>659.90</ele>
        <time>2012-11-17T10:27:36Z</time>
      </trkpt>
      <trkpt lat="42.369426000" lon="-2.545114000">
        <ele>660.00</ele>
        <time>2012-11-17T10:27:38Z</time>
      </trkpt>
      <trkpt lat="42.369423000" lon="-2.545121000">
        <ele>660.00</ele>
        <time>2012-11-17T10:27:38Z</time>
      </trkpt>
      <trkpt lat="42.369423000" lon="-2.545133000">
        <ele>660.00</ele>
        <time>2012-11-17T10:27:41Z</time>
      </trkpt>
      <trkpt lat="42.369421000" lon="-2.545141000">
        <ele>660.00</ele>
        <time>2012-11-17T10:27:41Z</time>
      </trkpt>
      <trkpt lat="42.369420000" lon="-2.545144000">
        <ele>660.10</ele>
        <time>2012-11-17T10:27:43Z</time>
      </trkpt>
      <trkpt lat="42.369418000" lon="-2.545148000">
        <ele>660.10</ele>
        <time>2012-11-17T10:27:43Z</time>
      </trkpt>
      <trkpt lat="42.369416000" lon="-2.545149000">
        <ele>660.10</ele>
        <time>2012-11-17T10:27:45Z</time>
      </trkpt>
      <trkpt lat="42.369415000" lon="-2.545153000">
        <ele>660.10</ele>
        <time>2012-11-17T10:27:50Z</time>
      </trkpt>
      <trkpt lat="42.369410000" lon="-2.545156000">
        <ele>660.10</ele>
        <time>2012-11-17T10:27:55Z</time>
      </trkpt>
      <trkpt lat="42.369408000" lon="-2.545156000">
        <ele>660.00</ele>
        <time>2012-11-17T10:27:57Z</time>
      </trkpt>
      <trkpt lat="42.369408000" lon="-2.545158000">
        <ele>660.00</ele>
        <time>2012-11-17T10:27:59Z</time>
      </trkpt>
      <trkpt lat="42.369401000" lon="-2.545159000">
        <ele>660.00</ele>
        <time>2012-11-17T10:28:18Z</time>
      </trkpt>
      <trkpt lat="42.369403000" lon="-2.545159000">
        <ele>660.00</ele>
        <time>2012-11-17T10:28:21Z</time>
      </trkpt>
      <trkpt lat="42.369403000" lon="-2.545156000">
        <ele>660.00</ele>
        <time>2012-11-17T10:28:25Z</time>
      </trkpt>
      <trkpt lat="42.369405000" lon="-2.545156000">
        <ele>660.00</ele>
        <time>2012-11-17T10:28:25Z</time>
      </trkpt>
      <trkpt lat="42.369405000" lon="-2.545154000">
        <ele>660.00</ele>
        <time>2012-11-17T10:28:27Z</time>
      </trkpt>
      <trkpt lat="42.369410000" lon="-2.545153000">
        <ele>660.00</ele>
        <time>2012-11-17T10:28:37Z</time>
      </trkpt>
      <trkpt lat="42.369411000" lon="-2.545148000">
        <ele>660.00</ele>
        <time>2012-11-17T10:28:49Z</time>
      </trkpt>
      <trkpt lat="42.369415000" lon="-2.545146000">
        <ele>660.00</ele>
        <time>2012-11-17T10:29:03Z</time>
      </trkpt>
      <trkpt lat="42.369416000" lon="-2.545146000">
        <ele>660.00</ele>
        <time>2012-11-17T10:29:05Z</time>
      </trkpt>
      <trkpt lat="42.369416000" lon="-2.545146000">
        <ele>660.00</ele>
        <time>2012-11-17T10:29:07Z</time>
      </trkpt>
      <trkpt lat="42.369416000" lon="-2.545144000">
        <ele>660.10</ele>
        <time>2012-11-17T10:29:10Z</time>
      </trkpt>
      <trkpt lat="42.369420000" lon="-2.545143000">
        <ele>660.10</ele>
        <time>2012-11-17T10:29:14Z</time>
      </trkpt>
      <trkpt lat="42.369420000" lon="-2.545146000">
        <ele>660.10</ele>
        <time>2012-11-17T10:29:22Z</time>
      </trkpt>
      <trkpt lat="42.369423000" lon="-2.545146000">
        <ele>660.10</ele>
        <time>2012-11-17T10:29:35Z</time>
      </trkpt>
      <trkpt lat="42.369423000" lon="-2.545148000">
        <ele>660.10</ele>
        <time>2012-11-17T10:29:43Z</time>
      </trkpt>
      <trkpt lat="42.369423000" lon="-2.545146000">
        <ele>660.10</ele>
        <time>2012-11-17T10:29:48Z</time>
      </trkpt>
      <trkpt lat="42.369421000" lon="-2.545146000">
        <ele>660.10</ele>
        <time>2012-11-17T10:29:50Z</time>
      </trkpt>
      <trkpt lat="42.369421000" lon="-2.545149000">
        <ele>660.10</ele>
        <time>2012-11-17T10:30:02Z</time>
      </trkpt>
      <trkpt lat="42.369423000" lon="-2.545149000">
        <ele>660.10</ele>
        <time>2012-11-17T10:30:06Z</time>
      </trkpt>
      <trkpt lat="42.369423000" lon="-2.545151000">
        <ele>660.10</ele>
        <time>2012-11-17T10:30:06Z</time>
      </trkpt>
      <trkpt lat="42.369423000" lon="-2.545151000">
        <ele>660.10</ele>
        <time>2012-11-17T10:30:09Z</time>
      </trkpt>
      <trkpt lat="42.369421000" lon="-2.545151000">
        <ele>660.10</ele>
        <time>2012-11-17T10:30:11Z</time>
      </trkpt>
      <trkpt lat="42.369420000" lon="-2.545154000">
        <ele>660.10</ele>
        <time>2012-11-17T10:30:16Z</time>
      </trkpt>
      <trkpt lat="42.369416000" lon="-2.545154000">
        <ele>660.10</ele>
        <time>2012-11-17T10:30:22Z</time>
      </trkpt>
      <trkpt lat="42.369415000" lon="-2.545159000">
        <ele>660.10</ele>
        <time>2012-11-17T10:30:25Z</time>
      </trkpt>
      <trkpt lat="42.369413000" lon="-2.545159000">
        <ele>660.10</ele>
        <time>2012-11-17T10:30:27Z</time>
      </trkpt>
      <trkpt lat="42.369413000" lon="-2.545163000">
        <ele>660.10</ele>
        <time>2012-11-17T10:30:32Z</time>
      </trkpt>
      <trkpt lat="42.369411000" lon="-2.545163000">
        <ele>660.10</ele>
        <time>2012-11-17T10:30:32Z</time>
      </trkpt>
      <trkpt lat="42.369415000" lon="-2.545164000">
        <ele>660.10</ele>
        <time>2012-11-17T10:30:41Z</time>
      </trkpt>
      <trkpt lat="42.369415000" lon="-2.545166000">
        <ele>660.10</ele>
        <time>2012-11-17T10:30:41Z</time>
      </trkpt>
      <trkpt lat="42.369415000" lon="-2.545166000">
        <ele>660.10</ele>
        <time>2012-11-17T10:30:44Z</time>
      </trkpt>
      <trkpt lat="42.369416000" lon="-2.545169000">
        <ele>660.20</ele>
        <time>2012-11-17T10:30:51Z</time>
      </trkpt>
      <trkpt lat="42.369418000" lon="-2.545171000">
        <ele>660.20</ele>
        <time>2012-11-17T10:30:53Z</time>
      </trkpt>
      <trkpt lat="42.369418000" lon="-2.545166000">
        <ele>660.20</ele>
        <time>2012-11-17T10:31:00Z</time>
      </trkpt>
      <trkpt lat="42.369418000" lon="-2.545168000">
        <ele>660.20</ele>
        <time>2012-11-17T10:31:05Z</time>
      </trkpt>
      <trkpt lat="42.369418000" lon="-2.545166000">
        <ele>660.20</ele>
        <time>2012-11-17T10:31:07Z</time>
      </trkpt>
      <trkpt lat="42.369420000" lon="-2.545166000">
        <ele>660.20</ele>
        <time>2012-11-17T10:31:10Z</time>
      </trkpt>
      <trkpt lat="42.369418000" lon="-2.545168000">
        <ele>660.20</ele>
        <time>2012-11-17T10:31:12Z</time>
      </trkpt>
      <trkpt lat="42.369418000" lon="-2.545164000">
        <ele>660.20</ele>
        <time>2012-11-17T10:31:14Z</time>
      </trkpt>
      <trkpt lat="42.369420000" lon="-2.545163000">
        <ele>660.20</ele>
        <time>2012-11-17T10:31:14Z</time>
      </trkpt>
      <trkpt lat="42.369421000" lon="-2.545161000">
        <ele>660.20</ele>
        <time>2012-11-17T10:31:16Z</time>
      </trkpt>
      <trkpt lat="42.369420000" lon="-2.545159000">
        <ele>660.20</ele>
        <time>2012-11-17T10:31:17Z</time>
      </trkpt>
      <trkpt lat="42.369423000" lon="-2.545156000">
        <ele>660.20</ele>
        <time>2012-11-17T10:31:23Z</time>
      </trkpt>
      <trkpt lat="42.369423000" lon="-2.545154000">
        <ele>660.20</ele>
        <time>2012-11-17T10:31:24Z</time>
      </trkpt>
      <trkpt lat="42.369421000" lon="-2.545154000">
        <ele>660.20</ele>
        <time>2012-11-17T10:31:26Z</time>
      </trkpt>
      <trkpt lat="42.369421000" lon="-2.545156000">
        <ele>660.20</ele>
        <time>2012-11-17T10:31:26Z</time>
      </trkpt>
      <trkpt lat="42.369421000" lon="-2.545153000">
        <ele>660.20</ele>
        <time>2012-11-17T10:31:29Z</time>
      </trkpt>
      <trkpt lat="42.369420000" lon="-2.545153000">
        <ele>660.10</ele>
        <time>2012-11-17T10:31:31Z</time>
      </trkpt>
      <trkpt lat="42.369421000" lon="-2.545153000">
        <ele>660.10</ele>
        <time>2012-11-17T10:31:33Z</time>
      </trkpt>
      <trkpt lat="42.369420000" lon="-2.545144000">
        <ele>660.10</ele>
        <time>2012-11-17T10:31:52Z</time>
      </trkpt>
      <trkpt lat="42.369418000" lon="-2.545146000">
        <ele>660.10</ele>
        <time>2012-11-17T10:31:54Z</time>
      </trkpt>
      <trkpt lat="42.369416000" lon="-2.545146000">
        <ele>660.10</ele>
        <time>2012-11-17T10:31:54Z</time>
      </trkpt>
      <trkpt lat="42.369416000" lon="-2.545144000">
        <ele>660.10</ele>
        <time>2012-11-17T10:31:57Z</time>
      </trkpt>
      <trkpt lat="42.369415000" lon="-2.545144000">
        <ele>660.00</ele>
        <time>2012-11-17T10:31:59Z</time>
      </trkpt>
      <trkpt lat="42.369413000" lon="-2.545144000">
        <ele>660.00</ele>
        <time>2012-11-17T10:31:59Z</time>
      </trkpt>
      <trkpt lat="42.369411000" lon="-2.545146000">
        <ele>660.00</ele>
        <time>2012-11-17T10:32:01Z</time>
      </trkpt>
      <trkpt lat="42.369406000" lon="-2.545146000">
        <ele>660.00</ele>
        <time>2012-11-17T10:32:06Z</time>
      </trkpt>
      <trkpt lat="42.369405000" lon="-2.545146000">
        <ele>660.00</ele>
        <time>2012-11-17T10:32:08Z</time>
      </trkpt>
      <trkpt lat="42.369403000" lon="-2.545148000">
        <ele>659.90</ele>
        <time>2012-11-17T10:32:10Z</time>
      </trkpt>
      <trkpt lat="42.369395000" lon="-2.545154000">
        <ele>659.90</ele>
        <time>2012-11-17T10:32:17Z</time>
      </trkpt>
      <trkpt lat="42.369390000" lon="-2.545156000">
        <ele>659.90</ele>
        <time>2012-11-17T10:32:24Z</time>
      </trkpt>
      <trkpt lat="42.369390000" lon="-2.545158000">
        <ele>659.90</ele>
        <time>2012-11-17T10:32:25Z</time>
      </trkpt>
      <trkpt lat="42.369386000" lon="-2.545158000">
        <ele>659.90</ele>
        <time>2012-11-17T10:32:29Z</time>
      </trkpt>
      <trkpt lat="42.369386000" lon="-2.545158000">
        <ele>659.90</ele>
        <time>2012-11-17T10:32:30Z</time>
      </trkpt>
      <trkpt lat="42.369383000" lon="-2.545159000">
        <ele>659.80</ele>
        <time>2012-11-17T10:32:36Z</time>
      </trkpt>
      <trkpt lat="42.369383000" lon="-2.545161000">
        <ele>659.80</ele>
        <time>2012-11-17T10:32:39Z</time>
      </trkpt>
      <trkpt lat="42.369383000" lon="-2.545159000">
        <ele>659.80</ele>
        <time>2012-11-17T10:32:41Z</time>
      </trkpt>
      <trkpt lat="42.369386000" lon="-2.545159000">
        <ele>659.80</ele>
        <time>2012-11-17T10:32:43Z</time>
      </trkpt>
      <trkpt lat="42.369388000" lon="-2.545159000">
        <ele>659.90</ele>
        <time>2012-11-17T10:32:46Z</time>
      </trkpt>
      <trkpt lat="42.369398000" lon="-2.545158000">
        <ele>659.90</ele>
        <time>2012-11-17T10:32:55Z</time>
      </trkpt>
      <trkpt lat="42.369400000" lon="-2.545158000">
        <ele>660.00</ele>
        <time>2012-11-17T10:32:57Z</time>
      </trkpt>
      <trkpt lat="42.369401000" lon="-2.545158000">
        <ele>660.00</ele>
        <time>2012-11-17T10:33:00Z</time>
      </trkpt>
      <trkpt lat="42.369396000" lon="-2.545159000">
        <ele>660.00</ele>
        <time>2012-11-17T10:33:05Z</time>
      </trkpt>
      <trkpt lat="42.369396000" lon="-2.545159000">
        <ele>660.00</ele>
        <time>2012-11-17T10:33:05Z</time>
      </trkpt>
      <trkpt lat="42.369386000" lon="-2.545161000">
        <ele>659.90</ele>
        <time>2012-11-17T10:33:18Z</time>
      </trkpt>
      <trkpt lat="42.369388000" lon="-2.545161000">
        <ele>659.90</ele>
        <time>2012-11-17T10:33:19Z</time>
      </trkpt>
      <trkpt lat="42.369386000" lon="-2.545163000">
        <ele>659.90</ele>
        <time>2012-11-17T10:33:19Z</time>
      </trkpt>
      <trkpt lat="42.369386000" lon="-2.545161000">
        <ele>659.90</ele>
        <time>2012-11-17T10:33:30Z</time>
      </trkpt>
      <trkpt lat="42.369385000" lon="-2.545163000">
        <ele>659.90</ele>
        <time>2012-11-17T10:33:40Z</time>
      </trkpt>
      <trkpt lat="42.369388000" lon="-2.545163000">
        <ele>659.90</ele>
        <time>2012-11-17T10:33:52Z</time>
      </trkpt>
      <trkpt lat="42.369386000" lon="-2.545164000">
        <ele>659.90</ele>
        <time>2012-11-17T10:33:54Z</time>
      </trkpt>
      <trkpt lat="42.369391000" lon="-2.545163000">
        <ele>659.90</ele>
        <time>2012-11-17T10:34:12Z</time>
      </trkpt>
      <trkpt lat="42.369391000" lon="-2.545161000">
        <ele>659.90</ele>
        <time>2012-11-17T10:34:13Z</time>
      </trkpt>
      <trkpt lat="42.369393000" lon="-2.545161000">
        <ele>659.90</ele>
        <time>2012-11-17T10:34:17Z</time>
      </trkpt>
      <trkpt lat="42.369391000" lon="-2.545161000">
        <ele>659.90</ele>
        <time>2012-11-17T10:34:34Z</time>
      </trkpt>
      <trkpt lat="42.369390000" lon="-2.545173000">
        <ele>659.90</ele>
        <time>2012-11-17T10:34:52Z</time>
      </trkpt>
      <trkpt lat="42.369390000" lon="-2.545173000">
        <ele>659.90</ele>
        <time>2012-11-17T10:34:53Z</time>
      </trkpt>
      <trkpt lat="42.369390000" lon="-2.545174000">
        <ele>660.00</ele>
        <time>2012-11-17T10:34:55Z</time>
      </trkpt>
      <trkpt lat="42.369388000" lon="-2.545174000">
        <ele>660.00</ele>
        <time>2012-11-17T10:34:57Z</time>
      </trkpt>
      <trkpt lat="42.369386000" lon="-2.545173000">
        <ele>659.90</ele>
        <time>2012-11-17T10:35:00Z</time>
      </trkpt>
      <trkpt lat="42.369385000" lon="-2.545164000">
        <ele>659.90</ele>
        <time>2012-11-17T10:35:07Z</time>
      </trkpt>
      <trkpt lat="42.369383000" lon="-2.545164000">
        <ele>659.90</ele>
        <time>2012-11-17T10:35:09Z</time>
      </trkpt>
      <trkpt lat="42.369383000" lon="-2.545164000">
        <ele>659.90</ele>
        <time>2012-11-17T10:35:11Z</time>
      </trkpt>
      <trkpt lat="42.369383000" lon="-2.545166000">
        <ele>659.90</ele>
        <time>2012-11-17T10:35:11Z</time>
      </trkpt>
      <trkpt lat="42.369381000" lon="-2.545168000">
        <ele>659.90</ele>
        <time>2012-11-17T10:35:14Z</time>
      </trkpt>
      <trkpt lat="42.369381000" lon="-2.545168000">
        <ele>659.90</ele>
        <time>2012-11-17T10:35:16Z</time>
      </trkpt>
      <trkpt lat="42.369381000" lon="-2.545169000">
        <ele>659.90</ele>
        <time>2012-11-17T10:35:16Z</time>
      </trkpt>
      <trkpt lat="42.369380000" lon="-2.545169000">
        <ele>659.80</ele>
        <time>2012-11-17T10:35:18Z</time>
      </trkpt>
      <trkpt lat="42.369380000" lon="-2.545171000">
        <ele>659.80</ele>
        <time>2012-11-17T10:35:21Z</time>
      </trkpt>
      <trkpt lat="42.369380000" lon="-2.545173000">
        <ele>659.90</ele>
        <time>2012-11-17T10:35:25Z</time>
      </trkpt>
      <trkpt lat="42.369381000" lon="-2.545178000">
        <ele>659.90</ele>
        <time>2012-11-17T10:35:30Z</time>
      </trkpt>
      <trkpt lat="42.369378000" lon="-2.545179000">
        <ele>659.90</ele>
        <time>2012-11-17T10:35:35Z</time>
      </trkpt>
      <trkpt lat="42.369378000" lon="-2.545181000">
        <ele>659.90</ele>
        <time>2012-11-17T10:35:37Z</time>
      </trkpt>
      <trkpt lat="42.369378000" lon="-2.545179000">
        <ele>659.90</ele>
        <time>2012-11-17T10:35:37Z</time>
      </trkpt>
      <trkpt lat="42.369378000" lon="-2.545181000">
        <ele>659.90</ele>
        <time>2012-11-17T10:35:40Z</time>
      </trkpt>
      <trkpt lat="42.369375000" lon="-2.545181000">
        <ele>659.90</ele>
        <time>2012-11-17T10:35:49Z</time>
      </trkpt>
      <trkpt lat="42.369373000" lon="-2.545184000">
        <ele>659.90</ele>
        <time>2012-11-17T10:35:54Z</time>
      </trkpt>
      <trkpt lat="42.369371000" lon="-2.545184000">
        <ele>659.90</ele>
        <time>2012-11-17T10:35:54Z</time>
      </trkpt>
      <trkpt lat="42.369371000" lon="-2.545184000">
        <ele>659.90</ele>
        <time>2012-11-17T10:35:56Z</time>
      </trkpt>
      <trkpt lat="42.369371000" lon="-2.545186000">
        <ele>659.90</ele>
        <time>2012-11-17T10:36:00Z</time>
      </trkpt>
      <trkpt lat="42.369370000" lon="-2.545186000">
        <ele>659.80</ele>
        <time>2012-11-17T10:36:03Z</time>
      </trkpt>
      <trkpt lat="42.369368000" lon="-2.545186000">
        <ele>659.80</ele>
        <time>2012-11-17T10:36:12Z</time>
      </trkpt>
      <trkpt lat="42.369368000" lon="-2.545184000">
        <ele>659.80</ele>
        <time>2012-11-17T10:36:13Z</time>
      </trkpt>
      <trkpt lat="42.369373000" lon="-2.545179000">
        <ele>659.80</ele>
        <time>2012-11-17T10:36:19Z</time>
      </trkpt>
      <trkpt lat="42.369378000" lon="-2.545176000">
        <ele>659.80</ele>
        <time>2012-11-17T10:36:19Z</time>
      </trkpt>
      <trkpt lat="42.369381000" lon="-2.545174000">
        <ele>659.90</ele>
        <time>2012-11-17T10:36:20Z</time>
      </trkpt>
      <trkpt lat="42.369390000" lon="-2.545168000">
        <ele>659.90</ele>
        <time>2012-11-17T10:36:24Z</time>
      </trkpt>
      <trkpt lat="42.369391000" lon="-2.545164000">
        <ele>659.90</ele>
        <time>2012-11-17T10:36:24Z</time>
      </trkpt>
      <trkpt lat="42.369395000" lon="-2.545163000">
        <ele>659.90</ele>
        <time>2012-11-17T10:36:26Z</time>
      </trkpt>
      <trkpt lat="42.369395000" lon="-2.545161000">
        <ele>659.90</ele>
        <time>2012-11-17T10:36:26Z</time>
      </trkpt>
      <trkpt lat="42.369398000" lon="-2.545161000">
        <ele>659.90</ele>
        <time>2012-11-17T10:36:27Z</time>
      </trkpt>
      <trkpt lat="42.369398000" lon="-2.545159000">
        <ele>660.00</ele>
        <time>2012-11-17T10:36:29Z</time>
      </trkpt>
      <trkpt lat="42.369401000" lon="-2.545158000">
        <ele>660.00</ele>
        <time>2012-11-17T10:36:31Z</time>
      </trkpt>
      <trkpt lat="42.369403000" lon="-2.545154000">
        <ele>660.00</ele>
        <time>2012-11-17T10:36:36Z</time>
      </trkpt>
      <trkpt lat="42.369405000" lon="-2.545154000">
        <ele>660.00</ele>
        <time>2012-11-17T10:36:38Z</time>
      </trkpt>
      <trkpt lat="42.369403000" lon="-2.545154000">
        <ele>660.00</ele>
        <time>2012-11-17T10:36:41Z</time>
      </trkpt>
      <trkpt lat="42.369403000" lon="-2.545156000">
        <ele>660.00</ele>
        <time>2012-11-17T10:36:45Z</time>
      </trkpt>
      <trkpt lat="42.369398000" lon="-2.545156000">
        <ele>660.00</ele>
        <time>2012-11-17T10:36:50Z</time>
      </trkpt>
      <trkpt lat="42.369398000" lon="-2.545156000">
        <ele>660.00</ele>
        <time>2012-11-17T10:36:50Z</time>
      </trkpt>
      <trkpt lat="42.369398000" lon="-2.545158000">
        <ele>659.90</ele>
        <time>2012-11-17T10:36:52Z</time>
      </trkpt>
      <trkpt lat="42.369395000" lon="-2.545159000">
        <ele>659.90</ele>
        <time>2012-11-17T10:36:55Z</time>
      </trkpt>
      <trkpt lat="42.369395000" lon="-2.545161000">
        <ele>659.90</ele>
        <time>2012-11-17T10:36:57Z</time>
      </trkpt>
      <trkpt lat="42.369388000" lon="-2.545164000">
        <ele>659.90</ele>
        <time>2012-11-17T10:37:04Z</time>
      </trkpt>
      <trkpt lat="42.369386000" lon="-2.545168000">
        <ele>659.90</ele>
        <time>2012-11-17T10:37:09Z</time>
      </trkpt>
      <trkpt lat="42.369381000" lon="-2.545169000">
        <ele>659.90</ele>
        <time>2012-11-17T10:37:16Z</time>
      </trkpt>
      <trkpt lat="42.369381000" lon="-2.545171000">
        <ele>659.90</ele>
        <time>2012-11-17T10:37:20Z</time>
      </trkpt>
      <trkpt lat="42.369380000" lon="-2.545171000">
        <ele>659.90</ele>
        <time>2012-11-17T10:37:21Z</time>
      </trkpt>
      <trkpt lat="42.369378000" lon="-2.545169000">
        <ele>659.80</ele>
        <time>2012-11-17T10:37:25Z</time>
      </trkpt>
      <trkpt lat="42.369378000" lon="-2.545173000">
        <ele>659.80</ele>
        <time>2012-11-17T10:37:30Z</time>
      </trkpt>
      <trkpt lat="42.369376000" lon="-2.545173000">
        <ele>659.80</ele>
        <time>2012-11-17T10:37:34Z</time>
      </trkpt>
      <trkpt lat="42.369378000" lon="-2.545174000">
        <ele>659.80</ele>
        <time>2012-11-17T10:37:35Z</time>
      </trkpt>
      <trkpt lat="42.369378000" lon="-2.545174000">
        <ele>659.80</ele>
        <time>2012-11-17T10:37:37Z</time>
      </trkpt>
      <trkpt lat="42.369376000" lon="-2.545174000">
        <ele>659.80</ele>
        <time>2012-11-17T10:37:39Z</time>
      </trkpt>
      <trkpt lat="42.369375000" lon="-2.545174000">
        <ele>659.80</ele>
        <time>2012-11-17T10:37:48Z</time>
      </trkpt>
      <trkpt lat="42.369375000" lon="-2.545176000">
        <ele>659.80</ele>
        <time>2012-11-17T10:37:49Z</time>
      </trkpt>
      <trkpt lat="42.369373000" lon="-2.545176000">
        <ele>659.80</ele>
        <time>2012-11-17T10:37:56Z</time>
      </trkpt>
      <trkpt lat="42.369380000" lon="-2.545171000">
        <ele>659.80</ele>
        <time>2012-11-17T10:38:07Z</time>
      </trkpt>
      <trkpt lat="42.369380000" lon="-2.545169000">
        <ele>659.80</ele>
        <time>2012-11-17T10:38:08Z</time>
      </trkpt>
      <trkpt lat="42.369381000" lon="-2.545169000">
        <ele>659.80</ele>
        <time>2012-11-17T10:38:10Z</time>
      </trkpt>
      <trkpt lat="42.369383000" lon="-2.545168000">
        <ele>659.90</ele>
        <time>2012-11-17T10:38:10Z</time>
      </trkpt>
      <trkpt lat="42.369390000" lon="-2.545163000">
        <ele>659.90</ele>
        <time>2012-11-17T10:38:12Z</time>
      </trkpt>
      <trkpt lat="42.369393000" lon="-2.545159000">
        <ele>659.90</ele>
        <time>2012-11-17T10:38:14Z</time>
      </trkpt>
      <trkpt lat="42.369395000" lon="-2.545159000">
        <ele>659.90</ele>
        <time>2012-11-17T10:38:15Z</time>
      </trkpt>
      <trkpt lat="42.369396000" lon="-2.545156000">
        <ele>659.90</ele>
        <time>2012-11-17T10:38:19Z</time>
      </trkpt>
      <trkpt lat="42.369401000" lon="-2.545154000">
        <ele>659.90</ele>
        <time>2012-11-17T10:38:21Z</time>
      </trkpt>
      <trkpt lat="42.369401000" lon="-2.545154000">
        <ele>659.90</ele>
        <time>2012-11-17T10:38:22Z</time>
      </trkpt>
      <trkpt lat="42.369405000" lon="-2.545151000">
        <ele>660.00</ele>
        <time>2012-11-17T10:38:26Z</time>
      </trkpt>
      <trkpt lat="42.369406000" lon="-2.545148000">
        <ele>660.00</ele>
        <time>2012-11-17T10:38:28Z</time>
      </trkpt>
      <trkpt lat="42.369405000" lon="-2.545149000">
        <ele>660.00</ele>
        <time>2012-11-17T10:38:29Z</time>
      </trkpt>
      <trkpt lat="42.369408000" lon="-2.545148000">
        <ele>660.00</ele>
        <time>2012-11-17T10:38:31Z</time>
      </trkpt>
      <trkpt lat="42.369405000" lon="-2.545148000">
        <ele>660.00</ele>
        <time>2012-11-17T10:38:38Z</time>
      </trkpt>
      <trkpt lat="42.369405000" lon="-2.545151000">
        <ele>660.00</ele>
        <time>2012-11-17T10:38:40Z</time>
      </trkpt>
      <trkpt lat="42.369400000" lon="-2.545154000">
        <ele>660.00</ele>
        <time>2012-11-17T10:38:45Z</time>
      </trkpt>
      <trkpt lat="42.369398000" lon="-2.545154000">
        <ele>659.90</ele>
        <time>2012-11-17T10:38:47Z</time>
      </trkpt>
      <trkpt lat="42.369398000" lon="-2.545156000">
        <ele>659.90</ele>
        <time>2012-11-17T10:38:47Z</time>
      </trkpt>
      <trkpt lat="42.369395000" lon="-2.545159000">
        <ele>659.90</ele>
        <time>2012-11-17T10:38:50Z</time>
      </trkpt>
      <trkpt lat="42.369393000" lon="-2.545159000">
        <ele>659.90</ele>
        <time>2012-11-17T10:38:52Z</time>
      </trkpt>
      <trkpt lat="42.369393000" lon="-2.545161000">
        <ele>659.90</ele>
        <time>2012-11-17T10:38:52Z</time>
      </trkpt>
      <trkpt lat="42.369390000" lon="-2.545161000">
        <ele>659.90</ele>
        <time>2012-11-17T10:38:55Z</time>
      </trkpt>
      <trkpt lat="42.369390000" lon="-2.545163000">
        <ele>659.90</ele>
        <time>2012-11-17T10:38:57Z</time>
      </trkpt>
      <trkpt lat="42.369381000" lon="-2.545168000">
        <ele>659.90</ele>
        <time>2012-11-17T10:39:04Z</time>
      </trkpt>
      <trkpt lat="42.369380000" lon="-2.545168000">
        <ele>659.80</ele>
        <time>2012-11-17T10:39:06Z</time>
      </trkpt>
      <trkpt lat="42.369378000" lon="-2.545169000">
        <ele>659.80</ele>
        <time>2012-11-17T10:39:08Z</time>
      </trkpt>
      <trkpt lat="42.369376000" lon="-2.545173000">
        <ele>659.80</ele>
        <time>2012-11-17T10:39:09Z</time>
      </trkpt>
      <trkpt lat="42.369371000" lon="-2.545176000">
        <ele>659.80</ele>
        <time>2012-11-17T10:39:16Z</time>
      </trkpt>
      <trkpt lat="42.369371000" lon="-2.545169000">
        <ele>659.80</ele>
        <time>2012-11-17T10:39:20Z</time>
      </trkpt>
      <trkpt lat="42.369370000" lon="-2.545161000">
        <ele>659.70</ele>
        <time>2012-11-17T10:39:20Z</time>
      </trkpt>
      <trkpt lat="42.369366000" lon="-2.545154000">
        <ele>659.70</ele>
        <time>2012-11-17T10:39:22Z</time>
      </trkpt>
      <trkpt lat="42.369360000" lon="-2.545149000">
        <ele>659.60</ele>
        <time>2012-11-17T10:39:23Z</time>
      </trkpt>
      <trkpt lat="42.369351000" lon="-2.545148000">
        <ele>659.50</ele>
        <time>2012-11-17T10:39:23Z</time>
      </trkpt>
      <trkpt lat="42.369343000" lon="-2.545146000">
        <ele>659.50</ele>
        <time>2012-11-17T10:39:25Z</time>
      </trkpt>
      <trkpt lat="42.369335000" lon="-2.545148000">
        <ele>659.40</ele>
        <time>2012-11-17T10:39:25Z</time>
      </trkpt>
      <trkpt lat="42.369330000" lon="-2.545151000">
        <ele>659.30</ele>
        <time>2012-11-17T10:39:27Z</time>
      </trkpt>
      <trkpt lat="42.369326000" lon="-2.545151000">
        <ele>659.30</ele>
        <time>2012-11-17T10:39:27Z</time>
      </trkpt>
      <trkpt lat="42.369326000" lon="-2.545149000">
        <ele>659.30</ele>
        <time>2012-11-17T10:39:29Z</time>
      </trkpt>
      <trkpt lat="42.369328000" lon="-2.545149000">
        <ele>659.20</ele>
        <time>2012-11-17T10:39:30Z</time>
      </trkpt>
      <trkpt lat="42.369330000" lon="-2.545148000">
        <ele>659.20</ele>
        <time>2012-11-17T10:39:30Z</time>
      </trkpt>
      <trkpt lat="42.369331000" lon="-2.545144000">
        <ele>659.20</ele>
        <time>2012-11-17T10:39:32Z</time>
      </trkpt>
      <trkpt lat="42.369335000" lon="-2.545141000">
        <ele>659.20</ele>
        <time>2012-11-17T10:39:34Z</time>
      </trkpt>
      <trkpt lat="42.369335000" lon="-2.545139000">
        <ele>659.20</ele>
        <time>2012-11-17T10:39:35Z</time>
      </trkpt>
      <trkpt lat="42.369336000" lon="-2.545139000">
        <ele>659.20</ele>
        <time>2012-11-17T10:39:37Z</time>
      </trkpt>
      <trkpt lat="42.369338000" lon="-2.545138000">
        <ele>659.30</ele>
        <time>2012-11-17T10:39:37Z</time>
      </trkpt>
      <trkpt lat="42.369338000" lon="-2.545136000">
        <ele>659.30</ele>
        <time>2012-11-17T10:39:39Z</time>
      </trkpt>
      <trkpt lat="42.369340000" lon="-2.545136000">
        <ele>659.30</ele>
        <time>2012-11-17T10:39:39Z</time>
      </trkpt>
      <trkpt lat="42.369341000" lon="-2.545131000">
        <ele>659.30</ele>
        <time>2012-11-17T10:39:42Z</time>
      </trkpt>
      <trkpt lat="42.369340000" lon="-2.545131000">
        <ele>659.20</ele>
        <time>2012-11-17T10:39:44Z</time>
      </trkpt>
      <trkpt lat="42.369340000" lon="-2.545129000">
        <ele>659.20</ele>
        <time>2012-11-17T10:39:44Z</time>
      </trkpt>
      <trkpt lat="42.369340000" lon="-2.545131000">
        <ele>659.20</ele>
        <time>2012-11-17T10:39:46Z</time>
      </trkpt>
      <trkpt lat="42.369338000" lon="-2.545129000">
        <ele>659.20</ele>
        <time>2012-11-17T10:39:48Z</time>
      </trkpt>
      <trkpt lat="42.369340000" lon="-2.545129000">
        <ele>659.20</ele>
        <time>2012-11-17T10:39:48Z</time>
      </trkpt>
      <trkpt lat="42.369340000" lon="-2.545131000">
        <ele>659.20</ele>
        <time>2012-11-17T10:39:49Z</time>
      </trkpt>
      <trkpt lat="42.369336000" lon="-2.545139000">
        <ele>659.20</ele>
        <time>2012-11-17T10:39:53Z</time>
      </trkpt>
      <trkpt lat="42.369335000" lon="-2.545143000">
        <ele>659.30</ele>
        <time>2012-11-17T10:39:53Z</time>
      </trkpt>
      <trkpt lat="42.369333000" lon="-2.545143000">
        <ele>659.20</ele>
        <time>2012-11-17T10:39:56Z</time>
      </trkpt>
      <trkpt lat="42.369335000" lon="-2.545143000">
        <ele>659.30</ele>
        <time>2012-11-17T10:40:00Z</time>
      </trkpt>
      <trkpt lat="42.369340000" lon="-2.545138000">
        <ele>659.30</ele>
        <time>2012-11-17T10:40:05Z</time>
      </trkpt>
      <trkpt lat="42.369345000" lon="-2.545138000">
        <ele>659.30</ele>
        <time>2012-11-17T10:40:10Z</time>
      </trkpt>
      <trkpt lat="42.369345000" lon="-2.545136000">
        <ele>659.30</ele>
        <time>2012-11-17T10:40:12Z</time>
      </trkpt>
      <trkpt lat="42.369343000" lon="-2.545138000">
        <ele>659.30</ele>
        <time>2012-11-17T10:40:14Z</time>
      </trkpt>
      <trkpt lat="42.369345000" lon="-2.545138000">
        <ele>659.30</ele>
        <time>2012-11-17T10:40:14Z</time>
      </trkpt>
      <trkpt lat="42.369331000" lon="-2.545158000">
        <ele>659.30</ele>
        <time>2012-11-17T10:40:17Z</time>
      </trkpt>
      <trkpt lat="42.369306000" lon="-2.545186000">
        <ele>659.30</ele>
        <time>2012-11-17T10:40:19Z</time>
      </trkpt>
      <trkpt lat="42.369275000" lon="-2.545251000">
        <ele>659.30</ele>
        <time>2012-11-17T10:40:21Z</time>
      </trkpt>
      <trkpt lat="42.369258000" lon="-2.545306000">
        <ele>659.40</ele>
        <time>2012-11-17T10:40:24Z</time>
      </trkpt>
      <trkpt lat="42.369195000" lon="-2.545416000">
        <ele>659.60</ele>
        <time>2012-11-17T10:40:28Z</time>
      </trkpt>
      <trkpt lat="42.369188000" lon="-2.545431000">
        <ele>659.60</ele>
        <time>2012-11-17T10:40:29Z</time>
      </trkpt>
      <trkpt lat="42.368983000" lon="-2.545893000">
        <ele>657.10</ele>
        <time>2012-11-17T10:40:47Z</time>
      </trkpt>
      <trkpt lat="42.368978000" lon="-2.545974000">
        <ele>656.90</ele>
        <time>2012-11-17T10:40:50Z</time>
      </trkpt>
      <trkpt lat="42.368973000" lon="-2.545999000">
        <ele>656.80</ele>
        <time>2012-11-17T10:40:52Z</time>
      </trkpt>
      <trkpt lat="42.368966000" lon="-2.546019000">
        <ele>656.80</ele>
        <time>2012-11-17T10:40:52Z</time>
      </trkpt>
      <trkpt lat="42.368955000" lon="-2.546038000">
        <ele>656.70</ele>
        <time>2012-11-17T10:40:54Z</time>
      </trkpt>
      <trkpt lat="42.368940000" lon="-2.546056000">
        <ele>656.60</ele>
        <time>2012-11-17T10:40:54Z</time>
      </trkpt>
      <trkpt lat="42.368925000" lon="-2.546069000">
        <ele>656.50</ele>
        <time>2012-11-17T10:40:56Z</time>
      </trkpt>
      <trkpt lat="42.368903000" lon="-2.546081000">
        <ele>656.30</ele>
        <time>2012-11-17T10:40:57Z</time>
      </trkpt>
      <trkpt lat="42.368878000" lon="-2.546089000">
        <ele>656.20</ele>
        <time>2012-11-17T10:40:57Z</time>
      </trkpt>
      <trkpt lat="42.368403000" lon="-2.546126000">
        <ele>656.00</ele>
        <time>2012-11-17T10:41:10Z</time>
      </trkpt>
      <trkpt lat="42.368363000" lon="-2.546143000">
        <ele>656.10</ele>
        <time>2012-11-17T10:41:11Z</time>
      </trkpt>
      <trkpt lat="42.368331000" lon="-2.546168000">
        <ele>656.20</ele>
        <time>2012-11-17T10:41:11Z</time>
      </trkpt>
      <trkpt lat="42.368310000" lon="-2.546203000">
        <ele>656.40</ele>
        <time>2012-11-17T10:41:13Z</time>
      </trkpt>
      <trkpt lat="42.368293000" lon="-2.546241000">
        <ele>656.50</ele>
        <time>2012-11-17T10:41:13Z</time>
      </trkpt>
      <trkpt lat="42.368285000" lon="-2.546279000">
        <ele>656.50</ele>
        <time>2012-11-17T10:41:15Z</time>
      </trkpt>
      <trkpt lat="42.368288000" lon="-2.546316000">
        <ele>656.60</ele>
        <time>2012-11-17T10:41:15Z</time>
      </trkpt>
      <trkpt lat="42.368305000" lon="-2.546343000">
        <ele>656.60</ele>
        <time>2012-11-17T10:41:17Z</time>
      </trkpt>
      <trkpt lat="42.368325000" lon="-2.546366000">
        <ele>656.50</ele>
        <time>2012-11-17T10:41:18Z</time>
      </trkpt>
      <trkpt lat="42.368731000" lon="-2.546621000">
        <ele>654.70</ele>
        <time>2012-11-17T10:41:36Z</time>
      </trkpt>
      <trkpt lat="42.368748000" lon="-2.546628000">
        <ele>654.70</ele>
        <time>2012-11-17T10:41:36Z</time>
      </trkpt>
      <trkpt lat="42.368775000" lon="-2.546644000">
        <ele>654.60</ele>
        <time>2012-11-17T10:41:39Z</time>
      </trkpt>
      <trkpt lat="42.368830000" lon="-2.546671000">
        <ele>654.60</ele>
        <time>2012-11-17T10:41:43Z</time>
      </trkpt>
      <trkpt lat="42.369038000" lon="-2.546719000">
        <ele>654.90</ele>
        <time>2012-11-17T10:41:53Z</time>
      </trkpt>
      <trkpt lat="42.369281000" lon="-2.546858000">
        <ele>654.70</ele>
        <time>2012-11-17T10:42:04Z</time>
      </trkpt>
      <trkpt lat="42.369335000" lon="-2.546906000">
        <ele>654.50</ele>
        <time>2012-11-17T10:42:07Z</time>
      </trkpt>
      <trkpt lat="42.369380000" lon="-2.546964000">
        <ele>654.10</ele>
        <time>2012-11-17T10:42:09Z</time>
      </trkpt>
      <trkpt lat="42.369401000" lon="-2.546989000">
        <ele>653.80</ele>
        <time>2012-11-17T10:42:26Z</time>
      </trkpt>
      <trkpt lat="42.369401000" lon="-2.546991000">
        <ele>653.80</ele>
        <time>2012-11-17T10:42:28Z</time>
      </trkpt>
      <trkpt lat="42.369405000" lon="-2.546991000">
        <ele>653.80</ele>
        <time>2012-11-17T10:42:33Z</time>
      </trkpt>
      <trkpt lat="42.369405000" lon="-2.546989000">
        <ele>653.80</ele>
        <time>2012-11-17T10:42:33Z</time>
      </trkpt>
      <trkpt lat="42.369415000" lon="-2.546986000">
        <ele>653.80</ele>
        <time>2012-11-17T10:42:35Z</time>
      </trkpt>
      <trkpt lat="42.369420000" lon="-2.546976000">
        <ele>653.80</ele>
        <time>2012-11-17T10:42:37Z</time>
      </trkpt>
      <trkpt lat="42.369416000" lon="-2.546964000">
        <ele>653.90</ele>
        <time>2012-11-17T10:42:37Z</time>
      </trkpt>
      <trkpt lat="42.369408000" lon="-2.546961000">
        <ele>653.90</ele>
        <time>2012-11-17T10:42:38Z</time>
      </trkpt>
      <trkpt lat="42.369388000" lon="-2.546956000">
        <ele>654.00</ele>
        <time>2012-11-17T10:42:40Z</time>
      </trkpt>
      <trkpt lat="42.369236000" lon="-2.546883000">
        <ele>654.40</ele>
        <time>2012-11-17T10:42:49Z</time>
      </trkpt>
      <trkpt lat="42.369168000" lon="-2.546841000">
        <ele>654.50</ele>
        <time>2012-11-17T10:42:52Z</time>
      </trkpt>
      <trkpt lat="42.369020000" lon="-2.546796000">
        <ele>654.60</ele>
        <time>2012-11-17T10:42:58Z</time>
      </trkpt>
      <trkpt lat="42.368975000" lon="-2.546798000">
        <ele>654.60</ele>
        <time>2012-11-17T10:42:59Z</time>
      </trkpt>
      <trkpt lat="42.368771000" lon="-2.546731000">
        <ele>654.40</ele>
        <time>2012-11-17T10:43:08Z</time>
      </trkpt>
      <trkpt lat="42.368728000" lon="-2.546726000">
        <ele>654.40</ele>
        <time>2012-11-17T10:43:10Z</time>
      </trkpt>
      <trkpt lat="42.368711000" lon="-2.546711000">
        <ele>654.50</ele>
        <time>2012-11-17T10:43:12Z</time>
      </trkpt>
      <trkpt lat="42.368703000" lon="-2.546688000">
        <ele>654.60</ele>
        <time>2012-11-17T10:43:13Z</time>
      </trkpt>
      <trkpt lat="42.368710000" lon="-2.546668000">
        <ele>654.60</ele>
        <time>2012-11-17T10:43:13Z</time>
      </trkpt>
      <trkpt lat="42.368721000" lon="-2.546656000">
        <ele>654.60</ele>
        <time>2012-11-17T10:43:15Z</time>
      </trkpt>
      <trkpt lat="42.368736000" lon="-2.546653000">
        <ele>654.60</ele>
        <time>2012-11-17T10:43:15Z</time>
      </trkpt>
      <trkpt lat="42.368753000" lon="-2.546653000">
        <ele>654.50</ele>
        <time>2012-11-17T10:43:17Z</time>
      </trkpt>
      <trkpt lat="42.368763000" lon="-2.546656000">
        <ele>654.50</ele>
        <time>2012-11-17T10:43:17Z</time>
      </trkpt>
      <trkpt lat="42.368763000" lon="-2.546658000">
        <ele>654.50</ele>
        <time>2012-11-17T10:43:18Z</time>
      </trkpt>
      <trkpt lat="42.368763000" lon="-2.546654000">
        <ele>654.50</ele>
        <time>2012-11-17T10:43:20Z</time>
      </trkpt>
      <trkpt lat="42.368761000" lon="-2.546654000">
        <ele>654.50</ele>
        <time>2012-11-17T10:43:20Z</time>
      </trkpt>
      <trkpt lat="42.368760000" lon="-2.546648000">
        <ele>654.50</ele>
        <time>2012-11-17T10:43:24Z</time>
      </trkpt>
      <trkpt lat="42.368758000" lon="-2.546648000">
        <ele>654.50</ele>
        <time>2012-11-17T10:43:25Z</time>
      </trkpt>
      <trkpt lat="42.368755000" lon="-2.546641000">
        <ele>654.50</ele>
        <time>2012-11-17T10:43:27Z</time>
      </trkpt>
      <trkpt lat="42.368756000" lon="-2.546638000">
        <ele>654.50</ele>
        <time>2012-11-17T10:43:29Z</time>
      </trkpt>
      <trkpt lat="42.368761000" lon="-2.546638000">
        <ele>654.50</ele>
        <time>2012-11-17T10:43:34Z</time>
      </trkpt>
      <trkpt lat="42.368893000" lon="-2.546704000">
        <ele>654.70</ele>
        <time>2012-11-17T10:43:41Z</time>
      </trkpt>
      <trkpt lat="42.369326000" lon="-2.546854000">
        <ele>654.70</ele>
        <time>2012-11-17T10:44:00Z</time>
      </trkpt>
      <trkpt lat="42.369331000" lon="-2.546861000">
        <ele>654.70</ele>
        <time>2012-11-17T10:44:00Z</time>
      </trkpt>
      <trkpt lat="42.369331000" lon="-2.546863000">
        <ele>654.70</ele>
        <time>2012-11-17T10:44:02Z</time>
      </trkpt>
      <trkpt lat="42.369331000" lon="-2.546863000">
        <ele>654.70</ele>
        <time>2012-11-17T10:44:02Z</time>
      </trkpt>
      <trkpt lat="42.369331000" lon="-2.546866000">
        <ele>654.60</ele>
        <time>2012-11-17T10:44:04Z</time>
      </trkpt>
      <trkpt lat="42.369340000" lon="-2.546876000">
        <ele>654.60</ele>
        <time>2012-11-17T10:44:09Z</time>
      </trkpt>
      <trkpt lat="42.369381000" lon="-2.546943000">
        <ele>654.20</ele>
        <time>2012-11-17T10:44:14Z</time>
      </trkpt>
      <trkpt lat="42.369383000" lon="-2.546958000">
        <ele>654.10</ele>
        <time>2012-11-17T10:44:14Z</time>
      </trkpt>
      <trkpt lat="42.369385000" lon="-2.546969000">
        <ele>654.10</ele>
        <time>2012-11-17T10:44:16Z</time>
      </trkpt>
      <trkpt lat="42.369388000" lon="-2.546978000">
        <ele>654.00</ele>
        <time>2012-11-17T10:44:16Z</time>
      </trkpt>
      <trkpt lat="42.369393000" lon="-2.546988000">
        <ele>653.90</ele>
        <time>2012-11-17T10:44:18Z</time>
      </trkpt>
      <trkpt lat="42.369446000" lon="-2.547126000">
        <ele>653.30</ele>
        <time>2012-11-17T10:44:21Z</time>
      </trkpt>
      <trkpt lat="42.369585000" lon="-2.547719000">
        <ele>652.40</ele>
        <time>2012-11-17T10:44:28Z</time>
      </trkpt>
      <trkpt lat="42.370168000" lon="-2.548909000">
        <ele>650.20</ele>
        <time>2012-11-17T10:44:46Z</time>
      </trkpt>
      <trkpt lat="42.370180000" lon="-2.548943000">
        <ele>650.20</ele>
        <time>2012-11-17T10:44:47Z</time>
      </trkpt>
      <trkpt lat="42.370201000" lon="-2.549028000">
        <ele>650.50</ele>
        <time>2012-11-17T10:44:49Z</time>
      </trkpt>
      <trkpt lat="42.370205000" lon="-2.549068000">
        <ele>650.60</ele>
        <time>2012-11-17T10:44:49Z</time>
      </trkpt>
      <trkpt lat="42.370196000" lon="-2.549218000">
        <ele>651.40</ele>
        <time>2012-11-17T10:44:54Z</time>
      </trkpt>
      <trkpt lat="42.370185000" lon="-2.549753000">
        <ele>654.30</ele>
        <time>2012-11-17T10:45:08Z</time>
      </trkpt>
      <trkpt lat="42.370166000" lon="-2.549898000">
        <ele>655.30</ele>
        <time>2012-11-17T10:45:12Z</time>
      </trkpt>
      <trkpt lat="42.370166000" lon="-2.549928000">
        <ele>655.50</ele>
        <time>2012-11-17T10:45:13Z</time>
      </trkpt>
      <trkpt lat="42.370173000" lon="-2.549956000">
        <ele>655.70</ele>
        <time>2012-11-17T10:45:15Z</time>
      </trkpt>
      <trkpt lat="42.370185000" lon="-2.549986000">
        <ele>655.90</ele>
        <time>2012-11-17T10:45:15Z</time>
      </trkpt>
      <trkpt lat="42.370460000" lon="-2.550344000">
        <ele>658.10</ele>
        <time>2012-11-17T10:45:31Z</time>
      </trkpt>
      <trkpt lat="42.370573000" lon="-2.550491000">
        <ele>658.20</ele>
        <time>2012-11-17T10:45:36Z</time>
      </trkpt>
      <trkpt lat="42.371228000" lon="-2.551941000">
        <ele>662.50</ele>
        <time>2012-11-17T10:46:28Z</time>
      </trkpt>
      <trkpt lat="42.371240000" lon="-2.551959000">
        <ele>662.60</ele>
        <time>2012-11-17T10:46:28Z</time>
      </trkpt>
      <trkpt lat="42.371331000" lon="-2.552106000">
        <ele>664.50</ele>
        <time>2012-11-17T10:46:37Z</time>
      </trkpt>
      <trkpt lat="42.371343000" lon="-2.552124000">
        <ele>664.80</ele>
        <time>2012-11-17T10:46:37Z</time>
      </trkpt>
      <trkpt lat="42.371370000" lon="-2.552149000">
        <ele>665.40</ele>
        <time>2012-11-17T10:46:39Z</time>
      </trkpt>
      <trkpt lat="42.371386000" lon="-2.552159000">
        <ele>665.60</ele>
        <time>2012-11-17T10:46:41Z</time>
      </trkpt>
      <trkpt lat="42.371470000" lon="-2.552231000">
        <ele>667.20</ele>
        <time>2012-11-17T10:46:46Z</time>
      </trkpt>
      <trkpt lat="42.371491000" lon="-2.552261000">
        <ele>667.70</ele>
        <time>2012-11-17T10:46:49Z</time>
      </trkpt>
      <trkpt lat="42.371508000" lon="-2.552293000">
        <ele>668.30</ele>
        <time>2012-11-17T10:46:51Z</time>
      </trkpt>
      <trkpt lat="42.371588000" lon="-2.552509000">
        <ele>671.60</ele>
        <time>2012-11-17T10:47:03Z</time>
      </trkpt>
      <trkpt lat="42.371621000" lon="-2.552543000">
        <ele>672.20</ele>
        <time>2012-11-17T10:47:07Z</time>
      </trkpt>
      <trkpt lat="42.371688000" lon="-2.552636000">
        <ele>673.80</ele>
        <time>2012-11-17T10:47:14Z</time>
      </trkpt>
      <trkpt lat="42.371700000" lon="-2.552646000">
        <ele>674.00</ele>
        <time>2012-11-17T10:47:14Z</time>
      </trkpt>
      <trkpt lat="42.371708000" lon="-2.552659000">
        <ele>674.20</ele>
        <time>2012-11-17T10:47:15Z</time>
      </trkpt>
      <trkpt lat="42.371736000" lon="-2.552696000">
        <ele>674.80</ele>
        <time>2012-11-17T10:47:19Z</time>
      </trkpt>
      <trkpt lat="42.371746000" lon="-2.552704000">
        <ele>674.90</ele>
        <time>2012-11-17T10:47:19Z</time>
      </trkpt>
      <trkpt lat="42.371775000" lon="-2.552743000">
        <ele>675.50</ele>
        <time>2012-11-17T10:47:22Z</time>
      </trkpt>
      <trkpt lat="42.371786000" lon="-2.552754000">
        <ele>675.70</ele>
        <time>2012-11-17T10:47:24Z</time>
      </trkpt>
      <trkpt lat="42.371813000" lon="-2.552789000">
        <ele>676.20</ele>
        <time>2012-11-17T10:47:26Z</time>
      </trkpt>
      <trkpt lat="42.371823000" lon="-2.552799000">
        <ele>676.40</ele>
        <time>2012-11-17T10:47:28Z</time>
      </trkpt>
      <trkpt lat="42.371856000" lon="-2.552843000">
        <ele>677.10</ele>
        <time>2012-11-17T10:47:31Z</time>
      </trkpt>
      <trkpt lat="42.371863000" lon="-2.552854000">
        <ele>677.20</ele>
        <time>2012-11-17T10:47:33Z</time>
      </trkpt>
      <trkpt lat="42.371888000" lon="-2.552888000">
        <ele>677.70</ele>
        <time>2012-11-17T10:47:36Z</time>
      </trkpt>
      <trkpt lat="42.371913000" lon="-2.552918000">
        <ele>678.20</ele>
        <time>2012-11-17T10:47:38Z</time>
      </trkpt>
      <trkpt lat="42.371920000" lon="-2.552931000">
        <ele>678.30</ele>
        <time>2012-11-17T10:47:40Z</time>
      </trkpt>
      <trkpt lat="42.371928000" lon="-2.552943000">
        <ele>678.30</ele>
        <time>2012-11-17T10:47:40Z</time>
      </trkpt>
      <trkpt lat="42.371935000" lon="-2.552956000">
        <ele>678.40</ele>
        <time>2012-11-17T10:47:42Z</time>
      </trkpt>
      <trkpt lat="42.371941000" lon="-2.552966000">
        <ele>678.50</ele>
        <time>2012-11-17T10:47:43Z</time>
      </trkpt>
      <trkpt lat="42.371951000" lon="-2.552993000">
        <ele>678.50</ele>
        <time>2012-11-17T10:47:45Z</time>
      </trkpt>
      <trkpt lat="42.371958000" lon="-2.553004000">
        <ele>678.60</ele>
        <time>2012-11-17T10:47:45Z</time>
      </trkpt>
      <trkpt lat="42.371963000" lon="-2.553018000">
        <ele>678.60</ele>
        <time>2012-11-17T10:47:47Z</time>
      </trkpt>
      <trkpt lat="42.371993000" lon="-2.553144000">
        <ele>678.80</ele>
        <time>2012-11-17T10:47:54Z</time>
      </trkpt>
      <trkpt lat="42.372000000" lon="-2.553194000">
        <ele>678.90</ele>
        <time>2012-11-17T10:47:57Z</time>
      </trkpt>
      <trkpt lat="42.372011000" lon="-2.553229000">
        <ele>678.90</ele>
        <time>2012-11-17T10:47:59Z</time>
      </trkpt>
      <trkpt lat="42.372020000" lon="-2.553246000">
        <ele>678.90</ele>
        <time>2012-11-17T10:48:01Z</time>
      </trkpt>
      <trkpt lat="42.372041000" lon="-2.553309000">
        <ele>679.00</ele>
        <time>2012-11-17T10:48:04Z</time>
      </trkpt>
      <trkpt lat="42.372303000" lon="-2.553751000">
        <ele>677.60</ele>
        <time>2012-11-17T10:48:18Z</time>
      </trkpt>
      <trkpt lat="42.372386000" lon="-2.553924000">
        <ele>676.60</ele>
        <time>2012-11-17T10:48:22Z</time>
      </trkpt>
      <trkpt lat="42.372538000" lon="-2.554163000">
        <ele>674.80</ele>
        <time>2012-11-17T10:48:27Z</time>
      </trkpt>
      <trkpt lat="42.372641000" lon="-2.554384000">
        <ele>673.20</ele>
        <time>2012-11-17T10:48:34Z</time>
      </trkpt>
      <trkpt lat="42.372653000" lon="-2.554424000">
        <ele>673.10</ele>
        <time>2012-11-17T10:48:34Z</time>
      </trkpt>
      <trkpt lat="42.372988000" lon="-2.555418000">
        <ele>665.00</ele>
        <time>2012-11-17T10:48:49Z</time>
      </trkpt>
      <trkpt lat="42.373063000" lon="-2.555699000">
        <ele>663.50</ele>
        <time>2012-11-17T10:48:53Z</time>
      </trkpt>
      <trkpt lat="42.373098000" lon="-2.555888000">
        <ele>662.90</ele>
        <time>2012-11-17T10:48:56Z</time>
      </trkpt>
      <trkpt lat="42.373161000" lon="-2.556073000">
        <ele>662.30</ele>
        <time>2012-11-17T10:49:00Z</time>
      </trkpt>
      <trkpt lat="42.373190000" lon="-2.556131000">
        <ele>662.00</ele>
        <time>2012-11-17T10:49:00Z</time>
      </trkpt>
      <trkpt lat="42.373535000" lon="-2.556546000">
        <ele>660.20</ele>
        <time>2012-11-17T10:49:10Z</time>
      </trkpt>
      <trkpt lat="42.373985000" lon="-2.556968000">
        <ele>659.10</ele>
        <time>2012-11-17T10:49:21Z</time>
      </trkpt>
      <trkpt lat="42.374308000" lon="-2.557228000">
        <ele>658.20</ele>
        <time>2012-11-17T10:49:30Z</time>
      </trkpt>
      <trkpt lat="42.374340000" lon="-2.557263000">
        <ele>658.10</ele>
        <time>2012-11-17T10:49:31Z</time>
      </trkpt>
      <trkpt lat="42.374415000" lon="-2.557379000">
        <ele>657.80</ele>
        <time>2012-11-17T10:49:33Z</time>
      </trkpt>
      <trkpt lat="42.374431000" lon="-2.557416000">
        <ele>657.80</ele>
        <time>2012-11-17T10:49:35Z</time>
      </trkpt>
      <trkpt lat="42.374441000" lon="-2.557448000">
        <ele>657.80</ele>
        <time>2012-11-17T10:49:35Z</time>
      </trkpt>
      <trkpt lat="42.374450000" lon="-2.557524000">
        <ele>657.80</ele>
        <time>2012-11-17T10:49:38Z</time>
      </trkpt>
      <trkpt lat="42.374460000" lon="-2.557561000">
        <ele>657.90</ele>
        <time>2012-11-17T10:49:38Z</time>
      </trkpt>
      <trkpt lat="42.374475000" lon="-2.557588000">
        <ele>657.90</ele>
        <time>2012-11-17T10:49:40Z</time>
      </trkpt>
      <trkpt lat="42.374583000" lon="-2.557676000">
        <ele>657.50</ele>
        <time>2012-11-17T10:49:43Z</time>
      </trkpt>
      <trkpt lat="42.374756000" lon="-2.557763000">
        <ele>657.00</ele>
        <time>2012-11-17T10:49:47Z</time>
      </trkpt>
      <trkpt lat="42.374993000" lon="-2.557833000">
        <ele>656.30</ele>
        <time>2012-11-17T10:49:54Z</time>
      </trkpt>
      <trkpt lat="42.375101000" lon="-2.557901000">
        <ele>656.10</ele>
        <time>2012-11-17T10:49:57Z</time>
      </trkpt>
      <trkpt lat="42.375260000" lon="-2.558068000">
        <ele>656.70</ele>
        <time>2012-11-17T10:50:04Z</time>
      </trkpt>
      <trkpt lat="42.375263000" lon="-2.558076000">
        <ele>656.70</ele>
        <time>2012-11-17T10:50:04Z</time>
      </trkpt>
      <trkpt lat="42.375263000" lon="-2.558076000">
        <ele>656.70</ele>
        <time>2012-11-17T10:50:06Z</time>
      </trkpt>
      <trkpt lat="42.375275000" lon="-2.558079000">
        <ele>656.80</ele>
        <time>2012-11-17T10:50:13Z</time>
      </trkpt>
      <trkpt lat="42.375281000" lon="-2.558078000">
        <ele>656.80</ele>
        <time>2012-11-17T10:50:22Z</time>
      </trkpt>
      <trkpt lat="42.375285000" lon="-2.558079000">
        <ele>656.80</ele>
        <time>2012-11-17T10:50:25Z</time>
      </trkpt>
      <trkpt lat="42.375285000" lon="-2.558076000">
        <ele>656.80</ele>
        <time>2012-11-17T10:50:34Z</time>
      </trkpt>
      <trkpt lat="42.375283000" lon="-2.558076000">
        <ele>656.80</ele>
        <time>2012-11-17T10:50:36Z</time>
      </trkpt>
      <trkpt lat="42.375283000" lon="-2.558074000">
        <ele>656.80</ele>
        <time>2012-11-17T10:50:37Z</time>
      </trkpt>
      <trkpt lat="42.375280000" lon="-2.558073000">
        <ele>656.80</ele>
        <time>2012-11-17T10:50:48Z</time>
      </trkpt>
      <trkpt lat="42.375280000" lon="-2.558071000">
        <ele>656.80</ele>
        <time>2012-11-17T10:50:50Z</time>
      </trkpt>
      <trkpt lat="42.375280000" lon="-2.558071000">
        <ele>656.80</ele>
        <time>2012-11-17T10:50:51Z</time>
      </trkpt>
      <trkpt lat="42.375278000" lon="-2.558071000">
        <ele>656.80</ele>
        <time>2012-11-17T10:50:53Z</time>
      </trkpt>
      <trkpt lat="42.375276000" lon="-2.558071000">
        <ele>656.80</ele>
        <time>2012-11-17T10:50:55Z</time>
      </trkpt>
      <trkpt lat="42.375276000" lon="-2.558069000">
        <ele>656.70</ele>
        <time>2012-11-17T10:50:55Z</time>
      </trkpt>
      <trkpt lat="42.375276000" lon="-2.558071000">
        <ele>656.70</ele>
        <time>2012-11-17T10:51:00Z</time>
      </trkpt>
      <trkpt lat="42.375276000" lon="-2.558071000">
        <ele>656.70</ele>
        <time>2012-11-17T10:51:02Z</time>
      </trkpt>
      <trkpt lat="42.375280000" lon="-2.558071000">
        <ele>656.80</ele>
        <time>2012-11-17T10:51:05Z</time>
      </trkpt>
      <trkpt lat="42.375280000" lon="-2.558071000">
        <ele>656.80</ele>
        <time>2012-11-17T10:51:07Z</time>
      </trkpt>
      <trkpt lat="42.375281000" lon="-2.558073000">
        <ele>656.80</ele>
        <time>2012-11-17T10:51:09Z</time>
      </trkpt>
      <trkpt lat="42.375283000" lon="-2.558073000">
        <ele>656.80</ele>
        <time>2012-11-17T10:51:11Z</time>
      </trkpt>
      <trkpt lat="42.375283000" lon="-2.558073000">
        <ele>656.80</ele>
        <time>2012-11-17T10:51:12Z</time>
      </trkpt>
      <trkpt lat="42.375285000" lon="-2.558074000">
        <ele>656.70</ele>
        <time>2012-11-17T10:51:16Z</time>
      </trkpt>
      <trkpt lat="42.375291000" lon="-2.558073000">
        <ele>656.70</ele>
        <time>2012-11-17T10:51:23Z</time>
      </trkpt>
      <trkpt lat="42.375288000" lon="-2.558074000">
        <ele>656.70</ele>
        <time>2012-11-17T10:51:35Z</time>
      </trkpt>
      <trkpt lat="42.375291000" lon="-2.558074000">
        <ele>656.70</ele>
        <time>2012-11-17T10:51:42Z</time>
      </trkpt>
      <trkpt lat="42.375291000" lon="-2.558076000">
        <ele>656.70</ele>
        <time>2012-11-17T10:51:42Z</time>
      </trkpt>
      <trkpt lat="42.375300000" lon="-2.558076000">
        <ele>656.70</ele>
        <time>2012-11-17T10:51:54Z</time>
      </trkpt>
      <trkpt lat="42.375296000" lon="-2.558076000">
        <ele>656.70</ele>
        <time>2012-11-17T10:52:01Z</time>
      </trkpt>
      <trkpt lat="42.375296000" lon="-2.558074000">
        <ele>656.70</ele>
        <time>2012-11-17T10:52:03Z</time>
      </trkpt>
      <trkpt lat="42.375293000" lon="-2.558073000">
        <ele>656.70</ele>
        <time>2012-11-17T10:52:24Z</time>
      </trkpt>
      <trkpt lat="42.375300000" lon="-2.558074000">
        <ele>656.70</ele>
        <time>2012-11-17T10:52:36Z</time>
      </trkpt>
      <trkpt lat="42.375300000" lon="-2.558076000">
        <ele>656.70</ele>
        <time>2012-11-17T10:52:48Z</time>
      </trkpt>
      <trkpt lat="42.375300000" lon="-2.558074000">
        <ele>656.70</ele>
        <time>2012-11-17T10:52:50Z</time>
      </trkpt>
      <trkpt lat="42.375323000" lon="-2.558088000">
        <ele>656.70</ele>
        <time>2012-11-17T10:52:53Z</time>
      </trkpt>
      <trkpt lat="42.375353000" lon="-2.558116000">
        <ele>656.80</ele>
        <time>2012-11-17T10:52:55Z</time>
      </trkpt>
      <trkpt lat="42.375541000" lon="-2.558419000">
        <ele>658.10</ele>
        <time>2012-11-17T10:53:09Z</time>
      </trkpt>
      <trkpt lat="42.375966000" lon="-2.558923000">
        <ele>656.80</ele>
        <time>2012-11-17T10:53:26Z</time>
      </trkpt>
      <trkpt lat="42.377311000" lon="-2.560199000">
        <ele>646.00</ele>
        <time>2012-11-17T10:53:46Z</time>
      </trkpt>
      <trkpt lat="42.377375000" lon="-2.560288000">
        <ele>645.70</ele>
        <time>2012-11-17T10:53:47Z</time>
      </trkpt>
      <trkpt lat="42.377620000" lon="-2.560551000">
        <ele>643.70</ele>
        <time>2012-11-17T10:53:51Z</time>
      </trkpt>
      <trkpt lat="42.377803000" lon="-2.560784000">
        <ele>642.20</ele>
        <time>2012-11-17T10:53:54Z</time>
      </trkpt>
      <trkpt lat="42.378500000" lon="-2.561548000">
        <ele>634.20</ele>
        <time>2012-11-17T10:54:03Z</time>
      </trkpt>
      <trkpt lat="42.378535000" lon="-2.561576000">
        <ele>633.60</ele>
        <time>2012-11-17T10:54:05Z</time>
      </trkpt>
      <trkpt lat="42.378565000" lon="-2.561614000">
        <ele>633.10</ele>
        <time>2012-11-17T10:54:05Z</time>
      </trkpt>
      <trkpt lat="42.378618000" lon="-2.561711000">
        <ele>632.40</ele>
        <time>2012-11-17T10:54:08Z</time>
      </trkpt>
      <trkpt lat="42.378783000" lon="-2.561923000">
        <ele>630.80</ele>
        <time>2012-11-17T10:54:12Z</time>
      </trkpt>
      <trkpt lat="42.378936000" lon="-2.562044000">
        <ele>630.20</ele>
        <time>2012-11-17T10:54:15Z</time>
      </trkpt>
      <trkpt lat="42.379040000" lon="-2.562103000">
        <ele>629.90</ele>
        <time>2012-11-17T10:54:17Z</time>
      </trkpt>
      <trkpt lat="42.379083000" lon="-2.562148000">
        <ele>629.80</ele>
        <time>2012-11-17T10:54:17Z</time>
      </trkpt>
      <trkpt lat="42.379243000" lon="-2.562453000">
        <ele>630.70</ele>
        <time>2012-11-17T10:54:22Z</time>
      </trkpt>
      <trkpt lat="42.379351000" lon="-2.562744000">
        <ele>632.20</ele>
        <time>2012-11-17T10:54:27Z</time>
      </trkpt>
      <trkpt lat="42.379408000" lon="-2.562836000">
        <ele>632.70</ele>
        <time>2012-11-17T10:54:29Z</time>
      </trkpt>
      <trkpt lat="42.380018000" lon="-2.563341000">
        <ele>633.90</ele>
        <time>2012-11-17T10:54:50Z</time>
      </trkpt>
      <trkpt lat="42.380043000" lon="-2.563353000">
        <ele>633.90</ele>
        <time>2012-11-17T10:54:52Z</time>
      </trkpt>
      <trkpt lat="42.380095000" lon="-2.563366000">
        <ele>633.80</ele>
        <time>2012-11-17T10:54:54Z</time>
      </trkpt>
      <trkpt lat="42.380121000" lon="-2.563366000">
        <ele>633.80</ele>
        <time>2012-11-17T10:54:55Z</time>
      </trkpt>
      <trkpt lat="42.380146000" lon="-2.563359000">
        <ele>633.70</ele>
        <time>2012-11-17T10:54:55Z</time>
      </trkpt>
      <trkpt lat="42.380200000" lon="-2.563324000">
        <ele>633.40</ele>
        <time>2012-11-17T10:54:57Z</time>
      </trkpt>
      <trkpt lat="42.380460000" lon="-2.563113000">
        <ele>631.70</ele>
        <time>2012-11-17T10:55:09Z</time>
      </trkpt>
      <trkpt lat="42.380548000" lon="-2.563084000">
        <ele>631.40</ele>
        <time>2012-11-17T10:55:13Z</time>
      </trkpt>
      <trkpt lat="42.380570000" lon="-2.563083000">
        <ele>631.40</ele>
        <time>2012-11-17T10:55:14Z</time>
      </trkpt>
      <trkpt lat="42.380636000" lon="-2.563093000">
        <ele>631.20</ele>
        <time>2012-11-17T10:55:18Z</time>
      </trkpt>
      <trkpt lat="42.380678000" lon="-2.563113000">
        <ele>631.20</ele>
        <time>2012-11-17T10:55:20Z</time>
      </trkpt>
      <trkpt lat="42.380696000" lon="-2.563128000">
        <ele>631.20</ele>
        <time>2012-11-17T10:55:21Z</time>
      </trkpt>
      <trkpt lat="42.380725000" lon="-2.563171000">
        <ele>631.20</ele>
        <time>2012-11-17T10:55:23Z</time>
      </trkpt>
      <trkpt lat="42.380788000" lon="-2.563338000">
        <ele>631.50</ele>
        <time>2012-11-17T10:55:28Z</time>
      </trkpt>
      <trkpt lat="42.380928000" lon="-2.563523000">
        <ele>631.60</ele>
        <time>2012-11-17T10:55:34Z</time>
      </trkpt>
      <trkpt lat="42.381145000" lon="-2.563908000">
        <ele>631.70</ele>
        <time>2012-11-17T10:55:39Z</time>
      </trkpt>
      <trkpt lat="42.381161000" lon="-2.563961000">
        <ele>631.80</ele>
        <time>2012-11-17T10:55:41Z</time>
      </trkpt>
      <trkpt lat="42.381161000" lon="-2.564014000">
        <ele>631.90</ele>
        <time>2012-11-17T10:55:42Z</time>
      </trkpt>
      <trkpt lat="42.381146000" lon="-2.564104000">
        <ele>632.20</ele>
        <time>2012-11-17T10:55:44Z</time>
      </trkpt>
      <trkpt lat="42.381085000" lon="-2.564294000">
        <ele>633.00</ele>
        <time>2012-11-17T10:55:49Z</time>
      </trkpt>
      <trkpt lat="42.380961000" lon="-2.564574000">
        <ele>634.70</ele>
        <time>2012-11-17T10:55:56Z</time>
      </trkpt>
      <trkpt lat="42.380950000" lon="-2.564611000">
        <ele>634.80</ele>
        <time>2012-11-17T10:55:58Z</time>
      </trkpt>
      <trkpt lat="42.380823000" lon="-2.565254000">
        <ele>635.50</ele>
        <time>2012-11-17T10:56:12Z</time>
      </trkpt>
      <trkpt lat="42.380635000" lon="-2.565819000">
        <ele>637.40</ele>
        <time>2012-11-17T10:56:24Z</time>
      </trkpt>
      <trkpt lat="42.380625000" lon="-2.565893000">
        <ele>637.60</ele>
        <time>2012-11-17T10:56:24Z</time>
      </trkpt>
      <trkpt lat="42.380646000" lon="-2.566963000">
        <ele>637.80</ele>
        <time>2012-11-17T10:56:52Z</time>
      </trkpt>
      <trkpt lat="42.380650000" lon="-2.566988000">
        <ele>637.80</ele>
        <time>2012-11-17T10:56:52Z</time>
      </trkpt>
      <trkpt lat="42.380650000" lon="-2.567009000">
        <ele>637.80</ele>
        <time>2012-11-17T10:56:54Z</time>
      </trkpt>
      <trkpt lat="42.380660000" lon="-2.567068000">
        <ele>637.80</ele>
        <time>2012-11-17T10:56:57Z</time>
      </trkpt>
      <trkpt lat="42.380648000" lon="-2.567116000">
        <ele>637.90</ele>
        <time>2012-11-17T10:57:18Z</time>
      </trkpt>
      <trkpt lat="42.380648000" lon="-2.567118000">
        <ele>637.90</ele>
        <time>2012-11-17T10:57:20Z</time>
      </trkpt>
      <trkpt lat="42.380646000" lon="-2.567119000">
        <ele>637.90</ele>
        <time>2012-11-17T10:57:23Z</time>
      </trkpt>
      <trkpt lat="42.380645000" lon="-2.567124000">
        <ele>637.90</ele>
        <time>2012-11-17T10:57:29Z</time>
      </trkpt>
      <trkpt lat="42.380643000" lon="-2.567124000">
        <ele>637.90</ele>
        <time>2012-11-17T10:57:30Z</time>
      </trkpt>
      <trkpt lat="42.380641000" lon="-2.567128000">
        <ele>637.90</ele>
        <time>2012-11-17T10:57:32Z</time>
      </trkpt>
      <trkpt lat="42.380643000" lon="-2.567134000">
        <ele>637.90</ele>
        <time>2012-11-17T10:57:37Z</time>
      </trkpt>
      <trkpt lat="42.380643000" lon="-2.567149000">
        <ele>638.00</ele>
        <time>2012-11-17T10:57:39Z</time>
      </trkpt>
      <trkpt lat="42.380618000" lon="-2.567228000">
        <ele>638.10</ele>
        <time>2012-11-17T10:57:44Z</time>
      </trkpt>
      <trkpt lat="42.380608000" lon="-2.567246000">
        <ele>638.20</ele>
        <time>2012-11-17T10:57:44Z</time>
      </trkpt>
      <trkpt lat="42.380595000" lon="-2.567263000">
        <ele>638.30</ele>
        <time>2012-11-17T10:57:46Z</time>
      </trkpt>
      <trkpt lat="42.380580000" lon="-2.567276000">
        <ele>638.30</ele>
        <time>2012-11-17T10:57:46Z</time>
      </trkpt>
      <trkpt lat="42.380573000" lon="-2.567291000">
        <ele>638.40</ele>
        <time>2012-11-17T10:57:48Z</time>
      </trkpt>
      <trkpt lat="42.380561000" lon="-2.567301000">
        <ele>638.50</ele>
        <time>2012-11-17T10:57:48Z</time>
      </trkpt>
      <trkpt lat="42.380543000" lon="-2.567311000">
        <ele>638.60</ele>
        <time>2012-11-17T10:57:49Z</time>
      </trkpt>
      <trkpt lat="42.380321000" lon="-2.567379000">
        <ele>640.20</ele>
        <time>2012-11-17T10:57:58Z</time>
      </trkpt>
      <trkpt lat="42.380296000" lon="-2.567393000">
        <ele>640.60</ele>
        <time>2012-11-17T10:58:00Z</time>
      </trkpt>
      <trkpt lat="42.380273000" lon="-2.567411000">
        <ele>640.90</ele>
        <time>2012-11-17T10:58:00Z</time>
      </trkpt>
      <trkpt lat="42.380255000" lon="-2.567434000">
        <ele>641.20</ele>
        <time>2012-11-17T10:58:02Z</time>
      </trkpt>
      <trkpt lat="42.380225000" lon="-2.567491000">
        <ele>641.70</ele>
        <time>2012-11-17T10:58:03Z</time>
      </trkpt>
      <trkpt lat="42.380043000" lon="-2.567968000">
        <ele>643.50</ele>
        <time>2012-11-17T10:58:19Z</time>
      </trkpt>
      <trkpt lat="42.380031000" lon="-2.568036000">
        <ele>643.70</ele>
        <time>2012-11-17T10:58:21Z</time>
      </trkpt>
      <trkpt lat="42.380030000" lon="-2.568069000">
        <ele>643.80</ele>
        <time>2012-11-17T10:58:21Z</time>
      </trkpt>
      <trkpt lat="42.380005000" lon="-2.568291000">
        <ele>644.40</ele>
        <time>2012-11-17T10:58:28Z</time>
      </trkpt>
      <trkpt lat="42.379810000" lon="-2.568891000">
        <ele>647.50</ele>
        <time>2012-11-17T10:58:47Z</time>
      </trkpt>
      <trkpt lat="42.379716000" lon="-2.569059000">
        <ele>648.70</ele>
        <time>2012-11-17T10:58:52Z</time>
      </trkpt>
      <trkpt lat="42.379666000" lon="-2.569134000">
        <ele>649.30</ele>
        <time>2012-11-17T10:58:56Z</time>
      </trkpt>
      <trkpt lat="42.379645000" lon="-2.569188000">
        <ele>649.60</ele>
        <time>2012-11-17T10:58:57Z</time>
      </trkpt>
      <trkpt lat="42.379481000" lon="-2.569491000">
        <ele>651.90</ele>
        <time>2012-11-17T10:59:08Z</time>
      </trkpt>
      <trkpt lat="42.379283000" lon="-2.569909000">
        <ele>654.30</ele>
        <time>2012-11-17T10:59:20Z</time>
      </trkpt>
      <trkpt lat="42.378946000" lon="-2.570466000">
        <ele>656.80</ele>
        <time>2012-11-17T10:59:39Z</time>
      </trkpt>
      <trkpt lat="42.378926000" lon="-2.570491000">
        <ele>656.90</ele>
        <time>2012-11-17T10:59:41Z</time>
      </trkpt>
      <trkpt lat="42.378733000" lon="-2.570688000">
        <ele>658.30</ele>
        <time>2012-11-17T10:59:50Z</time>
      </trkpt>
      <trkpt lat="42.378651000" lon="-2.570798000">
        <ele>659.00</ele>
        <time>2012-11-17T10:59:53Z</time>
      </trkpt>
      <trkpt lat="42.378143000" lon="-2.572106000">
        <ele>661.60</ele>
        <time>2012-11-17T11:00:37Z</time>
      </trkpt>
      <trkpt lat="42.377990000" lon="-2.572363000">
        <ele>662.90</ele>
        <time>2012-11-17T11:00:49Z</time>
      </trkpt>
      <trkpt lat="42.377973000" lon="-2.572381000">
        <ele>662.90</ele>
        <time>2012-11-17T11:00:49Z</time>
      </trkpt>
      <trkpt lat="42.377756000" lon="-2.572663000">
        <ele>665.20</ele>
        <time>2012-11-17T11:01:05Z</time>
      </trkpt>
      <trkpt lat="42.377651000" lon="-2.572831000">
        <ele>666.50</ele>
        <time>2012-11-17T11:01:13Z</time>
      </trkpt>
      <trkpt lat="42.377593000" lon="-2.572888000">
        <ele>667.10</ele>
        <time>2012-11-17T11:01:15Z</time>
      </trkpt>
      <trkpt lat="42.377388000" lon="-2.573049000">
        <ele>669.60</ele>
        <time>2012-11-17T11:01:25Z</time>
      </trkpt>
      <trkpt lat="42.377315000" lon="-2.573141000">
        <ele>670.50</ele>
        <time>2012-11-17T11:01:29Z</time>
      </trkpt>
      <trkpt lat="42.377288000" lon="-2.573203000">
        <ele>670.90</ele>
        <time>2012-11-17T11:01:31Z</time>
      </trkpt>
      <trkpt lat="42.377200000" lon="-2.573508000">
        <ele>672.00</ele>
        <time>2012-11-17T11:01:41Z</time>
      </trkpt>
      <trkpt lat="42.376983000" lon="-2.573953000">
        <ele>674.20</ele>
        <time>2012-11-17T11:01:55Z</time>
      </trkpt>
      <trkpt lat="42.376965000" lon="-2.573981000">
        <ele>674.40</ele>
        <time>2012-11-17T11:01:55Z</time>
      </trkpt>
      <trkpt lat="42.376585000" lon="-2.574526000">
        <ele>678.40</ele>
        <time>2012-11-17T11:02:16Z</time>
      </trkpt>
      <trkpt lat="42.376238000" lon="-2.575294000">
        <ele>682.40</ele>
        <time>2012-11-17T11:02:44Z</time>
      </trkpt>
      <trkpt lat="42.376178000" lon="-2.575399000">
        <ele>682.80</ele>
        <time>2012-11-17T11:02:49Z</time>
      </trkpt>
      <trkpt lat="42.376076000" lon="-2.575673000">
        <ele>685.60</ele>
        <time>2012-11-17T11:02:58Z</time>
      </trkpt>
      <trkpt lat="42.376061000" lon="-2.575699000">
        <ele>685.70</ele>
        <time>2012-11-17T11:02:59Z</time>
      </trkpt>
      <trkpt lat="42.375688000" lon="-2.576288000">
        <ele>690.10</ele>
        <time>2012-11-17T11:03:24Z</time>
      </trkpt>
      <trkpt lat="42.375638000" lon="-2.576354000">
        <ele>690.30</ele>
        <time>2012-11-17T11:03:29Z</time>
      </trkpt>
      <trkpt lat="42.375625000" lon="-2.576379000">
        <ele>690.30</ele>
        <time>2012-11-17T11:03:31Z</time>
      </trkpt>
      <trkpt lat="42.375621000" lon="-2.576396000">
        <ele>690.40</ele>
        <time>2012-11-17T11:03:33Z</time>
      </trkpt>
      <trkpt lat="42.375625000" lon="-2.576414000">
        <ele>690.50</ele>
        <time>2012-11-17T11:03:34Z</time>
      </trkpt>
      <trkpt lat="42.375631000" lon="-2.576429000">
        <ele>690.60</ele>
        <time>2012-11-17T11:03:34Z</time>
      </trkpt>
      <trkpt lat="42.375643000" lon="-2.576439000">
        <ele>690.80</ele>
        <time>2012-11-17T11:03:36Z</time>
      </trkpt>
      <trkpt lat="42.375658000" lon="-2.576441000">
        <ele>690.90</ele>
        <time>2012-11-17T11:03:36Z</time>
      </trkpt>
      <trkpt lat="42.375673000" lon="-2.576436000">
        <ele>691.00</ele>
        <time>2012-11-17T11:03:38Z</time>
      </trkpt>
      <trkpt lat="42.375706000" lon="-2.576411000">
        <ele>691.20</ele>
        <time>2012-11-17T11:03:40Z</time>
      </trkpt>
      <trkpt lat="42.375741000" lon="-2.576371000">
        <ele>691.20</ele>
        <time>2012-11-17T11:03:41Z</time>
      </trkpt>
      <trkpt lat="42.375843000" lon="-2.576204000">
        <ele>690.70</ele>
        <time>2012-11-17T11:03:48Z</time>
      </trkpt>
      <trkpt lat="42.376828000" lon="-2.575148000">
        <ele>684.90</ele>
        <time>2012-11-17T11:04:18Z</time>
      </trkpt>
      <trkpt lat="42.376880000" lon="-2.575118000">
        <ele>684.80</ele>
        <time>2012-11-17T11:04:18Z</time>
      </trkpt>
      <trkpt lat="42.377421000" lon="-2.575026000">
        <ele>686.20</ele>
        <time>2012-11-17T11:04:28Z</time>
      </trkpt>
      <trkpt lat="42.377920000" lon="-2.574763000">
        <ele>685.70</ele>
        <time>2012-11-17T11:04:41Z</time>
      </trkpt>
      <trkpt lat="42.378020000" lon="-2.574679000">
        <ele>685.50</ele>
        <time>2012-11-17T11:04:44Z</time>
      </trkpt>
      <trkpt lat="42.378225000" lon="-2.574404000">
        <ele>684.20</ele>
        <time>2012-11-17T11:04:51Z</time>
      </trkpt>
      <trkpt lat="42.378681000" lon="-2.574116000">
        <ele>684.90</ele>
        <time>2012-11-17T11:05:05Z</time>
      </trkpt>
      <trkpt lat="42.378993000" lon="-2.573809000">
        <ele>683.30</ele>
        <time>2012-11-17T11:05:15Z</time>
      </trkpt>
      <trkpt lat="42.379075000" lon="-2.573769000">
        <ele>683.30</ele>
        <time>2012-11-17T11:05:17Z</time>
      </trkpt>
      <trkpt lat="42.379158000" lon="-2.573754000">
        <ele>683.90</ele>
        <time>2012-11-17T11:05:19Z</time>
      </trkpt>
      <trkpt lat="42.379205000" lon="-2.573754000">
        <ele>684.20</ele>
        <time>2012-11-17T11:05:21Z</time>
      </trkpt>
      <trkpt lat="42.379938000" lon="-2.573908000">
        <ele>692.90</ele>
        <time>2012-11-17T11:05:35Z</time>
      </trkpt>
      <trkpt lat="42.380173000" lon="-2.573853000">
        <ele>691.40</ele>
        <time>2012-11-17T11:05:38Z</time>
      </trkpt>
      <trkpt lat="42.381140000" lon="-2.573291000">
        <ele>684.00</ele>
        <time>2012-11-17T11:05:55Z</time>
      </trkpt>
      <trkpt lat="42.381560000" lon="-2.573161000">
        <ele>683.30</ele>
        <time>2012-11-17T11:06:04Z</time>
      </trkpt>
      <trkpt lat="42.381653000" lon="-2.573151000">
        <ele>683.50</ele>
        <time>2012-11-17T11:06:06Z</time>
      </trkpt>
      <trkpt lat="42.381786000" lon="-2.573159000">
        <ele>684.20</ele>
        <time>2012-11-17T11:06:09Z</time>
      </trkpt>
      <trkpt lat="42.382648000" lon="-2.572939000">
        <ele>684.00</ele>
        <time>2012-11-17T11:06:34Z</time>
      </trkpt>
      <trkpt lat="42.382685000" lon="-2.572946000">
        <ele>684.10</ele>
        <time>2012-11-17T11:06:34Z</time>
      </trkpt>
      <trkpt lat="42.382715000" lon="-2.572961000">
        <ele>684.40</ele>
        <time>2012-11-17T11:06:36Z</time>
      </trkpt>
      <trkpt lat="42.382788000" lon="-2.573018000">
        <ele>685.50</ele>
        <time>2012-11-17T11:06:39Z</time>
      </trkpt>
      <trkpt lat="42.383175000" lon="-2.573223000">
        <ele>688.70</ele>
        <time>2012-11-17T11:06:58Z</time>
      </trkpt>
      <trkpt lat="42.383311000" lon="-2.573341000">
        <ele>690.00</ele>
        <time>2012-11-17T11:07:02Z</time>
      </trkpt>
      <trkpt lat="42.383410000" lon="-2.573478000">
        <ele>691.60</ele>
        <time>2012-11-17T11:07:07Z</time>
      </trkpt>
      <trkpt lat="42.383450000" lon="-2.573513000">
        <ele>692.10</ele>
        <time>2012-11-17T11:07:10Z</time>
      </trkpt>
      <trkpt lat="42.383471000" lon="-2.573521000">
        <ele>692.30</ele>
        <time>2012-11-17T11:07:10Z</time>
      </trkpt>
      <trkpt lat="42.383490000" lon="-2.573524000">
        <ele>692.40</ele>
        <time>2012-11-17T11:07:12Z</time>
      </trkpt>
      <trkpt lat="42.383506000" lon="-2.573523000">
        <ele>692.40</ele>
        <time>2012-11-17T11:07:12Z</time>
      </trkpt>
      <trkpt lat="42.383603000" lon="-2.573458000">
        <ele>691.60</ele>
        <time>2012-11-17T11:07:19Z</time>
      </trkpt>
      <trkpt lat="42.383673000" lon="-2.573431000">
        <ele>691.10</ele>
        <time>2012-11-17T11:07:24Z</time>
      </trkpt>
      <trkpt lat="42.383688000" lon="-2.573421000">
        <ele>690.90</ele>
        <time>2012-11-17T11:07:24Z</time>
      </trkpt>
      <trkpt lat="42.383703000" lon="-2.573416000">
        <ele>690.80</ele>
        <time>2012-11-17T11:07:26Z</time>
      </trkpt>
      <trkpt lat="42.383751000" lon="-2.573413000">
        <ele>690.50</ele>
        <time>2012-11-17T11:07:30Z</time>
      </trkpt>
      <trkpt lat="42.383806000" lon="-2.573421000">
        <ele>690.60</ele>
        <time>2012-11-17T11:07:35Z</time>
      </trkpt>
      <trkpt lat="42.383818000" lon="-2.573426000">
        <ele>690.60</ele>
        <time>2012-11-17T11:07:35Z</time>
      </trkpt>
      <trkpt lat="42.383900000" lon="-2.573481000">
        <ele>691.30</ele>
        <time>2012-11-17T11:07:42Z</time>
      </trkpt>
      <trkpt lat="42.383926000" lon="-2.573491000">
        <ele>691.50</ele>
        <time>2012-11-17T11:07:43Z</time>
      </trkpt>
      <trkpt lat="42.383951000" lon="-2.573496000">
        <ele>691.60</ele>
        <time>2012-11-17T11:07:45Z</time>
      </trkpt>
      <trkpt lat="42.383985000" lon="-2.573491000">
        <ele>691.60</ele>
        <time>2012-11-17T11:07:47Z</time>
      </trkpt>
      <trkpt lat="42.384613000" lon="-2.573648000">
        <ele>695.10</ele>
        <time>2012-11-17T11:08:11Z</time>
      </trkpt>
      <trkpt lat="42.384801000" lon="-2.573774000">
        <ele>697.80</ele>
        <time>2012-11-17T11:08:18Z</time>
      </trkpt>
      <trkpt lat="42.385035000" lon="-2.574019000">
        <ele>702.80</ele>
        <time>2012-11-17T11:08:32Z</time>
      </trkpt>
      <trkpt lat="42.385073000" lon="-2.574046000">
        <ele>703.40</ele>
        <time>2012-11-17T11:08:34Z</time>
      </trkpt>
      <trkpt lat="42.385110000" lon="-2.574081000">
        <ele>704.00</ele>
        <time>2012-11-17T11:08:36Z</time>
      </trkpt>
      <trkpt lat="42.385128000" lon="-2.574093000">
        <ele>704.20</ele>
        <time>2012-11-17T11:08:36Z</time>
      </trkpt>
      <trkpt lat="42.385141000" lon="-2.574108000">
        <ele>704.60</ele>
        <time>2012-11-17T11:08:37Z</time>
      </trkpt>
      <trkpt lat="42.385335000" lon="-2.574224000">
        <ele>707.10</ele>
        <time>2012-11-17T11:08:48Z</time>
      </trkpt>
      <trkpt lat="42.385370000" lon="-2.574238000">
        <ele>707.40</ele>
        <time>2012-11-17T11:08:50Z</time>
      </trkpt>
      <trkpt lat="42.385435000" lon="-2.574274000">
        <ele>708.00</ele>
        <time>2012-11-17T11:08:55Z</time>
      </trkpt>
      <trkpt lat="42.385473000" lon="-2.574286000">
        <ele>708.20</ele>
        <time>2012-11-17T11:08:57Z</time>
      </trkpt>
      <trkpt lat="42.385491000" lon="-2.574296000">
        <ele>708.30</ele>
        <time>2012-11-17T11:08:58Z</time>
      </trkpt>
      <trkpt lat="42.385853000" lon="-2.574388000">
        <ele>709.10</ele>
        <time>2012-11-17T11:09:14Z</time>
      </trkpt>
      <trkpt lat="42.385928000" lon="-2.574416000">
        <ele>709.40</ele>
        <time>2012-11-17T11:09:19Z</time>
      </trkpt>
      <trkpt lat="42.386013000" lon="-2.574429000">
        <ele>709.50</ele>
        <time>2012-11-17T11:09:23Z</time>
      </trkpt>
      <trkpt lat="42.386030000" lon="-2.574429000">
        <ele>709.50</ele>
        <time>2012-11-17T11:09:24Z</time>
      </trkpt>
      <trkpt lat="42.386081000" lon="-2.574434000">
        <ele>709.40</ele>
        <time>2012-11-17T11:09:28Z</time>
      </trkpt>
      <trkpt lat="42.386116000" lon="-2.574434000">
        <ele>709.30</ele>
        <time>2012-11-17T11:09:30Z</time>
      </trkpt>
      <trkpt lat="42.386293000" lon="-2.574384000">
        <ele>708.10</ele>
        <time>2012-11-17T11:09:40Z</time>
      </trkpt>
      <trkpt lat="42.386311000" lon="-2.574374000">
        <ele>708.00</ele>
        <time>2012-11-17T11:09:40Z</time>
      </trkpt>
      <trkpt lat="42.386568000" lon="-2.574319000">
        <ele>708.70</ele>
        <time>2012-11-17T11:09:58Z</time>
      </trkpt>
      <trkpt lat="42.386630000" lon="-2.574328000">
        <ele>709.30</ele>
        <time>2012-11-17T11:10:01Z</time>
      </trkpt>
      <trkpt lat="42.386645000" lon="-2.574328000">
        <ele>709.40</ele>
        <time>2012-11-17T11:10:03Z</time>
      </trkpt>
      <trkpt lat="42.386675000" lon="-2.574331000">
        <ele>709.70</ele>
        <time>2012-11-17T11:10:05Z</time>
      </trkpt>
      <trkpt lat="42.386691000" lon="-2.574331000">
        <ele>709.80</ele>
        <time>2012-11-17T11:10:06Z</time>
      </trkpt>
      <trkpt lat="42.386735000" lon="-2.574339000">
        <ele>710.30</ele>
        <time>2012-11-17T11:10:08Z</time>
      </trkpt>
      <trkpt lat="42.386793000" lon="-2.574361000">
        <ele>711.20</ele>
        <time>2012-11-17T11:10:13Z</time>
      </trkpt>
      <trkpt lat="42.386821000" lon="-2.574364000">
        <ele>711.50</ele>
        <time>2012-11-17T11:10:15Z</time>
      </trkpt>
      <trkpt lat="42.386835000" lon="-2.574364000">
        <ele>711.60</ele>
        <time>2012-11-17T11:10:15Z</time>
      </trkpt>
      <trkpt lat="42.386850000" lon="-2.574366000">
        <ele>711.80</ele>
        <time>2012-11-17T11:10:17Z</time>
      </trkpt>
      <trkpt lat="42.386891000" lon="-2.574366000">
        <ele>712.10</ele>
        <time>2012-11-17T11:10:20Z</time>
      </trkpt>
      <trkpt lat="42.386936000" lon="-2.574371000">
        <ele>712.60</ele>
        <time>2012-11-17T11:10:22Z</time>
      </trkpt>
      <trkpt lat="42.386981000" lon="-2.574371000">
        <ele>712.90</ele>
        <time>2012-11-17T11:10:25Z</time>
      </trkpt>
      <trkpt lat="42.386996000" lon="-2.574373000">
        <ele>713.10</ele>
        <time>2012-11-17T11:10:27Z</time>
      </trkpt>
      <trkpt lat="42.387026000" lon="-2.574371000">
        <ele>713.30</ele>
        <time>2012-11-17T11:10:29Z</time>
      </trkpt>
      <trkpt lat="42.387041000" lon="-2.574373000">
        <ele>713.40</ele>
        <time>2012-11-17T11:10:29Z</time>
      </trkpt>
      <trkpt lat="42.387056000" lon="-2.574373000">
        <ele>713.60</ele>
        <time>2012-11-17T11:10:31Z</time>
      </trkpt>
      <trkpt lat="42.387098000" lon="-2.574383000">
        <ele>714.10</ele>
        <time>2012-11-17T11:10:34Z</time>
      </trkpt>
      <trkpt lat="42.387170000" lon="-2.574381000">
        <ele>714.90</ele>
        <time>2012-11-17T11:10:38Z</time>
      </trkpt>
      <trkpt lat="42.387183000" lon="-2.574383000">
        <ele>715.10</ele>
        <time>2012-11-17T11:10:39Z</time>
      </trkpt>
      <trkpt lat="42.387223000" lon="-2.574376000">
        <ele>715.50</ele>
        <time>2012-11-17T11:10:43Z</time>
      </trkpt>
      <trkpt lat="42.387236000" lon="-2.574378000">
        <ele>715.60</ele>
        <time>2012-11-17T11:10:43Z</time>
      </trkpt>
      <trkpt lat="42.387318000" lon="-2.574381000">
        <ele>716.80</ele>
        <time>2012-11-17T11:10:50Z</time>
      </trkpt>
      <trkpt lat="42.387343000" lon="-2.574386000">
        <ele>717.10</ele>
        <time>2012-11-17T11:10:52Z</time>
      </trkpt>
      <trkpt lat="42.387381000" lon="-2.574384000">
        <ele>717.60</ele>
        <time>2012-11-17T11:10:55Z</time>
      </trkpt>
      <trkpt lat="42.387433000" lon="-2.574393000">
        <ele>718.40</ele>
        <time>2012-11-17T11:10:59Z</time>
      </trkpt>
      <trkpt lat="42.387446000" lon="-2.574393000">
        <ele>718.60</ele>
        <time>2012-11-17T11:11:00Z</time>
      </trkpt>
      <trkpt lat="42.387458000" lon="-2.574388000">
        <ele>718.70</ele>
        <time>2012-11-17T11:11:00Z</time>
      </trkpt>
      <trkpt lat="42.387510000" lon="-2.574396000">
        <ele>719.40</ele>
        <time>2012-11-17T11:11:04Z</time>
      </trkpt>
      <trkpt lat="42.387533000" lon="-2.574394000">
        <ele>719.70</ele>
        <time>2012-11-17T11:11:07Z</time>
      </trkpt>
      <trkpt lat="42.387556000" lon="-2.574398000">
        <ele>720.10</ele>
        <time>2012-11-17T11:11:09Z</time>
      </trkpt>
      <trkpt lat="42.387568000" lon="-2.574398000">
        <ele>720.20</ele>
        <time>2012-11-17T11:11:09Z</time>
      </trkpt>
      <trkpt lat="42.387580000" lon="-2.574399000">
        <ele>720.40</ele>
        <time>2012-11-17T11:11:11Z</time>
      </trkpt>
      <trkpt lat="42.387641000" lon="-2.574394000">
        <ele>721.10</ele>
        <time>2012-11-17T11:11:16Z</time>
      </trkpt>
      <trkpt lat="42.387675000" lon="-2.574399000">
        <ele>721.60</ele>
        <time>2012-11-17T11:11:18Z</time>
      </trkpt>
      <trkpt lat="42.387748000" lon="-2.574383000">
        <ele>722.20</ele>
        <time>2012-11-17T11:11:25Z</time>
      </trkpt>
      <trkpt lat="42.387796000" lon="-2.574361000">
        <ele>722.40</ele>
        <time>2012-11-17T11:11:30Z</time>
      </trkpt>
      <trkpt lat="42.387875000" lon="-2.574341000">
        <ele>722.90</ele>
        <time>2012-11-17T11:11:35Z</time>
      </trkpt>
      <trkpt lat="42.388070000" lon="-2.574268000">
        <ele>722.90</ele>
        <time>2012-11-17T11:11:51Z</time>
      </trkpt>
      <trkpt lat="42.388085000" lon="-2.574266000">
        <ele>722.90</ele>
        <time>2012-11-17T11:11:51Z</time>
      </trkpt>
      <trkpt lat="42.388176000" lon="-2.574268000">
        <ele>723.50</ele>
        <time>2012-11-17T11:11:58Z</time>
      </trkpt>
      <trkpt lat="42.388280000" lon="-2.574311000">
        <ele>725.00</ele>
        <time>2012-11-17T11:12:05Z</time>
      </trkpt>
      <trkpt lat="42.388508000" lon="-2.574478000">
        <ele>730.00</ele>
        <time>2012-11-17T11:12:22Z</time>
      </trkpt>
      <trkpt lat="42.388535000" lon="-2.574501000">
        <ele>730.60</ele>
        <time>2012-11-17T11:12:24Z</time>
      </trkpt>
      <trkpt lat="42.388576000" lon="-2.574524000">
        <ele>731.40</ele>
        <time>2012-11-17T11:12:26Z</time>
      </trkpt>
      <trkpt lat="42.388590000" lon="-2.574536000">
        <ele>731.70</ele>
        <time>2012-11-17T11:12:27Z</time>
      </trkpt>
      <trkpt lat="42.388720000" lon="-2.574609000">
        <ele>733.70</ele>
        <time>2012-11-17T11:12:36Z</time>
      </trkpt>
      <trkpt lat="42.388776000" lon="-2.574666000">
        <ele>734.00</ele>
        <time>2012-11-17T11:12:41Z</time>
      </trkpt>
      <trkpt lat="42.388841000" lon="-2.574713000">
        <ele>733.60</ele>
        <time>2012-11-17T11:12:48Z</time>
      </trkpt>
      <trkpt lat="42.388850000" lon="-2.574713000">
        <ele>733.60</ele>
        <time>2012-11-17T11:12:48Z</time>
      </trkpt>
      <trkpt lat="42.388871000" lon="-2.574701000">
        <ele>733.40</ele>
        <time>2012-11-17T11:12:50Z</time>
      </trkpt>
      <trkpt lat="42.388888000" lon="-2.574711000">
        <ele>733.10</ele>
        <time>2012-11-17T11:12:59Z</time>
      </trkpt>
      <trkpt lat="42.388888000" lon="-2.574713000">
        <ele>733.10</ele>
        <time>2012-11-17T11:13:00Z</time>
      </trkpt>
      <trkpt lat="42.388886000" lon="-2.574714000">
        <ele>733.10</ele>
        <time>2012-11-17T11:13:02Z</time>
      </trkpt>
      <trkpt lat="42.388888000" lon="-2.574716000">
        <ele>733.10</ele>
        <time>2012-11-17T11:13:04Z</time>
      </trkpt>
      <trkpt lat="42.388888000" lon="-2.574719000">
        <ele>733.10</ele>
        <time>2012-11-17T11:13:06Z</time>
      </trkpt>
      <trkpt lat="42.388886000" lon="-2.574721000">
        <ele>733.10</ele>
        <time>2012-11-17T11:13:06Z</time>
      </trkpt>
      <trkpt lat="42.388886000" lon="-2.574723000">
        <ele>733.20</ele>
        <time>2012-11-17T11:13:07Z</time>
      </trkpt>
      <trkpt lat="42.388885000" lon="-2.574724000">
        <ele>733.20</ele>
        <time>2012-11-17T11:13:09Z</time>
      </trkpt>
      <trkpt lat="42.388885000" lon="-2.574731000">
        <ele>733.20</ele>
        <time>2012-11-17T11:13:16Z</time>
      </trkpt>
      <trkpt lat="42.388888000" lon="-2.574734000">
        <ele>733.20</ele>
        <time>2012-11-17T11:13:18Z</time>
      </trkpt>
      <trkpt lat="42.388891000" lon="-2.574741000">
        <ele>733.20</ele>
        <time>2012-11-17T11:13:28Z</time>
      </trkpt>
      <trkpt lat="42.388893000" lon="-2.574741000">
        <ele>733.20</ele>
        <time>2012-11-17T11:13:30Z</time>
      </trkpt>
      <trkpt lat="42.388893000" lon="-2.574743000">
        <ele>733.20</ele>
        <time>2012-11-17T11:13:30Z</time>
      </trkpt>
      <trkpt lat="42.388895000" lon="-2.574743000">
        <ele>733.20</ele>
        <time>2012-11-17T11:13:32Z</time>
      </trkpt>
      <trkpt lat="42.388896000" lon="-2.574746000">
        <ele>733.20</ele>
        <time>2012-11-17T11:13:39Z</time>
      </trkpt>
      <trkpt lat="42.388895000" lon="-2.574749000">
        <ele>733.20</ele>
        <time>2012-11-17T11:13:44Z</time>
      </trkpt>
      <trkpt lat="42.388888000" lon="-2.574748000">
        <ele>733.20</ele>
        <time>2012-11-17T11:13:58Z</time>
      </trkpt>
      <trkpt lat="42.388900000" lon="-2.574748000">
        <ele>733.20</ele>
        <time>2012-11-17T11:14:24Z</time>
      </trkpt>
      <trkpt lat="42.388900000" lon="-2.574748000">
        <ele>733.20</ele>
        <time>2012-11-17T11:14:24Z</time>
      </trkpt>
      <trkpt lat="42.388901000" lon="-2.574751000">
        <ele>733.10</ele>
        <time>2012-11-17T11:14:36Z</time>
      </trkpt>
      <trkpt lat="42.388903000" lon="-2.574751000">
        <ele>733.10</ele>
        <time>2012-11-17T11:14:40Z</time>
      </trkpt>
      <trkpt lat="42.388901000" lon="-2.574751000">
        <ele>733.10</ele>
        <time>2012-11-17T11:14:45Z</time>
      </trkpt>
      <trkpt lat="42.388901000" lon="-2.574753000">
        <ele>733.10</ele>
        <time>2012-11-17T11:14:45Z</time>
      </trkpt>
      <trkpt lat="42.388900000" lon="-2.574753000">
        <ele>733.20</ele>
        <time>2012-11-17T11:14:52Z</time>
      </trkpt>
      <trkpt lat="42.388895000" lon="-2.574754000">
        <ele>733.20</ele>
        <time>2012-11-17T11:15:02Z</time>
      </trkpt>
      <trkpt lat="42.388895000" lon="-2.574758000">
        <ele>733.20</ele>
        <time>2012-11-17T11:15:13Z</time>
      </trkpt>
      <trkpt lat="42.388891000" lon="-2.574759000">
        <ele>733.20</ele>
        <time>2012-11-17T11:15:18Z</time>
      </trkpt>
      <trkpt lat="42.388891000" lon="-2.574759000">
        <ele>733.20</ele>
        <time>2012-11-17T11:15:20Z</time>
      </trkpt>
      <trkpt lat="42.388891000" lon="-2.574761000">
        <ele>733.30</ele>
        <time>2012-11-17T11:15:20Z</time>
      </trkpt>
      <trkpt lat="42.388888000" lon="-2.574761000">
        <ele>733.30</ele>
        <time>2012-11-17T11:15:23Z</time>
      </trkpt>
      <trkpt lat="42.388888000" lon="-2.574763000">
        <ele>733.30</ele>
        <time>2012-11-17T11:15:25Z</time>
      </trkpt>
      <trkpt lat="42.388886000" lon="-2.574763000">
        <ele>733.30</ele>
        <time>2012-11-17T11:15:25Z</time>
      </trkpt>
      <trkpt lat="42.388886000" lon="-2.574761000">
        <ele>733.30</ele>
        <time>2012-11-17T11:15:29Z</time>
      </trkpt>
      <trkpt lat="42.388885000" lon="-2.574763000">
        <ele>733.30</ele>
        <time>2012-11-17T11:15:30Z</time>
      </trkpt>
      <trkpt lat="42.388886000" lon="-2.574759000">
        <ele>733.30</ele>
        <time>2012-11-17T11:15:35Z</time>
      </trkpt>
      <trkpt lat="42.388890000" lon="-2.574759000">
        <ele>733.30</ele>
        <time>2012-11-17T11:15:44Z</time>
      </trkpt>
      <trkpt lat="42.388890000" lon="-2.574761000">
        <ele>733.30</ele>
        <time>2012-11-17T11:15:44Z</time>
      </trkpt>
      <trkpt lat="42.388890000" lon="-2.574759000">
        <ele>733.30</ele>
        <time>2012-11-17T11:15:46Z</time>
      </trkpt>
      <trkpt lat="42.388895000" lon="-2.574764000">
        <ele>733.30</ele>
        <time>2012-11-17T11:15:49Z</time>
      </trkpt>
      <trkpt lat="42.388898000" lon="-2.574771000">
        <ele>733.30</ele>
        <time>2012-11-17T11:15:53Z</time>
      </trkpt>
      <trkpt lat="42.388900000" lon="-2.574773000">
        <ele>733.20</ele>
        <time>2012-11-17T11:15:55Z</time>
      </trkpt>
      <trkpt lat="42.388923000" lon="-2.574811000">
        <ele>733.20</ele>
        <time>2012-11-17T11:16:00Z</time>
      </trkpt>
      <trkpt lat="42.388935000" lon="-2.574821000">
        <ele>733.20</ele>
        <time>2012-11-17T11:16:00Z</time>
      </trkpt>
      <trkpt lat="42.388965000" lon="-2.574836000">
        <ele>733.00</ele>
        <time>2012-11-17T11:16:02Z</time>
      </trkpt>
      <trkpt lat="42.388981000" lon="-2.574853000">
        <ele>732.90</ele>
        <time>2012-11-17T11:16:03Z</time>
      </trkpt>
      <trkpt lat="42.389416000" lon="-2.575269000">
        <ele>730.80</ele>
        <time>2012-11-17T11:16:21Z</time>
      </trkpt>
      <trkpt lat="42.389425000" lon="-2.575278000">
        <ele>730.70</ele>
        <time>2012-11-17T11:16:21Z</time>
      </trkpt>
      <trkpt lat="42.389430000" lon="-2.575283000">
        <ele>730.70</ele>
        <time>2012-11-17T11:16:24Z</time>
      </trkpt>
      <trkpt lat="42.389433000" lon="-2.575286000">
        <ele>730.60</ele>
        <time>2012-11-17T11:16:24Z</time>
      </trkpt>
      <trkpt lat="42.389441000" lon="-2.575291000">
        <ele>730.60</ele>
        <time>2012-11-17T11:16:28Z</time>
      </trkpt>
      <trkpt lat="42.389441000" lon="-2.575294000">
        <ele>730.60</ele>
        <time>2012-11-17T11:16:29Z</time>
      </trkpt>
      <trkpt lat="42.389443000" lon="-2.575296000">
        <ele>730.60</ele>
        <time>2012-11-17T11:16:31Z</time>
      </trkpt>
      <trkpt lat="42.389443000" lon="-2.575304000">
        <ele>730.60</ele>
        <time>2012-11-17T11:16:36Z</time>
      </trkpt>
      <trkpt lat="42.389440000" lon="-2.575308000">
        <ele>730.60</ele>
        <time>2012-11-17T11:16:38Z</time>
      </trkpt>
      <trkpt lat="42.389441000" lon="-2.575311000">
        <ele>730.60</ele>
        <time>2012-11-17T11:16:40Z</time>
      </trkpt>
      <trkpt lat="42.389441000" lon="-2.575313000">
        <ele>730.70</ele>
        <time>2012-11-17T11:16:40Z</time>
      </trkpt>
      <trkpt lat="42.389440000" lon="-2.575321000">
        <ele>730.70</ele>
        <time>2012-11-17T11:16:47Z</time>
      </trkpt>
      <trkpt lat="42.389436000" lon="-2.575326000">
        <ele>730.70</ele>
        <time>2012-11-17T11:16:49Z</time>
      </trkpt>
      <trkpt lat="42.389436000" lon="-2.575328000">
        <ele>730.80</ele>
        <time>2012-11-17T11:16:50Z</time>
      </trkpt>
      <trkpt lat="42.389435000" lon="-2.575333000">
        <ele>730.80</ele>
        <time>2012-11-17T11:16:54Z</time>
      </trkpt>
      <trkpt lat="42.389433000" lon="-2.575333000">
        <ele>730.80</ele>
        <time>2012-11-17T11:16:54Z</time>
      </trkpt>
      <trkpt lat="42.389433000" lon="-2.575341000">
        <ele>730.80</ele>
        <time>2012-11-17T11:16:57Z</time>
      </trkpt>
      <trkpt lat="42.389436000" lon="-2.575351000">
        <ele>730.90</ele>
        <time>2012-11-17T11:16:59Z</time>
      </trkpt>
      <trkpt lat="42.389443000" lon="-2.575361000">
        <ele>730.90</ele>
        <time>2012-11-17T11:16:59Z</time>
      </trkpt>
      <trkpt lat="42.389453000" lon="-2.575369000">
        <ele>730.90</ele>
        <time>2012-11-17T11:17:01Z</time>
      </trkpt>
      <trkpt lat="42.389463000" lon="-2.575381000">
        <ele>730.80</ele>
        <time>2012-11-17T11:17:01Z</time>
      </trkpt>
      <trkpt lat="42.389491000" lon="-2.575408000">
        <ele>730.70</ele>
        <time>2012-11-17T11:17:04Z</time>
      </trkpt>
      <trkpt lat="42.389508000" lon="-2.575429000">
        <ele>730.70</ele>
        <time>2012-11-17T11:17:04Z</time>
      </trkpt>
      <trkpt lat="42.389573000" lon="-2.575499000">
        <ele>730.30</ele>
        <time>2012-11-17T11:17:08Z</time>
      </trkpt>
      <trkpt lat="42.390521000" lon="-2.576593000">
        <ele>724.70</ele>
        <time>2012-11-17T11:17:36Z</time>
      </trkpt>
      <trkpt lat="42.390621000" lon="-2.576789000">
        <ele>724.10</ele>
        <time>2012-11-17T11:17:39Z</time>
      </trkpt>
      <trkpt lat="42.390783000" lon="-2.577308000">
        <ele>723.30</ele>
        <time>2012-11-17T11:17:46Z</time>
      </trkpt>
      <trkpt lat="42.391188000" lon="-2.577974000">
        <ele>721.60</ele>
        <time>2012-11-17T11:17:55Z</time>
      </trkpt>
      <trkpt lat="42.391296000" lon="-2.578269000">
        <ele>720.90</ele>
        <time>2012-11-17T11:17:58Z</time>
      </trkpt>
      <trkpt lat="42.391446000" lon="-2.579131000">
        <ele>720.50</ele>
        <time>2012-11-17T11:18:07Z</time>
      </trkpt>
      <trkpt lat="42.391470000" lon="-2.579211000">
        <ele>720.50</ele>
        <time>2012-11-17T11:18:07Z</time>
      </trkpt>
      <trkpt lat="42.391596000" lon="-2.579519000">
        <ele>720.40</ele>
        <time>2012-11-17T11:18:14Z</time>
      </trkpt>
      <trkpt lat="42.391606000" lon="-2.579533000">
        <ele>720.30</ele>
        <time>2012-11-17T11:18:16Z</time>
      </trkpt>
      <trkpt lat="42.391608000" lon="-2.579544000">
        <ele>720.30</ele>
        <time>2012-11-17T11:18:18Z</time>
      </trkpt>
      <trkpt lat="42.391607000" lon="-2.579540000">
        <ele>720.00</ele>
        <time>2012-11-17T11:18:21Z</time>
      </trkpt>
      <trkpt lat="42.391613000" lon="-2.579528000">
        <ele>720.30</ele>
        <time>2012-11-17T11:18:23Z</time>
      </trkpt>
      <trkpt lat="42.391618000" lon="-2.579518000">
        <ele>720.20</ele>
        <time>2012-11-17T11:18:24Z</time>
      </trkpt>
      <trkpt lat="42.391613000" lon="-2.579524000">
        <ele>720.20</ele>
        <time>2012-11-17T11:18:26Z</time>
      </trkpt>
      <trkpt lat="42.391618000" lon="-2.579536000">
        <ele>720.20</ele>
        <time>2012-11-17T11:18:28Z</time>
      </trkpt>
      <trkpt lat="42.391623000" lon="-2.579544000">
        <ele>720.20</ele>
        <time>2012-11-17T11:18:28Z</time>
      </trkpt>
      <trkpt lat="42.391633000" lon="-2.579546000">
        <ele>720.20</ele>
        <time>2012-11-17T11:18:30Z</time>
      </trkpt>
      <trkpt lat="42.391640000" lon="-2.579541000">
        <ele>720.10</ele>
        <time>2012-11-17T11:18:30Z</time>
      </trkpt>
      <trkpt lat="42.391646000" lon="-2.579531000">
        <ele>720.10</ele>
        <time>2012-11-17T11:18:31Z</time>
      </trkpt>
      <trkpt lat="42.391648000" lon="-2.579518000">
        <ele>720.00</ele>
        <time>2012-11-17T11:18:33Z</time>
      </trkpt>
      <trkpt lat="42.391621000" lon="-2.579381000">
        <ele>719.90</ele>
        <time>2012-11-17T11:18:40Z</time>
      </trkpt>
      <trkpt lat="42.391620000" lon="-2.579351000">
        <ele>719.90</ele>
        <time>2012-11-17T11:18:40Z</time>
      </trkpt>
      <trkpt lat="42.391631000" lon="-2.578888000">
        <ele>719.10</ele>
        <time>2012-11-17T11:18:49Z</time>
      </trkpt>
      <trkpt lat="42.391623000" lon="-2.578684000">
        <ele>718.80</ele>
        <time>2012-11-17T11:18:52Z</time>
      </trkpt>
      <trkpt lat="42.391715000" lon="-2.578119000">
        <ele>717.90</ele>
        <time>2012-11-17T11:19:01Z</time>
      </trkpt>
      <trkpt lat="42.391901000" lon="-2.577401000">
        <ele>716.40</ele>
        <time>2012-11-17T11:19:10Z</time>
      </trkpt>
      <trkpt lat="42.391913000" lon="-2.577316000">
        <ele>716.40</ele>
        <time>2012-11-17T11:19:10Z</time>
      </trkpt>
      <trkpt lat="42.392095000" lon="-2.575216000">
        <ele>714.20</ele>
        <time>2012-11-17T11:19:34Z</time>
      </trkpt>
      <trkpt lat="42.392235000" lon="-2.574836000">
        <ele>711.50</ele>
        <time>2012-11-17T11:19:39Z</time>
      </trkpt>
      <trkpt lat="42.392271000" lon="-2.574773000">
        <ele>711.00</ele>
        <time>2012-11-17T11:19:41Z</time>
      </trkpt>
      <trkpt lat="42.392361000" lon="-2.574663000">
        <ele>710.00</ele>
        <time>2012-11-17T11:19:43Z</time>
      </trkpt>
      <trkpt lat="42.392713000" lon="-2.574394000">
        <ele>706.40</ele>
        <time>2012-11-17T11:19:48Z</time>
      </trkpt>
      <trkpt lat="42.392921000" lon="-2.574124000">
        <ele>703.60</ele>
        <time>2012-11-17T11:19:53Z</time>
      </trkpt>
      <trkpt lat="42.393933000" lon="-2.573589000">
        <ele>699.40</ele>
        <time>2012-11-17T11:20:11Z</time>
      </trkpt>
      <trkpt lat="42.393961000" lon="-2.573568000">
        <ele>699.10</ele>
        <time>2012-11-17T11:20:11Z</time>
      </trkpt>
      <trkpt lat="42.394581000" lon="-2.573053000">
        <ele>692.80</ele>
        <time>2012-11-17T11:20:25Z</time>
      </trkpt>
      <trkpt lat="42.394705000" lon="-2.572983000">
        <ele>692.10</ele>
        <time>2012-11-17T11:20:28Z</time>
      </trkpt>
      <trkpt lat="42.394755000" lon="-2.572971000">
        <ele>691.90</ele>
        <time>2012-11-17T11:20:28Z</time>
      </trkpt>
      <trkpt lat="42.394806000" lon="-2.572971000">
        <ele>691.80</ele>
        <time>2012-11-17T11:20:30Z</time>
      </trkpt>
      <trkpt lat="42.395110000" lon="-2.573051000">
        <ele>692.10</ele>
        <time>2012-11-17T11:20:35Z</time>
      </trkpt>
      <trkpt lat="42.395180000" lon="-2.573051000">
        <ele>692.20</ele>
        <time>2012-11-17T11:20:35Z</time>
      </trkpt>
      <trkpt lat="42.395246000" lon="-2.573038000">
        <ele>692.10</ele>
        <time>2012-11-17T11:20:37Z</time>
      </trkpt>
      <trkpt lat="42.395478000" lon="-2.572908000">
        <ele>691.80</ele>
        <time>2012-11-17T11:20:40Z</time>
      </trkpt>
      <trkpt lat="42.395715000" lon="-2.572694000">
        <ele>688.90</ele>
        <time>2012-11-17T11:20:47Z</time>
      </trkpt>
      <trkpt lat="42.397090000" lon="-2.572061000">
        <ele>687.40</ele>
        <time>2012-11-17T11:21:08Z</time>
      </trkpt>
      <trkpt lat="42.398033000" lon="-2.571843000">
        <ele>681.60</ele>
        <time>2012-11-17T11:21:22Z</time>
      </trkpt>
      <trkpt lat="42.398115000" lon="-2.571843000">
        <ele>681.40</ele>
        <time>2012-11-17T11:21:22Z</time>
      </trkpt>
      <trkpt lat="42.398356000" lon="-2.571864000">
        <ele>680.00</ele>
        <time>2012-11-17T11:21:26Z</time>
      </trkpt>
      <trkpt lat="42.398605000" lon="-2.571861000">
        <ele>678.70</ele>
        <time>2012-11-17T11:21:29Z</time>
      </trkpt>
      <trkpt lat="42.398688000" lon="-2.571868000">
        <ele>678.30</ele>
        <time>2012-11-17T11:21:29Z</time>
      </trkpt>
      <trkpt lat="42.399000000" lon="-2.571986000">
        <ele>676.30</ele>
        <time>2012-11-17T11:21:34Z</time>
      </trkpt>
      <trkpt lat="42.399080000" lon="-2.571996000">
        <ele>675.60</ele>
        <time>2012-11-17T11:21:34Z</time>
      </trkpt>
      <trkpt lat="42.399323000" lon="-2.571966000">
        <ele>673.30</ele>
        <time>2012-11-17T11:21:38Z</time>
      </trkpt>
      <trkpt lat="42.399380000" lon="-2.571973000">
        <ele>672.50</ele>
        <time>2012-11-17T11:21:41Z</time>
      </trkpt>
      <trkpt lat="42.399421000" lon="-2.571989000">
        <ele>672.10</ele>
        <time>2012-11-17T11:21:43Z</time>
      </trkpt>
      <trkpt lat="42.399438000" lon="-2.572009000">
        <ele>671.90</ele>
        <time>2012-11-17T11:21:45Z</time>
      </trkpt>
      <trkpt lat="42.399450000" lon="-2.572034000">
        <ele>671.70</ele>
        <time>2012-11-17T11:21:45Z</time>
      </trkpt>
      <trkpt lat="42.399451000" lon="-2.572063000">
        <ele>671.50</ele>
        <time>2012-11-17T11:21:47Z</time>
      </trkpt>
      <trkpt lat="42.399450000" lon="-2.572111000">
        <ele>671.30</ele>
        <time>2012-11-17T11:21:48Z</time>
      </trkpt>
      <trkpt lat="42.399451000" lon="-2.572134000">
        <ele>671.10</ele>
        <time>2012-11-17T11:21:50Z</time>
      </trkpt>
      <trkpt lat="42.399433000" lon="-2.572336000">
        <ele>670.40</ele>
        <time>2012-11-17T11:21:55Z</time>
      </trkpt>
      <trkpt lat="42.399391000" lon="-2.572529000">
        <ele>669.90</ele>
        <time>2012-11-17T11:21:59Z</time>
      </trkpt>
      <trkpt lat="42.399211000" lon="-2.573119000">
        <ele>669.50</ele>
        <time>2012-11-17T11:22:07Z</time>
      </trkpt>
      <trkpt lat="42.398715000" lon="-2.577659000">
        <ele>657.90</ele>
        <time>2012-11-17T11:22:49Z</time>
      </trkpt>
      <trkpt lat="42.398695000" lon="-2.577744000">
        <ele>658.10</ele>
        <time>2012-11-17T11:22:51Z</time>
      </trkpt>
      <trkpt lat="42.397780000" lon="-2.580066000">
        <ele>659.20</ele>
        <time>2012-11-17T11:23:29Z</time>
      </trkpt>
      <trkpt lat="42.397336000" lon="-2.580499000">
        <ele>658.80</ele>
        <time>2012-11-17T11:23:40Z</time>
      </trkpt>
      <trkpt lat="42.396986000" lon="-2.580744000">
        <ele>660.50</ele>
        <time>2012-11-17T11:23:48Z</time>
      </trkpt>
      <trkpt lat="42.396130000" lon="-2.581741000">
        <ele>662.60</ele>
        <time>2012-11-17T11:24:16Z</time>
      </trkpt>
      <trkpt lat="42.396101000" lon="-2.581784000">
        <ele>662.60</ele>
        <time>2012-11-17T11:24:16Z</time>
      </trkpt>
      <trkpt lat="42.395766000" lon="-2.582356000">
        <ele>661.70</ele>
        <time>2012-11-17T11:24:30Z</time>
      </trkpt>
      <trkpt lat="42.395751000" lon="-2.582379000">
        <ele>661.50</ele>
        <time>2012-11-17T11:24:30Z</time>
      </trkpt>
      <trkpt lat="42.395725000" lon="-2.582434000">
        <ele>661.10</ele>
        <time>2012-11-17T11:24:32Z</time>
      </trkpt>
      <trkpt lat="42.395650000" lon="-2.582549000">
        <ele>660.20</ele>
        <time>2012-11-17T11:24:37Z</time>
      </trkpt>
      <trkpt lat="42.395593000" lon="-2.582613000">
        <ele>659.80</ele>
        <time>2012-11-17T11:24:39Z</time>
      </trkpt>
      <trkpt lat="42.394746000" lon="-2.583263000">
        <ele>658.80</ele>
        <time>2012-11-17T11:25:00Z</time>
      </trkpt>
      <trkpt lat="42.394086000" lon="-2.583671000">
        <ele>661.90</ele>
        <time>2012-11-17T11:25:17Z</time>
      </trkpt>
      <trkpt lat="42.394050000" lon="-2.583686000">
        <ele>662.00</ele>
        <time>2012-11-17T11:25:17Z</time>
      </trkpt>
      <trkpt lat="42.393198000" lon="-2.583994000">
        <ele>667.40</ele>
        <time>2012-11-17T11:25:40Z</time>
      </trkpt>
      <trkpt lat="42.392993000" lon="-2.584136000">
        <ele>668.80</ele>
        <time>2012-11-17T11:25:47Z</time>
      </trkpt>
      <trkpt lat="42.392756000" lon="-2.584418000">
        <ele>670.90</ele>
        <time>2012-11-17T11:25:57Z</time>
      </trkpt>
      <trkpt lat="42.392531000" lon="-2.584606000">
        <ele>673.70</ele>
        <time>2012-11-17T11:26:04Z</time>
      </trkpt>
      <trkpt lat="42.392470000" lon="-2.584696000">
        <ele>674.60</ele>
        <time>2012-11-17T11:26:08Z</time>
      </trkpt>
      <trkpt lat="42.392451000" lon="-2.584709000">
        <ele>674.80</ele>
        <time>2012-11-17T11:26:10Z</time>
      </trkpt>
      <trkpt lat="42.392408000" lon="-2.584714000">
        <ele>675.20</ele>
        <time>2012-11-17T11:26:11Z</time>
      </trkpt>
      <trkpt lat="42.392363000" lon="-2.584701000">
        <ele>675.60</ele>
        <time>2012-11-17T11:26:13Z</time>
      </trkpt>
      <trkpt lat="42.392153000" lon="-2.584611000">
        <ele>677.80</ele>
        <time>2012-11-17T11:26:22Z</time>
      </trkpt>
      <trkpt lat="42.392130000" lon="-2.584606000">
        <ele>678.00</ele>
        <time>2012-11-17T11:26:23Z</time>
      </trkpt>
      <trkpt lat="42.391966000" lon="-2.584598000">
        <ele>678.90</ele>
        <time>2012-11-17T11:26:30Z</time>
      </trkpt>
      <trkpt lat="42.391800000" lon="-2.584554000">
        <ele>678.80</ele>
        <time>2012-11-17T11:26:37Z</time>
      </trkpt>
      <trkpt lat="42.391730000" lon="-2.584543000">
        <ele>678.80</ele>
        <time>2012-11-17T11:26:41Z</time>
      </trkpt>
      <trkpt lat="42.391686000" lon="-2.584529000">
        <ele>678.70</ele>
        <time>2012-11-17T11:26:43Z</time>
      </trkpt>
      <trkpt lat="42.391015000" lon="-2.584523000">
        <ele>679.50</ele>
        <time>2012-11-17T11:27:12Z</time>
      </trkpt>
      <trkpt lat="42.390890000" lon="-2.584566000">
        <ele>680.00</ele>
        <time>2012-11-17T11:27:17Z</time>
      </trkpt>
      <trkpt lat="42.390846000" lon="-2.584601000">
        <ele>680.20</ele>
        <time>2012-11-17T11:27:19Z</time>
      </trkpt>
      <trkpt lat="42.390810000" lon="-2.584649000">
        <ele>680.30</ele>
        <time>2012-11-17T11:27:21Z</time>
      </trkpt>
      <trkpt lat="42.390753000" lon="-2.584756000">
        <ele>680.30</ele>
        <time>2012-11-17T11:27:26Z</time>
      </trkpt>
      <trkpt lat="42.390735000" lon="-2.584779000">
        <ele>680.30</ele>
        <time>2012-11-17T11:27:26Z</time>
      </trkpt>
      <trkpt lat="42.390691000" lon="-2.584816000">
        <ele>680.40</ele>
        <time>2012-11-17T11:27:28Z</time>
      </trkpt>
      <trkpt lat="42.390668000" lon="-2.584826000">
        <ele>680.40</ele>
        <time>2012-11-17T11:27:30Z</time>
      </trkpt>
      <trkpt lat="42.390570000" lon="-2.584843000">
        <ele>680.70</ele>
        <time>2012-11-17T11:27:33Z</time>
      </trkpt>
      <trkpt lat="42.389843000" lon="-2.584811000">
        <ele>685.80</ele>
        <time>2012-11-17T11:28:01Z</time>
      </trkpt>
      <trkpt lat="42.389635000" lon="-2.584868000">
        <ele>687.60</ele>
        <time>2012-11-17T11:28:08Z</time>
      </trkpt>
      <trkpt lat="42.389556000" lon="-2.584869000">
        <ele>688.20</ele>
        <time>2012-11-17T11:28:12Z</time>
      </trkpt>
      <trkpt lat="42.389426000" lon="-2.584859000">
        <ele>688.90</ele>
        <time>2012-11-17T11:28:17Z</time>
      </trkpt>
      <trkpt lat="42.388423000" lon="-2.585036000">
        <ele>696.60</ele>
        <time>2012-11-17T11:28:53Z</time>
      </trkpt>
      <trkpt lat="42.388395000" lon="-2.585048000">
        <ele>696.80</ele>
        <time>2012-11-17T11:28:53Z</time>
      </trkpt>
      <trkpt lat="42.387560000" lon="-2.585174000">
        <ele>707.60</ele>
        <time>2012-11-17T11:29:26Z</time>
      </trkpt>
      <trkpt lat="42.387545000" lon="-2.585179000">
        <ele>707.80</ele>
        <time>2012-11-17T11:29:28Z</time>
      </trkpt>
      <trkpt lat="42.387533000" lon="-2.585188000">
        <ele>708.00</ele>
        <time>2012-11-17T11:29:28Z</time>
      </trkpt>
      <trkpt lat="42.387523000" lon="-2.585198000">
        <ele>708.20</ele>
        <time>2012-11-17T11:29:30Z</time>
      </trkpt>
      <trkpt lat="42.387516000" lon="-2.585213000">
        <ele>708.50</ele>
        <time>2012-11-17T11:29:30Z</time>
      </trkpt>
      <trkpt lat="42.387510000" lon="-2.585266000">
        <ele>709.30</ele>
        <time>2012-11-17T11:29:33Z</time>
      </trkpt>
      <trkpt lat="42.387505000" lon="-2.585281000">
        <ele>709.50</ele>
        <time>2012-11-17T11:29:35Z</time>
      </trkpt>
      <trkpt lat="42.387503000" lon="-2.585294000">
        <ele>709.80</ele>
        <time>2012-11-17T11:29:35Z</time>
      </trkpt>
      <trkpt lat="42.387508000" lon="-2.585323000">
        <ele>710.20</ele>
        <time>2012-11-17T11:29:37Z</time>
      </trkpt>
      <trkpt lat="42.387515000" lon="-2.585386000">
        <ele>711.10</ele>
        <time>2012-11-17T11:29:42Z</time>
      </trkpt>
      <trkpt lat="42.387523000" lon="-2.585416000">
        <ele>711.50</ele>
        <time>2012-11-17T11:29:44Z</time>
      </trkpt>
      <trkpt lat="42.387521000" lon="-2.585423000">
        <ele>711.60</ele>
        <time>2012-11-17T11:29:44Z</time>
      </trkpt>
      <trkpt lat="42.387520000" lon="-2.585429000">
        <ele>711.80</ele>
        <time>2012-11-17T11:29:47Z</time>
      </trkpt>
      <trkpt lat="42.387516000" lon="-2.585433000">
        <ele>711.90</ele>
        <time>2012-11-17T11:29:49Z</time>
      </trkpt>
      <trkpt lat="42.387516000" lon="-2.585436000">
        <ele>711.90</ele>
        <time>2012-11-17T11:29:49Z</time>
      </trkpt>
      <trkpt lat="42.387516000" lon="-2.585436000">
        <ele>711.90</ele>
        <time>2012-11-17T11:29:51Z</time>
      </trkpt>
      <trkpt lat="42.387515000" lon="-2.585438000">
        <ele>712.00</ele>
        <time>2012-11-17T11:29:53Z</time>
      </trkpt>
      <trkpt lat="42.387513000" lon="-2.585438000">
        <ele>712.00</ele>
        <time>2012-11-17T11:29:54Z</time>
      </trkpt>
      <trkpt lat="42.387513000" lon="-2.585439000">
        <ele>712.00</ele>
        <time>2012-11-17T11:29:54Z</time>
      </trkpt>
      <trkpt lat="42.387511000" lon="-2.585441000">
        <ele>712.10</ele>
        <time>2012-11-17T11:29:56Z</time>
      </trkpt>
      <trkpt lat="42.387510000" lon="-2.585446000">
        <ele>712.10</ele>
        <time>2012-11-17T11:30:00Z</time>
      </trkpt>
      <trkpt lat="42.387508000" lon="-2.585449000">
        <ele>712.20</ele>
        <time>2012-11-17T11:30:01Z</time>
      </trkpt>
      <trkpt lat="42.387505000" lon="-2.585453000">
        <ele>712.20</ele>
        <time>2012-11-17T11:30:05Z</time>
      </trkpt>
      <trkpt lat="42.387505000" lon="-2.585454000">
        <ele>712.30</ele>
        <time>2012-11-17T11:30:06Z</time>
      </trkpt>
      <trkpt lat="42.387503000" lon="-2.585459000">
        <ele>712.30</ele>
        <time>2012-11-17T11:30:10Z</time>
      </trkpt>
      <trkpt lat="42.387501000" lon="-2.585459000">
        <ele>712.30</ele>
        <time>2012-11-17T11:30:10Z</time>
      </trkpt>
      <trkpt lat="42.387501000" lon="-2.585461000">
        <ele>712.40</ele>
        <time>2012-11-17T11:30:12Z</time>
      </trkpt>
      <trkpt lat="42.387500000" lon="-2.585464000">
        <ele>712.40</ele>
        <time>2012-11-17T11:30:15Z</time>
      </trkpt>
      <trkpt lat="42.387498000" lon="-2.585464000">
        <ele>712.40</ele>
        <time>2012-11-17T11:30:17Z</time>
      </trkpt>
      <trkpt lat="42.387498000" lon="-2.585466000">
        <ele>712.50</ele>
        <time>2012-11-17T11:30:17Z</time>
      </trkpt>
      <trkpt lat="42.387496000" lon="-2.585473000">
        <ele>712.50</ele>
        <time>2012-11-17T11:30:22Z</time>
      </trkpt>
      <trkpt lat="42.387495000" lon="-2.585476000">
        <ele>712.60</ele>
        <time>2012-11-17T11:30:24Z</time>
      </trkpt>
      <trkpt lat="42.387495000" lon="-2.585479000">
        <ele>712.60</ele>
        <time>2012-11-17T11:30:27Z</time>
      </trkpt>
      <trkpt lat="42.387496000" lon="-2.585481000">
        <ele>712.60</ele>
        <time>2012-11-17T11:30:29Z</time>
      </trkpt>
      <trkpt lat="42.387496000" lon="-2.585483000">
        <ele>712.70</ele>
        <time>2012-11-17T11:30:33Z</time>
      </trkpt>
      <trkpt lat="42.387496000" lon="-2.585489000">
        <ele>712.70</ele>
        <time>2012-11-17T11:30:40Z</time>
      </trkpt>
      <trkpt lat="42.387498000" lon="-2.585491000">
        <ele>712.70</ele>
        <time>2012-11-17T11:30:43Z</time>
      </trkpt>
      <trkpt lat="42.387498000" lon="-2.585498000">
        <ele>712.80</ele>
        <time>2012-11-17T11:30:50Z</time>
      </trkpt>
      <trkpt lat="42.387498000" lon="-2.585494000">
        <ele>712.80</ele>
        <time>2012-11-17T11:30:59Z</time>
      </trkpt>
      <trkpt lat="42.387500000" lon="-2.585494000">
        <ele>712.80</ele>
        <time>2012-11-17T11:31:00Z</time>
      </trkpt>
      <trkpt lat="42.387500000" lon="-2.585493000">
        <ele>712.70</ele>
        <time>2012-11-17T11:31:02Z</time>
      </trkpt>
      <trkpt lat="42.387498000" lon="-2.585493000">
        <ele>712.70</ele>
        <time>2012-11-17T11:31:04Z</time>
      </trkpt>
      <trkpt lat="42.387498000" lon="-2.585484000">
        <ele>712.70</ele>
        <time>2012-11-17T11:31:18Z</time>
      </trkpt>
      <trkpt lat="42.387500000" lon="-2.585484000">
        <ele>712.70</ele>
        <time>2012-11-17T11:31:20Z</time>
      </trkpt>
      <trkpt lat="42.387500000" lon="-2.585483000">
        <ele>712.60</ele>
        <time>2012-11-17T11:31:21Z</time>
      </trkpt>
      <trkpt lat="42.387501000" lon="-2.585476000">
        <ele>712.60</ele>
        <time>2012-11-17T11:31:28Z</time>
      </trkpt>
      <trkpt lat="42.387501000" lon="-2.585474000">
        <ele>712.50</ele>
        <time>2012-11-17T11:31:30Z</time>
      </trkpt>
      <trkpt lat="42.387505000" lon="-2.585473000">
        <ele>712.50</ele>
        <time>2012-11-17T11:31:32Z</time>
      </trkpt>
      <trkpt lat="42.387505000" lon="-2.585469000">
        <ele>712.50</ele>
        <time>2012-11-17T11:31:35Z</time>
      </trkpt>
      <trkpt lat="42.387505000" lon="-2.585469000">
        <ele>712.50</ele>
        <time>2012-11-17T11:31:39Z</time>
      </trkpt>
      <trkpt lat="42.387505000" lon="-2.585469000">
        <ele>712.50</ele>
        <time>2012-11-17T11:31:49Z</time>
      </trkpt>
      <trkpt lat="42.387505000" lon="-2.585469000">
        <ele>712.50</ele>
        <time>2012-11-17T11:31:51Z</time>
      </trkpt>
      <trkpt lat="42.387503000" lon="-2.585469000">
        <ele>712.50</ele>
        <time>2012-11-17T11:32:00Z</time>
      </trkpt>
      <trkpt lat="42.387501000" lon="-2.585468000">
        <ele>712.50</ele>
        <time>2012-11-17T11:32:00Z</time>
      </trkpt>
      <trkpt lat="42.387503000" lon="-2.585468000">
        <ele>712.50</ele>
        <time>2012-11-17T11:32:01Z</time>
      </trkpt>
      <trkpt lat="42.387503000" lon="-2.585483000">
        <ele>712.50</ele>
        <time>2012-11-17T11:32:05Z</time>
      </trkpt>
      <trkpt lat="42.387503000" lon="-2.585491000">
        <ele>712.60</ele>
        <time>2012-11-17T11:32:07Z</time>
      </trkpt>
      <trkpt lat="42.387505000" lon="-2.585498000">
        <ele>712.70</ele>
        <time>2012-11-17T11:32:07Z</time>
      </trkpt>
      <trkpt lat="42.387506000" lon="-2.585504000">
        <ele>712.70</ele>
        <time>2012-11-17T11:32:08Z</time>
      </trkpt>
      <trkpt lat="42.387508000" lon="-2.585511000">
        <ele>712.80</ele>
        <time>2012-11-17T11:32:10Z</time>
      </trkpt>
      <trkpt lat="42.387515000" lon="-2.585546000">
        <ele>713.00</ele>
        <time>2012-11-17T11:32:14Z</time>
      </trkpt>
      <trkpt lat="42.387516000" lon="-2.585556000">
        <ele>713.10</ele>
        <time>2012-11-17T11:32:14Z</time>
      </trkpt>
      <trkpt lat="42.387515000" lon="-2.585564000">
        <ele>713.20</ele>
        <time>2012-11-17T11:32:15Z</time>
      </trkpt>
      <trkpt lat="42.387515000" lon="-2.585569000">
        <ele>713.20</ele>
        <time>2012-11-17T11:32:17Z</time>
      </trkpt>
      <trkpt lat="42.387511000" lon="-2.585576000">
        <ele>713.30</ele>
        <time>2012-11-17T11:32:17Z</time>
      </trkpt>
      <trkpt lat="42.387508000" lon="-2.585578000">
        <ele>713.40</ele>
        <time>2012-11-17T11:32:19Z</time>
      </trkpt>
      <trkpt lat="42.387506000" lon="-2.585579000">
        <ele>713.50</ele>
        <time>2012-11-17T11:32:19Z</time>
      </trkpt>
      <trkpt lat="42.387503000" lon="-2.585579000">
        <ele>713.50</ele>
        <time>2012-11-17T11:32:21Z</time>
      </trkpt>
      <trkpt lat="42.387501000" lon="-2.585576000">
        <ele>713.50</ele>
        <time>2012-11-17T11:32:22Z</time>
      </trkpt>
      <trkpt lat="42.387501000" lon="-2.585574000">
        <ele>713.50</ele>
        <time>2012-11-17T11:32:22Z</time>
      </trkpt>
      <trkpt lat="42.387503000" lon="-2.585573000">
        <ele>713.50</ele>
        <time>2012-11-17T11:32:24Z</time>
      </trkpt>
      <trkpt lat="42.387508000" lon="-2.585573000">
        <ele>713.50</ele>
        <time>2012-11-17T11:32:28Z</time>
      </trkpt>
      <trkpt lat="42.387510000" lon="-2.585586000">
        <ele>713.50</ele>
        <time>2012-11-17T11:32:36Z</time>
      </trkpt>
      <trkpt lat="42.387510000" lon="-2.585588000">
        <ele>713.60</ele>
        <time>2012-11-17T11:32:38Z</time>
      </trkpt>
      <trkpt lat="42.387513000" lon="-2.585591000">
        <ele>713.60</ele>
        <time>2012-11-17T11:32:40Z</time>
      </trkpt>
      <trkpt lat="42.387515000" lon="-2.585591000">
        <ele>713.60</ele>
        <time>2012-11-17T11:32:40Z</time>
      </trkpt>
      <trkpt lat="42.387515000" lon="-2.585593000">
        <ele>713.60</ele>
        <time>2012-11-17T11:32:42Z</time>
      </trkpt>
      <trkpt lat="42.387518000" lon="-2.585594000">
        <ele>713.60</ele>
        <time>2012-11-17T11:32:43Z</time>
      </trkpt>
      <trkpt lat="42.387520000" lon="-2.585594000">
        <ele>713.50</ele>
        <time>2012-11-17T11:32:43Z</time>
      </trkpt>
      <trkpt lat="42.387521000" lon="-2.585594000">
        <ele>713.50</ele>
        <time>2012-11-17T11:32:45Z</time>
      </trkpt>
      <trkpt lat="42.387526000" lon="-2.585598000">
        <ele>713.50</ele>
        <time>2012-11-17T11:32:47Z</time>
      </trkpt>
      <trkpt lat="42.387530000" lon="-2.585599000">
        <ele>713.50</ele>
        <time>2012-11-17T11:32:50Z</time>
      </trkpt>
      <trkpt lat="42.387531000" lon="-2.585601000">
        <ele>713.50</ele>
        <time>2012-11-17T11:32:50Z</time>
      </trkpt>
      <trkpt lat="42.387533000" lon="-2.585601000">
        <ele>713.40</ele>
        <time>2012-11-17T11:32:52Z</time>
      </trkpt>
      <trkpt lat="42.387535000" lon="-2.585601000">
        <ele>713.40</ele>
        <time>2012-11-17T11:32:52Z</time>
      </trkpt>
      <trkpt lat="42.387536000" lon="-2.585603000">
        <ele>713.40</ele>
        <time>2012-11-17T11:32:54Z</time>
      </trkpt>
      <trkpt lat="42.387540000" lon="-2.585603000">
        <ele>713.40</ele>
        <time>2012-11-17T11:32:57Z</time>
      </trkpt>
      <trkpt lat="42.387540000" lon="-2.585603000">
        <ele>713.40</ele>
        <time>2012-11-17T11:33:01Z</time>
      </trkpt>
      <trkpt lat="42.387538000" lon="-2.585603000">
        <ele>713.40</ele>
        <time>2012-11-17T11:33:01Z</time>
      </trkpt>
      <trkpt lat="42.387536000" lon="-2.585601000">
        <ele>713.40</ele>
        <time>2012-11-17T11:33:06Z</time>
      </trkpt>
      <trkpt lat="42.387535000" lon="-2.585598000">
        <ele>713.40</ele>
        <time>2012-11-17T11:33:11Z</time>
      </trkpt>
      <trkpt lat="42.387526000" lon="-2.585598000">
        <ele>713.40</ele>
        <time>2012-11-17T11:33:20Z</time>
      </trkpt>
      <trkpt lat="42.387525000" lon="-2.585599000">
        <ele>713.50</ele>
        <time>2012-11-17T11:33:20Z</time>
      </trkpt>
      <trkpt lat="42.387520000" lon="-2.585599000">
        <ele>713.50</ele>
        <time>2012-11-17T11:33:25Z</time>
      </trkpt>
      <trkpt lat="42.387518000" lon="-2.585599000">
        <ele>713.60</ele>
        <time>2012-11-17T11:33:25Z</time>
      </trkpt>
      <trkpt lat="42.387516000" lon="-2.585601000">
        <ele>713.60</ele>
        <time>2012-11-17T11:33:27Z</time>
      </trkpt>
      <trkpt lat="42.387513000" lon="-2.585601000">
        <ele>713.60</ele>
        <time>2012-11-17T11:33:30Z</time>
      </trkpt>
      <trkpt lat="42.387513000" lon="-2.585601000">
        <ele>713.60</ele>
        <time>2012-11-17T11:33:30Z</time>
      </trkpt>
      <trkpt lat="42.387508000" lon="-2.585604000">
        <ele>713.70</ele>
        <time>2012-11-17T11:33:34Z</time>
      </trkpt>
      <trkpt lat="42.387508000" lon="-2.585604000">
        <ele>713.70</ele>
        <time>2012-11-17T11:33:36Z</time>
      </trkpt>
      <trkpt lat="42.387506000" lon="-2.585604000">
        <ele>713.80</ele>
        <time>2012-11-17T11:33:37Z</time>
      </trkpt>
      <trkpt lat="42.387505000" lon="-2.585606000">
        <ele>713.80</ele>
        <time>2012-11-17T11:33:39Z</time>
      </trkpt>
      <trkpt lat="42.387503000" lon="-2.585606000">
        <ele>713.80</ele>
        <time>2012-11-17T11:33:41Z</time>
      </trkpt>
      <trkpt lat="42.387501000" lon="-2.585606000">
        <ele>713.90</ele>
        <time>2012-11-17T11:33:42Z</time>
      </trkpt>
      <trkpt lat="42.387501000" lon="-2.585608000">
        <ele>713.90</ele>
        <time>2012-11-17T11:33:44Z</time>
      </trkpt>
      <trkpt lat="42.387496000" lon="-2.585609000">
        <ele>713.90</ele>
        <time>2012-11-17T11:33:48Z</time>
      </trkpt>
      <trkpt lat="42.387496000" lon="-2.585609000">
        <ele>713.90</ele>
        <time>2012-11-17T11:33:48Z</time>
      </trkpt>
      <trkpt lat="42.387493000" lon="-2.585609000">
        <ele>714.00</ele>
        <time>2012-11-17T11:33:49Z</time>
      </trkpt>
      <trkpt lat="42.387493000" lon="-2.585611000">
        <ele>714.00</ele>
        <time>2012-11-17T11:33:51Z</time>
      </trkpt>
      <trkpt lat="42.387491000" lon="-2.585611000">
        <ele>714.00</ele>
        <time>2012-11-17T11:33:51Z</time>
      </trkpt>
      <trkpt lat="42.387490000" lon="-2.585611000">
        <ele>714.10</ele>
        <time>2012-11-17T11:33:55Z</time>
      </trkpt>
      <trkpt lat="42.387490000" lon="-2.585609000">
        <ele>714.10</ele>
        <time>2012-11-17T11:33:58Z</time>
      </trkpt>
      <trkpt lat="42.387491000" lon="-2.585608000">
        <ele>714.00</ele>
        <time>2012-11-17T11:33:58Z</time>
      </trkpt>
      <trkpt lat="42.387493000" lon="-2.585606000">
        <ele>714.00</ele>
        <time>2012-11-17T11:34:00Z</time>
      </trkpt>
      <trkpt lat="42.387493000" lon="-2.585603000">
        <ele>714.00</ele>
        <time>2012-11-17T11:34:03Z</time>
      </trkpt>
      <trkpt lat="42.387491000" lon="-2.585604000">
        <ele>714.00</ele>
        <time>2012-11-17T11:34:05Z</time>
      </trkpt>
      <trkpt lat="42.387490000" lon="-2.585608000">
        <ele>714.00</ele>
        <time>2012-11-17T11:34:09Z</time>
      </trkpt>
      <trkpt lat="42.387488000" lon="-2.585609000">
        <ele>714.00</ele>
        <time>2012-11-17T11:34:10Z</time>
      </trkpt>
      <trkpt lat="42.387488000" lon="-2.585611000">
        <ele>714.10</ele>
        <time>2012-11-17T11:34:10Z</time>
      </trkpt>
      <trkpt lat="42.387488000" lon="-2.585613000">
        <ele>714.10</ele>
        <time>2012-11-17T11:34:12Z</time>
      </trkpt>
      <trkpt lat="42.387486000" lon="-2.585614000">
        <ele>714.10</ele>
        <time>2012-11-17T11:34:14Z</time>
      </trkpt>
      <trkpt lat="42.387486000" lon="-2.585616000">
        <ele>714.10</ele>
        <time>2012-11-17T11:34:14Z</time>
      </trkpt>
      <trkpt lat="42.387486000" lon="-2.585619000">
        <ele>714.20</ele>
        <time>2012-11-17T11:34:16Z</time>
      </trkpt>
      <trkpt lat="42.387486000" lon="-2.585626000">
        <ele>714.20</ele>
        <time>2012-11-17T11:34:19Z</time>
      </trkpt>
      <trkpt lat="42.387486000" lon="-2.585629000">
        <ele>714.30</ele>
        <time>2012-11-17T11:34:19Z</time>
      </trkpt>
      <trkpt lat="42.387486000" lon="-2.585634000">
        <ele>714.30</ele>
        <time>2012-11-17T11:34:23Z</time>
      </trkpt>
      <trkpt lat="42.387490000" lon="-2.585638000">
        <ele>714.30</ele>
        <time>2012-11-17T11:34:24Z</time>
      </trkpt>
      <trkpt lat="42.387490000" lon="-2.585639000">
        <ele>714.40</ele>
        <time>2012-11-17T11:34:26Z</time>
      </trkpt>
      <trkpt lat="42.387491000" lon="-2.585643000">
        <ele>714.40</ele>
        <time>2012-11-17T11:34:28Z</time>
      </trkpt>
      <trkpt lat="42.387496000" lon="-2.585646000">
        <ele>714.40</ele>
        <time>2012-11-17T11:34:31Z</time>
      </trkpt>
      <trkpt lat="42.387501000" lon="-2.585648000">
        <ele>714.30</ele>
        <time>2012-11-17T11:34:33Z</time>
      </trkpt>
      <trkpt lat="42.387510000" lon="-2.585653000">
        <ele>714.30</ele>
        <time>2012-11-17T11:34:35Z</time>
      </trkpt>
      <trkpt lat="42.387508000" lon="-2.585654000">
        <ele>714.30</ele>
        <time>2012-11-17T11:34:36Z</time>
      </trkpt>
      <trkpt lat="42.387510000" lon="-2.585658000">
        <ele>714.30</ele>
        <time>2012-11-17T11:34:38Z</time>
      </trkpt>
      <trkpt lat="42.387513000" lon="-2.585658000">
        <ele>714.30</ele>
        <time>2012-11-17T11:34:40Z</time>
      </trkpt>
      <trkpt lat="42.387516000" lon="-2.585656000">
        <ele>714.20</ele>
        <time>2012-11-17T11:34:40Z</time>
      </trkpt>
      <trkpt lat="42.387521000" lon="-2.585656000">
        <ele>714.20</ele>
        <time>2012-11-17T11:34:42Z</time>
      </trkpt>
      <trkpt lat="42.387525000" lon="-2.585656000">
        <ele>714.10</ele>
        <time>2012-11-17T11:34:42Z</time>
      </trkpt>
      <trkpt lat="42.387528000" lon="-2.585656000">
        <ele>714.10</ele>
        <time>2012-11-17T11:34:43Z</time>
      </trkpt>
      <trkpt lat="42.387538000" lon="-2.585656000">
        <ele>714.00</ele>
        <time>2012-11-17T11:34:45Z</time>
      </trkpt>
      <trkpt lat="42.387556000" lon="-2.585666000">
        <ele>713.90</ele>
        <time>2012-11-17T11:34:45Z</time>
      </trkpt>
      <trkpt lat="42.387570000" lon="-2.585683000">
        <ele>713.80</ele>
        <time>2012-11-17T11:34:47Z</time>
      </trkpt>
      <trkpt lat="42.387578000" lon="-2.585698000">
        <ele>713.80</ele>
        <time>2012-11-17T11:34:47Z</time>
      </trkpt>
      <trkpt lat="42.387593000" lon="-2.585738000">
        <ele>713.80</ele>
        <time>2012-11-17T11:34:50Z</time>
      </trkpt>
      <trkpt lat="42.387603000" lon="-2.585779000">
        <ele>714.00</ele>
        <time>2012-11-17T11:34:54Z</time>
      </trkpt>
      <trkpt lat="42.387605000" lon="-2.585809000">
        <ele>714.20</ele>
        <time>2012-11-17T11:34:56Z</time>
      </trkpt>
      <trkpt lat="42.387610000" lon="-2.585823000">
        <ele>714.20</ele>
        <time>2012-11-17T11:34:57Z</time>
      </trkpt>
      <trkpt lat="42.387618000" lon="-2.585851000">
        <ele>714.40</ele>
        <time>2012-11-17T11:34:59Z</time>
      </trkpt>
      <trkpt lat="42.387620000" lon="-2.585866000">
        <ele>714.40</ele>
        <time>2012-11-17T11:34:59Z</time>
      </trkpt>
      <trkpt lat="42.387618000" lon="-2.585879000">
        <ele>714.50</ele>
        <time>2012-11-17T11:35:01Z</time>
      </trkpt>
      <trkpt lat="42.387618000" lon="-2.585906000">
        <ele>714.80</ele>
        <time>2012-11-17T11:35:03Z</time>
      </trkpt>
      <trkpt lat="42.387621000" lon="-2.585919000">
        <ele>714.80</ele>
        <time>2012-11-17T11:35:04Z</time>
      </trkpt>
      <trkpt lat="42.387626000" lon="-2.585941000">
        <ele>715.00</ele>
        <time>2012-11-17T11:35:06Z</time>
      </trkpt>
      <trkpt lat="42.387628000" lon="-2.585951000">
        <ele>715.00</ele>
        <time>2012-11-17T11:35:06Z</time>
      </trkpt>
      <trkpt lat="42.387630000" lon="-2.585963000">
        <ele>715.10</ele>
        <time>2012-11-17T11:35:08Z</time>
      </trkpt>
      <trkpt lat="42.387630000" lon="-2.585976000">
        <ele>715.20</ele>
        <time>2012-11-17T11:35:08Z</time>
      </trkpt>
      <trkpt lat="42.387631000" lon="-2.585986000">
        <ele>715.20</ele>
        <time>2012-11-17T11:35:10Z</time>
      </trkpt>
      <trkpt lat="42.387636000" lon="-2.585996000">
        <ele>715.30</ele>
        <time>2012-11-17T11:35:11Z</time>
      </trkpt>
      <trkpt lat="42.387640000" lon="-2.586006000">
        <ele>715.30</ele>
        <time>2012-11-17T11:35:11Z</time>
      </trkpt>
      <trkpt lat="42.387646000" lon="-2.586026000">
        <ele>715.30</ele>
        <time>2012-11-17T11:35:13Z</time>
      </trkpt>
      <trkpt lat="42.387648000" lon="-2.586036000">
        <ele>715.40</ele>
        <time>2012-11-17T11:35:15Z</time>
      </trkpt>
      <trkpt lat="42.387650000" lon="-2.586071000">
        <ele>715.50</ele>
        <time>2012-11-17T11:35:18Z</time>
      </trkpt>
      <trkpt lat="42.387658000" lon="-2.586091000">
        <ele>715.60</ele>
        <time>2012-11-17T11:35:20Z</time>
      </trkpt>
      <trkpt lat="42.387665000" lon="-2.586109000">
        <ele>715.60</ele>
        <time>2012-11-17T11:35:22Z</time>
      </trkpt>
      <trkpt lat="42.387668000" lon="-2.586121000">
        <ele>715.60</ele>
        <time>2012-11-17T11:35:22Z</time>
      </trkpt>
      <trkpt lat="42.387671000" lon="-2.586134000">
        <ele>715.70</ele>
        <time>2012-11-17T11:35:24Z</time>
      </trkpt>
      <trkpt lat="42.387676000" lon="-2.586158000">
        <ele>715.70</ele>
        <time>2012-11-17T11:35:25Z</time>
      </trkpt>
      <trkpt lat="42.387676000" lon="-2.586173000">
        <ele>715.80</ele>
        <time>2012-11-17T11:35:27Z</time>
      </trkpt>
      <trkpt lat="42.387703000" lon="-2.586258000">
        <ele>715.80</ele>
        <time>2012-11-17T11:35:34Z</time>
      </trkpt>
      <trkpt lat="42.387706000" lon="-2.586286000">
        <ele>715.60</ele>
        <time>2012-11-17T11:35:36Z</time>
      </trkpt>
      <trkpt lat="42.387706000" lon="-2.586319000">
        <ele>715.30</ele>
        <time>2012-11-17T11:35:37Z</time>
      </trkpt>
      <trkpt lat="42.387705000" lon="-2.586336000">
        <ele>715.20</ele>
        <time>2012-11-17T11:35:39Z</time>
      </trkpt>
      <trkpt lat="42.387705000" lon="-2.586354000">
        <ele>715.00</ele>
        <time>2012-11-17T11:35:39Z</time>
      </trkpt>
      <trkpt lat="42.387701000" lon="-2.586374000">
        <ele>714.90</ele>
        <time>2012-11-17T11:35:41Z</time>
      </trkpt>
      <trkpt lat="42.387700000" lon="-2.586418000">
        <ele>714.60</ele>
        <time>2012-11-17T11:35:43Z</time>
      </trkpt>
      <trkpt lat="42.387693000" lon="-2.586443000">
        <ele>714.50</ele>
        <time>2012-11-17T11:35:43Z</time>
      </trkpt>
      <trkpt lat="42.387685000" lon="-2.586463000">
        <ele>714.40</ele>
        <time>2012-11-17T11:35:44Z</time>
      </trkpt>
      <trkpt lat="42.387643000" lon="-2.586604000">
        <ele>714.20</ele>
        <time>2012-11-17T11:35:50Z</time>
      </trkpt>
      <trkpt lat="42.387628000" lon="-2.586633000">
        <ele>714.30</ele>
        <time>2012-11-17T11:35:50Z</time>
      </trkpt>
      <trkpt lat="42.387583000" lon="-2.586761000">
        <ele>714.50</ele>
        <time>2012-11-17T11:35:55Z</time>
      </trkpt>
      <trkpt lat="42.387568000" lon="-2.586876000">
        <ele>714.20</ele>
        <time>2012-11-17T11:35:58Z</time>
      </trkpt>
      <trkpt lat="42.387566000" lon="-2.587031000">
        <ele>713.30</ele>
        <time>2012-11-17T11:36:00Z</time>
      </trkpt>
      <trkpt lat="42.387558000" lon="-2.587098000">
        <ele>713.10</ele>
        <time>2012-11-17T11:36:02Z</time>
      </trkpt>
      <trkpt lat="42.387480000" lon="-2.587328000">
        <ele>712.50</ele>
        <time>2012-11-17T11:36:05Z</time>
      </trkpt>
      <trkpt lat="42.387100000" lon="-2.587859000">
        <ele>711.40</ele>
        <time>2012-11-17T11:36:14Z</time>
      </trkpt>
      <trkpt lat="42.387055000" lon="-2.587913000">
        <ele>710.70</ele>
        <time>2012-11-17T11:36:16Z</time>
      </trkpt>
      <trkpt lat="42.387016000" lon="-2.587978000">
        <ele>710.40</ele>
        <time>2012-11-17T11:36:19Z</time>
      </trkpt>
      <trkpt lat="42.387001000" lon="-2.587996000">
        <ele>710.40</ele>
        <time>2012-11-17T11:36:19Z</time>
      </trkpt>
      <trkpt lat="42.386955000" lon="-2.588064000">
        <ele>710.50</ele>
        <time>2012-11-17T11:36:23Z</time>
      </trkpt>
      <trkpt lat="42.386803000" lon="-2.588209000">
        <ele>710.80</ele>
        <time>2012-11-17T11:36:33Z</time>
      </trkpt>
      <trkpt lat="42.386551000" lon="-2.588404000">
        <ele>711.00</ele>
        <time>2012-11-17T11:36:49Z</time>
      </trkpt>
      <trkpt lat="42.386468000" lon="-2.588453000">
        <ele>711.00</ele>
        <time>2012-11-17T11:36:54Z</time>
      </trkpt>
      <trkpt lat="42.386101000" lon="-2.588541000">
        <ele>711.90</ele>
        <time>2012-11-17T11:37:15Z</time>
      </trkpt>
      <trkpt lat="42.386085000" lon="-2.588539000">
        <ele>711.90</ele>
        <time>2012-11-17T11:37:17Z</time>
      </trkpt>
      <trkpt lat="42.385913000" lon="-2.588541000">
        <ele>713.10</ele>
        <time>2012-11-17T11:37:27Z</time>
      </trkpt>
      <trkpt lat="42.385701000" lon="-2.588499000">
        <ele>714.90</ele>
        <time>2012-11-17T11:37:39Z</time>
      </trkpt>
      <trkpt lat="42.385451000" lon="-2.588426000">
        <ele>717.20</ele>
        <time>2012-11-17T11:37:55Z</time>
      </trkpt>
      <trkpt lat="42.385263000" lon="-2.588426000">
        <ele>719.20</ele>
        <time>2012-11-17T11:38:07Z</time>
      </trkpt>
      <trkpt lat="42.385165000" lon="-2.588449000">
        <ele>720.10</ele>
        <time>2012-11-17T11:38:14Z</time>
      </trkpt>
      <trkpt lat="42.385050000" lon="-2.588504000">
        <ele>720.80</ele>
        <time>2012-11-17T11:38:21Z</time>
      </trkpt>
      <trkpt lat="42.385035000" lon="-2.588518000">
        <ele>720.80</ele>
        <time>2012-11-17T11:38:21Z</time>
      </trkpt>
      <trkpt lat="42.384983000" lon="-2.588591000">
        <ele>720.60</ele>
        <time>2012-11-17T11:38:26Z</time>
      </trkpt>
      <trkpt lat="42.384821000" lon="-2.589004000">
        <ele>721.00</ele>
        <time>2012-11-17T11:38:47Z</time>
      </trkpt>
      <trkpt lat="42.384813000" lon="-2.589019000">
        <ele>721.20</ele>
        <time>2012-11-17T11:38:49Z</time>
      </trkpt>
      <trkpt lat="42.384808000" lon="-2.589038000">
        <ele>721.30</ele>
        <time>2012-11-17T11:38:49Z</time>
      </trkpt>
      <trkpt lat="42.384791000" lon="-2.589068000">
        <ele>721.60</ele>
        <time>2012-11-17T11:38:51Z</time>
      </trkpt>
      <trkpt lat="42.384785000" lon="-2.589084000">
        <ele>721.70</ele>
        <time>2012-11-17T11:38:53Z</time>
      </trkpt>
      <trkpt lat="42.384671000" lon="-2.589309000">
        <ele>723.40</ele>
        <time>2012-11-17T11:39:08Z</time>
      </trkpt>
      <trkpt lat="42.384661000" lon="-2.589341000">
        <ele>723.60</ele>
        <time>2012-11-17T11:39:10Z</time>
      </trkpt>
      <trkpt lat="42.384655000" lon="-2.589374000">
        <ele>723.70</ele>
        <time>2012-11-17T11:39:12Z</time>
      </trkpt>
      <trkpt lat="42.384628000" lon="-2.589456000">
        <ele>724.20</ele>
        <time>2012-11-17T11:39:17Z</time>
      </trkpt>
      <trkpt lat="42.384625000" lon="-2.589473000">
        <ele>724.30</ele>
        <time>2012-11-17T11:39:17Z</time>
      </trkpt>
      <trkpt lat="42.384618000" lon="-2.589489000">
        <ele>724.40</ele>
        <time>2012-11-17T11:39:19Z</time>
      </trkpt>
      <trkpt lat="42.384608000" lon="-2.589541000">
        <ele>724.60</ele>
        <time>2012-11-17T11:39:22Z</time>
      </trkpt>
      <trkpt lat="42.384603000" lon="-2.589558000">
        <ele>724.60</ele>
        <time>2012-11-17T11:39:22Z</time>
      </trkpt>
      <trkpt lat="42.384576000" lon="-2.589739000">
        <ele>726.30</ele>
        <time>2012-11-17T11:39:34Z</time>
      </trkpt>
      <trkpt lat="42.384576000" lon="-2.589774000">
        <ele>726.60</ele>
        <time>2012-11-17T11:39:36Z</time>
      </trkpt>
      <trkpt lat="42.384575000" lon="-2.589791000">
        <ele>726.80</ele>
        <time>2012-11-17T11:39:36Z</time>
      </trkpt>
      <trkpt lat="42.384571000" lon="-2.589806000">
        <ele>726.90</ele>
        <time>2012-11-17T11:39:38Z</time>
      </trkpt>
      <trkpt lat="42.384570000" lon="-2.589823000">
        <ele>727.10</ele>
        <time>2012-11-17T11:39:38Z</time>
      </trkpt>
      <trkpt lat="42.384570000" lon="-2.589839000">
        <ele>727.20</ele>
        <time>2012-11-17T11:39:40Z</time>
      </trkpt>
      <trkpt lat="42.384573000" lon="-2.589871000">
        <ele>727.50</ele>
        <time>2012-11-17T11:39:41Z</time>
      </trkpt>
      <trkpt lat="42.384571000" lon="-2.589884000">
        <ele>727.70</ele>
        <time>2012-11-17T11:39:43Z</time>
      </trkpt>
      <trkpt lat="42.384583000" lon="-2.589984000">
        <ele>728.60</ele>
        <time>2012-11-17T11:39:50Z</time>
      </trkpt>
      <trkpt lat="42.384593000" lon="-2.590024000">
        <ele>729.00</ele>
        <time>2012-11-17T11:39:52Z</time>
      </trkpt>
      <trkpt lat="42.384591000" lon="-2.590034000">
        <ele>729.10</ele>
        <time>2012-11-17T11:39:54Z</time>
      </trkpt>
      <trkpt lat="42.384595000" lon="-2.590046000">
        <ele>729.20</ele>
        <time>2012-11-17T11:39:55Z</time>
      </trkpt>
      <trkpt lat="42.384596000" lon="-2.590059000">
        <ele>729.30</ele>
        <time>2012-11-17T11:39:55Z</time>
      </trkpt>
      <trkpt lat="42.384600000" lon="-2.590073000">
        <ele>729.40</ele>
        <time>2012-11-17T11:39:57Z</time>
      </trkpt>
      <trkpt lat="42.384600000" lon="-2.590083000">
        <ele>729.50</ele>
        <time>2012-11-17T11:39:57Z</time>
      </trkpt>
      <trkpt lat="42.384600000" lon="-2.590084000">
        <ele>729.60</ele>
        <time>2012-11-17T11:39:59Z</time>
      </trkpt>
      <trkpt lat="42.384598000" lon="-2.590088000">
        <ele>729.60</ele>
        <time>2012-11-17T11:39:59Z</time>
      </trkpt>
      <trkpt lat="42.384600000" lon="-2.590091000">
        <ele>729.70</ele>
        <time>2012-11-17T11:40:00Z</time>
      </trkpt>
      <trkpt lat="42.384598000" lon="-2.590099000">
        <ele>729.70</ele>
        <time>2012-11-17T11:40:02Z</time>
      </trkpt>
      <trkpt lat="42.384588000" lon="-2.590108000">
        <ele>729.90</ele>
        <time>2012-11-17T11:40:04Z</time>
      </trkpt>
      <trkpt lat="42.384586000" lon="-2.590111000">
        <ele>729.90</ele>
        <time>2012-11-17T11:40:04Z</time>
      </trkpt>
      <trkpt lat="42.384588000" lon="-2.590139000">
        <ele>730.20</ele>
        <time>2012-11-17T11:40:09Z</time>
      </trkpt>
      <trkpt lat="42.384588000" lon="-2.590163000">
        <ele>730.40</ele>
        <time>2012-11-17T11:40:11Z</time>
      </trkpt>
      <trkpt lat="42.384595000" lon="-2.590209000">
        <ele>730.80</ele>
        <time>2012-11-17T11:40:14Z</time>
      </trkpt>
      <trkpt lat="42.384596000" lon="-2.590219000">
        <ele>730.80</ele>
        <time>2012-11-17T11:40:16Z</time>
      </trkpt>
      <trkpt lat="42.384596000" lon="-2.590231000">
        <ele>730.90</ele>
        <time>2012-11-17T11:40:16Z</time>
      </trkpt>
      <trkpt lat="42.384591000" lon="-2.590251000">
        <ele>731.20</ele>
        <time>2012-11-17T11:40:18Z</time>
      </trkpt>
      <trkpt lat="42.384590000" lon="-2.590263000">
        <ele>731.30</ele>
        <time>2012-11-17T11:40:20Z</time>
      </trkpt>
      <trkpt lat="42.384586000" lon="-2.590274000">
        <ele>731.40</ele>
        <time>2012-11-17T11:40:21Z</time>
      </trkpt>
      <trkpt lat="42.384576000" lon="-2.590301000">
        <ele>731.70</ele>
        <time>2012-11-17T11:40:23Z</time>
      </trkpt>
      <trkpt lat="42.384573000" lon="-2.590314000">
        <ele>731.80</ele>
        <time>2012-11-17T11:40:23Z</time>
      </trkpt>
      <trkpt lat="42.384566000" lon="-2.590369000">
        <ele>732.40</ele>
        <time>2012-11-17T11:40:28Z</time>
      </trkpt>
      <trkpt lat="42.384560000" lon="-2.590394000">
        <ele>732.60</ele>
        <time>2012-11-17T11:40:30Z</time>
      </trkpt>
      <trkpt lat="42.384560000" lon="-2.590406000">
        <ele>732.80</ele>
        <time>2012-11-17T11:40:32Z</time>
      </trkpt>
      <trkpt lat="42.384560000" lon="-2.590418000">
        <ele>732.90</ele>
        <time>2012-11-17T11:40:32Z</time>
      </trkpt>
      <trkpt lat="42.384556000" lon="-2.590441000">
        <ele>733.10</ele>
        <time>2012-11-17T11:40:35Z</time>
      </trkpt>
      <trkpt lat="42.384550000" lon="-2.590479000">
        <ele>733.40</ele>
        <time>2012-11-17T11:40:44Z</time>
      </trkpt>
      <trkpt lat="42.384551000" lon="-2.590488000">
        <ele>733.40</ele>
        <time>2012-11-17T11:40:44Z</time>
      </trkpt>
      <trkpt lat="42.384553000" lon="-2.590498000">
        <ele>733.50</ele>
        <time>2012-11-17T11:40:46Z</time>
      </trkpt>
      <trkpt lat="42.384553000" lon="-2.590511000">
        <ele>733.50</ele>
        <time>2012-11-17T11:40:46Z</time>
      </trkpt>
      <trkpt lat="42.384555000" lon="-2.590519000">
        <ele>733.60</ele>
        <time>2012-11-17T11:40:48Z</time>
      </trkpt>
      <trkpt lat="42.384556000" lon="-2.590528000">
        <ele>733.60</ele>
        <time>2012-11-17T11:40:49Z</time>
      </trkpt>
      <trkpt lat="42.384556000" lon="-2.590538000">
        <ele>733.70</ele>
        <time>2012-11-17T11:40:49Z</time>
      </trkpt>
      <trkpt lat="42.384556000" lon="-2.590546000">
        <ele>733.70</ele>
        <time>2012-11-17T11:40:51Z</time>
      </trkpt>
      <trkpt lat="42.384556000" lon="-2.590554000">
        <ele>733.80</ele>
        <time>2012-11-17T11:40:51Z</time>
      </trkpt>
      <trkpt lat="42.384555000" lon="-2.590563000">
        <ele>733.90</ele>
        <time>2012-11-17T11:40:53Z</time>
      </trkpt>
      <trkpt lat="42.384553000" lon="-2.590576000">
        <ele>733.90</ele>
        <time>2012-11-17T11:40:53Z</time>
      </trkpt>
      <trkpt lat="42.384555000" lon="-2.590584000">
        <ele>734.00</ele>
        <time>2012-11-17T11:40:54Z</time>
      </trkpt>
      <trkpt lat="42.384545000" lon="-2.590619000">
        <ele>734.20</ele>
        <time>2012-11-17T11:40:56Z</time>
      </trkpt>
      <trkpt lat="42.384538000" lon="-2.590636000">
        <ele>734.30</ele>
        <time>2012-11-17T11:40:58Z</time>
      </trkpt>
      <trkpt lat="42.384506000" lon="-2.590768000">
        <ele>735.20</ele>
        <time>2012-11-17T11:41:05Z</time>
      </trkpt>
      <trkpt lat="42.384501000" lon="-2.590824000">
        <ele>735.60</ele>
        <time>2012-11-17T11:41:07Z</time>
      </trkpt>
      <trkpt lat="42.384496000" lon="-2.590843000">
        <ele>735.80</ele>
        <time>2012-11-17T11:41:08Z</time>
      </trkpt>
      <trkpt lat="42.384480000" lon="-2.590988000">
        <ele>736.80</ele>
        <time>2012-11-17T11:41:17Z</time>
      </trkpt>
      <trkpt lat="42.384480000" lon="-2.591024000">
        <ele>737.10</ele>
        <time>2012-11-17T11:41:19Z</time>
      </trkpt>
      <trkpt lat="42.384476000" lon="-2.591041000">
        <ele>737.20</ele>
        <time>2012-11-17T11:41:19Z</time>
      </trkpt>
      <trkpt lat="42.384478000" lon="-2.591076000">
        <ele>737.40</ele>
        <time>2012-11-17T11:41:22Z</time>
      </trkpt>
      <trkpt lat="42.384480000" lon="-2.591091000">
        <ele>737.50</ele>
        <time>2012-11-17T11:41:22Z</time>
      </trkpt>
      <trkpt lat="42.384473000" lon="-2.591138000">
        <ele>737.90</ele>
        <time>2012-11-17T11:41:26Z</time>
      </trkpt>
      <trkpt lat="42.384473000" lon="-2.591154000">
        <ele>737.90</ele>
        <time>2012-11-17T11:41:26Z</time>
      </trkpt>
      <trkpt lat="42.384473000" lon="-2.591183000">
        <ele>738.20</ele>
        <time>2012-11-17T11:41:29Z</time>
      </trkpt>
      <trkpt lat="42.384473000" lon="-2.591196000">
        <ele>738.30</ele>
        <time>2012-11-17T11:41:29Z</time>
      </trkpt>
      <trkpt lat="42.384471000" lon="-2.591248000">
        <ele>738.60</ele>
        <time>2012-11-17T11:41:33Z</time>
      </trkpt>
      <trkpt lat="42.384476000" lon="-2.591286000">
        <ele>738.80</ele>
        <time>2012-11-17T11:41:35Z</time>
      </trkpt>
      <trkpt lat="42.384475000" lon="-2.591368000">
        <ele>739.30</ele>
        <time>2012-11-17T11:41:38Z</time>
      </trkpt>
      <trkpt lat="42.384478000" lon="-2.591448000">
        <ele>739.90</ele>
        <time>2012-11-17T11:41:43Z</time>
      </trkpt>
      <trkpt lat="42.384475000" lon="-2.591491000">
        <ele>740.20</ele>
        <time>2012-11-17T11:41:45Z</time>
      </trkpt>
      <trkpt lat="42.384476000" lon="-2.591516000">
        <ele>740.30</ele>
        <time>2012-11-17T11:41:45Z</time>
      </trkpt>
      <trkpt lat="42.384438000" lon="-2.591854000">
        <ele>742.80</ele>
        <time>2012-11-17T11:42:01Z</time>
      </trkpt>
      <trkpt lat="42.384430000" lon="-2.591896000">
        <ele>743.10</ele>
        <time>2012-11-17T11:42:02Z</time>
      </trkpt>
      <trkpt lat="42.384421000" lon="-2.591974000">
        <ele>743.60</ele>
        <time>2012-11-17T11:42:06Z</time>
      </trkpt>
      <trkpt lat="42.384420000" lon="-2.592036000">
        <ele>744.10</ele>
        <time>2012-11-17T11:42:09Z</time>
      </trkpt>
      <trkpt lat="42.384403000" lon="-2.592096000">
        <ele>744.50</ele>
        <time>2012-11-17T11:42:13Z</time>
      </trkpt>
      <trkpt lat="42.384400000" lon="-2.592116000">
        <ele>744.70</ele>
        <time>2012-11-17T11:42:13Z</time>
      </trkpt>
      <trkpt lat="42.384398000" lon="-2.592254000">
        <ele>745.90</ele>
        <time>2012-11-17T11:42:20Z</time>
      </trkpt>
      <trkpt lat="42.384415000" lon="-2.592379000">
        <ele>747.00</ele>
        <time>2012-11-17T11:42:25Z</time>
      </trkpt>
      <trkpt lat="42.384415000" lon="-2.592401000">
        <ele>747.10</ele>
        <time>2012-11-17T11:42:27Z</time>
      </trkpt>
      <trkpt lat="42.384418000" lon="-2.592419000">
        <ele>747.20</ele>
        <time>2012-11-17T11:42:27Z</time>
      </trkpt>
      <trkpt lat="42.384430000" lon="-2.592453000">
        <ele>747.60</ele>
        <time>2012-11-17T11:42:30Z</time>
      </trkpt>
      <trkpt lat="42.384430000" lon="-2.592474000">
        <ele>747.80</ele>
        <time>2012-11-17T11:42:30Z</time>
      </trkpt>
      <trkpt lat="42.384455000" lon="-2.592539000">
        <ele>748.40</ele>
        <time>2012-11-17T11:42:34Z</time>
      </trkpt>
      <trkpt lat="42.384458000" lon="-2.592558000">
        <ele>748.50</ele>
        <time>2012-11-17T11:42:36Z</time>
      </trkpt>
      <trkpt lat="42.384463000" lon="-2.592574000">
        <ele>748.70</ele>
        <time>2012-11-17T11:42:37Z</time>
      </trkpt>
      <trkpt lat="42.384470000" lon="-2.592611000">
        <ele>749.00</ele>
        <time>2012-11-17T11:42:39Z</time>
      </trkpt>
      <trkpt lat="42.384475000" lon="-2.592628000">
        <ele>749.10</ele>
        <time>2012-11-17T11:42:39Z</time>
      </trkpt>
      <trkpt lat="42.384478000" lon="-2.592646000">
        <ele>749.30</ele>
        <time>2012-11-17T11:42:41Z</time>
      </trkpt>
      <trkpt lat="42.384480000" lon="-2.592668000">
        <ele>749.50</ele>
        <time>2012-11-17T11:42:41Z</time>
      </trkpt>
      <trkpt lat="42.384471000" lon="-2.592733000">
        <ele>750.00</ele>
        <time>2012-11-17T11:42:44Z</time>
      </trkpt>
      <trkpt lat="42.384461000" lon="-2.592764000">
        <ele>750.40</ele>
        <time>2012-11-17T11:42:46Z</time>
      </trkpt>
      <trkpt lat="42.384455000" lon="-2.592778000">
        <ele>750.50</ele>
        <time>2012-11-17T11:42:48Z</time>
      </trkpt>
      <trkpt lat="42.384405000" lon="-2.592834000">
        <ele>751.10</ele>
        <time>2012-11-17T11:42:53Z</time>
      </trkpt>
      <trkpt lat="42.384248000" lon="-2.592968000">
        <ele>752.30</ele>
        <time>2012-11-17T11:43:05Z</time>
      </trkpt>
      <trkpt lat="42.384236000" lon="-2.592981000">
        <ele>752.40</ele>
        <time>2012-11-17T11:43:07Z</time>
      </trkpt>
      <trkpt lat="42.384186000" lon="-2.593058000">
        <ele>753.00</ele>
        <time>2012-11-17T11:43:12Z</time>
      </trkpt>
      <trkpt lat="42.384183000" lon="-2.593068000">
        <ele>753.10</ele>
        <time>2012-11-17T11:43:14Z</time>
      </trkpt>
      <trkpt lat="42.384123000" lon="-2.593163000">
        <ele>753.90</ele>
        <time>2012-11-17T11:43:23Z</time>
      </trkpt>
      <trkpt lat="42.384118000" lon="-2.593173000">
        <ele>754.00</ele>
        <time>2012-11-17T11:43:24Z</time>
      </trkpt>
      <trkpt lat="42.384075000" lon="-2.593238000">
        <ele>754.50</ele>
        <time>2012-11-17T11:43:28Z</time>
      </trkpt>
      <trkpt lat="42.384036000" lon="-2.593316000">
        <ele>755.10</ele>
        <time>2012-11-17T11:43:33Z</time>
      </trkpt>
      <trkpt lat="42.384026000" lon="-2.593348000">
        <ele>755.40</ele>
        <time>2012-11-17T11:43:35Z</time>
      </trkpt>
      <trkpt lat="42.384020000" lon="-2.593363000">
        <ele>755.50</ele>
        <time>2012-11-17T11:43:36Z</time>
      </trkpt>
      <trkpt lat="42.383991000" lon="-2.593404000">
        <ele>755.90</ele>
        <time>2012-11-17T11:43:40Z</time>
      </trkpt>
      <trkpt lat="42.383986000" lon="-2.593419000">
        <ele>756.00</ele>
        <time>2012-11-17T11:43:40Z</time>
      </trkpt>
      <trkpt lat="42.383911000" lon="-2.593571000">
        <ele>757.30</ele>
        <time>2012-11-17T11:43:50Z</time>
      </trkpt>
      <trkpt lat="42.383895000" lon="-2.593601000">
        <ele>757.50</ele>
        <time>2012-11-17T11:43:52Z</time>
      </trkpt>
      <trkpt lat="42.383888000" lon="-2.593613000">
        <ele>757.70</ele>
        <time>2012-11-17T11:43:54Z</time>
      </trkpt>
      <trkpt lat="42.383880000" lon="-2.593623000">
        <ele>757.80</ele>
        <time>2012-11-17T11:43:54Z</time>
      </trkpt>
      <trkpt lat="42.383871000" lon="-2.593638000">
        <ele>757.90</ele>
        <time>2012-11-17T11:43:56Z</time>
      </trkpt>
      <trkpt lat="42.383818000" lon="-2.593689000">
        <ele>758.30</ele>
        <time>2012-11-17T11:43:59Z</time>
      </trkpt>
      <trkpt lat="42.383726000" lon="-2.593759000">
        <ele>758.90</ele>
        <time>2012-11-17T11:44:06Z</time>
      </trkpt>
      <trkpt lat="42.383665000" lon="-2.593798000">
        <ele>759.30</ele>
        <time>2012-11-17T11:44:10Z</time>
      </trkpt>
      <trkpt lat="42.383635000" lon="-2.593824000">
        <ele>759.50</ele>
        <time>2012-11-17T11:44:11Z</time>
      </trkpt>
      <trkpt lat="42.383606000" lon="-2.593858000">
        <ele>759.80</ele>
        <time>2012-11-17T11:44:13Z</time>
      </trkpt>
      <trkpt lat="42.383583000" lon="-2.593904000">
        <ele>760.10</ele>
        <time>2012-11-17T11:44:17Z</time>
      </trkpt>
      <trkpt lat="42.383553000" lon="-2.593956000">
        <ele>760.50</ele>
        <time>2012-11-17T11:44:20Z</time>
      </trkpt>
      <trkpt lat="42.383536000" lon="-2.594003000">
        <ele>760.80</ele>
        <time>2012-11-17T11:44:24Z</time>
      </trkpt>
      <trkpt lat="42.383493000" lon="-2.594103000">
        <ele>761.40</ele>
        <time>2012-11-17T11:44:30Z</time>
      </trkpt>
      <trkpt lat="42.383401000" lon="-2.594221000">
        <ele>762.20</ele>
        <time>2012-11-17T11:44:37Z</time>
      </trkpt>
      <trkpt lat="42.383375000" lon="-2.594254000">
        <ele>762.50</ele>
        <time>2012-11-17T11:44:39Z</time>
      </trkpt>
      <trkpt lat="42.383360000" lon="-2.594268000">
        <ele>762.60</ele>
        <time>2012-11-17T11:44:41Z</time>
      </trkpt>
      <trkpt lat="42.383336000" lon="-2.594301000">
        <ele>762.80</ele>
        <time>2012-11-17T11:44:43Z</time>
      </trkpt>
      <trkpt lat="42.383213000" lon="-2.594438000">
        <ele>763.70</ele>
        <time>2012-11-17T11:44:51Z</time>
      </trkpt>
      <trkpt lat="42.383186000" lon="-2.594474000">
        <ele>763.90</ele>
        <time>2012-11-17T11:44:53Z</time>
      </trkpt>
      <trkpt lat="42.383176000" lon="-2.594493000">
        <ele>764.00</ele>
        <time>2012-11-17T11:44:55Z</time>
      </trkpt>
      <trkpt lat="42.383136000" lon="-2.594541000">
        <ele>764.30</ele>
        <time>2012-11-17T11:44:58Z</time>
      </trkpt>
      <trkpt lat="42.383115000" lon="-2.594588000">
        <ele>764.60</ele>
        <time>2012-11-17T11:45:00Z</time>
      </trkpt>
      <trkpt lat="42.383108000" lon="-2.594608000">
        <ele>764.70</ele>
        <time>2012-11-17T11:45:00Z</time>
      </trkpt>
      <trkpt lat="42.383090000" lon="-2.594699000">
        <ele>765.20</ele>
        <time>2012-11-17T11:45:05Z</time>
      </trkpt>
      <trkpt lat="42.383060000" lon="-2.594819000">
        <ele>765.90</ele>
        <time>2012-11-17T11:45:12Z</time>
      </trkpt>
      <trkpt lat="42.383053000" lon="-2.594836000">
        <ele>766.00</ele>
        <time>2012-11-17T11:45:14Z</time>
      </trkpt>
      <trkpt lat="42.383035000" lon="-2.594906000">
        <ele>766.40</ele>
        <time>2012-11-17T11:45:18Z</time>
      </trkpt>
      <trkpt lat="42.383033000" lon="-2.594921000">
        <ele>766.50</ele>
        <time>2012-11-17T11:45:19Z</time>
      </trkpt>
      <trkpt lat="42.383033000" lon="-2.594949000">
        <ele>766.70</ele>
        <time>2012-11-17T11:45:21Z</time>
      </trkpt>
      <trkpt lat="42.383051000" lon="-2.594993000">
        <ele>766.90</ele>
        <time>2012-11-17T11:45:23Z</time>
      </trkpt>
      <trkpt lat="42.383113000" lon="-2.595083000">
        <ele>767.30</ele>
        <time>2012-11-17T11:45:31Z</time>
      </trkpt>
      <trkpt lat="42.383148000" lon="-2.595119000">
        <ele>767.30</ele>
        <time>2012-11-17T11:45:37Z</time>
      </trkpt>
      <trkpt lat="42.383160000" lon="-2.595136000">
        <ele>767.40</ele>
        <time>2012-11-17T11:45:38Z</time>
      </trkpt>
      <trkpt lat="42.383160000" lon="-2.595144000">
        <ele>767.40</ele>
        <time>2012-11-17T11:45:40Z</time>
      </trkpt>
      <trkpt lat="42.383158000" lon="-2.595149000">
        <ele>767.40</ele>
        <time>2012-11-17T11:45:42Z</time>
      </trkpt>
      <trkpt lat="42.383160000" lon="-2.595153000">
        <ele>767.50</ele>
        <time>2012-11-17T11:45:42Z</time>
      </trkpt>
      <trkpt lat="42.383163000" lon="-2.595163000">
        <ele>767.50</ele>
        <time>2012-11-17T11:45:45Z</time>
      </trkpt>
      <trkpt lat="42.383163000" lon="-2.595171000">
        <ele>767.50</ele>
        <time>2012-11-17T11:45:49Z</time>
      </trkpt>
      <trkpt lat="42.383163000" lon="-2.595174000">
        <ele>767.60</ele>
        <time>2012-11-17T11:45:49Z</time>
      </trkpt>
      <trkpt lat="42.383163000" lon="-2.595176000">
        <ele>767.60</ele>
        <time>2012-11-17T11:45:51Z</time>
      </trkpt>
      <trkpt lat="42.383165000" lon="-2.595179000">
        <ele>767.60</ele>
        <time>2012-11-17T11:45:52Z</time>
      </trkpt>
      <trkpt lat="42.383170000" lon="-2.595184000">
        <ele>767.60</ele>
        <time>2012-11-17T11:45:54Z</time>
      </trkpt>
      <trkpt lat="42.383213000" lon="-2.595214000">
        <ele>767.60</ele>
        <time>2012-11-17T11:45:59Z</time>
      </trkpt>
      <trkpt lat="42.383221000" lon="-2.595216000">
        <ele>767.60</ele>
        <time>2012-11-17T11:46:01Z</time>
      </trkpt>
      <trkpt lat="42.383230000" lon="-2.595221000">
        <ele>767.60</ele>
        <time>2012-11-17T11:46:01Z</time>
      </trkpt>
      <trkpt lat="42.383265000" lon="-2.595241000">
        <ele>767.50</ele>
        <time>2012-11-17T11:46:06Z</time>
      </trkpt>
      <trkpt lat="42.383273000" lon="-2.595244000">
        <ele>767.50</ele>
        <time>2012-11-17T11:46:06Z</time>
      </trkpt>
      <trkpt lat="42.383306000" lon="-2.595271000">
        <ele>767.50</ele>
        <time>2012-11-17T11:46:10Z</time>
      </trkpt>
      <trkpt lat="42.383320000" lon="-2.595288000">
        <ele>767.50</ele>
        <time>2012-11-17T11:46:13Z</time>
      </trkpt>
      <trkpt lat="42.383328000" lon="-2.595294000">
        <ele>767.50</ele>
        <time>2012-11-17T11:46:13Z</time>
      </trkpt>
      <trkpt lat="42.383368000" lon="-2.595308000">
        <ele>767.40</ele>
        <time>2012-11-17T11:46:17Z</time>
      </trkpt>
      <trkpt lat="42.383376000" lon="-2.595314000">
        <ele>767.40</ele>
        <time>2012-11-17T11:46:18Z</time>
      </trkpt>
      <trkpt lat="42.383385000" lon="-2.595318000">
        <ele>767.30</ele>
        <time>2012-11-17T11:46:20Z</time>
      </trkpt>
      <trkpt lat="42.383403000" lon="-2.595321000">
        <ele>767.30</ele>
        <time>2012-11-17T11:46:22Z</time>
      </trkpt>
      <trkpt lat="42.383456000" lon="-2.595339000">
        <ele>767.10</ele>
        <time>2012-11-17T11:46:29Z</time>
      </trkpt>
      <trkpt lat="42.383463000" lon="-2.595344000">
        <ele>767.10</ele>
        <time>2012-11-17T11:46:29Z</time>
      </trkpt>
      <trkpt lat="42.383473000" lon="-2.595346000">
        <ele>767.10</ele>
        <time>2012-11-17T11:46:31Z</time>
      </trkpt>
      <trkpt lat="42.383500000" lon="-2.595358000">
        <ele>767.00</ele>
        <time>2012-11-17T11:46:34Z</time>
      </trkpt>
      <trkpt lat="42.383510000" lon="-2.595363000">
        <ele>767.00</ele>
        <time>2012-11-17T11:46:34Z</time>
      </trkpt>
      <trkpt lat="42.383558000" lon="-2.595376000">
        <ele>766.80</ele>
        <time>2012-11-17T11:46:39Z</time>
      </trkpt>
      <trkpt lat="42.383568000" lon="-2.595381000">
        <ele>766.80</ele>
        <time>2012-11-17T11:46:41Z</time>
      </trkpt>
      <trkpt lat="42.383580000" lon="-2.595384000">
        <ele>766.70</ele>
        <time>2012-11-17T11:46:41Z</time>
      </trkpt>
      <trkpt lat="42.383588000" lon="-2.595391000">
        <ele>766.70</ele>
        <time>2012-11-17T11:46:43Z</time>
      </trkpt>
      <trkpt lat="42.383590000" lon="-2.595389000">
        <ele>766.60</ele>
        <time>2012-11-17T11:46:46Z</time>
      </trkpt>
      <trkpt lat="42.383596000" lon="-2.595391000">
        <ele>766.60</ele>
        <time>2012-11-17T11:46:57Z</time>
      </trkpt>
      <trkpt lat="42.383600000" lon="-2.595389000">
        <ele>766.60</ele>
        <time>2012-11-17T11:47:00Z</time>
      </trkpt>
      <trkpt lat="42.383601000" lon="-2.595386000">
        <ele>766.60</ele>
        <time>2012-11-17T11:47:02Z</time>
      </trkpt>
      <trkpt lat="42.383605000" lon="-2.595384000">
        <ele>766.60</ele>
        <time>2012-11-17T11:47:04Z</time>
      </trkpt>
      <trkpt lat="42.383606000" lon="-2.595383000">
        <ele>766.50</ele>
        <time>2012-11-17T11:47:07Z</time>
      </trkpt>
      <trkpt lat="42.383608000" lon="-2.595383000">
        <ele>766.50</ele>
        <time>2012-11-17T11:47:07Z</time>
      </trkpt>
      <trkpt lat="42.383611000" lon="-2.595374000">
        <ele>766.50</ele>
        <time>2012-11-17T11:47:14Z</time>
      </trkpt>
      <trkpt lat="42.383615000" lon="-2.595371000">
        <ele>766.50</ele>
        <time>2012-11-17T11:47:18Z</time>
      </trkpt>
      <trkpt lat="42.383616000" lon="-2.595368000">
        <ele>766.50</ele>
        <time>2012-11-17T11:47:21Z</time>
      </trkpt>
      <trkpt lat="42.383616000" lon="-2.595368000">
        <ele>766.50</ele>
        <time>2012-11-17T11:47:23Z</time>
      </trkpt>
      <trkpt lat="42.383618000" lon="-2.595368000">
        <ele>766.40</ele>
        <time>2012-11-17T11:47:23Z</time>
      </trkpt>
      <trkpt lat="42.383618000" lon="-2.595366000">
        <ele>766.40</ele>
        <time>2012-11-17T11:47:25Z</time>
      </trkpt>
      <trkpt lat="42.383631000" lon="-2.595366000">
        <ele>766.40</ele>
        <time>2012-11-17T11:47:35Z</time>
      </trkpt>
      <trkpt lat="42.383633000" lon="-2.595368000">
        <ele>766.40</ele>
        <time>2012-11-17T11:47:40Z</time>
      </trkpt>
      <trkpt lat="42.383635000" lon="-2.595366000">
        <ele>766.40</ele>
        <time>2012-11-17T11:47:42Z</time>
      </trkpt>
      <trkpt lat="42.383635000" lon="-2.595368000">
        <ele>766.40</ele>
        <time>2012-11-17T11:47:44Z</time>
      </trkpt>
      <trkpt lat="42.383638000" lon="-2.595369000">
        <ele>766.40</ele>
        <time>2012-11-17T11:47:49Z</time>
      </trkpt>
      <trkpt lat="42.383640000" lon="-2.595373000">
        <ele>766.40</ele>
        <time>2012-11-17T11:47:54Z</time>
      </trkpt>
      <trkpt lat="42.383640000" lon="-2.595383000">
        <ele>766.40</ele>
        <time>2012-11-17T11:48:05Z</time>
      </trkpt>
      <trkpt lat="42.383645000" lon="-2.595384000">
        <ele>766.40</ele>
        <time>2012-11-17T11:48:06Z</time>
      </trkpt>
      <trkpt lat="42.383653000" lon="-2.595391000">
        <ele>766.40</ele>
        <time>2012-11-17T11:48:08Z</time>
      </trkpt>
      <trkpt lat="42.383675000" lon="-2.595408000">
        <ele>766.30</ele>
        <time>2012-11-17T11:48:10Z</time>
      </trkpt>
      <trkpt lat="42.383688000" lon="-2.595426000">
        <ele>766.30</ele>
        <time>2012-11-17T11:48:10Z</time>
      </trkpt>
      <trkpt lat="42.383698000" lon="-2.595448000">
        <ele>766.30</ele>
        <time>2012-11-17T11:48:12Z</time>
      </trkpt>
      <trkpt lat="42.383703000" lon="-2.595471000">
        <ele>766.20</ele>
        <time>2012-11-17T11:48:12Z</time>
      </trkpt>
      <trkpt lat="42.383696000" lon="-2.595539000">
        <ele>766.20</ele>
        <time>2012-11-17T11:48:15Z</time>
      </trkpt>
      <trkpt lat="42.383686000" lon="-2.595581000">
        <ele>766.30</ele>
        <time>2012-11-17T11:48:17Z</time>
      </trkpt>
      <trkpt lat="42.383665000" lon="-2.595639000">
        <ele>766.40</ele>
        <time>2012-11-17T11:48:20Z</time>
      </trkpt>
      <trkpt lat="42.383655000" lon="-2.595656000">
        <ele>766.40</ele>
        <time>2012-11-17T11:48:22Z</time>
      </trkpt>
      <trkpt lat="42.383631000" lon="-2.595684000">
        <ele>766.60</ele>
        <time>2012-11-17T11:48:24Z</time>
      </trkpt>
      <trkpt lat="42.383575000" lon="-2.595733000">
        <ele>766.90</ele>
        <time>2012-11-17T11:48:27Z</time>
      </trkpt>
      <trkpt lat="42.383553000" lon="-2.595768000">
        <ele>767.10</ele>
        <time>2012-11-17T11:48:29Z</time>
      </trkpt>
      <trkpt lat="42.383546000" lon="-2.595789000">
        <ele>767.20</ele>
        <time>2012-11-17T11:48:31Z</time>
      </trkpt>
      <trkpt lat="42.383533000" lon="-2.595859000">
        <ele>767.30</ele>
        <time>2012-11-17T11:48:34Z</time>
      </trkpt>
      <trkpt lat="42.383535000" lon="-2.595904000">
        <ele>767.40</ele>
        <time>2012-11-17T11:48:36Z</time>
      </trkpt>
      <trkpt lat="42.383533000" lon="-2.595951000">
        <ele>767.50</ele>
        <time>2012-11-17T11:48:38Z</time>
      </trkpt>
      <trkpt lat="42.383530000" lon="-2.595974000">
        <ele>767.50</ele>
        <time>2012-11-17T11:48:38Z</time>
      </trkpt>
      <trkpt lat="42.383465000" lon="-2.596213000">
        <ele>768.20</ele>
        <time>2012-11-17T11:48:48Z</time>
      </trkpt>
      <trkpt lat="42.383453000" lon="-2.596238000">
        <ele>768.30</ele>
        <time>2012-11-17T11:48:48Z</time>
      </trkpt>
      <trkpt lat="42.383438000" lon="-2.596286000">
        <ele>768.50</ele>
        <time>2012-11-17T11:48:50Z</time>
      </trkpt>
      <trkpt lat="42.383433000" lon="-2.596313000">
        <ele>768.50</ele>
        <time>2012-11-17T11:48:52Z</time>
      </trkpt>
      <trkpt lat="42.383325000" lon="-2.596671000">
        <ele>769.40</ele>
        <time>2012-11-17T11:49:06Z</time>
      </trkpt>
      <trkpt lat="42.383320000" lon="-2.596701000">
        <ele>769.50</ele>
        <time>2012-11-17T11:49:06Z</time>
      </trkpt>
      <trkpt lat="42.383311000" lon="-2.596729000">
        <ele>769.60</ele>
        <time>2012-11-17T11:49:07Z</time>
      </trkpt>
      <trkpt lat="42.383293000" lon="-2.596818000">
        <ele>769.70</ele>
        <time>2012-11-17T11:49:11Z</time>
      </trkpt>
      <trkpt lat="42.383026000" lon="-2.597731000">
        <ele>772.90</ele>
        <time>2012-11-17T11:49:41Z</time>
      </trkpt>
      <trkpt lat="42.383021000" lon="-2.597761000">
        <ele>772.90</ele>
        <time>2012-11-17T11:49:42Z</time>
      </trkpt>
      <trkpt lat="42.383018000" lon="-2.597853000">
        <ele>773.20</ele>
        <time>2012-11-17T11:49:44Z</time>
      </trkpt>
      <trkpt lat="42.383021000" lon="-2.597884000">
        <ele>773.20</ele>
        <time>2012-11-17T11:49:46Z</time>
      </trkpt>
      <trkpt lat="42.383045000" lon="-2.597973000">
        <ele>773.40</ele>
        <time>2012-11-17T11:49:49Z</time>
      </trkpt>
      <trkpt lat="42.383426000" lon="-2.598889000">
        <ele>775.70</ele>
        <time>2012-11-17T11:50:10Z</time>
      </trkpt>
      <trkpt lat="42.383758000" lon="-2.599331000">
        <ele>775.00</ele>
        <time>2012-11-17T11:50:22Z</time>
      </trkpt>
      <trkpt lat="42.383958000" lon="-2.599684000">
        <ele>775.90</ele>
        <time>2012-11-17T11:50:29Z</time>
      </trkpt>
      <trkpt lat="42.384025000" lon="-2.599759000">
        <ele>776.50</ele>
        <time>2012-11-17T11:50:31Z</time>
      </trkpt>
      <trkpt lat="42.385648000" lon="-2.600703000">
        <ele>770.20</ele>
        <time>2012-11-17T11:50:59Z</time>
      </trkpt>
      <trkpt lat="42.385705000" lon="-2.600721000">
        <ele>770.00</ele>
        <time>2012-11-17T11:51:01Z</time>
      </trkpt>
      <trkpt lat="42.386893000" lon="-2.600919000">
        <ele>761.10</ele>
        <time>2012-11-17T11:51:18Z</time>
      </trkpt>
      <trkpt lat="42.386936000" lon="-2.600926000">
        <ele>760.60</ele>
        <time>2012-11-17T11:51:20Z</time>
      </trkpt>
      <trkpt lat="42.386963000" lon="-2.600948000">
        <ele>760.20</ele>
        <time>2012-11-17T11:51:20Z</time>
      </trkpt>
      <trkpt lat="42.386978000" lon="-2.600984000">
        <ele>760.00</ele>
        <time>2012-11-17T11:51:22Z</time>
      </trkpt>
      <trkpt lat="42.386981000" lon="-2.601034000">
        <ele>759.80</ele>
        <time>2012-11-17T11:51:23Z</time>
      </trkpt>
      <trkpt lat="42.386881000" lon="-2.601848000">
        <ele>762.10</ele>
        <time>2012-11-17T11:51:30Z</time>
      </trkpt>
      <trkpt lat="42.386883000" lon="-2.602101000">
        <ele>762.90</ele>
        <time>2012-11-17T11:51:32Z</time>
      </trkpt>
      <trkpt lat="42.386898000" lon="-2.602223000">
        <ele>763.30</ele>
        <time>2012-11-17T11:51:34Z</time>
      </trkpt>
      <trkpt lat="42.387018000" lon="-2.602619000">
        <ele>763.50</ele>
        <time>2012-11-17T11:51:37Z</time>
      </trkpt>
      <trkpt lat="42.387055000" lon="-2.602694000">
        <ele>763.40</ele>
        <time>2012-11-17T11:51:39Z</time>
      </trkpt>
      <trkpt lat="42.387106000" lon="-2.602764000">
        <ele>763.10</ele>
        <time>2012-11-17T11:51:39Z</time>
      </trkpt>
      <trkpt lat="42.387168000" lon="-2.602816000">
        <ele>762.70</ele>
        <time>2012-11-17T11:51:41Z</time>
      </trkpt>
      <trkpt lat="42.387235000" lon="-2.602853000">
        <ele>762.30</ele>
        <time>2012-11-17T11:51:41Z</time>
      </trkpt>
      <trkpt lat="42.387676000" lon="-2.602971000">
        <ele>758.50</ele>
        <time>2012-11-17T11:51:48Z</time>
      </trkpt>
      <trkpt lat="42.387743000" lon="-2.602973000">
        <ele>757.90</ele>
        <time>2012-11-17T11:51:49Z</time>
      </trkpt>
      <trkpt lat="42.387996000" lon="-2.602963000">
        <ele>755.10</ele>
        <time>2012-11-17T11:51:53Z</time>
      </trkpt>
      <trkpt lat="42.388178000" lon="-2.602986000">
        <ele>753.80</ele>
        <time>2012-11-17T11:51:56Z</time>
      </trkpt>
      <trkpt lat="42.388396000" lon="-2.603074000">
        <ele>753.40</ele>
        <time>2012-11-17T11:52:00Z</time>
      </trkpt>
      <trkpt lat="42.388441000" lon="-2.603111000">
        <ele>753.50</ele>
        <time>2012-11-17T11:52:02Z</time>
      </trkpt>
      <trkpt lat="42.388546000" lon="-2.603299000">
        <ele>755.20</ele>
        <time>2012-11-17T11:52:05Z</time>
      </trkpt>
      <trkpt lat="42.388873000" lon="-2.604153000">
        <ele>762.20</ele>
        <time>2012-11-17T11:52:14Z</time>
      </trkpt>
      <trkpt lat="42.389028000" lon="-2.604406000">
        <ele>759.60</ele>
        <time>2012-11-17T11:52:17Z</time>
      </trkpt>
      <trkpt lat="42.389060000" lon="-2.604494000">
        <ele>758.90</ele>
        <time>2012-11-17T11:52:17Z</time>
      </trkpt>
      <trkpt lat="42.389153000" lon="-2.605181000">
        <ele>756.20</ele>
        <time>2012-11-17T11:52:24Z</time>
      </trkpt>
      <trkpt lat="42.389193000" lon="-2.605301000">
        <ele>755.20</ele>
        <time>2012-11-17T11:52:24Z</time>
      </trkpt>
      <trkpt lat="42.389491000" lon="-2.605768000">
        <ele>747.60</ele>
        <time>2012-11-17T11:52:30Z</time>
      </trkpt>
      <trkpt lat="42.389626000" lon="-2.605914000">
        <ele>744.70</ele>
        <time>2012-11-17T11:52:31Z</time>
      </trkpt>
      <trkpt lat="42.389703000" lon="-2.605969000">
        <ele>743.80</ele>
        <time>2012-11-17T11:52:33Z</time>
      </trkpt>
      <trkpt lat="42.389780000" lon="-2.605993000">
        <ele>743.00</ele>
        <time>2012-11-17T11:52:33Z</time>
      </trkpt>
      <trkpt lat="42.390085000" lon="-2.605963000">
        <ele>738.80</ele>
        <time>2012-11-17T11:52:38Z</time>
      </trkpt>
      <trkpt lat="42.390161000" lon="-2.605966000">
        <ele>737.70</ele>
        <time>2012-11-17T11:52:38Z</time>
      </trkpt>
      <trkpt lat="42.390385000" lon="-2.605953000">
        <ele>734.50</ele>
        <time>2012-11-17T11:52:42Z</time>
      </trkpt>
      <trkpt lat="42.390510000" lon="-2.605909000">
        <ele>732.90</ele>
        <time>2012-11-17T11:52:43Z</time>
      </trkpt>
      <trkpt lat="42.390963000" lon="-2.605676000">
        <ele>730.00</ele>
        <time>2012-11-17T11:52:50Z</time>
      </trkpt>
      <trkpt lat="42.392000000" lon="-2.604944000">
        <ele>724.10</ele>
        <time>2012-11-17T11:53:06Z</time>
      </trkpt>
      <trkpt lat="42.392068000" lon="-2.604924000">
        <ele>724.20</ele>
        <time>2012-11-17T11:53:06Z</time>
      </trkpt>
      <trkpt lat="42.392290000" lon="-2.604903000">
        <ele>723.80</ele>
        <time>2012-11-17T11:53:10Z</time>
      </trkpt>
      <trkpt lat="42.392531000" lon="-2.604931000">
        <ele>723.40</ele>
        <time>2012-11-17T11:53:13Z</time>
      </trkpt>
      <trkpt lat="42.393060000" lon="-2.605218000">
        <ele>723.00</ele>
        <time>2012-11-17T11:53:18Z</time>
      </trkpt>
      <trkpt lat="42.393373000" lon="-2.605264000">
        <ele>721.30</ele>
        <time>2012-11-17T11:53:22Z</time>
      </trkpt>
      <trkpt lat="42.393473000" lon="-2.605263000">
        <ele>720.60</ele>
        <time>2012-11-17T11:53:22Z</time>
      </trkpt>
      <trkpt lat="42.394818000" lon="-2.605686000">
        <ele>709.80</ele>
        <time>2012-11-17T11:53:37Z</time>
      </trkpt>
      <trkpt lat="42.394905000" lon="-2.605694000">
        <ele>709.00</ele>
        <time>2012-11-17T11:53:39Z</time>
      </trkpt>
      <trkpt lat="42.394983000" lon="-2.605688000">
        <ele>708.20</ele>
        <time>2012-11-17T11:53:39Z</time>
      </trkpt>
      <trkpt lat="42.395055000" lon="-2.605663000">
        <ele>707.30</ele>
        <time>2012-11-17T11:53:41Z</time>
      </trkpt>
      <trkpt lat="42.395171000" lon="-2.605569000">
        <ele>705.60</ele>
        <time>2012-11-17T11:53:43Z</time>
      </trkpt>
      <trkpt lat="42.395465000" lon="-2.605246000">
        <ele>700.10</ele>
        <time>2012-11-17T11:53:50Z</time>
      </trkpt>
      <trkpt lat="42.398626000" lon="-2.603103000">
        <ele>681.80</ele>
        <time>2012-11-17T11:54:44Z</time>
      </trkpt>
      <trkpt lat="42.398685000" lon="-2.603078000">
        <ele>681.60</ele>
        <time>2012-11-17T11:54:45Z</time>
      </trkpt>
      <trkpt lat="42.399421000" lon="-2.602683000">
        <ele>678.40</ele>
        <time>2012-11-17T11:54:58Z</time>
      </trkpt>
      <trkpt lat="42.399463000" lon="-2.602611000">
        <ele>678.10</ele>
        <time>2012-11-17T11:54:59Z</time>
      </trkpt>
      <trkpt lat="42.399561000" lon="-2.602484000">
        <ele>677.60</ele>
        <time>2012-11-17T11:55:01Z</time>
      </trkpt>
      <trkpt lat="42.399606000" lon="-2.602441000">
        <ele>677.40</ele>
        <time>2012-11-17T11:55:01Z</time>
      </trkpt>
      <trkpt lat="42.399730000" lon="-2.602251000">
        <ele>676.30</ele>
        <time>2012-11-17T11:55:06Z</time>
      </trkpt>
      <trkpt lat="42.399815000" lon="-2.602153000">
        <ele>675.60</ele>
        <time>2012-11-17T11:55:10Z</time>
      </trkpt>
      <trkpt lat="42.399831000" lon="-2.602139000">
        <ele>675.50</ele>
        <time>2012-11-17T11:55:13Z</time>
      </trkpt>
      <trkpt lat="42.399835000" lon="-2.602136000">
        <ele>675.40</ele>
        <time>2012-11-17T11:55:15Z</time>
      </trkpt>
      <trkpt lat="42.399840000" lon="-2.602129000">
        <ele>675.40</ele>
        <time>2012-11-17T11:55:20Z</time>
      </trkpt>
      <trkpt lat="42.399841000" lon="-2.602124000">
        <ele>675.40</ele>
        <time>2012-11-17T11:55:22Z</time>
      </trkpt>
      <trkpt lat="42.399845000" lon="-2.602123000">
        <ele>675.40</ele>
        <time>2012-11-17T11:55:24Z</time>
      </trkpt>
      <trkpt lat="42.399853000" lon="-2.602116000">
        <ele>675.40</ele>
        <time>2012-11-17T11:55:31Z</time>
      </trkpt>
      <trkpt lat="42.399853000" lon="-2.602116000">
        <ele>675.40</ele>
        <time>2012-11-17T11:55:32Z</time>
      </trkpt>
      <trkpt lat="42.399856000" lon="-2.602114000">
        <ele>675.30</ele>
        <time>2012-11-17T11:55:34Z</time>
      </trkpt>
      <trkpt lat="42.399851000" lon="-2.602113000">
        <ele>675.30</ele>
        <time>2012-11-17T11:55:50Z</time>
      </trkpt>
      <trkpt lat="42.399850000" lon="-2.602114000">
        <ele>675.30</ele>
        <time>2012-11-17T11:56:00Z</time>
      </trkpt>
      <trkpt lat="42.399850000" lon="-2.602116000">
        <ele>675.40</ele>
        <time>2012-11-17T11:56:00Z</time>
      </trkpt>
      <trkpt lat="42.399841000" lon="-2.602116000">
        <ele>675.40</ele>
        <time>2012-11-17T11:56:11Z</time>
      </trkpt>
      <trkpt lat="42.399841000" lon="-2.602118000">
        <ele>675.40</ele>
        <time>2012-11-17T11:56:11Z</time>
      </trkpt>
      <trkpt lat="42.399846000" lon="-2.602119000">
        <ele>675.40</ele>
        <time>2012-11-17T11:56:23Z</time>
      </trkpt>
      <trkpt lat="42.399845000" lon="-2.602121000">
        <ele>675.40</ele>
        <time>2012-11-17T11:56:28Z</time>
      </trkpt>
      <trkpt lat="42.399840000" lon="-2.602121000">
        <ele>675.40</ele>
        <time>2012-11-17T11:56:37Z</time>
      </trkpt>
      <trkpt lat="42.399840000" lon="-2.602119000">
        <ele>675.40</ele>
        <time>2012-11-17T11:56:39Z</time>
      </trkpt>
      <trkpt lat="42.399825000" lon="-2.602116000">
        <ele>675.40</ele>
        <time>2012-11-17T11:56:58Z</time>
      </trkpt>
      <trkpt lat="42.399825000" lon="-2.602114000">
        <ele>675.40</ele>
        <time>2012-11-17T11:56:58Z</time>
      </trkpt>
      <trkpt lat="42.399820000" lon="-2.602113000">
        <ele>675.40</ele>
        <time>2012-11-17T11:57:06Z</time>
      </trkpt>
      <trkpt lat="42.399820000" lon="-2.602111000">
        <ele>675.40</ele>
        <time>2012-11-17T11:57:08Z</time>
      </trkpt>
      <trkpt lat="42.399818000" lon="-2.602111000">
        <ele>675.40</ele>
        <time>2012-11-17T11:57:12Z</time>
      </trkpt>
      <trkpt lat="42.399818000" lon="-2.602108000">
        <ele>675.40</ele>
        <time>2012-11-17T11:57:17Z</time>
      </trkpt>
      <trkpt lat="42.399825000" lon="-2.602104000">
        <ele>675.40</ele>
        <time>2012-11-17T11:57:26Z</time>
      </trkpt>
      <trkpt lat="42.399845000" lon="-2.602104000">
        <ele>675.40</ele>
        <time>2012-11-17T11:57:38Z</time>
      </trkpt>
      <trkpt lat="42.399848000" lon="-2.602103000">
        <ele>675.30</ele>
        <time>2012-11-17T11:57:40Z</time>
      </trkpt>
      <trkpt lat="42.399870000" lon="-2.602104000">
        <ele>675.30</ele>
        <time>2012-11-17T11:57:52Z</time>
      </trkpt>
      <trkpt lat="42.399871000" lon="-2.602106000">
        <ele>675.30</ele>
        <time>2012-11-17T11:57:52Z</time>
      </trkpt>
      <trkpt lat="42.399876000" lon="-2.602106000">
        <ele>675.30</ele>
        <time>2012-11-17T11:57:57Z</time>
      </trkpt>
      <trkpt lat="42.399876000" lon="-2.602108000">
        <ele>675.30</ele>
        <time>2012-11-17T11:57:59Z</time>
      </trkpt>
      <trkpt lat="42.399880000" lon="-2.602108000">
        <ele>675.30</ele>
        <time>2012-11-17T11:58:02Z</time>
      </trkpt>
      <trkpt lat="42.399878000" lon="-2.602109000">
        <ele>675.30</ele>
        <time>2012-11-17T11:58:06Z</time>
      </trkpt>
      <trkpt lat="42.399880000" lon="-2.602109000">
        <ele>675.30</ele>
        <time>2012-11-17T11:58:09Z</time>
      </trkpt>
      <trkpt lat="42.399881000" lon="-2.602113000">
        <ele>675.30</ele>
        <time>2012-11-17T11:58:14Z</time>
      </trkpt>
      <trkpt lat="42.399886000" lon="-2.602113000">
        <ele>675.30</ele>
        <time>2012-11-17T11:58:16Z</time>
      </trkpt>
      <trkpt lat="42.399896000" lon="-2.602114000">
        <ele>675.20</ele>
        <time>2012-11-17T11:58:16Z</time>
      </trkpt>
      <trkpt lat="42.399908000" lon="-2.602121000">
        <ele>675.20</ele>
        <time>2012-11-17T11:58:18Z</time>
      </trkpt>
      <trkpt lat="42.399913000" lon="-2.602129000">
        <ele>675.20</ele>
        <time>2012-11-17T11:58:18Z</time>
      </trkpt>
      <trkpt lat="42.399915000" lon="-2.602128000">
        <ele>675.20</ele>
        <time>2012-11-17T11:58:21Z</time>
      </trkpt>
      <trkpt lat="42.399916000" lon="-2.602124000">
        <ele>675.20</ele>
        <time>2012-11-17T11:58:23Z</time>
      </trkpt>
      <trkpt lat="42.399918000" lon="-2.602124000">
        <ele>675.20</ele>
        <time>2012-11-17T11:58:23Z</time>
      </trkpt>
      <trkpt lat="42.399918000" lon="-2.602126000">
        <ele>675.20</ele>
        <time>2012-11-17T11:58:25Z</time>
      </trkpt>
      <trkpt lat="42.399916000" lon="-2.602126000">
        <ele>675.20</ele>
        <time>2012-11-17T11:58:25Z</time>
      </trkpt>
      <trkpt lat="42.399915000" lon="-2.602128000">
        <ele>675.20</ele>
        <time>2012-11-17T11:58:28Z</time>
      </trkpt>
      <trkpt lat="42.399911000" lon="-2.602128000">
        <ele>675.20</ele>
        <time>2012-11-17T11:58:30Z</time>
      </trkpt>
      <trkpt lat="42.399906000" lon="-2.602124000">
        <ele>675.20</ele>
        <time>2012-11-17T11:58:34Z</time>
      </trkpt>
      <trkpt lat="42.399900000" lon="-2.602123000">
        <ele>675.20</ele>
        <time>2012-11-17T11:58:37Z</time>
      </trkpt>
      <trkpt lat="42.399893000" lon="-2.602118000">
        <ele>675.20</ele>
        <time>2012-11-17T11:58:41Z</time>
      </trkpt>
      <trkpt lat="42.399890000" lon="-2.602113000">
        <ele>675.20</ele>
        <time>2012-11-17T11:58:42Z</time>
      </trkpt>
      <trkpt lat="42.399886000" lon="-2.602111000">
        <ele>675.20</ele>
        <time>2012-11-17T11:58:44Z</time>
      </trkpt>
      <trkpt lat="42.399885000" lon="-2.602108000">
        <ele>675.20</ele>
        <time>2012-11-17T11:58:44Z</time>
      </trkpt>
      <trkpt lat="42.399881000" lon="-2.602104000">
        <ele>675.30</ele>
        <time>2012-11-17T11:58:46Z</time>
      </trkpt>
      <trkpt lat="42.399871000" lon="-2.602094000">
        <ele>675.30</ele>
        <time>2012-11-17T11:58:49Z</time>
      </trkpt>
      <trkpt lat="42.399870000" lon="-2.602091000">
        <ele>675.30</ele>
        <time>2012-11-17T11:58:51Z</time>
      </trkpt>
      <trkpt lat="42.399866000" lon="-2.602089000">
        <ele>675.30</ele>
        <time>2012-11-17T11:58:51Z</time>
      </trkpt>
      <trkpt lat="42.399865000" lon="-2.602086000">
        <ele>675.30</ele>
        <time>2012-11-17T11:58:53Z</time>
      </trkpt>
      <trkpt lat="42.399856000" lon="-2.602079000">
        <ele>675.30</ele>
        <time>2012-11-17T11:58:56Z</time>
      </trkpt>
      <trkpt lat="42.399855000" lon="-2.602076000">
        <ele>675.30</ele>
        <time>2012-11-17T11:58:56Z</time>
      </trkpt>
      <trkpt lat="42.399851000" lon="-2.602073000">
        <ele>675.20</ele>
        <time>2012-11-17T11:58:58Z</time>
      </trkpt>
      <trkpt lat="42.399850000" lon="-2.602069000">
        <ele>675.20</ele>
        <time>2012-11-17T11:58:58Z</time>
      </trkpt>
      <trkpt lat="42.399841000" lon="-2.602061000">
        <ele>675.20</ele>
        <time>2012-11-17T11:59:03Z</time>
      </trkpt>
      <trkpt lat="42.399840000" lon="-2.602058000">
        <ele>675.10</ele>
        <time>2012-11-17T11:59:03Z</time>
      </trkpt>
      <trkpt lat="42.399836000" lon="-2.602056000">
        <ele>675.10</ele>
        <time>2012-11-17T11:59:05Z</time>
      </trkpt>
      <trkpt lat="42.399835000" lon="-2.602053000">
        <ele>675.10</ele>
        <time>2012-11-17T11:59:05Z</time>
      </trkpt>
      <trkpt lat="42.399830000" lon="-2.602048000">
        <ele>675.10</ele>
        <time>2012-11-17T11:59:08Z</time>
      </trkpt>
      <trkpt lat="42.399828000" lon="-2.602046000">
        <ele>675.00</ele>
        <time>2012-11-17T11:59:10Z</time>
      </trkpt>
      <trkpt lat="42.399823000" lon="-2.602041000">
        <ele>675.00</ele>
        <time>2012-11-17T11:59:12Z</time>
      </trkpt>
      <trkpt lat="42.399823000" lon="-2.602039000">
        <ele>675.00</ele>
        <time>2012-11-17T11:59:14Z</time>
      </trkpt>
      <trkpt lat="42.399821000" lon="-2.602039000">
        <ele>675.00</ele>
        <time>2012-11-17T11:59:14Z</time>
      </trkpt>
      <trkpt lat="42.399816000" lon="-2.602033000">
        <ele>675.00</ele>
        <time>2012-11-17T11:59:19Z</time>
      </trkpt>
      <trkpt lat="42.399815000" lon="-2.602033000">
        <ele>674.90</ele>
        <time>2012-11-17T11:59:19Z</time>
      </trkpt>
      <trkpt lat="42.399811000" lon="-2.602029000">
        <ele>674.90</ele>
        <time>2012-11-17T11:59:22Z</time>
      </trkpt>
      <trkpt lat="42.399810000" lon="-2.602026000">
        <ele>674.90</ele>
        <time>2012-11-17T11:59:24Z</time>
      </trkpt>
      <trkpt lat="42.399806000" lon="-2.602024000">
        <ele>674.90</ele>
        <time>2012-11-17T11:59:26Z</time>
      </trkpt>
      <trkpt lat="42.399803000" lon="-2.602019000">
        <ele>674.90</ele>
        <time>2012-11-17T11:59:29Z</time>
      </trkpt>
      <trkpt lat="42.399803000" lon="-2.602018000">
        <ele>674.80</ele>
        <time>2012-11-17T11:59:29Z</time>
      </trkpt>
      <trkpt lat="42.399795000" lon="-2.602008000">
        <ele>674.80</ele>
        <time>2012-11-17T11:59:36Z</time>
      </trkpt>
      <trkpt lat="42.399793000" lon="-2.602008000">
        <ele>674.80</ele>
        <time>2012-11-17T11:59:38Z</time>
      </trkpt>
      <trkpt lat="42.399793000" lon="-2.602006000">
        <ele>674.70</ele>
        <time>2012-11-17T11:59:38Z</time>
      </trkpt>
      <trkpt lat="42.399790000" lon="-2.601996000">
        <ele>674.70</ele>
        <time>2012-11-17T11:59:45Z</time>
      </trkpt>
      <trkpt lat="42.399800000" lon="-2.601999000">
        <ele>674.70</ele>
        <time>2012-11-17T11:59:47Z</time>
      </trkpt>
      <trkpt lat="42.399801000" lon="-2.602003000">
        <ele>674.70</ele>
        <time>2012-11-17T11:59:50Z</time>
      </trkpt>
      <trkpt lat="42.399805000" lon="-2.602003000">
        <ele>674.70</ele>
        <time>2012-11-17T11:59:54Z</time>
      </trkpt>
      <trkpt lat="42.399810000" lon="-2.602008000">
        <ele>674.70</ele>
        <time>2012-11-17T11:59:59Z</time>
      </trkpt>
      <trkpt lat="42.399818000" lon="-2.602009000">
        <ele>674.70</ele>
        <time>2012-11-17T12:00:06Z</time>
      </trkpt>
      <trkpt lat="42.399821000" lon="-2.602016000">
        <ele>674.70</ele>
        <time>2012-11-17T12:00:09Z</time>
      </trkpt>
      <trkpt lat="42.399823000" lon="-2.602016000">
        <ele>674.80</ele>
        <time>2012-11-17T12:00:11Z</time>
      </trkpt>
      <trkpt lat="42.399830000" lon="-2.602018000">
        <ele>674.80</ele>
        <time>2012-11-17T12:00:16Z</time>
      </trkpt>
      <trkpt lat="42.399830000" lon="-2.602016000">
        <ele>674.80</ele>
        <time>2012-11-17T12:00:16Z</time>
      </trkpt>
      <trkpt lat="42.399831000" lon="-2.602016000">
        <ele>674.80</ele>
        <time>2012-11-17T12:00:18Z</time>
      </trkpt>
      <trkpt lat="42.399890000" lon="-2.601988000">
        <ele>674.50</ele>
        <time>2012-11-17T12:00:22Z</time>
      </trkpt>
      <trkpt lat="42.399923000" lon="-2.601974000">
        <ele>674.30</ele>
        <time>2012-11-17T12:00:25Z</time>
      </trkpt>
      <trkpt lat="42.400185000" lon="-2.601791000">
        <ele>672.70</ele>
        <time>2012-11-17T12:00:37Z</time>
      </trkpt>
      <trkpt lat="42.400200000" lon="-2.601788000">
        <ele>672.70</ele>
        <time>2012-11-17T12:00:37Z</time>
      </trkpt>
      <trkpt lat="42.400243000" lon="-2.601766000">
        <ele>672.50</ele>
        <time>2012-11-17T12:00:39Z</time>
      </trkpt>
      <trkpt lat="42.400300000" lon="-2.601761000">
        <ele>672.40</ele>
        <time>2012-11-17T12:00:42Z</time>
      </trkpt>
      <trkpt lat="42.400320000" lon="-2.601771000">
        <ele>672.50</ele>
        <time>2012-11-17T12:00:44Z</time>
      </trkpt>
      <trkpt lat="42.400340000" lon="-2.601788000">
        <ele>672.50</ele>
        <time>2012-11-17T12:00:44Z</time>
      </trkpt>
      <trkpt lat="42.400396000" lon="-2.601848000">
        <ele>672.70</ele>
        <time>2012-11-17T12:00:46Z</time>
      </trkpt>
      <trkpt lat="42.400466000" lon="-2.601961000">
        <ele>672.80</ele>
        <time>2012-11-17T12:00:48Z</time>
      </trkpt>
      <trkpt lat="42.400495000" lon="-2.602036000">
        <ele>672.70</ele>
        <time>2012-11-17T12:00:49Z</time>
      </trkpt>
      <trkpt lat="42.400516000" lon="-2.602121000">
        <ele>672.50</ele>
        <time>2012-11-17T12:00:51Z</time>
      </trkpt>
      <trkpt lat="42.400535000" lon="-2.602304000">
        <ele>671.70</ele>
        <time>2012-11-17T12:00:53Z</time>
      </trkpt>
      <trkpt lat="42.400530000" lon="-2.602399000">
        <ele>671.40</ele>
        <time>2012-11-17T12:00:53Z</time>
      </trkpt>
      <trkpt lat="42.400333000" lon="-2.603361000">
        <ele>668.40</ele>
        <time>2012-11-17T12:01:03Z</time>
      </trkpt>
      <trkpt lat="42.400293000" lon="-2.603833000">
        <ele>664.80</ele>
        <time>2012-11-17T12:01:10Z</time>
      </trkpt>
      <trkpt lat="42.400298000" lon="-2.603923000">
        <ele>664.10</ele>
        <time>2012-11-17T12:01:12Z</time>
      </trkpt>
      <trkpt lat="42.400320000" lon="-2.604028000">
        <ele>663.30</ele>
        <time>2012-11-17T12:01:14Z</time>
      </trkpt>
      <trkpt lat="42.400368000" lon="-2.604166000">
        <ele>662.10</ele>
        <time>2012-11-17T12:01:16Z</time>
      </trkpt>
      <trkpt lat="42.400675000" lon="-2.605544000">
        <ele>651.50</ele>
        <time>2012-11-17T12:01:28Z</time>
      </trkpt>
      <trkpt lat="42.400815000" lon="-2.605893000">
        <ele>650.80</ele>
        <time>2012-11-17T12:01:31Z</time>
      </trkpt>
      <trkpt lat="42.400936000" lon="-2.606088000">
        <ele>650.50</ele>
        <time>2012-11-17T12:01:33Z</time>
      </trkpt>
      <trkpt lat="42.401291000" lon="-2.606421000">
        <ele>649.30</ele>
        <time>2012-11-17T12:01:38Z</time>
      </trkpt>
      <trkpt lat="42.401580000" lon="-2.606576000">
        <ele>648.80</ele>
        <time>2012-11-17T12:01:42Z</time>
      </trkpt>
      <trkpt lat="42.402321000" lon="-2.606836000">
        <ele>647.00</ele>
        <time>2012-11-17T12:01:54Z</time>
      </trkpt>
      <trkpt lat="42.402381000" lon="-2.606871000">
        <ele>646.80</ele>
        <time>2012-11-17T12:01:54Z</time>
      </trkpt>
      <trkpt lat="42.402960000" lon="-2.607538000">
        <ele>641.60</ele>
        <time>2012-11-17T12:02:06Z</time>
      </trkpt>
      <trkpt lat="42.402998000" lon="-2.607566000">
        <ele>641.30</ele>
        <time>2012-11-17T12:02:08Z</time>
      </trkpt>
      <trkpt lat="42.403036000" lon="-2.607583000">
        <ele>641.00</ele>
        <time>2012-11-17T12:02:08Z</time>
      </trkpt>
      <trkpt lat="42.403115000" lon="-2.607594000">
        <ele>640.50</ele>
        <time>2012-11-17T12:02:11Z</time>
      </trkpt>
      <trkpt lat="42.403206000" lon="-2.607581000">
        <ele>639.80</ele>
        <time>2012-11-17T12:02:13Z</time>
      </trkpt>
      <trkpt lat="42.403260000" lon="-2.607551000">
        <ele>639.50</ele>
        <time>2012-11-17T12:02:15Z</time>
      </trkpt>
      <trkpt lat="42.403598000" lon="-2.607194000">
        <ele>638.00</ele>
        <time>2012-11-17T12:02:25Z</time>
      </trkpt>
      <trkpt lat="42.403691000" lon="-2.607044000">
        <ele>637.50</ele>
        <time>2012-11-17T12:02:27Z</time>
      </trkpt>
      <trkpt lat="42.403988000" lon="-2.606289000">
        <ele>634.10</ele>
        <time>2012-11-17T12:02:34Z</time>
      </trkpt>
      <trkpt lat="42.404050000" lon="-2.606183000">
        <ele>633.40</ele>
        <time>2012-11-17T12:02:34Z</time>
      </trkpt>
      <trkpt lat="42.404123000" lon="-2.606091000">
        <ele>632.60</ele>
        <time>2012-11-17T12:02:36Z</time>
      </trkpt>
      <trkpt lat="42.404206000" lon="-2.606016000">
        <ele>631.80</ele>
        <time>2012-11-17T12:02:36Z</time>
      </trkpt>
      <trkpt lat="42.404775000" lon="-2.605749000">
        <ele>626.90</ele>
        <time>2012-11-17T12:02:43Z</time>
      </trkpt>
      <trkpt lat="42.405171000" lon="-2.605714000">
        <ele>624.10</ele>
        <time>2012-11-17T12:02:46Z</time>
      </trkpt>
      <trkpt lat="42.405270000" lon="-2.605716000">
        <ele>623.40</ele>
        <time>2012-11-17T12:02:48Z</time>
      </trkpt>
      <trkpt lat="42.405366000" lon="-2.605704000">
        <ele>622.80</ele>
        <time>2012-11-17T12:02:48Z</time>
      </trkpt>
      <trkpt lat="42.405915000" lon="-2.605451000">
        <ele>620.20</ele>
        <time>2012-11-17T12:02:55Z</time>
      </trkpt>
      <trkpt lat="42.406003000" lon="-2.605379000">
        <ele>620.10</ele>
        <time>2012-11-17T12:02:55Z</time>
      </trkpt>
      <trkpt lat="42.406175000" lon="-2.605204000">
        <ele>619.10</ele>
        <time>2012-11-17T12:02:58Z</time>
      </trkpt>
      <trkpt lat="42.406275000" lon="-2.605149000">
        <ele>618.70</ele>
        <time>2012-11-17T12:02:58Z</time>
      </trkpt>
      <trkpt lat="42.406701000" lon="-2.605028000">
        <ele>616.60</ele>
        <time>2012-11-17T12:03:02Z</time>
      </trkpt>
      <trkpt lat="42.407013000" lon="-2.605084000">
        <ele>615.10</ele>
        <time>2012-11-17T12:03:05Z</time>
      </trkpt>
      <trkpt lat="42.407641000" lon="-2.605284000">
        <ele>612.30</ele>
        <time>2012-11-17T12:03:12Z</time>
      </trkpt>
      <trkpt lat="42.407958000" lon="-2.605326000">
        <ele>611.00</ele>
        <time>2012-11-17T12:03:16Z</time>
      </trkpt>
      <trkpt lat="42.408233000" lon="-2.605446000">
        <ele>611.00</ele>
        <time>2012-11-17T12:03:21Z</time>
      </trkpt>
      <trkpt lat="42.408300000" lon="-2.605454000">
        <ele>611.10</ele>
        <time>2012-11-17T12:03:21Z</time>
      </trkpt>
      <trkpt lat="42.408356000" lon="-2.605446000">
        <ele>611.10</ele>
        <time>2012-11-17T12:03:23Z</time>
      </trkpt>
      <trkpt lat="42.408428000" lon="-2.605421000">
        <ele>611.00</ele>
        <time>2012-11-17T12:03:24Z</time>
      </trkpt>
      <trkpt lat="42.408845000" lon="-2.605381000">
        <ele>610.50</ele>
        <time>2012-11-17T12:03:35Z</time>
      </trkpt>
      <trkpt lat="42.409005000" lon="-2.605386000">
        <ele>609.90</ele>
        <time>2012-11-17T12:03:38Z</time>
      </trkpt>
      <trkpt lat="42.409453000" lon="-2.605369000">
        <ele>607.80</ele>
        <time>2012-11-17T12:03:47Z</time>
      </trkpt>
      <trkpt lat="42.409723000" lon="-2.605418000">
        <ele>606.90</ele>
        <time>2012-11-17T12:03:52Z</time>
      </trkpt>
      <trkpt lat="42.409940000" lon="-2.605399000">
        <ele>606.50</ele>
        <time>2012-11-17T12:03:58Z</time>
      </trkpt>
      <trkpt lat="42.409985000" lon="-2.605409000">
        <ele>606.50</ele>
        <time>2012-11-17T12:03:59Z</time>
      </trkpt>
      <trkpt lat="42.410065000" lon="-2.605449000">
        <ele>606.50</ele>
        <time>2012-11-17T12:04:01Z</time>
      </trkpt>
      <trkpt lat="42.410318000" lon="-2.605668000">
        <ele>606.50</ele>
        <time>2012-11-17T12:04:08Z</time>
      </trkpt>
      <trkpt lat="42.410400000" lon="-2.605703000">
        <ele>606.40</ele>
        <time>2012-11-17T12:04:10Z</time>
      </trkpt>
      <trkpt lat="42.410603000" lon="-2.605744000">
        <ele>605.30</ele>
        <time>2012-11-17T12:04:13Z</time>
      </trkpt>
      <trkpt lat="42.410840000" lon="-2.605861000">
        <ele>603.50</ele>
        <time>2012-11-17T12:04:17Z</time>
      </trkpt>
      <trkpt lat="42.411435000" lon="-2.605923000">
        <ele>598.80</ele>
        <time>2012-11-17T12:04:25Z</time>
      </trkpt>
      <trkpt lat="42.412263000" lon="-2.605843000">
        <ele>594.40</ele>
        <time>2012-11-17T12:04:36Z</time>
      </trkpt>
      <trkpt lat="42.412351000" lon="-2.605854000">
        <ele>593.90</ele>
        <time>2012-11-17T12:04:36Z</time>
      </trkpt>
      <trkpt lat="42.413815000" lon="-2.606638000">
        <ele>579.30</ele>
        <time>2012-11-17T12:04:52Z</time>
      </trkpt>
      <trkpt lat="42.413855000" lon="-2.606639000">
        <ele>579.20</ele>
        <time>2012-11-17T12:04:53Z</time>
      </trkpt>
      <trkpt lat="42.413891000" lon="-2.606624000">
        <ele>579.10</ele>
        <time>2012-11-17T12:04:53Z</time>
      </trkpt>
      <trkpt lat="42.413915000" lon="-2.606594000">
        <ele>579.10</ele>
        <time>2012-11-17T12:04:55Z</time>
      </trkpt>
      <trkpt lat="42.419886000" lon="-2.592094000">
        <ele>555.40</ele>
        <time>2012-11-17T12:08:00Z</time>
      </trkpt>
      <trkpt lat="42.419905000" lon="-2.592029000">
        <ele>555.30</ele>
        <time>2012-11-17T12:08:01Z</time>
      </trkpt>
      <trkpt lat="42.420303000" lon="-2.590603000">
        <ele>554.40</ele>
        <time>2012-11-17T12:08:22Z</time>
      </trkpt>
      <trkpt lat="42.420298000" lon="-2.590549000">
        <ele>554.40</ele>
        <time>2012-11-17T12:08:24Z</time>
      </trkpt>
      <trkpt lat="42.420286000" lon="-2.590499000">
        <ele>554.40</ele>
        <time>2012-11-17T12:08:24Z</time>
      </trkpt>
      <trkpt lat="42.420240000" lon="-2.590414000">
        <ele>554.60</ele>
        <time>2012-11-17T12:08:26Z</time>
      </trkpt>
      <trkpt lat="42.420211000" lon="-2.590383000">
        <ele>554.80</ele>
        <time>2012-11-17T12:08:28Z</time>
      </trkpt>
      <trkpt lat="42.420100000" lon="-2.590294000">
        <ele>555.40</ele>
        <time>2012-11-17T12:08:33Z</time>
      </trkpt>
      <trkpt lat="42.420081000" lon="-2.590284000">
        <ele>555.50</ele>
        <time>2012-11-17T12:08:33Z</time>
      </trkpt>
      <trkpt lat="42.420018000" lon="-2.590268000">
        <ele>555.90</ele>
        <time>2012-11-17T12:08:38Z</time>
      </trkpt>
      <trkpt lat="42.420005000" lon="-2.590254000">
        <ele>555.90</ele>
        <time>2012-11-17T12:08:38Z</time>
      </trkpt>
      <trkpt lat="42.419995000" lon="-2.590236000">
        <ele>556.00</ele>
        <time>2012-11-17T12:08:40Z</time>
      </trkpt>
      <trkpt lat="42.419988000" lon="-2.590208000">
        <ele>556.10</ele>
        <time>2012-11-17T12:08:40Z</time>
      </trkpt>
      <trkpt lat="42.419986000" lon="-2.590171000">
        <ele>556.10</ele>
        <time>2012-11-17T12:08:42Z</time>
      </trkpt>
      <trkpt lat="42.419993000" lon="-2.590134000">
        <ele>556.10</ele>
        <time>2012-11-17T12:08:43Z</time>
      </trkpt>
      <trkpt lat="42.420010000" lon="-2.590101000">
        <ele>556.10</ele>
        <time>2012-11-17T12:08:43Z</time>
      </trkpt>
      <trkpt lat="42.420061000" lon="-2.590041000">
        <ele>556.00</ele>
        <time>2012-11-17T12:08:45Z</time>
      </trkpt>
      <trkpt lat="42.420233000" lon="-2.589874000">
        <ele>555.50</ele>
        <time>2012-11-17T12:08:50Z</time>
      </trkpt>
      <trkpt lat="42.420356000" lon="-2.589678000">
        <ele>555.20</ele>
        <time>2012-11-17T12:08:54Z</time>
      </trkpt>
      <trkpt lat="42.420398000" lon="-2.589636000">
        <ele>555.10</ele>
        <time>2012-11-17T12:08:55Z</time>
      </trkpt>
      <trkpt lat="42.420445000" lon="-2.589603000">
        <ele>555.00</ele>
        <time>2012-11-17T12:08:57Z</time>
      </trkpt>
      <trkpt lat="42.420546000" lon="-2.589548000">
        <ele>554.70</ele>
        <time>2012-11-17T12:08:59Z</time>
      </trkpt>
      <trkpt lat="42.420593000" lon="-2.589503000">
        <ele>554.60</ele>
        <time>2012-11-17T12:08:59Z</time>
      </trkpt>
      <trkpt lat="42.420666000" lon="-2.589383000">
        <ele>554.50</ele>
        <time>2012-11-17T12:09:01Z</time>
      </trkpt>
      <trkpt lat="42.420696000" lon="-2.589314000">
        <ele>554.50</ele>
        <time>2012-11-17T12:09:02Z</time>
      </trkpt>
      <trkpt lat="42.430083000" lon="-2.567966000">
        <ele>505.00</ele>
        <time>2012-11-17T12:12:54Z</time>
      </trkpt>
      <trkpt lat="42.430611000" lon="-2.564728000">
        <ele>502.10</ele>
        <time>2012-11-17T12:13:34Z</time>
      </trkpt>
      <trkpt lat="42.430595000" lon="-2.564676000">
        <ele>502.20</ele>
        <time>2012-11-17T12:13:34Z</time>
      </trkpt>
      <trkpt lat="42.430535000" lon="-2.564601000">
        <ele>502.50</ele>
        <time>2012-11-17T12:13:36Z</time>
      </trkpt>
      <trkpt lat="42.430076000" lon="-2.564251000">
        <ele>502.90</ele>
        <time>2012-11-17T12:13:48Z</time>
      </trkpt>
      <trkpt lat="42.429688000" lon="-2.563729000">
        <ele>502.10</ele>
        <time>2012-11-17T12:14:00Z</time>
      </trkpt>
      <trkpt lat="42.429665000" lon="-2.563683000">
        <ele>502.00</ele>
        <time>2012-11-17T12:14:02Z</time>
      </trkpt>
      <trkpt lat="42.429186000" lon="-2.562519000">
        <ele>503.80</ele>
        <time>2012-11-17T12:14:28Z</time>
      </trkpt>
      <trkpt lat="42.429138000" lon="-2.562391000">
        <ele>503.80</ele>
        <time>2012-11-17T12:14:33Z</time>
      </trkpt>
      <trkpt lat="42.429121000" lon="-2.562319000">
        <ele>503.80</ele>
        <time>2012-11-17T12:14:35Z</time>
      </trkpt>
      <trkpt lat="42.429100000" lon="-2.562191000">
        <ele>503.80</ele>
        <time>2012-11-17T12:14:37Z</time>
      </trkpt>
      <trkpt lat="42.429090000" lon="-2.561983000">
        <ele>504.10</ele>
        <time>2012-11-17T12:14:42Z</time>
      </trkpt>
      <trkpt lat="42.429076000" lon="-2.561893000">
        <ele>504.00</ele>
        <time>2012-11-17T12:14:46Z</time>
      </trkpt>
      <trkpt lat="42.429065000" lon="-2.561718000">
        <ele>503.80</ele>
        <time>2012-11-17T12:14:53Z</time>
      </trkpt>
      <trkpt lat="42.429066000" lon="-2.561681000">
        <ele>503.80</ele>
        <time>2012-11-17T12:14:58Z</time>
      </trkpt>
      <trkpt lat="42.429063000" lon="-2.561669000">
        <ele>503.80</ele>
        <time>2012-11-17T12:15:05Z</time>
      </trkpt>
      <trkpt lat="42.429065000" lon="-2.561668000">
        <ele>503.80</ele>
        <time>2012-11-17T12:15:06Z</time>
      </trkpt>
      <trkpt lat="42.429063000" lon="-2.561664000">
        <ele>503.80</ele>
        <time>2012-11-17T12:15:08Z</time>
      </trkpt>
      <trkpt lat="42.429065000" lon="-2.561663000">
        <ele>503.80</ele>
        <time>2012-11-17T12:15:08Z</time>
      </trkpt>
      <trkpt lat="42.429066000" lon="-2.561648000">
        <ele>503.80</ele>
        <time>2012-11-17T12:15:15Z</time>
      </trkpt>
      <trkpt lat="42.429070000" lon="-2.561644000">
        <ele>503.80</ele>
        <time>2012-11-17T12:15:17Z</time>
      </trkpt>
      <trkpt lat="42.429071000" lon="-2.561643000">
        <ele>503.90</ele>
        <time>2012-11-17T12:15:17Z</time>
      </trkpt>
      <trkpt lat="42.429071000" lon="-2.561639000">
        <ele>503.90</ele>
        <time>2012-11-17T12:15:19Z</time>
      </trkpt>
      <trkpt lat="42.429075000" lon="-2.561636000">
        <ele>503.90</ele>
        <time>2012-11-17T12:15:20Z</time>
      </trkpt>
      <trkpt lat="42.429076000" lon="-2.561631000">
        <ele>503.90</ele>
        <time>2012-11-17T12:15:22Z</time>
      </trkpt>
      <trkpt lat="42.429078000" lon="-2.561631000">
        <ele>504.00</ele>
        <time>2012-11-17T12:15:24Z</time>
      </trkpt>
      <trkpt lat="42.429083000" lon="-2.561626000">
        <ele>504.00</ele>
        <time>2012-11-17T12:15:26Z</time>
      </trkpt>
      <trkpt lat="42.429085000" lon="-2.561624000">
        <ele>504.10</ele>
        <time>2012-11-17T12:15:27Z</time>
      </trkpt>
      <trkpt lat="42.429086000" lon="-2.561616000">
        <ele>504.10</ele>
        <time>2012-11-17T12:15:34Z</time>
      </trkpt>
      <trkpt lat="42.429090000" lon="-2.561611000">
        <ele>504.10</ele>
        <time>2012-11-17T12:15:38Z</time>
      </trkpt>
      <trkpt lat="42.429090000" lon="-2.561609000">
        <ele>504.10</ele>
        <time>2012-11-17T12:15:40Z</time>
      </trkpt>
      <trkpt lat="42.429090000" lon="-2.561609000">
        <ele>504.10</ele>
        <time>2012-11-17T12:15:41Z</time>
      </trkpt>
      <trkpt lat="42.429091000" lon="-2.561604000">
        <ele>504.20</ele>
        <time>2012-11-17T12:15:47Z</time>
      </trkpt>
      <trkpt lat="42.429096000" lon="-2.561601000">
        <ele>504.20</ele>
        <time>2012-11-17T12:15:55Z</time>
      </trkpt>
      <trkpt lat="42.429098000" lon="-2.561601000">
        <ele>504.30</ele>
        <time>2012-11-17T12:15:57Z</time>
      </trkpt>
      <trkpt lat="42.429105000" lon="-2.561606000">
        <ele>504.30</ele>
        <time>2012-11-17T12:16:02Z</time>
      </trkpt>
      <trkpt lat="42.429108000" lon="-2.561606000">
        <ele>504.40</ele>
        <time>2012-11-17T12:16:02Z</time>
      </trkpt>
      <trkpt lat="42.429113000" lon="-2.561606000">
        <ele>504.40</ele>
        <time>2012-11-17T12:16:04Z</time>
      </trkpt>
      <trkpt lat="42.429115000" lon="-2.561606000">
        <ele>504.50</ele>
        <time>2012-11-17T12:16:06Z</time>
      </trkpt>
      <trkpt lat="42.429120000" lon="-2.561608000">
        <ele>504.50</ele>
        <time>2012-11-17T12:16:07Z</time>
      </trkpt>
      <trkpt lat="42.429121000" lon="-2.561608000">
        <ele>504.60</ele>
        <time>2012-11-17T12:16:09Z</time>
      </trkpt>
      <trkpt lat="42.429121000" lon="-2.561599000">
        <ele>504.60</ele>
        <time>2012-11-17T12:16:11Z</time>
      </trkpt>
      <trkpt lat="42.429125000" lon="-2.561583000">
        <ele>504.60</ele>
        <time>2012-11-17T12:16:13Z</time>
      </trkpt>
      <trkpt lat="42.429118000" lon="-2.561566000">
        <ele>504.60</ele>
        <time>2012-11-17T12:16:16Z</time>
      </trkpt>
      <trkpt lat="42.429113000" lon="-2.561538000">
        <ele>504.50</ele>
        <time>2012-11-17T12:16:21Z</time>
      </trkpt>
      <trkpt lat="42.429108000" lon="-2.561506000">
        <ele>504.50</ele>
        <time>2012-11-17T12:16:23Z</time>
      </trkpt>
      <trkpt lat="42.429108000" lon="-2.561486000">
        <ele>504.50</ele>
        <time>2012-11-17T12:16:23Z</time>
      </trkpt>
      <trkpt lat="42.429115000" lon="-2.561443000">
        <ele>504.50</ele>
        <time>2012-11-17T12:16:25Z</time>
      </trkpt>
      <trkpt lat="42.429115000" lon="-2.561421000">
        <ele>504.50</ele>
        <time>2012-11-17T12:16:27Z</time>
      </trkpt>
      <trkpt lat="42.429108000" lon="-2.561403000">
        <ele>504.50</ele>
        <time>2012-11-17T12:16:28Z</time>
      </trkpt>
      <trkpt lat="42.429103000" lon="-2.561369000">
        <ele>504.50</ele>
        <time>2012-11-17T12:16:30Z</time>
      </trkpt>
      <trkpt lat="42.429091000" lon="-2.561334000">
        <ele>504.30</ele>
        <time>2012-11-17T12:16:32Z</time>
      </trkpt>
      <trkpt lat="42.429058000" lon="-2.561199000">
        <ele>503.90</ele>
        <time>2012-11-17T12:16:37Z</time>
      </trkpt>
      <trkpt lat="42.429031000" lon="-2.561156000">
        <ele>503.50</ele>
        <time>2012-11-17T12:16:39Z</time>
      </trkpt>
      <trkpt lat="42.428991000" lon="-2.561113000">
        <ele>503.00</ele>
        <time>2012-11-17T12:16:42Z</time>
      </trkpt>
      <trkpt lat="42.428966000" lon="-2.561061000">
        <ele>502.50</ele>
        <time>2012-11-17T12:16:44Z</time>
      </trkpt>
      <trkpt lat="42.428961000" lon="-2.561034000">
        <ele>502.30</ele>
        <time>2012-11-17T12:16:44Z</time>
      </trkpt>
      <trkpt lat="42.428963000" lon="-2.561008000">
        <ele>502.20</ele>
        <time>2012-11-17T12:16:46Z</time>
      </trkpt>
      <trkpt lat="42.428980000" lon="-2.560934000">
        <ele>502.30</ele>
        <time>2012-11-17T12:16:49Z</time>
      </trkpt>
      <trkpt lat="42.428990000" lon="-2.560909000">
        <ele>502.40</ele>
        <time>2012-11-17T12:16:49Z</time>
      </trkpt>
      <trkpt lat="42.428996000" lon="-2.560899000">
        <ele>502.40</ele>
        <time>2012-11-17T12:16:51Z</time>
      </trkpt>
      <trkpt lat="42.429003000" lon="-2.560893000">
        <ele>502.50</ele>
        <time>2012-11-17T12:16:51Z</time>
      </trkpt>
      <trkpt lat="42.429011000" lon="-2.560879000">
        <ele>502.60</ele>
        <time>2012-11-17T12:16:53Z</time>
      </trkpt>
      <trkpt lat="42.429018000" lon="-2.560869000">
        <ele>502.70</ele>
        <time>2012-11-17T12:16:53Z</time>
      </trkpt>
      <trkpt lat="42.429038000" lon="-2.560854000">
        <ele>503.00</ele>
        <time>2012-11-17T12:16:56Z</time>
      </trkpt>
      <trkpt lat="42.429056000" lon="-2.560838000">
        <ele>503.30</ele>
        <time>2012-11-17T12:17:00Z</time>
      </trkpt>
      <trkpt lat="42.429063000" lon="-2.560833000">
        <ele>503.30</ele>
        <time>2012-11-17T12:17:00Z</time>
      </trkpt>
      <trkpt lat="42.429073000" lon="-2.560824000">
        <ele>503.50</ele>
        <time>2012-11-17T12:17:03Z</time>
      </trkpt>
      <trkpt lat="42.429078000" lon="-2.560821000">
        <ele>503.60</ele>
        <time>2012-11-17T12:17:03Z</time>
      </trkpt>
      <trkpt lat="42.429083000" lon="-2.560818000">
        <ele>503.60</ele>
        <time>2012-11-17T12:17:05Z</time>
      </trkpt>
      <trkpt lat="42.429088000" lon="-2.560814000">
        <ele>503.70</ele>
        <time>2012-11-17T12:17:05Z</time>
      </trkpt>
      <trkpt lat="42.429091000" lon="-2.560811000">
        <ele>503.80</ele>
        <time>2012-11-17T12:17:07Z</time>
      </trkpt>
      <trkpt lat="42.429095000" lon="-2.560808000">
        <ele>503.80</ele>
        <time>2012-11-17T12:17:07Z</time>
      </trkpt>
      <trkpt lat="42.429100000" lon="-2.560804000">
        <ele>503.90</ele>
        <time>2012-11-17T12:17:08Z</time>
      </trkpt>
      <trkpt lat="42.429103000" lon="-2.560801000">
        <ele>503.90</ele>
        <time>2012-11-17T12:17:10Z</time>
      </trkpt>
      <trkpt lat="42.429106000" lon="-2.560798000">
        <ele>504.00</ele>
        <time>2012-11-17T12:17:10Z</time>
      </trkpt>
      <trkpt lat="42.429110000" lon="-2.560796000">
        <ele>504.00</ele>
        <time>2012-11-17T12:17:12Z</time>
      </trkpt>
      <trkpt lat="42.429111000" lon="-2.560793000">
        <ele>504.10</ele>
        <time>2012-11-17T12:17:12Z</time>
      </trkpt>
      <trkpt lat="42.429115000" lon="-2.560791000">
        <ele>504.10</ele>
        <time>2012-11-17T12:17:14Z</time>
      </trkpt>
      <trkpt lat="42.429116000" lon="-2.560788000">
        <ele>504.10</ele>
        <time>2012-11-17T12:17:14Z</time>
      </trkpt>
      <trkpt lat="42.429120000" lon="-2.560786000">
        <ele>504.20</ele>
        <time>2012-11-17T12:17:15Z</time>
      </trkpt>
      <trkpt lat="42.429125000" lon="-2.560781000">
        <ele>504.20</ele>
        <time>2012-11-17T12:17:17Z</time>
      </trkpt>
      <trkpt lat="42.429126000" lon="-2.560779000">
        <ele>504.30</ele>
        <time>2012-11-17T12:17:19Z</time>
      </trkpt>
      <trkpt lat="42.429130000" lon="-2.560776000">
        <ele>504.30</ele>
        <time>2012-11-17T12:17:21Z</time>
      </trkpt>
      <trkpt lat="42.429131000" lon="-2.560774000">
        <ele>504.40</ele>
        <time>2012-11-17T12:17:22Z</time>
      </trkpt>
      <trkpt lat="42.429138000" lon="-2.560766000">
        <ele>504.40</ele>
        <time>2012-11-17T12:17:26Z</time>
      </trkpt>
      <trkpt lat="42.429140000" lon="-2.560764000">
        <ele>504.50</ele>
        <time>2012-11-17T12:17:26Z</time>
      </trkpt>
      <trkpt lat="42.429141000" lon="-2.560763000">
        <ele>504.50</ele>
        <time>2012-11-17T12:17:28Z</time>
      </trkpt>
      <trkpt lat="42.429141000" lon="-2.560761000">
        <ele>504.50</ele>
        <time>2012-11-17T12:17:29Z</time>
      </trkpt>
      <trkpt lat="42.429145000" lon="-2.560758000">
        <ele>504.50</ele>
        <time>2012-11-17T12:17:31Z</time>
      </trkpt>
      <trkpt lat="42.429145000" lon="-2.560756000">
        <ele>504.50</ele>
        <time>2012-11-17T12:17:33Z</time>
      </trkpt>
      <trkpt lat="42.429146000" lon="-2.560754000">
        <ele>504.60</ele>
        <time>2012-11-17T12:17:33Z</time>
      </trkpt>
      <trkpt lat="42.429148000" lon="-2.560753000">
        <ele>504.60</ele>
        <time>2012-11-17T12:17:36Z</time>
      </trkpt>
      <trkpt lat="42.429148000" lon="-2.560749000">
        <ele>504.60</ele>
        <time>2012-11-17T12:17:38Z</time>
      </trkpt>
      <trkpt lat="42.429150000" lon="-2.560748000">
        <ele>504.60</ele>
        <time>2012-11-17T12:17:40Z</time>
      </trkpt>
      <trkpt lat="42.429151000" lon="-2.560741000">
        <ele>504.60</ele>
        <time>2012-11-17T12:17:47Z</time>
      </trkpt>
      <trkpt lat="42.429153000" lon="-2.560739000">
        <ele>504.60</ele>
        <time>2012-11-17T12:17:52Z</time>
      </trkpt>
      <trkpt lat="42.429155000" lon="-2.560739000">
        <ele>504.70</ele>
        <time>2012-11-17T12:17:54Z</time>
      </trkpt>
      <trkpt lat="42.429156000" lon="-2.560736000">
        <ele>504.70</ele>
        <time>2012-11-17T12:17:59Z</time>
      </trkpt>
      <trkpt lat="42.429160000" lon="-2.560734000">
        <ele>504.70</ele>
        <time>2012-11-17T12:18:06Z</time>
      </trkpt>
      <trkpt lat="42.429161000" lon="-2.560731000">
        <ele>504.70</ele>
        <time>2012-11-17T12:18:11Z</time>
      </trkpt>
      <trkpt lat="42.429161000" lon="-2.560731000">
        <ele>504.70</ele>
        <time>2012-11-17T12:18:13Z</time>
      </trkpt>
      <trkpt lat="42.429163000" lon="-2.560729000">
        <ele>504.80</ele>
        <time>2012-11-17T12:18:13Z</time>
      </trkpt>
      <trkpt lat="42.429168000" lon="-2.560728000">
        <ele>504.80</ele>
        <time>2012-11-17T12:18:23Z</time>
      </trkpt>
      <trkpt lat="42.429170000" lon="-2.560728000">
        <ele>504.90</ele>
        <time>2012-11-17T12:18:27Z</time>
      </trkpt>
      <trkpt lat="42.429175000" lon="-2.560728000">
        <ele>504.90</ele>
        <time>2012-11-17T12:18:34Z</time>
      </trkpt>
      <trkpt lat="42.429176000" lon="-2.560729000">
        <ele>505.00</ele>
        <time>2012-11-17T12:18:37Z</time>
      </trkpt>
      <trkpt lat="42.429178000" lon="-2.560729000">
        <ele>505.00</ele>
        <time>2012-11-17T12:18:41Z</time>
      </trkpt>
      <trkpt lat="42.429178000" lon="-2.560731000">
        <ele>505.00</ele>
        <time>2012-11-17T12:18:41Z</time>
      </trkpt>
      <trkpt lat="42.429178000" lon="-2.560729000">
        <ele>505.00</ele>
        <time>2012-11-17T12:18:44Z</time>
      </trkpt>
      <trkpt lat="42.429181000" lon="-2.560729000">
        <ele>505.00</ele>
        <time>2012-11-17T12:18:48Z</time>
      </trkpt>
      <trkpt lat="42.429181000" lon="-2.560731000">
        <ele>505.00</ele>
        <time>2012-11-17T12:18:51Z</time>
      </trkpt>
      <trkpt lat="42.429183000" lon="-2.560731000">
        <ele>505.00</ele>
        <time>2012-11-17T12:18:53Z</time>
      </trkpt>
      <trkpt lat="42.429183000" lon="-2.560731000">
        <ele>505.00</ele>
        <time>2012-11-17T12:18:53Z</time>
      </trkpt>
      <trkpt lat="42.429185000" lon="-2.560731000">
        <ele>505.10</ele>
        <time>2012-11-17T12:18:55Z</time>
      </trkpt>
      <trkpt lat="42.429183000" lon="-2.560731000">
        <ele>505.10</ele>
        <time>2012-11-17T12:18:56Z</time>
      </trkpt>
      <trkpt lat="42.429185000" lon="-2.560731000">
        <ele>505.10</ele>
        <time>2012-11-17T12:18:58Z</time>
      </trkpt>
      <trkpt lat="42.429186000" lon="-2.560728000">
        <ele>505.10</ele>
        <time>2012-11-17T12:19:00Z</time>
      </trkpt>
      <trkpt lat="42.429185000" lon="-2.560723000">
        <ele>505.10</ele>
        <time>2012-11-17T12:19:10Z</time>
      </trkpt>
      <trkpt lat="42.429188000" lon="-2.560719000">
        <ele>505.10</ele>
        <time>2012-11-17T12:19:19Z</time>
      </trkpt>
      <trkpt lat="42.429188000" lon="-2.560716000">
        <ele>505.10</ele>
        <time>2012-11-17T12:19:21Z</time>
      </trkpt>
      <trkpt lat="42.429186000" lon="-2.560716000">
        <ele>505.10</ele>
        <time>2012-11-17T12:19:21Z</time>
      </trkpt>
      <trkpt lat="42.429186000" lon="-2.560714000">
        <ele>505.10</ele>
        <time>2012-11-17T12:19:23Z</time>
      </trkpt>
      <trkpt lat="42.429188000" lon="-2.560714000">
        <ele>505.10</ele>
        <time>2012-11-17T12:19:24Z</time>
      </trkpt>
      <trkpt lat="42.429186000" lon="-2.560713000">
        <ele>505.10</ele>
        <time>2012-11-17T12:19:26Z</time>
      </trkpt>
      <trkpt lat="42.429188000" lon="-2.560711000">
        <ele>505.10</ele>
        <time>2012-11-17T12:19:26Z</time>
      </trkpt>
      <trkpt lat="42.429188000" lon="-2.560708000">
        <ele>505.10</ele>
        <time>2012-11-17T12:19:28Z</time>
      </trkpt>
      <trkpt lat="42.429186000" lon="-2.560708000">
        <ele>505.10</ele>
        <time>2012-11-17T12:19:30Z</time>
      </trkpt>
      <trkpt lat="42.429188000" lon="-2.560704000">
        <ele>505.10</ele>
        <time>2012-11-17T12:19:33Z</time>
      </trkpt>
      <trkpt lat="42.429191000" lon="-2.560704000">
        <ele>505.10</ele>
        <time>2012-11-17T12:19:35Z</time>
      </trkpt>
      <trkpt lat="42.429190000" lon="-2.560703000">
        <ele>505.10</ele>
        <time>2012-11-17T12:19:38Z</time>
      </trkpt>
      <trkpt lat="42.429191000" lon="-2.560706000">
        <ele>505.10</ele>
        <time>2012-11-17T12:19:40Z</time>
      </trkpt>
      <trkpt lat="42.429195000" lon="-2.560704000">
        <ele>505.20</ele>
        <time>2012-11-17T12:19:40Z</time>
      </trkpt>
      <trkpt lat="42.429196000" lon="-2.560701000">
        <ele>505.20</ele>
        <time>2012-11-17T12:19:42Z</time>
      </trkpt>
      <trkpt lat="42.429200000" lon="-2.560701000">
        <ele>505.20</ele>
        <time>2012-11-17T12:19:43Z</time>
      </trkpt>
      <trkpt lat="42.429198000" lon="-2.560701000">
        <ele>505.20</ele>
        <time>2012-11-17T12:19:45Z</time>
      </trkpt>
      <trkpt lat="42.429198000" lon="-2.560691000">
        <ele>505.20</ele>
        <time>2012-11-17T12:19:45Z</time>
      </trkpt>
      <trkpt lat="42.429200000" lon="-2.560683000">
        <ele>505.20</ele>
        <time>2012-11-17T12:19:47Z</time>
      </trkpt>
      <trkpt lat="42.429200000" lon="-2.560649000">
        <ele>505.20</ele>
        <time>2012-11-17T12:19:49Z</time>
      </trkpt>
      <trkpt lat="42.429215000" lon="-2.560571000">
        <ele>505.30</ele>
        <time>2012-11-17T12:19:52Z</time>
      </trkpt>
      <trkpt lat="42.429230000" lon="-2.560443000">
        <ele>505.30</ele>
        <time>2012-11-17T12:19:59Z</time>
      </trkpt>
      <trkpt lat="42.429228000" lon="-2.560416000">
        <ele>505.30</ele>
        <time>2012-11-17T12:19:59Z</time>
      </trkpt>
      <trkpt lat="42.429296000" lon="-2.560023000">
        <ele>504.80</ele>
        <time>2012-11-17T12:20:08Z</time>
      </trkpt>
      <trkpt lat="42.429585000" lon="-2.559376000">
        <ele>505.00</ele>
        <time>2012-11-17T12:20:22Z</time>
      </trkpt>
      <trkpt lat="42.429611000" lon="-2.559333000">
        <ele>505.00</ele>
        <time>2012-11-17T12:20:24Z</time>
      </trkpt>
      <trkpt lat="42.429950000" lon="-2.558771000">
        <ele>504.50</ele>
        <time>2012-11-17T12:20:36Z</time>
      </trkpt>
      <trkpt lat="42.429953000" lon="-2.558713000">
        <ele>504.10</ele>
        <time>2012-11-17T12:20:37Z</time>
      </trkpt>
      <trkpt lat="42.429945000" lon="-2.558643000">
        <ele>503.60</ele>
        <time>2012-11-17T12:20:39Z</time>
      </trkpt>
      <trkpt lat="42.429538000" lon="-2.556999000">
        <ele>487.00</ele>
        <time>2012-11-17T12:20:58Z</time>
      </trkpt>
      <trkpt lat="42.429533000" lon="-2.556953000">
        <ele>486.90</ele>
        <time>2012-11-17T12:21:00Z</time>
      </trkpt>
      <trkpt lat="42.429535000" lon="-2.556936000">
        <ele>486.80</ele>
        <time>2012-11-17T12:21:02Z</time>
      </trkpt>
      <trkpt lat="42.429536000" lon="-2.556929000">
        <ele>486.80</ele>
        <time>2012-11-17T12:21:02Z</time>
      </trkpt>
      <trkpt lat="42.429535000" lon="-2.556923000">
        <ele>486.80</ele>
        <time>2012-11-17T12:21:05Z</time>
      </trkpt>
      <trkpt lat="42.429531000" lon="-2.556918000">
        <ele>486.80</ele>
        <time>2012-11-17T12:21:07Z</time>
      </trkpt>
      <trkpt lat="42.429530000" lon="-2.556913000">
        <ele>486.80</ele>
        <time>2012-11-17T12:21:07Z</time>
      </trkpt>
      <trkpt lat="42.429528000" lon="-2.556909000">
        <ele>486.70</ele>
        <time>2012-11-17T12:21:09Z</time>
      </trkpt>
      <trkpt lat="42.429526000" lon="-2.556898000">
        <ele>486.70</ele>
        <time>2012-11-17T12:21:11Z</time>
      </trkpt>
      <trkpt lat="42.429563000" lon="-2.556773000">
        <ele>486.60</ele>
        <time>2012-11-17T12:21:14Z</time>
      </trkpt>
      <trkpt lat="42.429695000" lon="-2.555278000">
        <ele>484.00</ele>
        <time>2012-11-17T12:21:30Z</time>
      </trkpt>
      <trkpt lat="42.429718000" lon="-2.555163000">
        <ele>483.60</ele>
        <time>2012-11-17T12:21:31Z</time>
      </trkpt>
      <trkpt lat="42.429840000" lon="-2.552856000">
        <ele>473.70</ele>
        <time>2012-11-17T12:21:52Z</time>
      </trkpt>
      <trkpt lat="42.429818000" lon="-2.552753000">
        <ele>473.60</ele>
        <time>2012-11-17T12:21:52Z</time>
      </trkpt>
      <trkpt lat="42.429671000" lon="-2.552354000">
        <ele>473.30</ele>
        <time>2012-11-17T12:21:56Z</time>
      </trkpt>
      <trkpt lat="42.429668000" lon="-2.552248000">
        <ele>473.20</ele>
        <time>2012-11-17T12:21:58Z</time>
      </trkpt>
      <trkpt lat="42.429695000" lon="-2.552151000">
        <ele>473.10</ele>
        <time>2012-11-17T12:21:59Z</time>
      </trkpt>
      <trkpt lat="42.429751000" lon="-2.552088000">
        <ele>472.90</ele>
        <time>2012-11-17T12:21:59Z</time>
      </trkpt>
      <trkpt lat="42.429961000" lon="-2.551943000">
        <ele>472.60</ele>
        <time>2012-11-17T12:22:03Z</time>
      </trkpt>
      <trkpt lat="42.430025000" lon="-2.551874000">
        <ele>472.40</ele>
        <time>2012-11-17T12:22:03Z</time>
      </trkpt>
      <trkpt lat="42.430076000" lon="-2.551789000">
        <ele>472.30</ele>
        <time>2012-11-17T12:22:05Z</time>
      </trkpt>
      <trkpt lat="42.430406000" lon="-2.550884000">
        <ele>471.10</ele>
        <time>2012-11-17T12:22:15Z</time>
      </trkpt>
      <trkpt lat="42.430533000" lon="-2.550131000">
        <ele>471.10</ele>
        <time>2012-11-17T12:22:24Z</time>
      </trkpt>
      <trkpt lat="42.430755000" lon="-2.549304000">
        <ele>471.80</ele>
        <time>2012-11-17T12:22:38Z</time>
      </trkpt>
      <trkpt lat="42.430776000" lon="-2.549249000">
        <ele>471.80</ele>
        <time>2012-11-17T12:22:39Z</time>
      </trkpt>
      <trkpt lat="42.431833000" lon="-2.546834000">
        <ele>470.80</ele>
        <time>2012-11-17T12:23:21Z</time>
      </trkpt>
      <trkpt lat="42.431980000" lon="-2.546253000">
        <ele>471.00</ele>
        <time>2012-11-17T12:23:33Z</time>
      </trkpt>
      <trkpt lat="42.432078000" lon="-2.546028000">
        <ele>471.40</ele>
        <time>2012-11-17T12:23:37Z</time>
      </trkpt>
      <trkpt lat="42.432131000" lon="-2.545949000">
        <ele>471.60</ele>
        <time>2012-11-17T12:23:40Z</time>
      </trkpt>
      <trkpt lat="42.433385000" lon="-2.545056000">
        <ele>473.60</ele>
        <time>2012-11-17T12:24:24Z</time>
      </trkpt>
      <trkpt lat="42.433418000" lon="-2.545018000">
        <ele>473.60</ele>
        <time>2012-11-17T12:24:24Z</time>
      </trkpt>
      <trkpt lat="42.433443000" lon="-2.544968000">
        <ele>473.50</ele>
        <time>2012-11-17T12:24:26Z</time>
      </trkpt>
      <trkpt lat="42.433458000" lon="-2.544913000">
        <ele>473.40</ele>
        <time>2012-11-17T12:24:26Z</time>
      </trkpt>
      <trkpt lat="42.433461000" lon="-2.544861000">
        <ele>473.40</ele>
        <time>2012-11-17T12:24:27Z</time>
      </trkpt>
      <trkpt lat="42.433460000" lon="-2.544814000">
        <ele>473.40</ele>
        <time>2012-11-17T12:24:29Z</time>
      </trkpt>
      <trkpt lat="42.433421000" lon="-2.544441000">
        <ele>473.80</ele>
        <time>2012-11-17T12:24:36Z</time>
      </trkpt>
      <trkpt lat="42.433421000" lon="-2.544374000">
        <ele>473.80</ele>
        <time>2012-11-17T12:24:36Z</time>
      </trkpt>
      <trkpt lat="42.433470000" lon="-2.544078000">
        <ele>474.00</ele>
        <time>2012-11-17T12:24:41Z</time>
      </trkpt>
      <trkpt lat="42.433603000" lon="-2.543783000">
        <ele>474.10</ele>
        <time>2012-11-17T12:24:45Z</time>
      </trkpt>
      <trkpt lat="42.434763000" lon="-2.542233000">
        <ele>476.90</ele>
        <time>2012-11-17T12:25:16Z</time>
      </trkpt>
      <trkpt lat="42.435043000" lon="-2.541608000">
        <ele>480.00</ele>
        <time>2012-11-17T12:25:32Z</time>
      </trkpt>
      <trkpt lat="42.435053000" lon="-2.541569000">
        <ele>480.10</ele>
        <time>2012-11-17T12:25:34Z</time>
      </trkpt>
      <trkpt lat="42.435116000" lon="-2.541376000">
        <ele>481.30</ele>
        <time>2012-11-17T12:25:39Z</time>
      </trkpt>
      <trkpt lat="42.435265000" lon="-2.541111000">
        <ele>482.60</ele>
        <time>2012-11-17T12:25:49Z</time>
      </trkpt>
      <trkpt lat="42.436291000" lon="-2.539673000">
        <ele>490.20</ele>
        <time>2012-11-17T12:26:43Z</time>
      </trkpt>
      <trkpt lat="42.436315000" lon="-2.539651000">
        <ele>490.30</ele>
        <time>2012-11-17T12:26:45Z</time>
      </trkpt>
      <trkpt lat="42.436893000" lon="-2.539206000">
        <ele>494.60</ele>
        <time>2012-11-17T12:27:11Z</time>
      </trkpt>
      <trkpt lat="42.437556000" lon="-2.538311000">
        <ele>498.80</ele>
        <time>2012-11-17T12:27:39Z</time>
      </trkpt>
      <trkpt lat="42.437580000" lon="-2.538266000">
        <ele>498.80</ele>
        <time>2012-11-17T12:27:41Z</time>
      </trkpt>
      <trkpt lat="42.437651000" lon="-2.537958000">
        <ele>499.20</ele>
        <time>2012-11-17T12:27:48Z</time>
      </trkpt>
      <trkpt lat="42.437653000" lon="-2.537939000">
        <ele>499.20</ele>
        <time>2012-11-17T12:27:48Z</time>
      </trkpt>
      <trkpt lat="42.437655000" lon="-2.537934000">
        <ele>499.30</ele>
        <time>2012-11-17T12:27:49Z</time>
      </trkpt>
      <trkpt lat="42.437655000" lon="-2.537933000">
        <ele>499.30</ele>
        <time>2012-11-17T12:27:51Z</time>
      </trkpt>
      <trkpt lat="42.437650000" lon="-2.537931000">
        <ele>499.40</ele>
        <time>2012-11-17T12:27:53Z</time>
      </trkpt>
      <trkpt lat="42.437645000" lon="-2.537929000">
        <ele>499.40</ele>
        <time>2012-11-17T12:27:53Z</time>
      </trkpt>
      <trkpt lat="42.437641000" lon="-2.537939000">
        <ele>499.40</ele>
        <time>2012-11-17T12:27:55Z</time>
      </trkpt>
      <trkpt lat="42.437641000" lon="-2.537964000">
        <ele>499.40</ele>
        <time>2012-11-17T12:27:56Z</time>
      </trkpt>
      <trkpt lat="42.437596000" lon="-2.538196000">
        <ele>499.00</ele>
        <time>2012-11-17T12:28:05Z</time>
      </trkpt>
      <trkpt lat="42.437590000" lon="-2.538209000">
        <ele>499.00</ele>
        <time>2012-11-17T12:28:07Z</time>
      </trkpt>
      <trkpt lat="42.437583000" lon="-2.538201000">
        <ele>499.00</ele>
        <time>2012-11-17T12:28:10Z</time>
      </trkpt>
      <trkpt lat="42.437583000" lon="-2.538203000">
        <ele>499.00</ele>
        <time>2012-11-17T12:28:12Z</time>
      </trkpt>
      <trkpt lat="42.437581000" lon="-2.538204000">
        <ele>499.00</ele>
        <time>2012-11-17T12:28:14Z</time>
      </trkpt>
      <trkpt lat="42.437580000" lon="-2.538213000">
        <ele>499.00</ele>
        <time>2012-11-17T12:28:24Z</time>
      </trkpt>
      <trkpt lat="42.437578000" lon="-2.538213000">
        <ele>499.00</ele>
        <time>2012-11-17T12:28:24Z</time>
      </trkpt>
      <trkpt lat="42.437575000" lon="-2.538224000">
        <ele>499.00</ele>
        <time>2012-11-17T12:28:40Z</time>
      </trkpt>
      <trkpt lat="42.437573000" lon="-2.538224000">
        <ele>499.00</ele>
        <time>2012-11-17T12:28:42Z</time>
      </trkpt>
      <trkpt lat="42.437573000" lon="-2.538228000">
        <ele>499.00</ele>
        <time>2012-11-17T12:28:45Z</time>
      </trkpt>
      <trkpt lat="42.437570000" lon="-2.538229000">
        <ele>499.00</ele>
        <time>2012-11-17T12:28:54Z</time>
      </trkpt>
      <trkpt lat="42.437570000" lon="-2.538233000">
        <ele>499.00</ele>
        <time>2012-11-17T12:28:59Z</time>
      </trkpt>
      <trkpt lat="42.437568000" lon="-2.538233000">
        <ele>499.10</ele>
        <time>2012-11-17T12:29:01Z</time>
      </trkpt>
      <trkpt lat="42.437565000" lon="-2.538236000">
        <ele>499.10</ele>
        <time>2012-11-17T12:29:17Z</time>
      </trkpt>
      <trkpt lat="42.437565000" lon="-2.538239000">
        <ele>499.10</ele>
        <time>2012-11-17T12:29:27Z</time>
      </trkpt>
      <trkpt lat="42.437561000" lon="-2.538239000">
        <ele>499.10</ele>
        <time>2012-11-17T12:29:43Z</time>
      </trkpt>
      <trkpt lat="42.437560000" lon="-2.538241000">
        <ele>499.10</ele>
        <time>2012-11-17T12:29:55Z</time>
      </trkpt>
      <trkpt lat="42.437560000" lon="-2.538239000">
        <ele>499.10</ele>
        <time>2012-11-17T12:29:58Z</time>
      </trkpt>
      <trkpt lat="42.437560000" lon="-2.538241000">
        <ele>499.10</ele>
        <time>2012-11-17T12:29:58Z</time>
      </trkpt>
      <trkpt lat="42.437560000" lon="-2.538239000">
        <ele>499.10</ele>
        <time>2012-11-17T12:30:00Z</time>
      </trkpt>
      <trkpt lat="42.437560000" lon="-2.538241000">
        <ele>499.10</ele>
        <time>2012-11-17T12:30:00Z</time>
      </trkpt>
      <trkpt lat="42.437560000" lon="-2.538239000">
        <ele>499.10</ele>
        <time>2012-11-17T12:30:07Z</time>
      </trkpt>
      <trkpt lat="42.437558000" lon="-2.538241000">
        <ele>499.10</ele>
        <time>2012-11-17T12:30:26Z</time>
      </trkpt>
      <trkpt lat="42.437560000" lon="-2.538248000">
        <ele>499.10</ele>
        <time>2012-11-17T12:30:26Z</time>
      </trkpt>
      <trkpt lat="42.437565000" lon="-2.538244000">
        <ele>499.10</ele>
        <time>2012-11-17T12:30:28Z</time>
      </trkpt>
      <trkpt lat="42.437565000" lon="-2.538249000">
        <ele>499.00</ele>
        <time>2012-11-17T12:30:28Z</time>
      </trkpt>
      <trkpt lat="42.437563000" lon="-2.538251000">
        <ele>499.00</ele>
        <time>2012-11-17T12:30:30Z</time>
      </trkpt>
      <trkpt lat="42.437566000" lon="-2.538249000">
        <ele>499.00</ele>
        <time>2012-11-17T12:30:31Z</time>
      </trkpt>
      <trkpt lat="42.437568000" lon="-2.538251000">
        <ele>499.00</ele>
        <time>2012-11-17T12:30:33Z</time>
      </trkpt>
      <trkpt lat="42.437571000" lon="-2.538234000">
        <ele>499.00</ele>
        <time>2012-11-17T12:30:35Z</time>
      </trkpt>
      <trkpt lat="42.437585000" lon="-2.538193000">
        <ele>499.00</ele>
        <time>2012-11-17T12:30:37Z</time>
      </trkpt>
      <trkpt lat="42.437591000" lon="-2.538181000">
        <ele>499.00</ele>
        <time>2012-11-17T12:30:38Z</time>
      </trkpt>
      <trkpt lat="42.437633000" lon="-2.537998000">
        <ele>499.30</ele>
        <time>2012-11-17T12:30:44Z</time>
      </trkpt>
      <trkpt lat="42.437871000" lon="-2.537416000">
        <ele>498.60</ele>
        <time>2012-11-17T12:30:59Z</time>
      </trkpt>
      <trkpt lat="42.437880000" lon="-2.537383000">
        <ele>498.50</ele>
        <time>2012-11-17T12:31:01Z</time>
      </trkpt>
      <trkpt lat="42.437888000" lon="-2.537316000">
        <ele>498.60</ele>
        <time>2012-11-17T12:31:03Z</time>
      </trkpt>
      <trkpt lat="42.437896000" lon="-2.537288000">
        <ele>498.60</ele>
        <time>2012-11-17T12:31:03Z</time>
      </trkpt>
      <trkpt lat="42.437915000" lon="-2.537254000">
        <ele>498.50</ele>
        <time>2012-11-17T12:31:05Z</time>
      </trkpt>
      <trkpt lat="42.437933000" lon="-2.537208000">
        <ele>498.40</ele>
        <time>2012-11-17T12:31:06Z</time>
      </trkpt>
      <trkpt lat="42.438356000" lon="-2.535793000">
        <ele>498.60</ele>
        <time>2012-11-17T12:31:29Z</time>
      </trkpt>
      <trkpt lat="42.438438000" lon="-2.535604000">
        <ele>499.30</ele>
        <time>2012-11-17T12:31:34Z</time>
      </trkpt>
      <trkpt lat="42.438808000" lon="-2.533061000">
        <ele>503.60</ele>
        <time>2012-11-17T12:32:16Z</time>
      </trkpt>
      <trkpt lat="42.438808000" lon="-2.532999000">
        <ele>503.50</ele>
        <time>2012-11-17T12:32:18Z</time>
      </trkpt>
      <trkpt lat="42.439168000" lon="-2.531051000">
        <ele>506.30</ele>
        <time>2012-11-17T12:32:53Z</time>
      </trkpt>
      <trkpt lat="42.439530000" lon="-2.529016000">
        <ele>512.40</ele>
        <time>2012-11-17T12:33:31Z</time>
      </trkpt>
      <trkpt lat="42.439531000" lon="-2.528966000">
        <ele>512.50</ele>
        <time>2012-11-17T12:33:33Z</time>
      </trkpt>
      <trkpt lat="42.439738000" lon="-2.527361000">
        <ele>517.00</ele>
        <time>2012-11-17T12:34:06Z</time>
      </trkpt>
      <trkpt lat="42.439883000" lon="-2.524983000">
        <ele>524.60</ele>
        <time>2012-11-17T12:34:58Z</time>
      </trkpt>
      <trkpt lat="42.439888000" lon="-2.524953000">
        <ele>524.50</ele>
        <time>2012-11-17T12:35:00Z</time>
      </trkpt>
      <trkpt lat="42.440071000" lon="-2.523786000">
        <ele>519.70</ele>
        <time>2012-11-17T12:35:17Z</time>
      </trkpt>
      <trkpt lat="42.440003000" lon="-2.523458000">
        <ele>518.40</ele>
        <time>2012-11-17T12:35:22Z</time>
      </trkpt>
      <trkpt lat="42.439871000" lon="-2.523141000">
        <ele>517.40</ele>
        <time>2012-11-17T12:35:26Z</time>
      </trkpt>
      <trkpt lat="42.439598000" lon="-2.522699000">
        <ele>515.90</ele>
        <time>2012-11-17T12:35:33Z</time>
      </trkpt>
      <trkpt lat="42.439426000" lon="-2.522268000">
        <ele>512.50</ele>
        <time>2012-11-17T12:35:38Z</time>
      </trkpt>
      <trkpt lat="42.439148000" lon="-2.521238000">
        <ele>507.40</ele>
        <time>2012-11-17T12:35:50Z</time>
      </trkpt>
      <trkpt lat="42.439116000" lon="-2.521174000">
        <ele>507.00</ele>
        <time>2012-11-17T12:35:50Z</time>
      </trkpt>
      <trkpt lat="42.438886000" lon="-2.520801000">
        <ele>504.70</ele>
        <time>2012-11-17T12:35:57Z</time>
      </trkpt>
      <trkpt lat="42.438545000" lon="-2.519926000">
        <ele>498.90</ele>
        <time>2012-11-17T12:36:09Z</time>
      </trkpt>
      <trkpt lat="42.438511000" lon="-2.519866000">
        <ele>498.80</ele>
        <time>2012-11-17T12:36:11Z</time>
      </trkpt>
      <trkpt lat="42.438270000" lon="-2.519536000">
        <ele>497.20</ele>
        <time>2012-11-17T12:36:16Z</time>
      </trkpt>
      <trkpt lat="42.437966000" lon="-2.518933000">
        <ele>494.00</ele>
        <time>2012-11-17T12:36:23Z</time>
      </trkpt>
      <trkpt lat="42.437643000" lon="-2.517921000">
        <ele>490.00</ele>
        <time>2012-11-17T12:36:34Z</time>
      </trkpt>
      <trkpt lat="42.437251000" lon="-2.517296000">
        <ele>486.50</ele>
        <time>2012-11-17T12:36:44Z</time>
      </trkpt>
      <trkpt lat="42.436558000" lon="-2.516359000">
        <ele>486.60</ele>
        <time>2012-11-17T12:37:03Z</time>
      </trkpt>
      <trkpt lat="42.436528000" lon="-2.516299000">
        <ele>486.60</ele>
        <time>2012-11-17T12:37:05Z</time>
      </trkpt>
      <trkpt lat="42.436518000" lon="-2.516233000">
        <ele>486.40</ele>
        <time>2012-11-17T12:37:05Z</time>
      </trkpt>
      <trkpt lat="42.436528000" lon="-2.516168000">
        <ele>486.00</ele>
        <time>2012-11-17T12:37:07Z</time>
      </trkpt>
      <trkpt lat="42.436546000" lon="-2.516109000">
        <ele>485.40</ele>
        <time>2012-11-17T12:37:07Z</time>
      </trkpt>
      <trkpt lat="42.436735000" lon="-2.515799000">
        <ele>480.80</ele>
        <time>2012-11-17T12:37:16Z</time>
      </trkpt>
      <trkpt lat="42.436768000" lon="-2.515764000">
        <ele>480.50</ele>
        <time>2012-11-17T12:37:17Z</time>
      </trkpt>
      <trkpt lat="42.437133000" lon="-2.515476000">
        <ele>474.50</ele>
        <time>2012-11-17T12:37:24Z</time>
      </trkpt>
      <trkpt lat="42.437413000" lon="-2.515076000">
        <ele>467.00</ele>
        <time>2012-11-17T12:37:30Z</time>
      </trkpt>
      <trkpt lat="42.437591000" lon="-2.514658000">
        <ele>462.70</ele>
        <time>2012-11-17T12:37:38Z</time>
      </trkpt>
      <trkpt lat="42.437713000" lon="-2.514441000">
        <ele>460.60</ele>
        <time>2012-11-17T12:37:45Z</time>
      </trkpt>
      <trkpt lat="42.437718000" lon="-2.514423000">
        <ele>460.40</ele>
        <time>2012-11-17T12:37:45Z</time>
      </trkpt>
      <trkpt lat="42.437713000" lon="-2.514403000">
        <ele>460.20</ele>
        <time>2012-11-17T12:37:47Z</time>
      </trkpt>
      <trkpt lat="42.437703000" lon="-2.514393000">
        <ele>460.00</ele>
        <time>2012-11-17T12:37:47Z</time>
      </trkpt>
      <trkpt lat="42.437690000" lon="-2.514391000">
        <ele>460.00</ele>
        <time>2012-11-17T12:37:49Z</time>
      </trkpt>
      <trkpt lat="42.437676000" lon="-2.514399000">
        <ele>460.00</ele>
        <time>2012-11-17T12:37:49Z</time>
      </trkpt>
      <trkpt lat="42.437630000" lon="-2.514456000">
        <ele>460.40</ele>
        <time>2012-11-17T12:37:54Z</time>
      </trkpt>
      <trkpt lat="42.437620000" lon="-2.514473000">
        <ele>460.60</ele>
        <time>2012-11-17T12:37:54Z</time>
      </trkpt>
      <trkpt lat="42.437585000" lon="-2.514499000">
        <ele>460.80</ele>
        <time>2012-11-17T12:37:57Z</time>
      </trkpt>
      <trkpt lat="42.437550000" lon="-2.514539000">
        <ele>461.20</ele>
        <time>2012-11-17T12:37:59Z</time>
      </trkpt>
      <trkpt lat="42.437406000" lon="-2.514653000">
        <ele>462.50</ele>
        <time>2012-11-17T12:38:04Z</time>
      </trkpt>
      <trkpt lat="42.437320000" lon="-2.514691000">
        <ele>463.10</ele>
        <time>2012-11-17T12:38:08Z</time>
      </trkpt>
      <trkpt lat="42.437253000" lon="-2.514698000">
        <ele>463.50</ele>
        <time>2012-11-17T12:38:10Z</time>
      </trkpt>
      <trkpt lat="42.437211000" lon="-2.514689000">
        <ele>463.60</ele>
        <time>2012-11-17T12:38:11Z</time>
      </trkpt>
      <trkpt lat="42.437168000" lon="-2.514671000">
        <ele>463.70</ele>
        <time>2012-11-17T12:38:11Z</time>
      </trkpt>
      <trkpt lat="42.437125000" lon="-2.514629000">
        <ele>463.50</ele>
        <time>2012-11-17T12:38:13Z</time>
      </trkpt>
      <trkpt lat="42.436528000" lon="-2.513283000">
        <ele>458.50</ele>
        <time>2012-11-17T12:38:32Z</time>
      </trkpt>
      <trkpt lat="42.436508000" lon="-2.513216000">
        <ele>458.40</ele>
        <time>2012-11-17T12:38:34Z</time>
      </trkpt>
      <trkpt lat="42.436005000" lon="-2.511018000">
        <ele>455.40</ele>
        <time>2012-11-17T12:39:18Z</time>
      </trkpt>
      <trkpt lat="42.436011000" lon="-2.510979000">
        <ele>455.20</ele>
        <time>2012-11-17T12:39:19Z</time>
      </trkpt>
      <trkpt lat="42.436025000" lon="-2.510943000">
        <ele>455.10</ele>
        <time>2012-11-17T12:39:19Z</time>
      </trkpt>
      <trkpt lat="42.436050000" lon="-2.510918000">
        <ele>454.80</ele>
        <time>2012-11-17T12:39:21Z</time>
      </trkpt>
      <trkpt lat="42.437921000" lon="-2.510223000">
        <ele>447.60</ele>
        <time>2012-11-17T12:40:01Z</time>
      </trkpt>
      <trkpt lat="42.437946000" lon="-2.510204000">
        <ele>447.50</ele>
        <time>2012-11-17T12:40:03Z</time>
      </trkpt>
      <trkpt lat="42.437968000" lon="-2.510176000">
        <ele>447.40</ele>
        <time>2012-11-17T12:40:03Z</time>
      </trkpt>
      <trkpt lat="42.437980000" lon="-2.510138000">
        <ele>447.40</ele>
        <time>2012-11-17T12:40:05Z</time>
      </trkpt>
      <trkpt lat="42.437990000" lon="-2.509974000">
        <ele>447.60</ele>
        <time>2012-11-17T12:40:08Z</time>
      </trkpt>
      <trkpt lat="42.438065000" lon="-2.509371000">
        <ele>449.00</ele>
        <time>2012-11-17T12:40:20Z</time>
      </trkpt>
      <trkpt lat="42.438451000" lon="-2.507301000">
        <ele>453.10</ele>
        <time>2012-11-17T12:41:07Z</time>
      </trkpt>
      <trkpt lat="42.438465000" lon="-2.507258000">
        <ele>453.20</ele>
        <time>2012-11-17T12:41:07Z</time>
      </trkpt>
      <trkpt lat="42.439666000" lon="-2.505003000">
        <ele>445.70</ele>
        <time>2012-11-17T12:41:46Z</time>
      </trkpt>
      <trkpt lat="42.439678000" lon="-2.504976000">
        <ele>445.90</ele>
        <time>2012-11-17T12:41:47Z</time>
      </trkpt>
      <trkpt lat="42.439685000" lon="-2.504968000">
        <ele>446.00</ele>
        <time>2012-11-17T12:41:47Z</time>
      </trkpt>
      <trkpt lat="42.439686000" lon="-2.504968000">
        <ele>446.00</ele>
        <time>2012-11-17T12:41:49Z</time>
      </trkpt>
      <trkpt lat="42.439688000" lon="-2.504964000">
        <ele>446.00</ele>
        <time>2012-11-17T12:41:49Z</time>
      </trkpt>
      <trkpt lat="42.439690000" lon="-2.504964000">
        <ele>446.10</ele>
        <time>2012-11-17T12:41:51Z</time>
      </trkpt>
      <trkpt lat="42.439693000" lon="-2.504963000">
        <ele>446.10</ele>
        <time>2012-11-17T12:41:53Z</time>
      </trkpt>
      <trkpt lat="42.439691000" lon="-2.504959000">
        <ele>446.10</ele>
        <time>2012-11-17T12:41:54Z</time>
      </trkpt>
      <trkpt lat="42.439693000" lon="-2.504953000">
        <ele>446.10</ele>
        <time>2012-11-17T12:41:54Z</time>
      </trkpt>
      <trkpt lat="42.439698000" lon="-2.504949000">
        <ele>446.10</ele>
        <time>2012-11-17T12:41:56Z</time>
      </trkpt>
      <trkpt lat="42.439701000" lon="-2.504949000">
        <ele>446.10</ele>
        <time>2012-11-17T12:41:58Z</time>
      </trkpt>
      <trkpt lat="42.439705000" lon="-2.504951000">
        <ele>446.10</ele>
        <time>2012-11-17T12:42:01Z</time>
      </trkpt>
      <trkpt lat="42.439703000" lon="-2.504953000">
        <ele>446.10</ele>
        <time>2012-11-17T12:42:01Z</time>
      </trkpt>
      <trkpt lat="42.439705000" lon="-2.504954000">
        <ele>446.10</ele>
        <time>2012-11-17T12:42:03Z</time>
      </trkpt>
      <trkpt lat="42.439703000" lon="-2.504956000">
        <ele>446.10</ele>
        <time>2012-11-17T12:42:05Z</time>
      </trkpt>
      <trkpt lat="42.439705000" lon="-2.504958000">
        <ele>446.10</ele>
        <time>2012-11-17T12:42:06Z</time>
      </trkpt>
      <trkpt lat="42.439705000" lon="-2.504959000">
        <ele>446.00</ele>
        <time>2012-11-17T12:42:08Z</time>
      </trkpt>
      <trkpt lat="42.439706000" lon="-2.504961000">
        <ele>446.00</ele>
        <time>2012-11-17T12:42:10Z</time>
      </trkpt>
      <trkpt lat="42.439705000" lon="-2.504963000">
        <ele>446.00</ele>
        <time>2012-11-17T12:42:10Z</time>
      </trkpt>
      <trkpt lat="42.439706000" lon="-2.504969000">
        <ele>446.00</ele>
        <time>2012-11-17T12:42:19Z</time>
      </trkpt>
      <trkpt lat="42.439706000" lon="-2.504969000">
        <ele>446.00</ele>
        <time>2012-11-17T12:42:20Z</time>
      </trkpt>
      <trkpt lat="42.439706000" lon="-2.504973000">
        <ele>445.90</ele>
        <time>2012-11-17T12:42:24Z</time>
      </trkpt>
      <trkpt lat="42.439710000" lon="-2.504974000">
        <ele>445.90</ele>
        <time>2012-11-17T12:42:26Z</time>
      </trkpt>
      <trkpt lat="42.439711000" lon="-2.504978000">
        <ele>445.90</ele>
        <time>2012-11-17T12:42:29Z</time>
      </trkpt>
      <trkpt lat="42.439713000" lon="-2.504978000">
        <ele>445.90</ele>
        <time>2012-11-17T12:42:31Z</time>
      </trkpt>
      <trkpt lat="42.439713000" lon="-2.504979000">
        <ele>445.80</ele>
        <time>2012-11-17T12:42:31Z</time>
      </trkpt>
      <trkpt lat="42.439716000" lon="-2.504981000">
        <ele>445.80</ele>
        <time>2012-11-17T12:42:36Z</time>
      </trkpt>
      <trkpt lat="42.439716000" lon="-2.504983000">
        <ele>445.80</ele>
        <time>2012-11-17T12:42:38Z</time>
      </trkpt>
      <trkpt lat="42.439720000" lon="-2.504984000">
        <ele>445.80</ele>
        <time>2012-11-17T12:42:40Z</time>
      </trkpt>
      <trkpt lat="42.439721000" lon="-2.504984000">
        <ele>445.70</ele>
        <time>2012-11-17T12:42:41Z</time>
      </trkpt>
      <trkpt lat="42.439731000" lon="-2.504989000">
        <ele>445.70</ele>
        <time>2012-11-17T12:42:45Z</time>
      </trkpt>
      <trkpt lat="42.439733000" lon="-2.504991000">
        <ele>445.60</ele>
        <time>2012-11-17T12:42:45Z</time>
      </trkpt>
      <trkpt lat="42.439736000" lon="-2.504994000">
        <ele>445.60</ele>
        <time>2012-11-17T12:42:48Z</time>
      </trkpt>
      <trkpt lat="42.439740000" lon="-2.504996000">
        <ele>445.60</ele>
        <time>2012-11-17T12:42:50Z</time>
      </trkpt>
      <trkpt lat="42.439741000" lon="-2.504996000">
        <ele>445.50</ele>
        <time>2012-11-17T12:42:50Z</time>
      </trkpt>
      <trkpt lat="42.439746000" lon="-2.504998000">
        <ele>445.50</ele>
        <time>2012-11-17T12:42:54Z</time>
      </trkpt>
      <trkpt lat="42.439745000" lon="-2.504996000">
        <ele>445.50</ele>
        <time>2012-11-17T12:42:55Z</time>
      </trkpt>
      <trkpt lat="42.439743000" lon="-2.504996000">
        <ele>445.50</ele>
        <time>2012-11-17T12:42:55Z</time>
      </trkpt>
      <trkpt lat="42.439743000" lon="-2.504994000">
        <ele>445.50</ele>
        <time>2012-11-17T12:42:57Z</time>
      </trkpt>
      <trkpt lat="42.439746000" lon="-2.504994000">
        <ele>445.50</ele>
        <time>2012-11-17T12:43:02Z</time>
      </trkpt>
      <trkpt lat="42.439740000" lon="-2.504993000">
        <ele>445.50</ele>
        <time>2012-11-17T12:43:04Z</time>
      </trkpt>
      <trkpt lat="42.439736000" lon="-2.504993000">
        <ele>445.60</ele>
        <time>2012-11-17T12:43:06Z</time>
      </trkpt>
      <trkpt lat="42.439733000" lon="-2.504989000">
        <ele>445.60</ele>
        <time>2012-11-17T12:43:07Z</time>
      </trkpt>
      <trkpt lat="42.439728000" lon="-2.504988000">
        <ele>445.60</ele>
        <time>2012-11-17T12:43:11Z</time>
      </trkpt>
      <trkpt lat="42.439728000" lon="-2.504988000">
        <ele>445.60</ele>
        <time>2012-11-17T12:43:13Z</time>
      </trkpt>
      <trkpt lat="42.439725000" lon="-2.504988000">
        <ele>445.70</ele>
        <time>2012-11-17T12:43:14Z</time>
      </trkpt>
      <trkpt lat="42.439725000" lon="-2.504986000">
        <ele>445.70</ele>
        <time>2012-11-17T12:43:16Z</time>
      </trkpt>
      <trkpt lat="42.439723000" lon="-2.504986000">
        <ele>445.70</ele>
        <time>2012-11-17T12:43:16Z</time>
      </trkpt>
      <trkpt lat="42.439723000" lon="-2.504988000">
        <ele>445.70</ele>
        <time>2012-11-17T12:43:18Z</time>
      </trkpt>
      <trkpt lat="42.439721000" lon="-2.504988000">
        <ele>445.70</ele>
        <time>2012-11-17T12:43:18Z</time>
      </trkpt>
      <trkpt lat="42.439720000" lon="-2.504991000">
        <ele>445.70</ele>
        <time>2012-11-17T12:43:23Z</time>
      </trkpt>
      <trkpt lat="42.439718000" lon="-2.504991000">
        <ele>445.70</ele>
        <time>2012-11-17T12:43:23Z</time>
      </trkpt>
      <trkpt lat="42.439718000" lon="-2.504993000">
        <ele>445.70</ele>
        <time>2012-11-17T12:43:25Z</time>
      </trkpt>
      <trkpt lat="42.439720000" lon="-2.504994000">
        <ele>445.70</ele>
        <time>2012-11-17T12:43:25Z</time>
      </trkpt>
      <trkpt lat="42.439713000" lon="-2.504994000">
        <ele>445.70</ele>
        <time>2012-11-17T12:43:30Z</time>
      </trkpt>
      <trkpt lat="42.439713000" lon="-2.504996000">
        <ele>445.70</ele>
        <time>2012-11-17T12:43:32Z</time>
      </trkpt>
      <trkpt lat="42.439703000" lon="-2.504996000">
        <ele>445.70</ele>
        <time>2012-11-17T12:43:42Z</time>
      </trkpt>
      <trkpt lat="42.439703000" lon="-2.504996000">
        <ele>445.70</ele>
        <time>2012-11-17T12:43:42Z</time>
      </trkpt>
      <trkpt lat="42.439700000" lon="-2.504993000">
        <ele>445.80</ele>
        <time>2012-11-17T12:43:46Z</time>
      </trkpt>
      <trkpt lat="42.439700000" lon="-2.504991000">
        <ele>445.80</ele>
        <time>2012-11-17T12:43:47Z</time>
      </trkpt>
      <trkpt lat="42.439696000" lon="-2.504989000">
        <ele>445.80</ele>
        <time>2012-11-17T12:43:51Z</time>
      </trkpt>
      <trkpt lat="42.439696000" lon="-2.504988000">
        <ele>445.80</ele>
        <time>2012-11-17T12:43:51Z</time>
      </trkpt>
      <trkpt lat="42.439696000" lon="-2.504988000">
        <ele>445.80</ele>
        <time>2012-11-17T12:43:53Z</time>
      </trkpt>
      <trkpt lat="42.439695000" lon="-2.504981000">
        <ele>445.90</ele>
        <time>2012-11-17T12:43:56Z</time>
      </trkpt>
      <trkpt lat="42.439696000" lon="-2.504974000">
        <ele>445.90</ele>
        <time>2012-11-17T12:44:00Z</time>
      </trkpt>
      <trkpt lat="42.439698000" lon="-2.504966000">
        <ele>446.00</ele>
        <time>2012-11-17T12:44:01Z</time>
      </trkpt>
      <trkpt lat="42.439703000" lon="-2.504953000">
        <ele>446.00</ele>
        <time>2012-11-17T12:44:03Z</time>
      </trkpt>
      <trkpt lat="42.439726000" lon="-2.504908000">
        <ele>446.20</ele>
        <time>2012-11-17T12:44:05Z</time>
      </trkpt>
      <trkpt lat="42.439895000" lon="-2.503833000">
        <ele>447.70</ele>
        <time>2012-11-17T12:44:24Z</time>
      </trkpt>
      <trkpt lat="42.439911000" lon="-2.503773000">
        <ele>447.70</ele>
        <time>2012-11-17T12:44:24Z</time>
      </trkpt>
      <trkpt lat="42.440216000" lon="-2.502421000">
        <ele>447.00</ele>
        <time>2012-11-17T12:44:45Z</time>
      </trkpt>
      <trkpt lat="42.440383000" lon="-2.501814000">
        <ele>446.20</ele>
        <time>2012-11-17T12:44:55Z</time>
      </trkpt>
      <trkpt lat="42.440425000" lon="-2.501578000">
        <ele>447.30</ele>
        <time>2012-11-17T12:44:59Z</time>
      </trkpt>
      <trkpt lat="42.440460000" lon="-2.501471000">
        <ele>448.00</ele>
        <time>2012-11-17T12:45:01Z</time>
      </trkpt>
      <trkpt lat="42.440485000" lon="-2.501423000">
        <ele>448.30</ele>
        <time>2012-11-17T12:45:02Z</time>
      </trkpt>
      <trkpt lat="42.441005000" lon="-2.500669000">
        <ele>448.60</ele>
        <time>2012-11-17T12:45:20Z</time>
      </trkpt>
      <trkpt lat="42.441333000" lon="-2.500016000">
        <ele>448.80</ele>
        <time>2012-11-17T12:45:32Z</time>
      </trkpt>
      <trkpt lat="42.441368000" lon="-2.499969000">
        <ele>448.80</ele>
        <time>2012-11-17T12:45:34Z</time>
      </trkpt>
      <trkpt lat="42.441805000" lon="-2.499573000">
        <ele>445.90</ele>
        <time>2012-11-17T12:45:46Z</time>
      </trkpt>
      <trkpt lat="42.441825000" lon="-2.499531000">
        <ele>445.80</ele>
        <time>2012-11-17T12:45:46Z</time>
      </trkpt>
      <trkpt lat="42.441850000" lon="-2.499448000">
        <ele>445.80</ele>
        <time>2012-11-17T12:45:48Z</time>
      </trkpt>
      <trkpt lat="42.441876000" lon="-2.499189000">
        <ele>446.40</ele>
        <time>2012-11-17T12:45:55Z</time>
      </trkpt>
      <trkpt lat="42.441886000" lon="-2.499148000">
        <ele>446.50</ele>
        <time>2012-11-17T12:45:55Z</time>
      </trkpt>
      <trkpt lat="42.441915000" lon="-2.499104000">
        <ele>446.50</ele>
        <time>2012-11-17T12:45:56Z</time>
      </trkpt>
      <trkpt lat="42.441955000" lon="-2.499064000">
        <ele>446.40</ele>
        <time>2012-11-17T12:45:58Z</time>
      </trkpt>
      <trkpt lat="42.442156000" lon="-2.498946000">
        <ele>445.30</ele>
        <time>2012-11-17T12:46:02Z</time>
      </trkpt>
      <trkpt lat="42.442283000" lon="-2.498929000">
        <ele>445.10</ele>
        <time>2012-11-17T12:46:05Z</time>
      </trkpt>
      <trkpt lat="42.442616000" lon="-2.498954000">
        <ele>444.50</ele>
        <time>2012-11-17T12:46:12Z</time>
      </trkpt>
      <trkpt lat="42.442940000" lon="-2.498929000">
        <ele>444.10</ele>
        <time>2012-11-17T12:46:21Z</time>
      </trkpt>
      <trkpt lat="42.442978000" lon="-2.498936000">
        <ele>444.00</ele>
        <time>2012-11-17T12:46:21Z</time>
      </trkpt>
      <trkpt lat="42.443016000" lon="-2.498961000">
        <ele>443.80</ele>
        <time>2012-11-17T12:46:23Z</time>
      </trkpt>
      <trkpt lat="42.443113000" lon="-2.499069000">
        <ele>443.10</ele>
        <time>2012-11-17T12:46:26Z</time>
      </trkpt>
      <trkpt lat="42.443155000" lon="-2.499079000">
        <ele>442.80</ele>
        <time>2012-11-17T12:46:26Z</time>
      </trkpt>
      <trkpt lat="42.443240000" lon="-2.499061000">
        <ele>442.50</ele>
        <time>2012-11-17T12:46:28Z</time>
      </trkpt>
      <trkpt lat="42.443326000" lon="-2.499009000">
        <ele>442.30</ele>
        <time>2012-11-17T12:46:31Z</time>
      </trkpt>
      <trkpt lat="42.443408000" lon="-2.498928000">
        <ele>442.20</ele>
        <time>2012-11-17T12:46:33Z</time>
      </trkpt>
      <trkpt lat="42.443511000" lon="-2.498789000">
        <ele>442.10</ele>
        <time>2012-11-17T12:46:35Z</time>
      </trkpt>
      <trkpt lat="42.443548000" lon="-2.498756000">
        <ele>442.00</ele>
        <time>2012-11-17T12:46:36Z</time>
      </trkpt>
      <trkpt lat="42.443638000" lon="-2.498714000">
        <ele>441.80</ele>
        <time>2012-11-17T12:46:38Z</time>
      </trkpt>
      <trkpt lat="42.443685000" lon="-2.498713000">
        <ele>441.60</ele>
        <time>2012-11-17T12:46:40Z</time>
      </trkpt>
      <trkpt lat="42.443886000" lon="-2.498776000">
        <ele>440.70</ele>
        <time>2012-11-17T12:46:43Z</time>
      </trkpt>
      <trkpt lat="42.444038000" lon="-2.498874000">
        <ele>440.00</ele>
        <time>2012-11-17T12:46:47Z</time>
      </trkpt>
      <trkpt lat="42.444130000" lon="-2.498968000">
        <ele>439.60</ele>
        <time>2012-11-17T12:46:49Z</time>
      </trkpt>
      <trkpt lat="42.444425000" lon="-2.499391000">
        <ele>438.00</ele>
        <time>2012-11-17T12:46:56Z</time>
      </trkpt>
      <trkpt lat="42.444573000" lon="-2.499524000">
        <ele>437.40</ele>
        <time>2012-11-17T12:46:59Z</time>
      </trkpt>
      <trkpt lat="42.444623000" lon="-2.499551000">
        <ele>437.20</ele>
        <time>2012-11-17T12:46:59Z</time>
      </trkpt>
      <trkpt lat="42.444678000" lon="-2.499563000">
        <ele>437.00</ele>
        <time>2012-11-17T12:47:01Z</time>
      </trkpt>
      <trkpt lat="42.444731000" lon="-2.499554000">
        <ele>436.80</ele>
        <time>2012-11-17T12:47:01Z</time>
      </trkpt>
      <trkpt lat="42.444783000" lon="-2.499531000">
        <ele>436.70</ele>
        <time>2012-11-17T12:47:03Z</time>
      </trkpt>
      <trkpt lat="42.444970000" lon="-2.499391000">
        <ele>436.60</ele>
        <time>2012-11-17T12:47:06Z</time>
      </trkpt>
      <trkpt lat="42.445661000" lon="-2.499116000">
        <ele>436.00</ele>
        <time>2012-11-17T12:47:20Z</time>
      </trkpt>
      <trkpt lat="42.446055000" lon="-2.499081000">
        <ele>433.80</ele>
        <time>2012-11-17T12:47:29Z</time>
      </trkpt>
      <trkpt lat="42.446105000" lon="-2.499086000">
        <ele>433.40</ele>
        <time>2012-11-17T12:47:29Z</time>
      </trkpt>
      <trkpt lat="42.446198000" lon="-2.499124000">
        <ele>432.80</ele>
        <time>2012-11-17T12:47:32Z</time>
      </trkpt>
      <trkpt lat="42.446236000" lon="-2.499154000">
        <ele>432.50</ele>
        <time>2012-11-17T12:47:32Z</time>
      </trkpt>
      <trkpt lat="42.446473000" lon="-2.499509000">
        <ele>432.50</ele>
        <time>2012-11-17T12:47:41Z</time>
      </trkpt>
      <trkpt lat="42.446510000" lon="-2.499546000">
        <ele>432.60</ele>
        <time>2012-11-17T12:47:41Z</time>
      </trkpt>
      <trkpt lat="42.446685000" lon="-2.499676000">
        <ele>433.10</ele>
        <time>2012-11-17T12:47:46Z</time>
      </trkpt>
      <trkpt lat="42.447046000" lon="-2.500204000">
        <ele>434.10</ele>
        <time>2012-11-17T12:47:55Z</time>
      </trkpt>
      <trkpt lat="42.447130000" lon="-2.500288000">
        <ele>434.20</ele>
        <time>2012-11-17T12:47:58Z</time>
      </trkpt>
      <trkpt lat="42.447176000" lon="-2.500321000">
        <ele>434.10</ele>
        <time>2012-11-17T12:47:58Z</time>
      </trkpt>
      <trkpt lat="42.447228000" lon="-2.500338000">
        <ele>433.90</ele>
        <time>2012-11-17T12:48:00Z</time>
      </trkpt>
      <trkpt lat="42.447281000" lon="-2.500338000">
        <ele>433.80</ele>
        <time>2012-11-17T12:48:00Z</time>
      </trkpt>
      <trkpt lat="42.447378000" lon="-2.500284000">
        <ele>433.60</ele>
        <time>2012-11-17T12:48:02Z</time>
      </trkpt>
      <trkpt lat="42.447458000" lon="-2.500179000">
        <ele>433.50</ele>
        <time>2012-11-17T12:48:05Z</time>
      </trkpt>
      <trkpt lat="42.447626000" lon="-2.499893000">
        <ele>433.50</ele>
        <time>2012-11-17T12:48:09Z</time>
      </trkpt>
      <trkpt lat="42.447680000" lon="-2.499839000">
        <ele>433.50</ele>
        <time>2012-11-17T12:48:09Z</time>
      </trkpt>
      <trkpt lat="42.447736000" lon="-2.499819000">
        <ele>433.40</ele>
        <time>2012-11-17T12:48:11Z</time>
      </trkpt>
      <trkpt lat="42.447850000" lon="-2.499863000">
        <ele>433.10</ele>
        <time>2012-11-17T12:48:12Z</time>
      </trkpt>
      <trkpt lat="42.447908000" lon="-2.499861000">
        <ele>432.90</ele>
        <time>2012-11-17T12:48:14Z</time>
      </trkpt>
      <trkpt lat="42.447961000" lon="-2.499836000">
        <ele>432.70</ele>
        <time>2012-11-17T12:48:14Z</time>
      </trkpt>
      <trkpt lat="42.448103000" lon="-2.499721000">
        <ele>432.00</ele>
        <time>2012-11-17T12:48:18Z</time>
      </trkpt>
      <trkpt lat="42.448140000" lon="-2.499669000">
        <ele>431.80</ele>
        <time>2012-11-17T12:48:19Z</time>
      </trkpt>
      <trkpt lat="42.448318000" lon="-2.499176000">
        <ele>431.60</ele>
        <time>2012-11-17T12:48:28Z</time>
      </trkpt>
      <trkpt lat="42.448385000" lon="-2.499091000">
        <ele>431.30</ele>
        <time>2012-11-17T12:48:30Z</time>
      </trkpt>
      <trkpt lat="42.448543000" lon="-2.498973000">
        <ele>430.30</ele>
        <time>2012-11-17T12:48:33Z</time>
      </trkpt>
      <trkpt lat="42.448605000" lon="-2.498901000">
        <ele>429.70</ele>
        <time>2012-11-17T12:48:35Z</time>
      </trkpt>
      <trkpt lat="42.448728000" lon="-2.498679000">
        <ele>428.50</ele>
        <time>2012-11-17T12:48:40Z</time>
      </trkpt>
      <trkpt lat="42.448746000" lon="-2.498634000">
        <ele>428.30</ele>
        <time>2012-11-17T12:48:42Z</time>
      </trkpt>
      <trkpt lat="42.448780000" lon="-2.498489000">
        <ele>428.00</ele>
        <time>2012-11-17T12:48:45Z</time>
      </trkpt>
      <trkpt lat="42.448783000" lon="-2.498441000">
        <ele>428.00</ele>
        <time>2012-11-17T12:48:45Z</time>
      </trkpt>
      <trkpt lat="42.448780000" lon="-2.498308000">
        <ele>428.00</ele>
        <time>2012-11-17T12:48:49Z</time>
      </trkpt>
      <trkpt lat="42.448785000" lon="-2.498276000">
        <ele>428.00</ele>
        <time>2012-11-17T12:48:49Z</time>
      </trkpt>
      <trkpt lat="42.448805000" lon="-2.498251000">
        <ele>428.00</ele>
        <time>2012-11-17T12:48:51Z</time>
      </trkpt>
      <trkpt lat="42.448833000" lon="-2.498228000">
        <ele>428.00</ele>
        <time>2012-11-17T12:48:52Z</time>
      </trkpt>
      <trkpt lat="42.448868000" lon="-2.498209000">
        <ele>428.00</ele>
        <time>2012-11-17T12:48:52Z</time>
      </trkpt>
      <trkpt lat="42.449010000" lon="-2.498193000">
        <ele>428.10</ele>
        <time>2012-11-17T12:48:56Z</time>
      </trkpt>
      <trkpt lat="42.449141000" lon="-2.498206000">
        <ele>428.20</ele>
        <time>2012-11-17T12:49:01Z</time>
      </trkpt>
      <trkpt lat="42.449221000" lon="-2.498198000">
        <ele>428.30</ele>
        <time>2012-11-17T12:49:03Z</time>
      </trkpt>
      <trkpt lat="42.449300000" lon="-2.498161000">
        <ele>428.40</ele>
        <time>2012-11-17T12:49:06Z</time>
      </trkpt>
      <trkpt lat="42.449783000" lon="-2.497749000">
        <ele>428.20</ele>
        <time>2012-11-17T12:49:22Z</time>
      </trkpt>
      <trkpt lat="42.449821000" lon="-2.497701000">
        <ele>427.90</ele>
        <time>2012-11-17T12:49:22Z</time>
      </trkpt>
      <trkpt lat="42.449880000" lon="-2.497574000">
        <ele>427.10</ele>
        <time>2012-11-17T12:49:24Z</time>
      </trkpt>
      <trkpt lat="42.449946000" lon="-2.497251000">
        <ele>426.10</ele>
        <time>2012-11-17T12:49:29Z</time>
      </trkpt>
      <trkpt lat="42.449943000" lon="-2.496694000">
        <ele>424.40</ele>
        <time>2012-11-17T12:49:34Z</time>
      </trkpt>
      <trkpt lat="42.450000000" lon="-2.496006000">
        <ele>422.00</ele>
        <time>2012-11-17T12:49:41Z</time>
      </trkpt>
      <trkpt lat="42.449966000" lon="-2.495371000">
        <ele>421.60</ele>
        <time>2012-11-17T12:49:48Z</time>
      </trkpt>
      <trkpt lat="42.449973000" lon="-2.495266000">
        <ele>421.50</ele>
        <time>2012-11-17T12:49:48Z</time>
      </trkpt>
      <trkpt lat="42.450003000" lon="-2.495066000">
        <ele>421.50</ele>
        <time>2012-11-17T12:49:50Z</time>
      </trkpt>
      <trkpt lat="42.450033000" lon="-2.494989000">
        <ele>421.40</ele>
        <time>2012-11-17T12:49:52Z</time>
      </trkpt>
      <trkpt lat="42.450071000" lon="-2.494936000">
        <ele>421.40</ele>
        <time>2012-11-17T12:49:53Z</time>
      </trkpt>
      <trkpt lat="42.450120000" lon="-2.494911000">
        <ele>421.40</ele>
        <time>2012-11-17T12:49:53Z</time>
      </trkpt>
      <trkpt lat="42.450170000" lon="-2.494919000">
        <ele>421.30</ele>
        <time>2012-11-17T12:49:55Z</time>
      </trkpt>
      <trkpt lat="42.450295000" lon="-2.495013000">
        <ele>421.20</ele>
        <time>2012-11-17T12:49:57Z</time>
      </trkpt>
      <trkpt lat="42.450336000" lon="-2.495019000">
        <ele>421.10</ele>
        <time>2012-11-17T12:49:59Z</time>
      </trkpt>
      <trkpt lat="42.450371000" lon="-2.494999000">
        <ele>421.10</ele>
        <time>2012-11-17T12:50:00Z</time>
      </trkpt>
      <trkpt lat="42.450398000" lon="-2.494963000">
        <ele>421.00</ele>
        <time>2012-11-17T12:50:00Z</time>
      </trkpt>
      <trkpt lat="42.450420000" lon="-2.494918000">
        <ele>421.00</ele>
        <time>2012-11-17T12:50:02Z</time>
      </trkpt>
      <trkpt lat="42.450933000" lon="-2.493141000">
        <ele>417.60</ele>
        <time>2012-11-17T12:50:26Z</time>
      </trkpt>
      <trkpt lat="42.451240000" lon="-2.491909000">
        <ele>416.60</ele>
        <time>2012-11-17T12:50:42Z</time>
      </trkpt>
      <trkpt lat="42.451705000" lon="-2.490148000">
        <ele>413.80</ele>
        <time>2012-11-17T12:51:08Z</time>
      </trkpt>
      <trkpt lat="42.451731000" lon="-2.490079000">
        <ele>413.80</ele>
        <time>2012-11-17T12:51:08Z</time>
      </trkpt>
      <trkpt lat="42.453046000" lon="-2.486659000">
        <ele>411.50</ele>
        <time>2012-11-17T12:52:04Z</time>
      </trkpt>
      <trkpt lat="42.453280000" lon="-2.484629000">
        <ele>407.90</ele>
        <time>2012-11-17T12:52:37Z</time>
      </trkpt>
      <trkpt lat="42.453295000" lon="-2.484564000">
        <ele>407.90</ele>
        <time>2012-11-17T12:52:37Z</time>
      </trkpt>
      <trkpt lat="42.454113000" lon="-2.481384000">
        <ele>408.60</ele>
        <time>2012-11-17T12:53:29Z</time>
      </trkpt>
      <trkpt lat="42.454163000" lon="-2.481279000">
        <ele>408.50</ele>
        <time>2012-11-17T12:53:31Z</time>
      </trkpt>
      <trkpt lat="42.454168000" lon="-2.481273000">
        <ele>408.50</ele>
        <time>2012-11-17T12:53:33Z</time>
      </trkpt>
      <trkpt lat="42.454168000" lon="-2.481266000">
        <ele>408.50</ele>
        <time>2012-11-17T12:53:33Z</time>
      </trkpt>
      <trkpt lat="42.454171000" lon="-2.481261000">
        <ele>408.50</ele>
        <time>2012-11-17T12:53:35Z</time>
      </trkpt>
      <trkpt lat="42.454175000" lon="-2.481259000">
        <ele>408.50</ele>
        <time>2012-11-17T12:53:36Z</time>
      </trkpt>
      <trkpt lat="42.454176000" lon="-2.481259000">
        <ele>408.40</ele>
        <time>2012-11-17T12:53:38Z</time>
      </trkpt>
      <trkpt lat="42.454185000" lon="-2.481253000">
        <ele>408.40</ele>
        <time>2012-11-17T12:53:45Z</time>
      </trkpt>
      <trkpt lat="42.454185000" lon="-2.481251000">
        <ele>408.40</ele>
        <time>2012-11-17T12:53:45Z</time>
      </trkpt>
      <trkpt lat="42.454198000" lon="-2.481248000">
        <ele>408.40</ele>
        <time>2012-11-17T12:53:59Z</time>
      </trkpt>
      <trkpt lat="42.454198000" lon="-2.481246000">
        <ele>408.40</ele>
        <time>2012-11-17T12:54:01Z</time>
      </trkpt>
      <trkpt lat="42.454208000" lon="-2.481246000">
        <ele>408.40</ele>
        <time>2012-11-17T12:54:18Z</time>
      </trkpt>
      <trkpt lat="42.454208000" lon="-2.481244000">
        <ele>408.40</ele>
        <time>2012-11-17T12:54:20Z</time>
      </trkpt>
      <trkpt lat="42.454211000" lon="-2.481244000">
        <ele>408.40</ele>
        <time>2012-11-17T12:54:25Z</time>
      </trkpt>
      <trkpt lat="42.454211000" lon="-2.481246000">
        <ele>408.40</ele>
        <time>2012-11-17T12:54:29Z</time>
      </trkpt>
      <trkpt lat="42.454215000" lon="-2.481246000">
        <ele>408.40</ele>
        <time>2012-11-17T12:54:37Z</time>
      </trkpt>
      <trkpt lat="42.454215000" lon="-2.481248000">
        <ele>408.40</ele>
        <time>2012-11-17T12:54:44Z</time>
      </trkpt>
      <trkpt lat="42.454218000" lon="-2.481249000">
        <ele>408.40</ele>
        <time>2012-11-17T12:54:53Z</time>
      </trkpt>
      <trkpt lat="42.454218000" lon="-2.481251000">
        <ele>408.40</ele>
        <time>2012-11-17T12:54:56Z</time>
      </trkpt>
      <trkpt lat="42.454218000" lon="-2.481241000">
        <ele>408.40</ele>
        <time>2012-11-17T12:55:07Z</time>
      </trkpt>
      <trkpt lat="42.454221000" lon="-2.481223000">
        <ele>408.40</ele>
        <time>2012-11-17T12:55:10Z</time>
      </trkpt>
      <trkpt lat="42.454225000" lon="-2.481209000">
        <ele>408.40</ele>
        <time>2012-11-17T12:55:10Z</time>
      </trkpt>
      <trkpt lat="42.454233000" lon="-2.481191000">
        <ele>408.40</ele>
        <time>2012-11-17T12:55:12Z</time>
      </trkpt>
      <trkpt lat="42.454241000" lon="-2.481163000">
        <ele>408.40</ele>
        <time>2012-11-17T12:55:12Z</time>
      </trkpt>
      <trkpt lat="42.454991000" lon="-2.479639000">
        <ele>407.50</ele>
        <time>2012-11-17T12:55:47Z</time>
      </trkpt>
      <trkpt lat="42.455008000" lon="-2.479586000">
        <ele>407.50</ele>
        <time>2012-11-17T12:55:47Z</time>
      </trkpt>
      <trkpt lat="42.455311000" lon="-2.477669000">
        <ele>406.30</ele>
        <time>2012-11-17T12:56:20Z</time>
      </trkpt>
      <trkpt lat="42.455321000" lon="-2.477533000">
        <ele>405.80</ele>
        <time>2012-11-17T12:56:22Z</time>
      </trkpt>
      <trkpt lat="42.455336000" lon="-2.477471000">
        <ele>405.60</ele>
        <time>2012-11-17T12:56:23Z</time>
      </trkpt>
      <trkpt lat="42.455363000" lon="-2.477421000">
        <ele>405.40</ele>
        <time>2012-11-17T12:56:25Z</time>
      </trkpt>
      <trkpt lat="42.455401000" lon="-2.477393000">
        <ele>405.30</ele>
        <time>2012-11-17T12:56:25Z</time>
      </trkpt>
      <trkpt lat="42.455446000" lon="-2.477386000">
        <ele>405.30</ele>
        <time>2012-11-17T12:56:27Z</time>
      </trkpt>
      <trkpt lat="42.455486000" lon="-2.477394000">
        <ele>405.50</ele>
        <time>2012-11-17T12:56:27Z</time>
      </trkpt>
      <trkpt lat="42.455518000" lon="-2.477414000">
        <ele>405.80</ele>
        <time>2012-11-17T12:56:29Z</time>
      </trkpt>
      <trkpt lat="42.455817000" lon="-2.477078000">
        <ele>407.00</ele>
        <time>2012-11-17T12:56:37Z</time>
      </trkpt>
      <trkpt lat="42.455871000" lon="-2.476986000">
        <ele>408.10</ele>
        <time>2012-11-17T12:56:41Z</time>
      </trkpt>
      <trkpt lat="42.455960000" lon="-2.476531000">
        <ele>408.70</ele>
        <time>2012-11-17T12:56:50Z</time>
      </trkpt>
      <trkpt lat="42.455963000" lon="-2.476488000">
        <ele>408.70</ele>
        <time>2012-11-17T12:56:51Z</time>
      </trkpt>
      <trkpt lat="42.456065000" lon="-2.475901000">
        <ele>409.00</ele>
        <time>2012-11-17T12:57:05Z</time>
      </trkpt>
      <trkpt lat="42.456071000" lon="-2.475871000">
        <ele>409.00</ele>
        <time>2012-11-17T12:57:07Z</time>
      </trkpt>
      <trkpt lat="42.456126000" lon="-2.475728000">
        <ele>409.30</ele>
        <time>2012-11-17T12:57:12Z</time>
      </trkpt>
      <trkpt lat="42.456145000" lon="-2.475664000">
        <ele>409.40</ele>
        <time>2012-11-17T12:57:16Z</time>
      </trkpt>
      <trkpt lat="42.456215000" lon="-2.475511000">
        <ele>409.70</ele>
        <time>2012-11-17T12:57:23Z</time>
      </trkpt>
      <trkpt lat="42.456266000" lon="-2.475434000">
        <ele>410.00</ele>
        <time>2012-11-17T12:57:28Z</time>
      </trkpt>
      <trkpt lat="42.456330000" lon="-2.475374000">
        <ele>410.20</ele>
        <time>2012-11-17T12:57:31Z</time>
      </trkpt>
      <trkpt lat="42.456361000" lon="-2.475358000">
        <ele>410.30</ele>
        <time>2012-11-17T12:57:33Z</time>
      </trkpt>
      <trkpt lat="42.456400000" lon="-2.475324000">
        <ele>410.40</ele>
        <time>2012-11-17T12:57:37Z</time>
      </trkpt>
      <trkpt lat="42.456413000" lon="-2.475316000">
        <ele>410.40</ele>
        <time>2012-11-17T12:57:37Z</time>
      </trkpt>
      <trkpt lat="42.456448000" lon="-2.475281000">
        <ele>410.50</ele>
        <time>2012-11-17T12:57:40Z</time>
      </trkpt>
      <trkpt lat="42.456468000" lon="-2.475248000">
        <ele>410.50</ele>
        <time>2012-11-17T12:57:42Z</time>
      </trkpt>
      <trkpt lat="42.456505000" lon="-2.475108000">
        <ele>410.40</ele>
        <time>2012-11-17T12:57:47Z</time>
      </trkpt>
      <trkpt lat="42.456541000" lon="-2.475046000">
        <ele>410.30</ele>
        <time>2012-11-17T12:57:49Z</time>
      </trkpt>
      <trkpt lat="42.456590000" lon="-2.474989000">
        <ele>410.30</ele>
        <time>2012-11-17T12:57:52Z</time>
      </trkpt>
      <trkpt lat="42.456611000" lon="-2.474956000">
        <ele>410.30</ele>
        <time>2012-11-17T12:57:52Z</time>
      </trkpt>
      <trkpt lat="42.456646000" lon="-2.474869000">
        <ele>410.30</ele>
        <time>2012-11-17T12:57:54Z</time>
      </trkpt>
      <trkpt lat="42.456721000" lon="-2.474491000">
        <ele>409.60</ele>
        <time>2012-11-17T12:58:01Z</time>
      </trkpt>
      <trkpt lat="42.457161000" lon="-2.472793000">
        <ele>410.60</ele>
        <time>2012-11-17T12:58:29Z</time>
      </trkpt>
      <trkpt lat="42.457166000" lon="-2.472779000">
        <ele>410.50</ele>
        <time>2012-11-17T12:58:31Z</time>
      </trkpt>
      <trkpt lat="42.457168000" lon="-2.472773000">
        <ele>410.40</ele>
        <time>2012-11-17T12:58:31Z</time>
      </trkpt>
      <trkpt lat="42.457171000" lon="-2.472761000">
        <ele>410.40</ele>
        <time>2012-11-17T12:58:38Z</time>
      </trkpt>
      <trkpt lat="42.457171000" lon="-2.472761000">
        <ele>410.40</ele>
        <time>2012-11-17T12:58:39Z</time>
      </trkpt>
      <trkpt lat="42.457173000" lon="-2.472751000">
        <ele>410.30</ele>
        <time>2012-11-17T12:58:43Z</time>
      </trkpt>
      <trkpt lat="42.457201000" lon="-2.472703000">
        <ele>410.20</ele>
        <time>2012-11-17T12:58:46Z</time>
      </trkpt>
      <trkpt lat="42.457240000" lon="-2.472679000">
        <ele>410.10</ele>
        <time>2012-11-17T12:58:48Z</time>
      </trkpt>
      <trkpt lat="42.457266000" lon="-2.472681000">
        <ele>410.10</ele>
        <time>2012-11-17T12:58:50Z</time>
      </trkpt>
      <trkpt lat="42.458045000" lon="-2.473078000">
        <ele>409.80</ele>
        <time>2012-11-17T12:59:11Z</time>
      </trkpt>
      <trkpt lat="42.458093000" lon="-2.473093000">
        <ele>409.70</ele>
        <time>2012-11-17T12:59:11Z</time>
      </trkpt>
      <trkpt lat="42.458138000" lon="-2.473084000">
        <ele>409.60</ele>
        <time>2012-11-17T12:59:12Z</time>
      </trkpt>
      <trkpt lat="42.458180000" lon="-2.473059000">
        <ele>409.50</ele>
        <time>2012-11-17T12:59:14Z</time>
      </trkpt>
      <trkpt lat="42.458213000" lon="-2.473018000">
        <ele>409.40</ele>
        <time>2012-11-17T12:59:14Z</time>
      </trkpt>
      <trkpt lat="42.459900000" lon="-2.466379000">
        <ele>403.00</ele>
        <time>2012-11-17T13:00:52Z</time>
      </trkpt>
      <trkpt lat="42.459916000" lon="-2.466341000">
        <ele>402.90</ele>
        <time>2012-11-17T13:00:54Z</time>
      </trkpt>
      <trkpt lat="42.459968000" lon="-2.466261000">
        <ele>402.30</ele>
        <time>2012-11-17T13:00:57Z</time>
      </trkpt>
      <trkpt lat="42.459990000" lon="-2.466248000">
        <ele>402.20</ele>
        <time>2012-11-17T13:00:57Z</time>
      </trkpt>
      <trkpt lat="42.460033000" lon="-2.466238000">
        <ele>401.90</ele>
        <time>2012-11-17T13:00:59Z</time>
      </trkpt>
      <trkpt lat="42.460050000" lon="-2.466238000">
        <ele>401.80</ele>
        <time>2012-11-17T13:01:00Z</time>
      </trkpt>
      <trkpt lat="42.460063000" lon="-2.466238000">
        <ele>401.70</ele>
        <time>2012-11-17T13:01:02Z</time>
      </trkpt>
      <trkpt lat="42.460068000" lon="-2.466234000">
        <ele>401.70</ele>
        <time>2012-11-17T13:01:04Z</time>
      </trkpt>
      <trkpt lat="42.460090000" lon="-2.466214000">
        <ele>401.50</ele>
        <time>2012-11-17T13:01:11Z</time>
      </trkpt>
      <trkpt lat="42.460091000" lon="-2.466209000">
        <ele>401.50</ele>
        <time>2012-11-17T13:01:13Z</time>
      </trkpt>
      <trkpt lat="42.460105000" lon="-2.466184000">
        <ele>401.50</ele>
        <time>2012-11-17T13:01:14Z</time>
      </trkpt>
      <trkpt lat="42.460130000" lon="-2.466088000">
        <ele>401.40</ele>
        <time>2012-11-17T13:01:20Z</time>
      </trkpt>
      <trkpt lat="42.460135000" lon="-2.466044000">
        <ele>401.40</ele>
        <time>2012-11-17T13:01:21Z</time>
      </trkpt>
      <trkpt lat="42.460138000" lon="-2.466034000">
        <ele>401.40</ele>
        <time>2012-11-17T13:01:23Z</time>
      </trkpt>
      <trkpt lat="42.460128000" lon="-2.465971000">
        <ele>401.40</ele>
        <time>2012-11-17T13:01:27Z</time>
      </trkpt>
      <trkpt lat="42.460136000" lon="-2.465929000">
        <ele>401.40</ele>
        <time>2012-11-17T13:01:28Z</time>
      </trkpt>
      <trkpt lat="42.460146000" lon="-2.465911000">
        <ele>401.40</ele>
        <time>2012-11-17T13:01:30Z</time>
      </trkpt>
      <trkpt lat="42.460155000" lon="-2.465886000">
        <ele>401.40</ele>
        <time>2012-11-17T13:01:30Z</time>
      </trkpt>
      <trkpt lat="42.460310000" lon="-2.464993000">
        <ele>401.80</ele>
        <time>2012-11-17T13:01:53Z</time>
      </trkpt>
      <trkpt lat="42.460351000" lon="-2.464856000">
        <ele>401.90</ele>
        <time>2012-11-17T13:01:56Z</time>
      </trkpt>
      <trkpt lat="42.460361000" lon="-2.464804000">
        <ele>401.90</ele>
        <time>2012-11-17T13:01:58Z</time>
      </trkpt>
      <trkpt lat="42.460623000" lon="-2.463548000">
        <ele>400.60</ele>
        <time>2012-11-17T13:02:26Z</time>
      </trkpt>
      <trkpt lat="42.460633000" lon="-2.463531000">
        <ele>400.50</ele>
        <time>2012-11-17T13:02:26Z</time>
      </trkpt>
      <trkpt lat="42.460660000" lon="-2.463511000">
        <ele>400.40</ele>
        <time>2012-11-17T13:02:29Z</time>
      </trkpt>
      <trkpt lat="42.460743000" lon="-2.463493000">
        <ele>400.20</ele>
        <time>2012-11-17T13:02:33Z</time>
      </trkpt>
      <trkpt lat="42.460813000" lon="-2.463493000">
        <ele>400.00</ele>
        <time>2012-11-17T13:02:36Z</time>
      </trkpt>
      <trkpt lat="42.460983000" lon="-2.463523000">
        <ele>399.70</ele>
        <time>2012-11-17T13:02:43Z</time>
      </trkpt>
      <trkpt lat="42.461003000" lon="-2.463531000">
        <ele>399.70</ele>
        <time>2012-11-17T13:02:43Z</time>
      </trkpt>
      <trkpt lat="42.461011000" lon="-2.463549000">
        <ele>399.70</ele>
        <time>2012-11-17T13:02:45Z</time>
      </trkpt>
      <trkpt lat="42.461005000" lon="-2.463571000">
        <ele>399.80</ele>
        <time>2012-11-17T13:02:45Z</time>
      </trkpt>
      <trkpt lat="42.460971000" lon="-2.463621000">
        <ele>400.10</ele>
        <time>2012-11-17T13:02:48Z</time>
      </trkpt>
      <trkpt lat="42.460951000" lon="-2.463659000">
        <ele>400.30</ele>
        <time>2012-11-17T13:02:50Z</time>
      </trkpt>
      <trkpt lat="42.460946000" lon="-2.463681000">
        <ele>400.40</ele>
        <time>2012-11-17T13:02:52Z</time>
      </trkpt>
      <trkpt lat="42.460945000" lon="-2.463704000">
        <ele>400.60</ele>
        <time>2012-11-17T13:02:52Z</time>
      </trkpt>
      <trkpt lat="42.460936000" lon="-2.463753000">
        <ele>400.80</ele>
        <time>2012-11-17T13:02:54Z</time>
      </trkpt>
      <trkpt lat="42.460930000" lon="-2.463771000">
        <ele>400.90</ele>
        <time>2012-11-17T13:02:55Z</time>
      </trkpt>
      <trkpt lat="42.460923000" lon="-2.463816000">
        <ele>400.90</ele>
        <time>2012-11-17T13:02:57Z</time>
      </trkpt>
      <trkpt lat="42.460888000" lon="-2.463904000">
        <ele>401.00</ele>
        <time>2012-11-17T13:03:01Z</time>
      </trkpt>
      <trkpt lat="42.460886000" lon="-2.463931000">
        <ele>401.00</ele>
        <time>2012-11-17T13:03:02Z</time>
      </trkpt>
      <trkpt lat="42.460883000" lon="-2.463946000">
        <ele>401.00</ele>
        <time>2012-11-17T13:03:04Z</time>
      </trkpt>
      <trkpt lat="42.460885000" lon="-2.463953000">
        <ele>401.00</ele>
        <time>2012-11-17T13:03:04Z</time>
      </trkpt>
      <trkpt lat="42.460888000" lon="-2.463959000">
        <ele>401.10</ele>
        <time>2012-11-17T13:03:06Z</time>
      </trkpt>
      <trkpt lat="42.460893000" lon="-2.463968000">
        <ele>401.10</ele>
        <time>2012-11-17T13:03:08Z</time>
      </trkpt>
      <trkpt lat="42.460900000" lon="-2.463991000">
        <ele>401.10</ele>
        <time>2012-11-17T13:03:11Z</time>
      </trkpt>
      <trkpt lat="42.460908000" lon="-2.464003000">
        <ele>401.10</ele>
        <time>2012-11-17T13:03:13Z</time>
      </trkpt>
      <trkpt lat="42.460925000" lon="-2.464021000">
        <ele>401.10</ele>
        <time>2012-11-17T13:03:16Z</time>
      </trkpt>
      <trkpt lat="42.460938000" lon="-2.464038000">
        <ele>401.10</ele>
        <time>2012-11-17T13:03:18Z</time>
      </trkpt>
    </trkseg>
  </trk>
</gpx>
